<?xml version="1.0" encoding="UTF-8" standalone="no" ?>
<gpx xmlns="http://www.topografix.com/GPX/1/1" xmlns:xsi="http://www.w3.org/2001/XMLSchema-instance" xsi:schemaLocation="http://www.topografix.com/GPX/1/1 http://www.topografix.com/GPX/1/1/gpx.xsd" version="1.1" creator="VisuGPX - https://www.visugpx.com">
  <metadata>
    <name>Tournefeuille Cyclisme sur route</name>
  </metadata>
  <trk>
    <name><![CDATA[Tournefeuille Cyclisme sur route_1]]></name>
    <trkseg>
      <trkpt lat="43.58702" lon="1.32273">
        <ele>185.6</ele>
        <time>2023-11-19T07:46:34Z</time>
      </trkpt>
      <trkpt lat="43.5869" lon="1.32242">
        <ele>185.6</ele>
        <time>2023-11-19T07:46:35Z</time>
      </trkpt>
      <trkpt lat="43.58688" lon="1.32209">
        <ele>185.8</ele>
        <time>2023-11-19T07:47:05Z</time>
      </trkpt>
      <trkpt lat="43.58687" lon="1.32201">
        <ele>185.8</ele>
        <time>2023-11-19T07:47:07Z</time>
      </trkpt>
      <trkpt lat="43.58688" lon="1.32171">
        <ele>186.4</ele>
        <time>2023-11-19T07:47:13Z</time>
      </trkpt>
      <trkpt lat="43.58688" lon="1.32165">
        <ele>186.6</ele>
        <time>2023-11-19T07:47:14Z</time>
      </trkpt>
      <trkpt lat="43.5869" lon="1.32124">
        <ele>187.4</ele>
        <time>2023-11-19T07:47:20Z</time>
      </trkpt>
      <trkpt lat="43.58691" lon="1.32116">
        <ele>187.6</ele>
        <time>2023-11-19T07:47:21Z</time>
      </trkpt>
      <trkpt lat="43.58691" lon="1.3209">
        <ele>188</ele>
        <time>2023-11-19T07:47:24Z</time>
      </trkpt>
      <trkpt lat="43.58691" lon="1.32075">
        <ele>188</ele>
        <time>2023-11-19T07:47:26Z</time>
      </trkpt>
      <trkpt lat="43.58691" lon="1.32031">
        <ele>188.2</ele>
        <time>2023-11-19T07:47:31Z</time>
      </trkpt>
      <trkpt lat="43.5869" lon="1.32023">
        <ele>188.2</ele>
        <time>2023-11-19T07:47:32Z</time>
      </trkpt>
      <trkpt lat="43.58684" lon="1.31984">
        <ele>188.2</ele>
        <time>2023-11-19T07:47:37Z</time>
      </trkpt>
      <trkpt lat="43.58677" lon="1.31973">
        <ele>188.2</ele>
        <time>2023-11-19T07:47:39Z</time>
      </trkpt>
      <trkpt lat="43.58674" lon="1.31968">
        <ele>188.4</ele>
        <time>2023-11-19T07:47:40Z</time>
      </trkpt>
      <trkpt lat="43.5867" lon="1.31963">
        <ele>188.4</ele>
        <time>2023-11-19T07:47:41Z</time>
      </trkpt>
      <trkpt lat="43.58659" lon="1.31944">
        <ele>188.6</ele>
        <time>2023-11-19T07:47:44Z</time>
      </trkpt>
      <trkpt lat="43.58651" lon="1.31931">
        <ele>188.8</ele>
        <time>2023-11-19T07:47:46Z</time>
      </trkpt>
      <trkpt lat="43.58631" lon="1.31897">
        <ele>189.2</ele>
        <time>2023-11-19T07:47:51Z</time>
      </trkpt>
      <trkpt lat="43.58627" lon="1.3189">
        <ele>189.2</ele>
        <time>2023-11-19T07:47:52Z</time>
      </trkpt>
      <trkpt lat="43.58611" lon="1.31876">
        <ele>189.4</ele>
        <time>2023-11-19T07:47:55Z</time>
      </trkpt>
      <trkpt lat="43.58573" lon="1.31845">
        <ele>189.8</ele>
        <time>2023-11-19T07:48:02Z</time>
      </trkpt>
      <trkpt lat="43.58568" lon="1.31841">
        <ele>189.8</ele>
        <time>2023-11-19T07:48:03Z</time>
      </trkpt>
      <trkpt lat="43.58557" lon="1.31831">
        <ele>190</ele>
        <time>2023-11-19T07:48:05Z</time>
      </trkpt>
      <trkpt lat="43.58532" lon="1.31805">
        <ele>190.6</ele>
        <time>2023-11-19T07:48:10Z</time>
      </trkpt>
      <trkpt lat="43.58522" lon="1.31793">
        <ele>190.8</ele>
        <time>2023-11-19T07:48:12Z</time>
      </trkpt>
      <trkpt lat="43.58488" lon="1.31753">
        <ele>191.2</ele>
        <time>2023-11-19T07:48:19Z</time>
      </trkpt>
      <trkpt lat="43.58464" lon="1.31726">
        <ele>191.8</ele>
        <time>2023-11-19T07:48:24Z</time>
      </trkpt>
      <trkpt lat="43.58436" lon="1.31691">
        <ele>192</ele>
        <time>2023-11-19T07:48:30Z</time>
      </trkpt>
      <trkpt lat="43.58431" lon="1.31685">
        <ele>192.2</ele>
        <time>2023-11-19T07:48:31Z</time>
      </trkpt>
      <trkpt lat="43.58402" lon="1.31649">
        <ele>192.2</ele>
        <time>2023-11-19T07:48:38Z</time>
      </trkpt>
      <trkpt lat="43.584" lon="1.31648">
        <ele>192.2</ele>
        <time>2023-11-19T07:48:39Z</time>
      </trkpt>
      <trkpt lat="43.58392" lon="1.31641">
        <ele>191.8</ele>
        <time>2023-11-19T07:48:42Z</time>
      </trkpt>
      <trkpt lat="43.58382" lon="1.3163">
        <ele>191.2</ele>
        <time>2023-11-19T07:48:45Z</time>
      </trkpt>
      <trkpt lat="43.58372" lon="1.31619">
        <ele>190.8</ele>
        <time>2023-11-19T07:48:47Z</time>
      </trkpt>
      <trkpt lat="43.58367" lon="1.31612">
        <ele>190.8</ele>
        <time>2023-11-19T07:48:48Z</time>
      </trkpt>
      <trkpt lat="43.58356" lon="1.31601">
        <ele>189.6</ele>
        <time>2023-11-19T07:48:50Z</time>
      </trkpt>
      <trkpt lat="43.58344" lon="1.31588">
        <ele>188.6</ele>
        <time>2023-11-19T07:48:52Z</time>
      </trkpt>
      <trkpt lat="43.58338" lon="1.31582">
        <ele>188</ele>
        <time>2023-11-19T07:48:53Z</time>
      </trkpt>
      <trkpt lat="43.58333" lon="1.31578">
        <ele>187.2</ele>
        <time>2023-11-19T07:48:54Z</time>
      </trkpt>
      <trkpt lat="43.58329" lon="1.31574">
        <ele>187</ele>
        <time>2023-11-19T07:48:55Z</time>
      </trkpt>
      <trkpt lat="43.58325" lon="1.31571">
        <ele>185.8</ele>
        <time>2023-11-19T07:48:56Z</time>
      </trkpt>
      <trkpt lat="43.58319" lon="1.31567">
        <ele>184.4</ele>
        <time>2023-11-19T07:48:58Z</time>
      </trkpt>
      <trkpt lat="43.58316" lon="1.31567">
        <ele>183</ele>
        <time>2023-11-19T07:48:59Z</time>
      </trkpt>
      <trkpt lat="43.58308" lon="1.31559">
        <ele>181.4</ele>
        <time>2023-11-19T07:49:01Z</time>
      </trkpt>
      <trkpt lat="43.58298" lon="1.31549">
        <ele>180</ele>
        <time>2023-11-19T07:49:03Z</time>
      </trkpt>
      <trkpt lat="43.58287" lon="1.31538">
        <ele>178.8</ele>
        <time>2023-11-19T07:49:05Z</time>
      </trkpt>
      <trkpt lat="43.58281" lon="1.31532">
        <ele>178.2</ele>
        <time>2023-11-19T07:49:06Z</time>
      </trkpt>
      <trkpt lat="43.58275" lon="1.31527">
        <ele>177.6</ele>
        <time>2023-11-19T07:49:07Z</time>
      </trkpt>
      <trkpt lat="43.58263" lon="1.31517">
        <ele>176.2</ele>
        <time>2023-11-19T07:49:09Z</time>
      </trkpt>
      <trkpt lat="43.58257" lon="1.31512">
        <ele>175.6</ele>
        <time>2023-11-19T07:49:10Z</time>
      </trkpt>
      <trkpt lat="43.5825" lon="1.31507">
        <ele>175.2</ele>
        <time>2023-11-19T07:49:11Z</time>
      </trkpt>
      <trkpt lat="43.58229" lon="1.31492">
        <ele>173.8</ele>
        <time>2023-11-19T07:49:14Z</time>
      </trkpt>
      <trkpt lat="43.58206" lon="1.31461">
        <ele>172.6</ele>
        <time>2023-11-19T07:49:18Z</time>
      </trkpt>
      <trkpt lat="43.58183" lon="1.31429">
        <ele>171.6</ele>
        <time>2023-11-19T07:49:22Z</time>
      </trkpt>
      <trkpt lat="43.58172" lon="1.31413">
        <ele>170.8</ele>
        <time>2023-11-19T07:49:24Z</time>
      </trkpt>
      <trkpt lat="43.58161" lon="1.31398">
        <ele>170.4</ele>
        <time>2023-11-19T07:49:26Z</time>
      </trkpt>
      <trkpt lat="43.58134" lon="1.31359">
        <ele>169.2</ele>
        <time>2023-11-19T07:49:31Z</time>
      </trkpt>
      <trkpt lat="43.58117" lon="1.31337">
        <ele>168.6</ele>
        <time>2023-11-19T07:49:34Z</time>
      </trkpt>
      <trkpt lat="43.58105" lon="1.31321">
        <ele>168.2</ele>
        <time>2023-11-19T07:49:36Z</time>
      </trkpt>
      <trkpt lat="43.5807" lon="1.3127">
        <ele>167.6</ele>
        <time>2023-11-19T07:49:43Z</time>
      </trkpt>
      <trkpt lat="43.58054" lon="1.31248">
        <ele>167.4</ele>
        <time>2023-11-19T07:49:46Z</time>
      </trkpt>
      <trkpt lat="43.58031" lon="1.3122">
        <ele>167.2</ele>
        <time>2023-11-19T07:49:50Z</time>
      </trkpt>
      <trkpt lat="43.58026" lon="1.31213">
        <ele>167.2</ele>
        <time>2023-11-19T07:49:51Z</time>
      </trkpt>
      <trkpt lat="43.57988" lon="1.31166">
        <ele>167.2</ele>
        <time>2023-11-19T07:49:58Z</time>
      </trkpt>
      <trkpt lat="43.57943" lon="1.31114">
        <ele>167.4</ele>
        <time>2023-11-19T07:50:06Z</time>
      </trkpt>
      <trkpt lat="43.57937" lon="1.31108">
        <ele>167.2</ele>
        <time>2023-11-19T07:50:07Z</time>
      </trkpt>
      <trkpt lat="43.57901" lon="1.31071">
        <ele>167.2</ele>
        <time>2023-11-19T07:50:13Z</time>
      </trkpt>
      <trkpt lat="43.57878" lon="1.31048">
        <ele>167.2</ele>
        <time>2023-11-19T07:50:17Z</time>
      </trkpt>
      <trkpt lat="43.57836" lon="1.31006">
        <ele>167.2</ele>
        <time>2023-11-19T07:50:24Z</time>
      </trkpt>
      <trkpt lat="43.57813" lon="1.30983">
        <ele>167.2</ele>
        <time>2023-11-19T07:50:28Z</time>
      </trkpt>
      <trkpt lat="43.57774" lon="1.30941">
        <ele>167</ele>
        <time>2023-11-19T07:50:35Z</time>
      </trkpt>
      <trkpt lat="43.5773" lon="1.30895">
        <ele>167</ele>
        <time>2023-11-19T07:50:43Z</time>
      </trkpt>
      <trkpt lat="43.57707" lon="1.30872">
        <ele>167.2</ele>
        <time>2023-11-19T07:50:47Z</time>
      </trkpt>
      <trkpt lat="43.57701" lon="1.30866">
        <ele>167.2</ele>
        <time>2023-11-19T07:50:48Z</time>
      </trkpt>
      <trkpt lat="43.57656" lon="1.30819">
        <ele>167.4</ele>
        <time>2023-11-19T07:50:56Z</time>
      </trkpt>
      <trkpt lat="43.57618" lon="1.30771">
        <ele>167.2</ele>
        <time>2023-11-19T07:51:04Z</time>
      </trkpt>
      <trkpt lat="43.57584" lon="1.30727">
        <ele>167.2</ele>
        <time>2023-11-19T07:51:12Z</time>
      </trkpt>
      <trkpt lat="43.5758" lon="1.30721">
        <ele>167.2</ele>
        <time>2023-11-19T07:51:13Z</time>
      </trkpt>
      <trkpt lat="43.5755" lon="1.30683">
        <ele>167</ele>
        <time>2023-11-19T07:51:20Z</time>
      </trkpt>
      <trkpt lat="43.57511" lon="1.30638">
        <ele>166.8</ele>
        <time>2023-11-19T07:51:29Z</time>
      </trkpt>
      <trkpt lat="43.57474" lon="1.306">
        <ele>166.6</ele>
        <time>2023-11-19T07:51:37Z</time>
      </trkpt>
      <trkpt lat="43.5747" lon="1.30595">
        <ele>166.6</ele>
        <time>2023-11-19T07:51:38Z</time>
      </trkpt>
      <trkpt lat="43.57441" lon="1.30566">
        <ele>166.4</ele>
        <time>2023-11-19T07:51:44Z</time>
      </trkpt>
      <trkpt lat="43.57423" lon="1.30546">
        <ele>166.4</ele>
        <time>2023-11-19T07:51:48Z</time>
      </trkpt>
      <trkpt lat="43.57377" lon="1.30497">
        <ele>166.8</ele>
        <time>2023-11-19T07:51:58Z</time>
      </trkpt>
      <trkpt lat="43.57372" lon="1.30492">
        <ele>166.8</ele>
        <time>2023-11-19T07:51:59Z</time>
      </trkpt>
      <trkpt lat="43.57329" lon="1.30446">
        <ele>166.8</ele>
        <time>2023-11-19T07:52:08Z</time>
      </trkpt>
      <trkpt lat="43.57321" lon="1.30437">
        <ele>167</ele>
        <time>2023-11-19T07:52:10Z</time>
      </trkpt>
      <trkpt lat="43.57306" lon="1.30419">
        <ele>167</ele>
        <time>2023-11-19T07:52:14Z</time>
      </trkpt>
      <trkpt lat="43.57304" lon="1.30416">
        <ele>167</ele>
        <time>2023-11-19T07:52:15Z</time>
      </trkpt>
      <trkpt lat="43.57284" lon="1.30396">
        <ele>167</ele>
        <time>2023-11-19T07:52:20Z</time>
      </trkpt>
      <trkpt lat="43.57279" lon="1.30391">
        <ele>167</ele>
        <time>2023-11-19T07:52:21Z</time>
      </trkpt>
      <trkpt lat="43.57246" lon="1.30352">
        <ele>166.8</ele>
        <time>2023-11-19T07:52:29Z</time>
      </trkpt>
      <trkpt lat="43.57212" lon="1.30314">
        <ele>166.8</ele>
        <time>2023-11-19T07:52:36Z</time>
      </trkpt>
      <trkpt lat="43.5717" lon="1.30268">
        <ele>166.8</ele>
        <time>2023-11-19T07:52:45Z</time>
      </trkpt>
      <trkpt lat="43.57145" lon="1.3024">
        <ele>166.8</ele>
        <time>2023-11-19T07:52:51Z</time>
      </trkpt>
      <trkpt lat="43.57116" lon="1.30206">
        <ele>166.6</ele>
        <time>2023-11-19T07:52:58Z</time>
      </trkpt>
      <trkpt lat="43.57106" lon="1.30189">
        <ele>166.6</ele>
        <time>2023-11-19T07:53:01Z</time>
      </trkpt>
      <trkpt lat="43.57097" lon="1.30172">
        <ele>166.8</ele>
        <time>2023-11-19T07:53:04Z</time>
      </trkpt>
      <trkpt lat="43.57075" lon="1.30107">
        <ele>167.2</ele>
        <time>2023-11-19T07:53:13Z</time>
      </trkpt>
      <trkpt lat="43.57054" lon="1.30032">
        <ele>167.4</ele>
        <time>2023-11-19T07:53:23Z</time>
      </trkpt>
      <trkpt lat="43.57042" lon="1.29989">
        <ele>167.4</ele>
        <time>2023-11-19T07:53:29Z</time>
      </trkpt>
      <trkpt lat="43.57024" lon="1.29927">
        <ele>167.6</ele>
        <time>2023-11-19T07:53:37Z</time>
      </trkpt>
      <trkpt lat="43.5702" lon="1.29913">
        <ele>167.6</ele>
        <time>2023-11-19T07:53:39Z</time>
      </trkpt>
      <trkpt lat="43.57004" lon="1.29859">
        <ele>167.8</ele>
        <time>2023-11-19T07:53:46Z</time>
      </trkpt>
      <trkpt lat="43.56987" lon="1.29799">
        <ele>168</ele>
        <time>2023-11-19T07:53:54Z</time>
      </trkpt>
      <trkpt lat="43.56983" lon="1.29786">
        <ele>168.2</ele>
        <time>2023-11-19T07:53:56Z</time>
      </trkpt>
      <trkpt lat="43.56962" lon="1.29717">
        <ele>168</ele>
        <time>2023-11-19T07:54:05Z</time>
      </trkpt>
      <trkpt lat="43.56938" lon="1.29644">
        <ele>168.2</ele>
        <time>2023-11-19T07:54:15Z</time>
      </trkpt>
      <trkpt lat="43.56919" lon="1.2959">
        <ele>168.4</ele>
        <time>2023-11-19T07:54:23Z</time>
      </trkpt>
      <trkpt lat="43.56918" lon="1.29585">
        <ele>168.6</ele>
        <time>2023-11-19T07:54:24Z</time>
      </trkpt>
      <trkpt lat="43.56913" lon="1.29571">
        <ele>168.8</ele>
        <time>2023-11-19T07:54:28Z</time>
      </trkpt>
      <trkpt lat="43.56909" lon="1.29559">
        <ele>168.8</ele>
        <time>2023-11-19T07:54:34Z</time>
      </trkpt>
      <trkpt lat="43.56904" lon="1.29545">
        <ele>168.8</ele>
        <time>2023-11-19T07:54:40Z</time>
      </trkpt>
      <trkpt lat="43.56897" lon="1.29515">
        <ele>168.6</ele>
        <time>2023-11-19T07:54:46Z</time>
      </trkpt>
      <trkpt lat="43.56882" lon="1.29462">
        <ele>168</ele>
        <time>2023-11-19T07:54:54Z</time>
      </trkpt>
      <trkpt lat="43.56863" lon="1.29386">
        <ele>168.4</ele>
        <time>2023-11-19T07:55:05Z</time>
      </trkpt>
      <trkpt lat="43.56846" lon="1.29315">
        <ele>168.8</ele>
        <time>2023-11-19T07:55:15Z</time>
      </trkpt>
      <trkpt lat="43.56831" lon="1.29254">
        <ele>169.2</ele>
        <time>2023-11-19T07:55:23Z</time>
      </trkpt>
      <trkpt lat="43.56811" lon="1.29182">
        <ele>169.6</ele>
        <time>2023-11-19T07:55:33Z</time>
      </trkpt>
      <trkpt lat="43.56809" lon="1.29174">
        <ele>169.6</ele>
        <time>2023-11-19T07:55:34Z</time>
      </trkpt>
      <trkpt lat="43.56807" lon="1.29167">
        <ele>169.8</ele>
        <time>2023-11-19T07:55:35Z</time>
      </trkpt>
      <trkpt lat="43.56794" lon="1.29119">
        <ele>170.6</ele>
        <time>2023-11-19T07:55:42Z</time>
      </trkpt>
      <trkpt lat="43.56792" lon="1.29113">
        <ele>170.8</ele>
        <time>2023-11-19T07:55:43Z</time>
      </trkpt>
      <trkpt lat="43.56778" lon="1.29064">
        <ele>171.2</ele>
        <time>2023-11-19T07:55:51Z</time>
      </trkpt>
      <trkpt lat="43.56772" lon="1.2904">
        <ele>171.6</ele>
        <time>2023-11-19T07:55:56Z</time>
      </trkpt>
      <trkpt lat="43.56768" lon="1.29029">
        <ele>171.8</ele>
        <time>2023-11-19T07:56:00Z</time>
      </trkpt>
      <trkpt lat="43.56768" lon="1.29027">
        <ele>171.8</ele>
        <time>2023-11-19T07:56:01Z</time>
      </trkpt>
      <trkpt lat="43.56766" lon="1.29023">
        <ele>172</ele>
        <time>2023-11-19T07:56:07Z</time>
      </trkpt>
      <trkpt lat="43.56762" lon="1.29021">
        <ele>172</ele>
        <time>2023-11-19T07:56:37Z</time>
      </trkpt>
      <trkpt lat="43.56756" lon="1.29021">
        <ele>171.8</ele>
        <time>2023-11-19T07:56:39Z</time>
      </trkpt>
      <trkpt lat="43.56747" lon="1.29026">
        <ele>171.6</ele>
        <time>2023-11-19T07:56:41Z</time>
      </trkpt>
      <trkpt lat="43.56739" lon="1.29034">
        <ele>171.6</ele>
        <time>2023-11-19T07:56:43Z</time>
      </trkpt>
      <trkpt lat="43.56711" lon="1.29066">
        <ele>171.2</ele>
        <time>2023-11-19T07:56:49Z</time>
      </trkpt>
      <trkpt lat="43.56685" lon="1.29093">
        <ele>170.6</ele>
        <time>2023-11-19T07:56:54Z</time>
      </trkpt>
      <trkpt lat="43.56674" lon="1.29105">
        <ele>170.4</ele>
        <time>2023-11-19T07:56:56Z</time>
      </trkpt>
      <trkpt lat="43.56663" lon="1.29109">
        <ele>170</ele>
        <time>2023-11-19T07:56:58Z</time>
      </trkpt>
      <trkpt lat="43.56658" lon="1.29104">
        <ele>169.8</ele>
        <time>2023-11-19T07:56:59Z</time>
      </trkpt>
      <trkpt lat="43.56654" lon="1.29098">
        <ele>169.6</ele>
        <time>2023-11-19T07:57:00Z</time>
      </trkpt>
      <trkpt lat="43.56645" lon="1.29083">
        <ele>169.6</ele>
        <time>2023-11-19T07:57:02Z</time>
      </trkpt>
      <trkpt lat="43.56606" lon="1.29027">
        <ele>169</ele>
        <time>2023-11-19T07:57:10Z</time>
      </trkpt>
      <trkpt lat="43.56595" lon="1.2901">
        <ele>169</ele>
        <time>2023-11-19T07:57:12Z</time>
      </trkpt>
      <trkpt lat="43.56557" lon="1.2895">
        <ele>168.8</ele>
        <time>2023-11-19T07:57:20Z</time>
      </trkpt>
      <trkpt lat="43.56548" lon="1.28937">
        <ele>168.8</ele>
        <time>2023-11-19T07:57:22Z</time>
      </trkpt>
      <trkpt lat="43.56511" lon="1.28878">
        <ele>168.6</ele>
        <time>2023-11-19T07:57:30Z</time>
      </trkpt>
      <trkpt lat="43.56507" lon="1.28872">
        <ele>168.6</ele>
        <time>2023-11-19T07:57:31Z</time>
      </trkpt>
      <trkpt lat="43.56503" lon="1.28867">
        <ele>168.6</ele>
        <time>2023-11-19T07:57:32Z</time>
      </trkpt>
      <trkpt lat="43.56492" lon="1.28865">
        <ele>168.6</ele>
        <time>2023-11-19T07:57:34Z</time>
      </trkpt>
      <trkpt lat="43.56488" lon="1.28876">
        <ele>168.6</ele>
        <time>2023-11-19T07:57:36Z</time>
      </trkpt>
      <trkpt lat="43.56487" lon="1.28885">
        <ele>168.6</ele>
        <time>2023-11-19T07:57:37Z</time>
      </trkpt>
      <trkpt lat="43.56486" lon="1.28892">
        <ele>168.6</ele>
        <time>2023-11-19T07:57:38Z</time>
      </trkpt>
      <trkpt lat="43.5648" lon="1.28907">
        <ele>168.6</ele>
        <time>2023-11-19T07:57:40Z</time>
      </trkpt>
      <trkpt lat="43.5646" lon="1.28956">
        <ele>168.4</ele>
        <time>2023-11-19T07:57:46Z</time>
      </trkpt>
      <trkpt lat="43.56456" lon="1.28964">
        <ele>168.4</ele>
        <time>2023-11-19T07:57:47Z</time>
      </trkpt>
      <trkpt lat="43.56431" lon="1.29021">
        <ele>167.8</ele>
        <time>2023-11-19T07:57:54Z</time>
      </trkpt>
      <trkpt lat="43.564" lon="1.29085">
        <ele>167.6</ele>
        <time>2023-11-19T07:58:02Z</time>
      </trkpt>
      <trkpt lat="43.56389" lon="1.29096">
        <ele>167.4</ele>
        <time>2023-11-19T07:58:04Z</time>
      </trkpt>
      <trkpt lat="43.56383" lon="1.29101">
        <ele>167.4</ele>
        <time>2023-11-19T07:58:05Z</time>
      </trkpt>
      <trkpt lat="43.56377" lon="1.29106">
        <ele>167.4</ele>
        <time>2023-11-19T07:58:06Z</time>
      </trkpt>
      <trkpt lat="43.56366" lon="1.29114">
        <ele>167.4</ele>
        <time>2023-11-19T07:58:08Z</time>
      </trkpt>
      <trkpt lat="43.56354" lon="1.29116">
        <ele>167.6</ele>
        <time>2023-11-19T07:58:10Z</time>
      </trkpt>
      <trkpt lat="43.56338" lon="1.29118">
        <ele>167.6</ele>
        <time>2023-11-19T07:58:13Z</time>
      </trkpt>
      <trkpt lat="43.56332" lon="1.29119">
        <ele>167.6</ele>
        <time>2023-11-19T07:58:14Z</time>
      </trkpt>
      <trkpt lat="43.56327" lon="1.29122">
        <ele>167.6</ele>
        <time>2023-11-19T07:58:15Z</time>
      </trkpt>
      <trkpt lat="43.5632" lon="1.29129">
        <ele>167.6</ele>
        <time>2023-11-19T07:58:17Z</time>
      </trkpt>
      <trkpt lat="43.56317" lon="1.29131">
        <ele>167.8</ele>
        <time>2023-11-19T07:58:18Z</time>
      </trkpt>
      <trkpt lat="43.56311" lon="1.29129">
        <ele>167.8</ele>
        <time>2023-11-19T07:58:20Z</time>
      </trkpt>
      <trkpt lat="43.56306" lon="1.29114">
        <ele>167.8</ele>
        <time>2023-11-19T07:58:24Z</time>
      </trkpt>
      <trkpt lat="43.56295" lon="1.2909">
        <ele>167.8</ele>
        <time>2023-11-19T07:58:29Z</time>
      </trkpt>
      <trkpt lat="43.56289" lon="1.29074">
        <ele>168</ele>
        <time>2023-11-19T07:58:33Z</time>
      </trkpt>
      <trkpt lat="43.56282" lon="1.29079">
        <ele>168</ele>
        <time>2023-11-19T07:58:36Z</time>
      </trkpt>
      <trkpt lat="43.56263" lon="1.29095">
        <ele>168</ele>
        <time>2023-11-19T07:58:41Z</time>
      </trkpt>
      <trkpt lat="43.56258" lon="1.29098">
        <ele>168</ele>
        <time>2023-11-19T07:58:42Z</time>
      </trkpt>
      <trkpt lat="43.56238" lon="1.29113">
        <ele>168</ele>
        <time>2023-11-19T07:58:47Z</time>
      </trkpt>
      <trkpt lat="43.56226" lon="1.29123">
        <ele>168</ele>
        <time>2023-11-19T07:58:52Z</time>
      </trkpt>
      <trkpt lat="43.56224" lon="1.29124">
        <ele>168.2</ele>
        <time>2023-11-19T07:58:56Z</time>
      </trkpt>
      <trkpt lat="43.56224" lon="1.29124">
        <ele>168.2</ele>
        <time>2023-11-19T07:58:57Z</time>
      </trkpt>
      <trkpt lat="43.56234" lon="1.29115">
        <ele>167.2</ele>
        <time>2023-11-19T08:03:44Z</time>
      </trkpt>
      <trkpt lat="43.56239" lon="1.2911">
        <ele>167.2</ele>
        <time>2023-11-19T08:03:46Z</time>
      </trkpt>
      <trkpt lat="43.56252" lon="1.29095">
        <ele>167.2</ele>
        <time>2023-11-19T08:03:52Z</time>
      </trkpt>
      <trkpt lat="43.56279" lon="1.29069">
        <ele>167.2</ele>
        <time>2023-11-19T08:04:00Z</time>
      </trkpt>
      <trkpt lat="43.56279" lon="1.29059">
        <ele>167.4</ele>
        <time>2023-11-19T08:04:02Z</time>
      </trkpt>
      <trkpt lat="43.56279" lon="1.29046">
        <ele>167.4</ele>
        <time>2023-11-19T08:04:05Z</time>
      </trkpt>
      <trkpt lat="43.56284" lon="1.29026">
        <ele>167.4</ele>
        <time>2023-11-19T08:04:10Z</time>
      </trkpt>
      <trkpt lat="43.56291" lon="1.29022">
        <ele>167.4</ele>
        <time>2023-11-19T08:04:15Z</time>
      </trkpt>
      <trkpt lat="43.56295" lon="1.29019">
        <ele>167.4</ele>
        <time>2023-11-19T08:04:24Z</time>
      </trkpt>
      <trkpt lat="43.563" lon="1.2902">
        <ele>167.4</ele>
        <time>2023-11-19T08:04:27Z</time>
      </trkpt>
      <trkpt lat="43.56304" lon="1.29024">
        <ele>167.4</ele>
        <time>2023-11-19T08:04:29Z</time>
      </trkpt>
      <trkpt lat="43.5631" lon="1.29039">
        <ele>167.4</ele>
        <time>2023-11-19T08:04:34Z</time>
      </trkpt>
      <trkpt lat="43.56327" lon="1.29082">
        <ele>167.2</ele>
        <time>2023-11-19T08:04:41Z</time>
      </trkpt>
      <trkpt lat="43.56336" lon="1.29113">
        <ele>167.4</ele>
        <time>2023-11-19T08:04:46Z</time>
      </trkpt>
      <trkpt lat="43.56336" lon="1.29126">
        <ele>167.4</ele>
        <time>2023-11-19T08:04:48Z</time>
      </trkpt>
      <trkpt lat="43.56337" lon="1.29133">
        <ele>167.4</ele>
        <time>2023-11-19T08:04:49Z</time>
      </trkpt>
      <trkpt lat="43.5634" lon="1.29145">
        <ele>167.4</ele>
        <time>2023-11-19T08:04:51Z</time>
      </trkpt>
      <trkpt lat="43.56344" lon="1.29149">
        <ele>167.4</ele>
        <time>2023-11-19T08:04:52Z</time>
      </trkpt>
      <trkpt lat="43.56348" lon="1.29151">
        <ele>167.4</ele>
        <time>2023-11-19T08:04:53Z</time>
      </trkpt>
      <trkpt lat="43.56352" lon="1.29151">
        <ele>167.4</ele>
        <time>2023-11-19T08:04:55Z</time>
      </trkpt>
      <trkpt lat="43.5636" lon="1.29144">
        <ele>167.4</ele>
        <time>2023-11-19T08:04:56Z</time>
      </trkpt>
      <trkpt lat="43.56367" lon="1.29134">
        <ele>167.4</ele>
        <time>2023-11-19T08:04:58Z</time>
      </trkpt>
      <trkpt lat="43.56392" lon="1.29106">
        <ele>167.6</ele>
        <time>2023-11-19T08:05:04Z</time>
      </trkpt>
      <trkpt lat="43.56403" lon="1.29091">
        <ele>167.6</ele>
        <time>2023-11-19T08:05:07Z</time>
      </trkpt>
      <trkpt lat="43.56409" lon="1.2908">
        <ele>167.6</ele>
        <time>2023-11-19T08:05:09Z</time>
      </trkpt>
      <trkpt lat="43.56431" lon="1.29035">
        <ele>167.8</ele>
        <time>2023-11-19T08:05:18Z</time>
      </trkpt>
      <trkpt lat="43.56437" lon="1.29021">
        <ele>167.8</ele>
        <time>2023-11-19T08:05:23Z</time>
      </trkpt>
      <trkpt lat="43.56449" lon="1.28996">
        <ele>167.8</ele>
        <time>2023-11-19T08:05:28Z</time>
      </trkpt>
      <trkpt lat="43.56467" lon="1.28954">
        <ele>167.6</ele>
        <time>2023-11-19T08:05:34Z</time>
      </trkpt>
      <trkpt lat="43.56487" lon="1.28911">
        <ele>168</ele>
        <time>2023-11-19T08:05:42Z</time>
      </trkpt>
      <trkpt lat="43.56492" lon="1.289">
        <ele>168</ele>
        <time>2023-11-19T08:05:43Z</time>
      </trkpt>
      <trkpt lat="43.56503" lon="1.28886">
        <ele>168.2</ele>
        <time>2023-11-19T08:05:46Z</time>
      </trkpt>
      <trkpt lat="43.56508" lon="1.28872">
        <ele>168.2</ele>
        <time>2023-11-19T08:05:48Z</time>
      </trkpt>
      <trkpt lat="43.56509" lon="1.28865">
        <ele>168.2</ele>
        <time>2023-11-19T08:05:49Z</time>
      </trkpt>
      <trkpt lat="43.56511" lon="1.28859">
        <ele>168.2</ele>
        <time>2023-11-19T08:05:50Z</time>
      </trkpt>
      <trkpt lat="43.56518" lon="1.28839">
        <ele>168.2</ele>
        <time>2023-11-19T08:05:53Z</time>
      </trkpt>
      <trkpt lat="43.56544" lon="1.28772">
        <ele>168.4</ele>
        <time>2023-11-19T08:06:03Z</time>
      </trkpt>
      <trkpt lat="43.56546" lon="1.28765">
        <ele>168.4</ele>
        <time>2023-11-19T08:06:04Z</time>
      </trkpt>
      <trkpt lat="43.56572" lon="1.28698">
        <ele>169</ele>
        <time>2023-11-19T08:06:14Z</time>
      </trkpt>
      <trkpt lat="43.56577" lon="1.28684">
        <ele>169.2</ele>
        <time>2023-11-19T08:06:16Z</time>
      </trkpt>
      <trkpt lat="43.5658" lon="1.28677">
        <ele>169</ele>
        <time>2023-11-19T08:06:17Z</time>
      </trkpt>
      <trkpt lat="43.56602" lon="1.28611">
        <ele>169.2</ele>
        <time>2023-11-19T08:06:26Z</time>
      </trkpt>
      <trkpt lat="43.56611" lon="1.28554">
        <ele>169.4</ele>
        <time>2023-11-19T08:06:33Z</time>
      </trkpt>
      <trkpt lat="43.56615" lon="1.28531">
        <ele>170</ele>
        <time>2023-11-19T08:06:36Z</time>
      </trkpt>
      <trkpt lat="43.56619" lon="1.285">
        <ele>170.6</ele>
        <time>2023-11-19T08:06:40Z</time>
      </trkpt>
      <trkpt lat="43.56627" lon="1.28453">
        <ele>171.2</ele>
        <time>2023-11-19T08:06:47Z</time>
      </trkpt>
      <trkpt lat="43.56631" lon="1.28431">
        <ele>171.2</ele>
        <time>2023-11-19T08:06:49Z</time>
      </trkpt>
      <trkpt lat="43.56638" lon="1.28391">
        <ele>172</ele>
        <time>2023-11-19T08:06:55Z</time>
      </trkpt>
      <trkpt lat="43.56641" lon="1.28377">
        <ele>172.2</ele>
        <time>2023-11-19T08:06:57Z</time>
      </trkpt>
      <trkpt lat="43.56643" lon="1.28363">
        <ele>172.6</ele>
        <time>2023-11-19T08:06:59Z</time>
      </trkpt>
      <trkpt lat="43.56647" lon="1.28346">
        <ele>173.2</ele>
        <time>2023-11-19T08:07:02Z</time>
      </trkpt>
      <trkpt lat="43.56651" lon="1.28335">
        <ele>173.6</ele>
        <time>2023-11-19T08:07:04Z</time>
      </trkpt>
      <trkpt lat="43.56659" lon="1.2832">
        <ele>174.2</ele>
        <time>2023-11-19T08:07:07Z</time>
      </trkpt>
      <trkpt lat="43.56662" lon="1.28315">
        <ele>174.4</ele>
        <time>2023-11-19T08:07:08Z</time>
      </trkpt>
      <trkpt lat="43.56673" lon="1.28295">
        <ele>175.4</ele>
        <time>2023-11-19T08:07:12Z</time>
      </trkpt>
      <trkpt lat="43.56685" lon="1.28276">
        <ele>176.4</ele>
        <time>2023-11-19T08:07:16Z</time>
      </trkpt>
      <trkpt lat="43.56688" lon="1.28272">
        <ele>176.8</ele>
        <time>2023-11-19T08:07:17Z</time>
      </trkpt>
      <trkpt lat="43.56697" lon="1.28259">
        <ele>177.8</ele>
        <time>2023-11-19T08:07:20Z</time>
      </trkpt>
      <trkpt lat="43.56703" lon="1.2825">
        <ele>178.4</ele>
        <time>2023-11-19T08:07:22Z</time>
      </trkpt>
      <trkpt lat="43.56705" lon="1.28245">
        <ele>178.8</ele>
        <time>2023-11-19T08:07:23Z</time>
      </trkpt>
      <trkpt lat="43.56711" lon="1.28236">
        <ele>179.2</ele>
        <time>2023-11-19T08:07:25Z</time>
      </trkpt>
      <trkpt lat="43.56716" lon="1.28226">
        <ele>180.2</ele>
        <time>2023-11-19T08:07:27Z</time>
      </trkpt>
      <trkpt lat="43.56723" lon="1.28211">
        <ele>181.4</ele>
        <time>2023-11-19T08:07:30Z</time>
      </trkpt>
      <trkpt lat="43.56728" lon="1.282">
        <ele>181.8</ele>
        <time>2023-11-19T08:07:32Z</time>
      </trkpt>
      <trkpt lat="43.56732" lon="1.28188">
        <ele>182.6</ele>
        <time>2023-11-19T08:07:34Z</time>
      </trkpt>
      <trkpt lat="43.56739" lon="1.28164">
        <ele>183.6</ele>
        <time>2023-11-19T08:07:38Z</time>
      </trkpt>
      <trkpt lat="43.56744" lon="1.28146">
        <ele>184.4</ele>
        <time>2023-11-19T08:07:41Z</time>
      </trkpt>
      <trkpt lat="43.56747" lon="1.28134">
        <ele>184.8</ele>
        <time>2023-11-19T08:07:43Z</time>
      </trkpt>
      <trkpt lat="43.56754" lon="1.28111">
        <ele>186</ele>
        <time>2023-11-19T08:07:47Z</time>
      </trkpt>
      <trkpt lat="43.56759" lon="1.28096">
        <ele>186.8</ele>
        <time>2023-11-19T08:07:50Z</time>
      </trkpt>
      <trkpt lat="43.5676" lon="1.2809">
        <ele>187.2</ele>
        <time>2023-11-19T08:07:52Z</time>
      </trkpt>
      <trkpt lat="43.56763" lon="1.28079">
        <ele>187.6</ele>
        <time>2023-11-19T08:07:53Z</time>
      </trkpt>
      <trkpt lat="43.56766" lon="1.2806">
        <ele>188.2</ele>
        <time>2023-11-19T08:07:56Z</time>
      </trkpt>
      <trkpt lat="43.56766" lon="1.28054">
        <ele>188.6</ele>
        <time>2023-11-19T08:07:58Z</time>
      </trkpt>
      <trkpt lat="43.56766" lon="1.28041">
        <ele>188.8</ele>
        <time>2023-11-19T08:07:59Z</time>
      </trkpt>
      <trkpt lat="43.56767" lon="1.28021">
        <ele>189.2</ele>
        <time>2023-11-19T08:08:02Z</time>
      </trkpt>
      <trkpt lat="43.56767" lon="1.28008">
        <ele>189.6</ele>
        <time>2023-11-19T08:08:04Z</time>
      </trkpt>
      <trkpt lat="43.56768" lon="1.27982">
        <ele>190.4</ele>
        <time>2023-11-19T08:08:08Z</time>
      </trkpt>
      <trkpt lat="43.56769" lon="1.27963">
        <ele>191</ele>
        <time>2023-11-19T08:08:11Z</time>
      </trkpt>
      <trkpt lat="43.5677" lon="1.2795">
        <ele>191.4</ele>
        <time>2023-11-19T08:08:13Z</time>
      </trkpt>
      <trkpt lat="43.56771" lon="1.27944">
        <ele>191.6</ele>
        <time>2023-11-19T08:08:14Z</time>
      </trkpt>
      <trkpt lat="43.56773" lon="1.27919">
        <ele>192</ele>
        <time>2023-11-19T08:08:18Z</time>
      </trkpt>
      <trkpt lat="43.56773" lon="1.27913">
        <ele>192.6</ele>
        <time>2023-11-19T08:08:19Z</time>
      </trkpt>
      <trkpt lat="43.56777" lon="1.2787">
        <ele>193.6</ele>
        <time>2023-11-19T08:08:25Z</time>
      </trkpt>
      <trkpt lat="43.5678" lon="1.27847">
        <ele>194</ele>
        <time>2023-11-19T08:08:28Z</time>
      </trkpt>
      <trkpt lat="43.56784" lon="1.27815">
        <ele>194.6</ele>
        <time>2023-11-19T08:08:32Z</time>
      </trkpt>
      <trkpt lat="43.56788" lon="1.27775">
        <ele>195</ele>
        <time>2023-11-19T08:08:37Z</time>
      </trkpt>
      <trkpt lat="43.56795" lon="1.27712">
        <ele>195.2</ele>
        <time>2023-11-19T08:08:45Z</time>
      </trkpt>
      <trkpt lat="43.56794" lon="1.27697">
        <ele>195.4</ele>
        <time>2023-11-19T08:08:47Z</time>
      </trkpt>
      <trkpt lat="43.56792" lon="1.27682">
        <ele>195.4</ele>
        <time>2023-11-19T08:08:49Z</time>
      </trkpt>
      <trkpt lat="43.56785" lon="1.27652">
        <ele>195.6</ele>
        <time>2023-11-19T08:08:53Z</time>
      </trkpt>
      <trkpt lat="43.56781" lon="1.27637">
        <ele>195.8</ele>
        <time>2023-11-19T08:08:55Z</time>
      </trkpt>
      <trkpt lat="43.56764" lon="1.27589">
        <ele>195.8</ele>
        <time>2023-11-19T08:09:02Z</time>
      </trkpt>
      <trkpt lat="43.56736" lon="1.2752">
        <ele>196</ele>
        <time>2023-11-19T08:09:11Z</time>
      </trkpt>
      <trkpt lat="43.56734" lon="1.27512">
        <ele>196</ele>
        <time>2023-11-19T08:09:12Z</time>
      </trkpt>
      <trkpt lat="43.56715" lon="1.27465">
        <ele>196</ele>
        <time>2023-11-19T08:09:18Z</time>
      </trkpt>
      <trkpt lat="43.56709" lon="1.2745">
        <ele>196</ele>
        <time>2023-11-19T08:09:20Z</time>
      </trkpt>
      <trkpt lat="43.5668" lon="1.27382">
        <ele>196</ele>
        <time>2023-11-19T08:09:29Z</time>
      </trkpt>
      <trkpt lat="43.56669" lon="1.27359">
        <ele>196</ele>
        <time>2023-11-19T08:09:32Z</time>
      </trkpt>
      <trkpt lat="43.56636" lon="1.2729">
        <ele>196</ele>
        <time>2023-11-19T08:09:41Z</time>
      </trkpt>
      <trkpt lat="43.56625" lon="1.27267">
        <ele>196</ele>
        <time>2023-11-19T08:09:44Z</time>
      </trkpt>
      <trkpt lat="43.56594" lon="1.27201">
        <ele>195.6</ele>
        <time>2023-11-19T08:09:53Z</time>
      </trkpt>
      <trkpt lat="43.56587" lon="1.27186">
        <ele>195.6</ele>
        <time>2023-11-19T08:09:55Z</time>
      </trkpt>
      <trkpt lat="43.56552" lon="1.27121">
        <ele>195.4</ele>
        <time>2023-11-19T08:10:04Z</time>
      </trkpt>
      <trkpt lat="43.56516" lon="1.27056">
        <ele>195.4</ele>
        <time>2023-11-19T08:10:13Z</time>
      </trkpt>
      <trkpt lat="43.56512" lon="1.27048">
        <ele>195.4</ele>
        <time>2023-11-19T08:10:14Z</time>
      </trkpt>
      <trkpt lat="43.56483" lon="1.26985">
        <ele>195.2</ele>
        <time>2023-11-19T08:10:22Z</time>
      </trkpt>
      <trkpt lat="43.56472" lon="1.26961">
        <ele>195.2</ele>
        <time>2023-11-19T08:10:25Z</time>
      </trkpt>
      <trkpt lat="43.56443" lon="1.26898">
        <ele>195.2</ele>
        <time>2023-11-19T08:10:33Z</time>
      </trkpt>
      <trkpt lat="43.56429" lon="1.26866">
        <ele>195.4</ele>
        <time>2023-11-19T08:10:37Z</time>
      </trkpt>
      <trkpt lat="43.56402" lon="1.26802">
        <ele>195.8</ele>
        <time>2023-11-19T08:10:45Z</time>
      </trkpt>
      <trkpt lat="43.56376" lon="1.26748">
        <ele>195.8</ele>
        <time>2023-11-19T08:10:53Z</time>
      </trkpt>
      <trkpt lat="43.56346" lon="1.26687">
        <ele>196</ele>
        <time>2023-11-19T08:11:00Z</time>
      </trkpt>
      <trkpt lat="43.56328" lon="1.2665">
        <ele>196</ele>
        <time>2023-11-19T08:11:05Z</time>
      </trkpt>
      <trkpt lat="43.56301" lon="1.26604">
        <ele>196.2</ele>
        <time>2023-11-19T08:11:12Z</time>
      </trkpt>
      <trkpt lat="43.56287" lon="1.26579">
        <ele>196.2</ele>
        <time>2023-11-19T08:11:16Z</time>
      </trkpt>
      <trkpt lat="43.56285" lon="1.26573">
        <ele>196.2</ele>
        <time>2023-11-19T08:11:17Z</time>
      </trkpt>
      <trkpt lat="43.56285" lon="1.26567">
        <ele>196.2</ele>
        <time>2023-11-19T08:11:18Z</time>
      </trkpt>
      <trkpt lat="43.56286" lon="1.26559">
        <ele>196.2</ele>
        <time>2023-11-19T08:11:20Z</time>
      </trkpt>
      <trkpt lat="43.56286" lon="1.26556">
        <ele>196.2</ele>
        <time>2023-11-19T08:11:21Z</time>
      </trkpt>
      <trkpt lat="43.56283" lon="1.26548">
        <ele>196.4</ele>
        <time>2023-11-19T08:11:23Z</time>
      </trkpt>
      <trkpt lat="43.56279" lon="1.26544">
        <ele>196.4</ele>
        <time>2023-11-19T08:11:24Z</time>
      </trkpt>
      <trkpt lat="43.56267" lon="1.26529">
        <ele>196.4</ele>
        <time>2023-11-19T08:11:27Z</time>
      </trkpt>
      <trkpt lat="43.56245" lon="1.26498">
        <ele>196.4</ele>
        <time>2023-11-19T08:11:32Z</time>
      </trkpt>
      <trkpt lat="43.56213" lon="1.26462">
        <ele>196.6</ele>
        <time>2023-11-19T08:11:38Z</time>
      </trkpt>
      <trkpt lat="43.56173" lon="1.26425">
        <ele>196.6</ele>
        <time>2023-11-19T08:11:45Z</time>
      </trkpt>
      <trkpt lat="43.56132" lon="1.26378">
        <ele>197</ele>
        <time>2023-11-19T08:11:53Z</time>
      </trkpt>
      <trkpt lat="43.56122" lon="1.26366">
        <ele>197</ele>
        <time>2023-11-19T08:11:55Z</time>
      </trkpt>
      <trkpt lat="43.56089" lon="1.26319">
        <ele>197</ele>
        <time>2023-11-19T08:12:02Z</time>
      </trkpt>
      <trkpt lat="43.56055" lon="1.26271">
        <ele>197.2</ele>
        <time>2023-11-19T08:12:09Z</time>
      </trkpt>
      <trkpt lat="43.56017" lon="1.26216">
        <ele>197.6</ele>
        <time>2023-11-19T08:12:17Z</time>
      </trkpt>
      <trkpt lat="43.55978" lon="1.26168">
        <ele>197.6</ele>
        <time>2023-11-19T08:12:25Z</time>
      </trkpt>
      <trkpt lat="43.55939" lon="1.26119">
        <ele>197.8</ele>
        <time>2023-11-19T08:12:33Z</time>
      </trkpt>
      <trkpt lat="43.55897" lon="1.26069">
        <ele>197.8</ele>
        <time>2023-11-19T08:12:41Z</time>
      </trkpt>
      <trkpt lat="43.55855" lon="1.26016">
        <ele>198</ele>
        <time>2023-11-19T08:12:49Z</time>
      </trkpt>
      <trkpt lat="43.5585" lon="1.26009">
        <ele>198</ele>
        <time>2023-11-19T08:12:50Z</time>
      </trkpt>
      <trkpt lat="43.55845" lon="1.26003">
        <ele>198</ele>
        <time>2023-11-19T08:12:51Z</time>
      </trkpt>
      <trkpt lat="43.55804" lon="1.25951">
        <ele>198</ele>
        <time>2023-11-19T08:12:59Z</time>
      </trkpt>
      <trkpt lat="43.55795" lon="1.25937">
        <ele>198</ele>
        <time>2023-11-19T08:13:01Z</time>
      </trkpt>
      <trkpt lat="43.55761" lon="1.25889">
        <ele>198.2</ele>
        <time>2023-11-19T08:13:08Z</time>
      </trkpt>
      <trkpt lat="43.55724" lon="1.25833">
        <ele>198.4</ele>
        <time>2023-11-19T08:13:16Z</time>
      </trkpt>
      <trkpt lat="43.55715" lon="1.25818">
        <ele>198.4</ele>
        <time>2023-11-19T08:13:18Z</time>
      </trkpt>
      <trkpt lat="43.55677" lon="1.25765">
        <ele>198.8</ele>
        <time>2023-11-19T08:13:26Z</time>
      </trkpt>
      <trkpt lat="43.55659" lon="1.25737">
        <ele>199</ele>
        <time>2023-11-19T08:13:30Z</time>
      </trkpt>
      <trkpt lat="43.55646" lon="1.25715">
        <ele>199</ele>
        <time>2023-11-19T08:13:33Z</time>
      </trkpt>
      <trkpt lat="43.55631" lon="1.25682">
        <ele>199.2</ele>
        <time>2023-11-19T08:13:37Z</time>
      </trkpt>
      <trkpt lat="43.55611" lon="1.2562">
        <ele>199.4</ele>
        <time>2023-11-19T08:13:44Z</time>
      </trkpt>
      <trkpt lat="43.55608" lon="1.25611">
        <ele>199.4</ele>
        <time>2023-11-19T08:13:45Z</time>
      </trkpt>
      <trkpt lat="43.55591" lon="1.25558">
        <ele>199.4</ele>
        <time>2023-11-19T08:13:51Z</time>
      </trkpt>
      <trkpt lat="43.55564" lon="1.25486">
        <ele>199.6</ele>
        <time>2023-11-19T08:13:59Z</time>
      </trkpt>
      <trkpt lat="43.5556" lon="1.25478">
        <ele>199.8</ele>
        <time>2023-11-19T08:14:00Z</time>
      </trkpt>
      <trkpt lat="43.55525" lon="1.25413">
        <ele>200</ele>
        <time>2023-11-19T08:14:08Z</time>
      </trkpt>
      <trkpt lat="43.55485" lon="1.25354">
        <ele>200</ele>
        <time>2023-11-19T08:14:16Z</time>
      </trkpt>
      <trkpt lat="43.5547" lon="1.25331">
        <ele>200</ele>
        <time>2023-11-19T08:14:19Z</time>
      </trkpt>
      <trkpt lat="43.55443" lon="1.25282">
        <ele>200</ele>
        <time>2023-11-19T08:14:26Z</time>
      </trkpt>
      <trkpt lat="43.55416" lon="1.25209">
        <ele>199.8</ele>
        <time>2023-11-19T08:14:33Z</time>
      </trkpt>
      <trkpt lat="43.55389" lon="1.25136">
        <ele>199.6</ele>
        <time>2023-11-19T08:14:41Z</time>
      </trkpt>
      <trkpt lat="43.55375" lon="1.25101">
        <ele>199.6</ele>
        <time>2023-11-19T08:14:45Z</time>
      </trkpt>
      <trkpt lat="43.55346" lon="1.25043">
        <ele>199.6</ele>
        <time>2023-11-19T08:14:52Z</time>
      </trkpt>
      <trkpt lat="43.55316" lon="1.2498">
        <ele>199.8</ele>
        <time>2023-11-19T08:14:59Z</time>
      </trkpt>
      <trkpt lat="43.55295" lon="1.24911">
        <ele>200</ele>
        <time>2023-11-19T08:15:06Z</time>
      </trkpt>
      <trkpt lat="43.55274" lon="1.24832">
        <ele>200</ele>
        <time>2023-11-19T08:15:14Z</time>
      </trkpt>
      <trkpt lat="43.55271" lon="1.24822">
        <ele>200</ele>
        <time>2023-11-19T08:15:15Z</time>
      </trkpt>
      <trkpt lat="43.55263" lon="1.24793">
        <ele>200</ele>
        <time>2023-11-19T08:15:18Z</time>
      </trkpt>
      <trkpt lat="43.55244" lon="1.24723">
        <ele>199.8</ele>
        <time>2023-11-19T08:15:25Z</time>
      </trkpt>
      <trkpt lat="43.55241" lon="1.24713">
        <ele>199.8</ele>
        <time>2023-11-19T08:15:26Z</time>
      </trkpt>
      <trkpt lat="43.55219" lon="1.24635">
        <ele>199.6</ele>
        <time>2023-11-19T08:15:34Z</time>
      </trkpt>
      <trkpt lat="43.552" lon="1.24559">
        <ele>199.4</ele>
        <time>2023-11-19T08:15:42Z</time>
      </trkpt>
      <trkpt lat="43.55194" lon="1.2454">
        <ele>199.4</ele>
        <time>2023-11-19T08:15:44Z</time>
      </trkpt>
      <trkpt lat="43.55191" lon="1.24532">
        <ele>199.4</ele>
        <time>2023-11-19T08:15:45Z</time>
      </trkpt>
      <trkpt lat="43.55171" lon="1.2449">
        <ele>199.4</ele>
        <time>2023-11-19T08:15:50Z</time>
      </trkpt>
      <trkpt lat="43.55168" lon="1.24482">
        <ele>199.2</ele>
        <time>2023-11-19T08:15:51Z</time>
      </trkpt>
      <trkpt lat="43.55164" lon="1.24463">
        <ele>199.2</ele>
        <time>2023-11-19T08:15:53Z</time>
      </trkpt>
      <trkpt lat="43.55164" lon="1.24454">
        <ele>199.2</ele>
        <time>2023-11-19T08:15:54Z</time>
      </trkpt>
      <trkpt lat="43.55165" lon="1.24434">
        <ele>199</ele>
        <time>2023-11-19T08:15:56Z</time>
      </trkpt>
      <trkpt lat="43.55172" lon="1.24415">
        <ele>199</ele>
        <time>2023-11-19T08:15:58Z</time>
      </trkpt>
      <trkpt lat="43.55191" lon="1.24366">
        <ele>199</ele>
        <time>2023-11-19T08:16:03Z</time>
      </trkpt>
      <trkpt lat="43.55207" lon="1.24293">
        <ele>199</ele>
        <time>2023-11-19T08:16:10Z</time>
      </trkpt>
      <trkpt lat="43.55212" lon="1.24272">
        <ele>199</ele>
        <time>2023-11-19T08:16:12Z</time>
      </trkpt>
      <trkpt lat="43.5523" lon="1.242">
        <ele>199</ele>
        <time>2023-11-19T08:16:19Z</time>
      </trkpt>
      <trkpt lat="43.55239" lon="1.24171">
        <ele>199</ele>
        <time>2023-11-19T08:16:22Z</time>
      </trkpt>
      <trkpt lat="43.55258" lon="1.2409">
        <ele>199</ele>
        <time>2023-11-19T08:16:30Z</time>
      </trkpt>
      <trkpt lat="43.55267" lon="1.24016">
        <ele>197.6</ele>
        <time>2023-11-19T08:16:37Z</time>
      </trkpt>
      <trkpt lat="43.55272" lon="1.23941">
        <ele>199.2</ele>
        <time>2023-11-19T08:16:44Z</time>
      </trkpt>
      <trkpt lat="43.55275" lon="1.23896">
        <ele>199</ele>
        <time>2023-11-19T08:16:48Z</time>
      </trkpt>
      <trkpt lat="43.55281" lon="1.23833">
        <ele>198.2</ele>
        <time>2023-11-19T08:16:53Z</time>
      </trkpt>
      <trkpt lat="43.55285" lon="1.23793">
        <ele>197.8</ele>
        <time>2023-11-19T08:16:56Z</time>
      </trkpt>
      <trkpt lat="43.55289" lon="1.23754">
        <ele>196.6</ele>
        <time>2023-11-19T08:16:59Z</time>
      </trkpt>
      <trkpt lat="43.5529" lon="1.23742">
        <ele>196.4</ele>
        <time>2023-11-19T08:17:00Z</time>
      </trkpt>
      <trkpt lat="43.55293" lon="1.23706">
        <ele>195.4</ele>
        <time>2023-11-19T08:17:03Z</time>
      </trkpt>
      <trkpt lat="43.55295" lon="1.23671">
        <ele>195</ele>
        <time>2023-11-19T08:17:06Z</time>
      </trkpt>
      <trkpt lat="43.55295" lon="1.23617">
        <ele>194.4</ele>
        <time>2023-11-19T08:17:11Z</time>
      </trkpt>
      <trkpt lat="43.55294" lon="1.23596">
        <ele>194.4</ele>
        <time>2023-11-19T08:17:13Z</time>
      </trkpt>
      <trkpt lat="43.55291" lon="1.23513">
        <ele>195.6</ele>
        <time>2023-11-19T08:17:21Z</time>
      </trkpt>
      <trkpt lat="43.5529" lon="1.23503">
        <ele>195.8</ele>
        <time>2023-11-19T08:17:22Z</time>
      </trkpt>
      <trkpt lat="43.55281" lon="1.23453">
        <ele>196.6</ele>
        <time>2023-11-19T08:17:27Z</time>
      </trkpt>
      <trkpt lat="43.55279" lon="1.23443">
        <ele>196.8</ele>
        <time>2023-11-19T08:17:28Z</time>
      </trkpt>
      <trkpt lat="43.55268" lon="1.23386">
        <ele>197.4</ele>
        <time>2023-11-19T08:17:34Z</time>
      </trkpt>
      <trkpt lat="43.55268" lon="1.23368">
        <ele>197.6</ele>
        <time>2023-11-19T08:17:36Z</time>
      </trkpt>
      <trkpt lat="43.55271" lon="1.23352">
        <ele>197.8</ele>
        <time>2023-11-19T08:17:38Z</time>
      </trkpt>
      <trkpt lat="43.55272" lon="1.23343">
        <ele>198</ele>
        <time>2023-11-19T08:17:39Z</time>
      </trkpt>
      <trkpt lat="43.55271" lon="1.23325">
        <ele>198</ele>
        <time>2023-11-19T08:17:41Z</time>
      </trkpt>
      <trkpt lat="43.55267" lon="1.23305">
        <ele>198.2</ele>
        <time>2023-11-19T08:17:43Z</time>
      </trkpt>
      <trkpt lat="43.55265" lon="1.23285">
        <ele>198.4</ele>
        <time>2023-11-19T08:17:45Z</time>
      </trkpt>
      <trkpt lat="43.55263" lon="1.23265">
        <ele>198.4</ele>
        <time>2023-11-19T08:17:47Z</time>
      </trkpt>
      <trkpt lat="43.55258" lon="1.23245">
        <ele>198.6</ele>
        <time>2023-11-19T08:17:49Z</time>
      </trkpt>
      <trkpt lat="43.55251" lon="1.23226">
        <ele>198.8</ele>
        <time>2023-11-19T08:17:51Z</time>
      </trkpt>
      <trkpt lat="43.5523" lon="1.23169">
        <ele>199.2</ele>
        <time>2023-11-19T08:17:57Z</time>
      </trkpt>
      <trkpt lat="43.55206" lon="1.23101">
        <ele>199.4</ele>
        <time>2023-11-19T08:18:04Z</time>
      </trkpt>
      <trkpt lat="43.55203" lon="1.23091">
        <ele>199.4</ele>
        <time>2023-11-19T08:18:05Z</time>
      </trkpt>
      <trkpt lat="43.55178" lon="1.23015">
        <ele>199</ele>
        <time>2023-11-19T08:18:13Z</time>
      </trkpt>
      <trkpt lat="43.55175" lon="1.23005">
        <ele>199</ele>
        <time>2023-11-19T08:18:14Z</time>
      </trkpt>
      <trkpt lat="43.5515" lon="1.22928">
        <ele>198.8</ele>
        <time>2023-11-19T08:18:22Z</time>
      </trkpt>
      <trkpt lat="43.55145" lon="1.2291">
        <ele>199</ele>
        <time>2023-11-19T08:18:24Z</time>
      </trkpt>
      <trkpt lat="43.55132" lon="1.22866">
        <ele>199.2</ele>
        <time>2023-11-19T08:18:29Z</time>
      </trkpt>
      <trkpt lat="43.5512" lon="1.22821">
        <ele>199.8</ele>
        <time>2023-11-19T08:18:35Z</time>
      </trkpt>
      <trkpt lat="43.55117" lon="1.22802">
        <ele>200.6</ele>
        <time>2023-11-19T08:18:39Z</time>
      </trkpt>
      <trkpt lat="43.55117" lon="1.22797">
        <ele>200.6</ele>
        <time>2023-11-19T08:18:41Z</time>
      </trkpt>
      <trkpt lat="43.55118" lon="1.22785">
        <ele>201.6</ele>
        <time>2023-11-19T08:18:44Z</time>
      </trkpt>
      <trkpt lat="43.55118" lon="1.2278">
        <ele>201.8</ele>
        <time>2023-11-19T08:18:45Z</time>
      </trkpt>
      <trkpt lat="43.55116" lon="1.22756">
        <ele>202.6</ele>
        <time>2023-11-19T08:18:49Z</time>
      </trkpt>
      <trkpt lat="43.55116" lon="1.22749">
        <ele>202.8</ele>
        <time>2023-11-19T08:18:50Z</time>
      </trkpt>
      <trkpt lat="43.55116" lon="1.22742">
        <ele>202.8</ele>
        <time>2023-11-19T08:18:51Z</time>
      </trkpt>
      <trkpt lat="43.55116" lon="1.22734">
        <ele>203</ele>
        <time>2023-11-19T08:18:52Z</time>
      </trkpt>
      <trkpt lat="43.55116" lon="1.22717">
        <ele>203.2</ele>
        <time>2023-11-19T08:18:54Z</time>
      </trkpt>
      <trkpt lat="43.55119" lon="1.22682">
        <ele>204</ele>
        <time>2023-11-19T08:18:58Z</time>
      </trkpt>
      <trkpt lat="43.5512" lon="1.22654">
        <ele>204.6</ele>
        <time>2023-11-19T08:19:01Z</time>
      </trkpt>
      <trkpt lat="43.55119" lon="1.22634">
        <ele>205.2</ele>
        <time>2023-11-19T08:19:03Z</time>
      </trkpt>
      <trkpt lat="43.55118" lon="1.22604">
        <ele>205.6</ele>
        <time>2023-11-19T08:19:06Z</time>
      </trkpt>
      <trkpt lat="43.55112" lon="1.22555">
        <ele>206.2</ele>
        <time>2023-11-19T08:19:11Z</time>
      </trkpt>
      <trkpt lat="43.5511" lon="1.22545">
        <ele>206.2</ele>
        <time>2023-11-19T08:19:12Z</time>
      </trkpt>
      <trkpt lat="43.55096" lon="1.22465">
        <ele>206.4</ele>
        <time>2023-11-19T08:19:20Z</time>
      </trkpt>
      <trkpt lat="43.55083" lon="1.22383">
        <ele>206.6</ele>
        <time>2023-11-19T08:19:28Z</time>
      </trkpt>
      <trkpt lat="43.55078" lon="1.22352">
        <ele>206.8</ele>
        <time>2023-11-19T08:19:31Z</time>
      </trkpt>
      <trkpt lat="43.55067" lon="1.22279">
        <ele>207</ele>
        <time>2023-11-19T08:19:38Z</time>
      </trkpt>
      <trkpt lat="43.55062" lon="1.22248">
        <ele>207</ele>
        <time>2023-11-19T08:19:41Z</time>
      </trkpt>
      <trkpt lat="43.55048" lon="1.22166">
        <ele>207</ele>
        <time>2023-11-19T08:19:49Z</time>
      </trkpt>
      <trkpt lat="43.5504" lon="1.22124">
        <ele>207</ele>
        <time>2023-11-19T08:19:53Z</time>
      </trkpt>
      <trkpt lat="43.55023" lon="1.22057">
        <ele>207.4</ele>
        <time>2023-11-19T08:20:00Z</time>
      </trkpt>
      <trkpt lat="43.55018" lon="1.22038">
        <ele>207.6</ele>
        <time>2023-11-19T08:20:02Z</time>
      </trkpt>
      <trkpt lat="43.54998" lon="1.2196">
        <ele>208</ele>
        <time>2023-11-19T08:20:10Z</time>
      </trkpt>
      <trkpt lat="43.54992" lon="1.2194">
        <ele>208</ele>
        <time>2023-11-19T08:20:12Z</time>
      </trkpt>
      <trkpt lat="43.54974" lon="1.2187">
        <ele>208</ele>
        <time>2023-11-19T08:20:19Z</time>
      </trkpt>
      <trkpt lat="43.54959" lon="1.21803">
        <ele>208</ele>
        <time>2023-11-19T08:20:26Z</time>
      </trkpt>
      <trkpt lat="43.54957" lon="1.21793">
        <ele>208</ele>
        <time>2023-11-19T08:20:27Z</time>
      </trkpt>
      <trkpt lat="43.5495" lon="1.2174">
        <ele>207.8</ele>
        <time>2023-11-19T08:20:32Z</time>
      </trkpt>
      <trkpt lat="43.54943" lon="1.21666">
        <ele>207.6</ele>
        <time>2023-11-19T08:20:39Z</time>
      </trkpt>
      <trkpt lat="43.54941" lon="1.21633">
        <ele>207.6</ele>
        <time>2023-11-19T08:20:42Z</time>
      </trkpt>
      <trkpt lat="43.54939" lon="1.21556">
        <ele>207</ele>
        <time>2023-11-19T08:20:49Z</time>
      </trkpt>
      <trkpt lat="43.54938" lon="1.21513">
        <ele>206.6</ele>
        <time>2023-11-19T08:20:53Z</time>
      </trkpt>
      <trkpt lat="43.54937" lon="1.21459">
        <ele>206.4</ele>
        <time>2023-11-19T08:20:58Z</time>
      </trkpt>
      <trkpt lat="43.54935" lon="1.21428">
        <ele>206.2</ele>
        <time>2023-11-19T08:21:01Z</time>
      </trkpt>
      <trkpt lat="43.54933" lon="1.21344">
        <ele>206</ele>
        <time>2023-11-19T08:21:09Z</time>
      </trkpt>
      <trkpt lat="43.54933" lon="1.21323">
        <ele>206</ele>
        <time>2023-11-19T08:21:11Z</time>
      </trkpt>
      <trkpt lat="43.54933" lon="1.21238">
        <ele>206</ele>
        <time>2023-11-19T08:21:19Z</time>
      </trkpt>
      <trkpt lat="43.54933" lon="1.21207">
        <ele>206</ele>
        <time>2023-11-19T08:21:22Z</time>
      </trkpt>
      <trkpt lat="43.54935" lon="1.21124">
        <ele>206.2</ele>
        <time>2023-11-19T08:21:30Z</time>
      </trkpt>
      <trkpt lat="43.54937" lon="1.21104">
        <ele>206.2</ele>
        <time>2023-11-19T08:21:32Z</time>
      </trkpt>
      <trkpt lat="43.54948" lon="1.21028">
        <ele>206.2</ele>
        <time>2023-11-19T08:21:40Z</time>
      </trkpt>
      <trkpt lat="43.54961" lon="1.20948">
        <ele>206</ele>
        <time>2023-11-19T08:21:49Z</time>
      </trkpt>
      <trkpt lat="43.54967" lon="1.20899">
        <ele>206.2</ele>
        <time>2023-11-19T08:21:54Z</time>
      </trkpt>
      <trkpt lat="43.54973" lon="1.2088">
        <ele>206</ele>
        <time>2023-11-19T08:21:56Z</time>
      </trkpt>
      <trkpt lat="43.54977" lon="1.20871">
        <ele>206</ele>
        <time>2023-11-19T08:21:57Z</time>
      </trkpt>
      <trkpt lat="43.54995" lon="1.20836">
        <ele>206.2</ele>
        <time>2023-11-19T08:22:01Z</time>
      </trkpt>
      <trkpt lat="43.55019" lon="1.20781">
        <ele>206.2</ele>
        <time>2023-11-19T08:22:07Z</time>
      </trkpt>
      <trkpt lat="43.55042" lon="1.20713">
        <ele>206</ele>
        <time>2023-11-19T08:22:14Z</time>
      </trkpt>
      <trkpt lat="43.55051" lon="1.20684">
        <ele>205.6</ele>
        <time>2023-11-19T08:22:17Z</time>
      </trkpt>
      <trkpt lat="43.55058" lon="1.20655">
        <ele>205.2</ele>
        <time>2023-11-19T08:22:20Z</time>
      </trkpt>
      <trkpt lat="43.55066" lon="1.20614">
        <ele>204.8</ele>
        <time>2023-11-19T08:22:24Z</time>
      </trkpt>
      <trkpt lat="43.55068" lon="1.20552">
        <ele>204.6</ele>
        <time>2023-11-19T08:22:30Z</time>
      </trkpt>
      <trkpt lat="43.55068" lon="1.20473">
        <ele>204.8</ele>
        <time>2023-11-19T08:22:38Z</time>
      </trkpt>
      <trkpt lat="43.55068" lon="1.20453">
        <ele>205</ele>
        <time>2023-11-19T08:22:40Z</time>
      </trkpt>
      <trkpt lat="43.55069" lon="1.20371">
        <ele>205.4</ele>
        <time>2023-11-19T08:22:48Z</time>
      </trkpt>
      <trkpt lat="43.55069" lon="1.20361">
        <ele>205.6</ele>
        <time>2023-11-19T08:22:49Z</time>
      </trkpt>
      <trkpt lat="43.5507" lon="1.20278">
        <ele>205.8</ele>
        <time>2023-11-19T08:22:57Z</time>
      </trkpt>
      <trkpt lat="43.55071" lon="1.20246">
        <ele>206</ele>
        <time>2023-11-19T08:23:00Z</time>
      </trkpt>
      <trkpt lat="43.55079" lon="1.20169">
        <ele>206</ele>
        <time>2023-11-19T08:23:07Z</time>
      </trkpt>
      <trkpt lat="43.55086" lon="1.20109">
        <ele>205.4</ele>
        <time>2023-11-19T08:23:12Z</time>
      </trkpt>
      <trkpt lat="43.55086" lon="1.20092">
        <ele>205</ele>
        <time>2023-11-19T08:23:13Z</time>
      </trkpt>
      <trkpt lat="43.55083" lon="1.20064">
        <ele>204</ele>
        <time>2023-11-19T08:23:15Z</time>
      </trkpt>
      <trkpt lat="43.55076" lon="1.20039">
        <ele>203</ele>
        <time>2023-11-19T08:23:17Z</time>
      </trkpt>
      <trkpt lat="43.55065" lon="1.20011">
        <ele>201.8</ele>
        <time>2023-11-19T08:23:19Z</time>
      </trkpt>
      <trkpt lat="43.55056" lon="1.19989">
        <ele>200.8</ele>
        <time>2023-11-19T08:23:21Z</time>
      </trkpt>
      <trkpt lat="43.55045" lon="1.19962">
        <ele>199.2</ele>
        <time>2023-11-19T08:23:23Z</time>
      </trkpt>
      <trkpt lat="43.55037" lon="1.19939">
        <ele>198</ele>
        <time>2023-11-19T08:23:25Z</time>
      </trkpt>
      <trkpt lat="43.55034" lon="1.19906">
        <ele>197.6</ele>
        <time>2023-11-19T08:23:28Z</time>
      </trkpt>
      <trkpt lat="43.55035" lon="1.19859">
        <ele>197.8</ele>
        <time>2023-11-19T08:23:33Z</time>
      </trkpt>
      <trkpt lat="43.55035" lon="1.19833">
        <ele>199.4</ele>
        <time>2023-11-19T08:23:36Z</time>
      </trkpt>
      <trkpt lat="43.55035" lon="1.19816">
        <ele>200.6</ele>
        <time>2023-11-19T08:23:38Z</time>
      </trkpt>
      <trkpt lat="43.55035" lon="1.19807">
        <ele>200.8</ele>
        <time>2023-11-19T08:23:39Z</time>
      </trkpt>
      <trkpt lat="43.55035" lon="1.19789">
        <ele>201.6</ele>
        <time>2023-11-19T08:23:41Z</time>
      </trkpt>
      <trkpt lat="43.55036" lon="1.19757">
        <ele>202.6</ele>
        <time>2023-11-19T08:23:45Z</time>
      </trkpt>
      <trkpt lat="43.55037" lon="1.19728">
        <ele>203.6</ele>
        <time>2023-11-19T08:23:48Z</time>
      </trkpt>
      <trkpt lat="43.55037" lon="1.19721">
        <ele>203.8</ele>
        <time>2023-11-19T08:23:49Z</time>
      </trkpt>
      <trkpt lat="43.55038" lon="1.19654">
        <ele>204.8</ele>
        <time>2023-11-19T08:23:56Z</time>
      </trkpt>
      <trkpt lat="43.55026" lon="1.19585">
        <ele>205.2</ele>
        <time>2023-11-19T08:24:03Z</time>
      </trkpt>
      <trkpt lat="43.55008" lon="1.19506">
        <ele>205.2</ele>
        <time>2023-11-19T08:24:11Z</time>
      </trkpt>
      <trkpt lat="43.55004" lon="1.19496">
        <ele>205.2</ele>
        <time>2023-11-19T08:24:12Z</time>
      </trkpt>
      <trkpt lat="43.54975" lon="1.19427">
        <ele>205.2</ele>
        <time>2023-11-19T08:24:20Z</time>
      </trkpt>
      <trkpt lat="43.54971" lon="1.19418">
        <ele>205.2</ele>
        <time>2023-11-19T08:24:21Z</time>
      </trkpt>
      <trkpt lat="43.54943" lon="1.19351">
        <ele>205.8</ele>
        <time>2023-11-19T08:24:29Z</time>
      </trkpt>
      <trkpt lat="43.54931" lon="1.19317">
        <ele>205.8</ele>
        <time>2023-11-19T08:24:33Z</time>
      </trkpt>
      <trkpt lat="43.54922" lon="1.19287">
        <ele>205.8</ele>
        <time>2023-11-19T08:24:37Z</time>
      </trkpt>
      <trkpt lat="43.54922" lon="1.19273">
        <ele>205.8</ele>
        <time>2023-11-19T08:24:39Z</time>
      </trkpt>
      <trkpt lat="43.54923" lon="1.19266">
        <ele>205.8</ele>
        <time>2023-11-19T08:24:40Z</time>
      </trkpt>
      <trkpt lat="43.54927" lon="1.19261">
        <ele>205.8</ele>
        <time>2023-11-19T08:24:41Z</time>
      </trkpt>
      <trkpt lat="43.54936" lon="1.19253">
        <ele>205.8</ele>
        <time>2023-11-19T08:24:43Z</time>
      </trkpt>
      <trkpt lat="43.5496" lon="1.19249">
        <ele>206</ele>
        <time>2023-11-19T08:24:47Z</time>
      </trkpt>
      <trkpt lat="43.54992" lon="1.19239">
        <ele>205.6</ele>
        <time>2023-11-19T08:24:52Z</time>
      </trkpt>
      <trkpt lat="43.5504" lon="1.19215">
        <ele>205</ele>
        <time>2023-11-19T08:24:59Z</time>
      </trkpt>
      <trkpt lat="43.55052" lon="1.19203">
        <ele>204.8</ele>
        <time>2023-11-19T08:25:01Z</time>
      </trkpt>
      <trkpt lat="43.55076" lon="1.19172">
        <ele>204.2</ele>
        <time>2023-11-19T08:25:05Z</time>
      </trkpt>
      <trkpt lat="43.55088" lon="1.19155">
        <ele>203.6</ele>
        <time>2023-11-19T08:25:07Z</time>
      </trkpt>
      <trkpt lat="43.55101" lon="1.19138">
        <ele>203.2</ele>
        <time>2023-11-19T08:25:09Z</time>
      </trkpt>
      <trkpt lat="43.55109" lon="1.19131">
        <ele>202.6</ele>
        <time>2023-11-19T08:25:10Z</time>
      </trkpt>
      <trkpt lat="43.55117" lon="1.19126">
        <ele>202.4</ele>
        <time>2023-11-19T08:25:11Z</time>
      </trkpt>
      <trkpt lat="43.55134" lon="1.1912">
        <ele>201.8</ele>
        <time>2023-11-19T08:25:13Z</time>
      </trkpt>
      <trkpt lat="43.55142" lon="1.1912">
        <ele>201.4</ele>
        <time>2023-11-19T08:25:14Z</time>
      </trkpt>
      <trkpt lat="43.55158" lon="1.19119">
        <ele>200.2</ele>
        <time>2023-11-19T08:25:16Z</time>
      </trkpt>
      <trkpt lat="43.55166" lon="1.1912">
        <ele>200</ele>
        <time>2023-11-19T08:25:17Z</time>
      </trkpt>
      <trkpt lat="43.55187" lon="1.19121">
        <ele>199.2</ele>
        <time>2023-11-19T08:25:20Z</time>
      </trkpt>
      <trkpt lat="43.55206" lon="1.19122">
        <ele>199</ele>
        <time>2023-11-19T08:25:23Z</time>
      </trkpt>
      <trkpt lat="43.55227" lon="1.19124">
        <ele>199.2</ele>
        <time>2023-11-19T08:25:28Z</time>
      </trkpt>
      <trkpt lat="43.5524" lon="1.19126">
        <ele>200.2</ele>
        <time>2023-11-19T08:25:33Z</time>
      </trkpt>
      <trkpt lat="43.55244" lon="1.19126">
        <ele>200.4</ele>
        <time>2023-11-19T08:25:34Z</time>
      </trkpt>
      <trkpt lat="43.5526" lon="1.19127">
        <ele>201.2</ele>
        <time>2023-11-19T08:25:39Z</time>
      </trkpt>
      <trkpt lat="43.55264" lon="1.19125">
        <ele>201.4</ele>
        <time>2023-11-19T08:25:40Z</time>
      </trkpt>
      <trkpt lat="43.55268" lon="1.19118">
        <ele>201.8</ele>
        <time>2023-11-19T08:25:42Z</time>
      </trkpt>
      <trkpt lat="43.55268" lon="1.19096">
        <ele>202.4</ele>
        <time>2023-11-19T08:25:46Z</time>
      </trkpt>
      <trkpt lat="43.55268" lon="1.1909">
        <ele>202.6</ele>
        <time>2023-11-19T08:25:47Z</time>
      </trkpt>
      <trkpt lat="43.55268" lon="1.19062">
        <ele>203.2</ele>
        <time>2023-11-19T08:25:51Z</time>
      </trkpt>
      <trkpt lat="43.55269" lon="1.19032">
        <ele>203.6</ele>
        <time>2023-11-19T08:25:55Z</time>
      </trkpt>
      <trkpt lat="43.55269" lon="1.19008">
        <ele>203.8</ele>
        <time>2023-11-19T08:25:58Z</time>
      </trkpt>
      <trkpt lat="43.55266" lon="1.18941">
        <ele>204.4</ele>
        <time>2023-11-19T08:26:06Z</time>
      </trkpt>
      <trkpt lat="43.55265" lon="1.18882">
        <ele>204.6</ele>
        <time>2023-11-19T08:26:13Z</time>
      </trkpt>
      <trkpt lat="43.55265" lon="1.18865">
        <ele>204.8</ele>
        <time>2023-11-19T08:26:15Z</time>
      </trkpt>
      <trkpt lat="43.55262" lon="1.18786">
        <ele>205.2</ele>
        <time>2023-11-19T08:26:24Z</time>
      </trkpt>
      <trkpt lat="43.55262" lon="1.18778">
        <ele>205.2</ele>
        <time>2023-11-19T08:26:25Z</time>
      </trkpt>
      <trkpt lat="43.55262" lon="1.18726">
        <ele>205.2</ele>
        <time>2023-11-19T08:26:31Z</time>
      </trkpt>
      <trkpt lat="43.5526" lon="1.18663">
        <ele>205.2</ele>
        <time>2023-11-19T08:26:38Z</time>
      </trkpt>
      <trkpt lat="43.55258" lon="1.18627">
        <ele>205.4</ele>
        <time>2023-11-19T08:26:42Z</time>
      </trkpt>
      <trkpt lat="43.55255" lon="1.18608">
        <ele>205.4</ele>
        <time>2023-11-19T08:26:44Z</time>
      </trkpt>
      <trkpt lat="43.5525" lon="1.18561">
        <ele>205.6</ele>
        <time>2023-11-19T08:26:49Z</time>
      </trkpt>
      <trkpt lat="43.55251" lon="1.18542">
        <ele>205.6</ele>
        <time>2023-11-19T08:26:51Z</time>
      </trkpt>
      <trkpt lat="43.55262" lon="1.18485">
        <ele>205.2</ele>
        <time>2023-11-19T08:26:57Z</time>
      </trkpt>
      <trkpt lat="43.55285" lon="1.18422">
        <ele>204.8</ele>
        <time>2023-11-19T08:27:04Z</time>
      </trkpt>
      <trkpt lat="43.55287" lon="1.18413">
        <ele>204.6</ele>
        <time>2023-11-19T08:27:05Z</time>
      </trkpt>
      <trkpt lat="43.55291" lon="1.18393">
        <ele>204.6</ele>
        <time>2023-11-19T08:27:07Z</time>
      </trkpt>
      <trkpt lat="43.55292" lon="1.18374">
        <ele>204.6</ele>
        <time>2023-11-19T08:27:09Z</time>
      </trkpt>
      <trkpt lat="43.55289" lon="1.18335">
        <ele>204.4</ele>
        <time>2023-11-19T08:27:13Z</time>
      </trkpt>
      <trkpt lat="43.55289" lon="1.18325">
        <ele>204.4</ele>
        <time>2023-11-19T08:27:14Z</time>
      </trkpt>
      <trkpt lat="43.55292" lon="1.18249">
        <ele>204.4</ele>
        <time>2023-11-19T08:27:22Z</time>
      </trkpt>
      <trkpt lat="43.55293" lon="1.1822">
        <ele>204.6</ele>
        <time>2023-11-19T08:27:25Z</time>
      </trkpt>
      <trkpt lat="43.55297" lon="1.18141">
        <ele>204.8</ele>
        <time>2023-11-19T08:27:33Z</time>
      </trkpt>
      <trkpt lat="43.553" lon="1.18064">
        <ele>205</ele>
        <time>2023-11-19T08:27:41Z</time>
      </trkpt>
      <trkpt lat="43.55302" lon="1.18026">
        <ele>205.2</ele>
        <time>2023-11-19T08:27:45Z</time>
      </trkpt>
      <trkpt lat="43.55306" lon="1.17956">
        <ele>205.6</ele>
        <time>2023-11-19T08:27:53Z</time>
      </trkpt>
      <trkpt lat="43.55309" lon="1.17932">
        <ele>206</ele>
        <time>2023-11-19T08:27:56Z</time>
      </trkpt>
      <trkpt lat="43.55315" lon="1.17919">
        <ele>206.4</ele>
        <time>2023-11-19T08:27:58Z</time>
      </trkpt>
      <trkpt lat="43.55327" lon="1.17909">
        <ele>206.6</ele>
        <time>2023-11-19T08:28:00Z</time>
      </trkpt>
      <trkpt lat="43.55333" lon="1.17908">
        <ele>206.6</ele>
        <time>2023-11-19T08:28:01Z</time>
      </trkpt>
      <trkpt lat="43.5534" lon="1.17908">
        <ele>206.8</ele>
        <time>2023-11-19T08:28:02Z</time>
      </trkpt>
      <trkpt lat="43.55367" lon="1.17911">
        <ele>207.2</ele>
        <time>2023-11-19T08:28:06Z</time>
      </trkpt>
      <trkpt lat="43.55426" lon="1.17927">
        <ele>207.2</ele>
        <time>2023-11-19T08:28:14Z</time>
      </trkpt>
      <trkpt lat="43.55479" lon="1.17943">
        <ele>206.4</ele>
        <time>2023-11-19T08:28:21Z</time>
      </trkpt>
      <trkpt lat="43.55502" lon="1.1795">
        <ele>206.2</ele>
        <time>2023-11-19T08:28:24Z</time>
      </trkpt>
      <trkpt lat="43.55562" lon="1.17968">
        <ele>205.6</ele>
        <time>2023-11-19T08:28:32Z</time>
      </trkpt>
      <trkpt lat="43.55592" lon="1.17976">
        <ele>205.6</ele>
        <time>2023-11-19T08:28:36Z</time>
      </trkpt>
      <trkpt lat="43.55599" lon="1.17978">
        <ele>205.6</ele>
        <time>2023-11-19T08:28:37Z</time>
      </trkpt>
      <trkpt lat="43.55634" lon="1.17993">
        <ele>205.4</ele>
        <time>2023-11-19T08:28:42Z</time>
      </trkpt>
      <trkpt lat="43.55646" lon="1.18005">
        <ele>205.8</ele>
        <time>2023-11-19T08:28:44Z</time>
      </trkpt>
      <trkpt lat="43.55656" lon="1.18017">
        <ele>205.8</ele>
        <time>2023-11-19T08:28:46Z</time>
      </trkpt>
      <trkpt lat="43.55669" lon="1.1802">
        <ele>205.8</ele>
        <time>2023-11-19T08:28:48Z</time>
      </trkpt>
      <trkpt lat="43.5568" lon="1.18012">
        <ele>206</ele>
        <time>2023-11-19T08:28:50Z</time>
      </trkpt>
      <trkpt lat="43.55685" lon="1.17995">
        <ele>206</ele>
        <time>2023-11-19T08:28:52Z</time>
      </trkpt>
      <trkpt lat="43.55683" lon="1.17977">
        <ele>206.2</ele>
        <time>2023-11-19T08:28:54Z</time>
      </trkpt>
      <trkpt lat="43.55681" lon="1.17968">
        <ele>206.2</ele>
        <time>2023-11-19T08:28:55Z</time>
      </trkpt>
      <trkpt lat="43.5568" lon="1.17958">
        <ele>206.2</ele>
        <time>2023-11-19T08:28:56Z</time>
      </trkpt>
      <trkpt lat="43.5568" lon="1.17939">
        <ele>206.2</ele>
        <time>2023-11-19T08:28:58Z</time>
      </trkpt>
      <trkpt lat="43.55681" lon="1.17929">
        <ele>206.2</ele>
        <time>2023-11-19T08:28:59Z</time>
      </trkpt>
      <trkpt lat="43.55693" lon="1.17865">
        <ele>206.2</ele>
        <time>2023-11-19T08:29:06Z</time>
      </trkpt>
      <trkpt lat="43.55696" lon="1.17857">
        <ele>206.2</ele>
        <time>2023-11-19T08:29:07Z</time>
      </trkpt>
      <trkpt lat="43.55701" lon="1.17851">
        <ele>206.2</ele>
        <time>2023-11-19T08:29:08Z</time>
      </trkpt>
      <trkpt lat="43.55707" lon="1.17851">
        <ele>206.2</ele>
        <time>2023-11-19T08:29:09Z</time>
      </trkpt>
      <trkpt lat="43.55712" lon="1.17855">
        <ele>206</ele>
        <time>2023-11-19T08:29:10Z</time>
      </trkpt>
      <trkpt lat="43.55716" lon="1.17862">
        <ele>206</ele>
        <time>2023-11-19T08:29:11Z</time>
      </trkpt>
      <trkpt lat="43.55718" lon="1.1788">
        <ele>206</ele>
        <time>2023-11-19T08:29:13Z</time>
      </trkpt>
      <trkpt lat="43.55726" lon="1.17942">
        <ele>205.8</ele>
        <time>2023-11-19T08:29:19Z</time>
      </trkpt>
      <trkpt lat="43.55729" lon="1.17952">
        <ele>205.6</ele>
        <time>2023-11-19T08:29:20Z</time>
      </trkpt>
      <trkpt lat="43.55733" lon="1.17961">
        <ele>205.6</ele>
        <time>2023-11-19T08:29:21Z</time>
      </trkpt>
      <trkpt lat="43.55743" lon="1.17978">
        <ele>205.6</ele>
        <time>2023-11-19T08:29:23Z</time>
      </trkpt>
      <trkpt lat="43.55749" lon="1.17985">
        <ele>205.6</ele>
        <time>2023-11-19T08:29:24Z</time>
      </trkpt>
      <trkpt lat="43.55756" lon="1.1799">
        <ele>205.4</ele>
        <time>2023-11-19T08:29:25Z</time>
      </trkpt>
      <trkpt lat="43.55778" lon="1.18002">
        <ele>205.2</ele>
        <time>2023-11-19T08:29:28Z</time>
      </trkpt>
      <trkpt lat="43.55835" lon="1.18025">
        <ele>205.2</ele>
        <time>2023-11-19T08:29:36Z</time>
      </trkpt>
      <trkpt lat="43.55849" lon="1.18029">
        <ele>205.4</ele>
        <time>2023-11-19T08:29:38Z</time>
      </trkpt>
      <trkpt lat="43.55899" lon="1.18039">
        <ele>206.2</ele>
        <time>2023-11-19T08:29:45Z</time>
      </trkpt>
      <trkpt lat="43.55942" lon="1.18061">
        <ele>206.8</ele>
        <time>2023-11-19T08:29:51Z</time>
      </trkpt>
      <trkpt lat="43.55964" lon="1.18072">
        <ele>206.8</ele>
        <time>2023-11-19T08:29:54Z</time>
      </trkpt>
      <trkpt lat="43.55993" lon="1.18085">
        <ele>206.8</ele>
        <time>2023-11-19T08:29:58Z</time>
      </trkpt>
      <trkpt lat="43.56" lon="1.18086">
        <ele>206.8</ele>
        <time>2023-11-19T08:29:59Z</time>
      </trkpt>
      <trkpt lat="43.56007" lon="1.18086">
        <ele>206.8</ele>
        <time>2023-11-19T08:30:00Z</time>
      </trkpt>
      <trkpt lat="43.56021" lon="1.18082">
        <ele>206.8</ele>
        <time>2023-11-19T08:30:02Z</time>
      </trkpt>
      <trkpt lat="43.56027" lon="1.18078">
        <ele>206.8</ele>
        <time>2023-11-19T08:30:03Z</time>
      </trkpt>
      <trkpt lat="43.56059" lon="1.18052">
        <ele>206.4</ele>
        <time>2023-11-19T08:30:08Z</time>
      </trkpt>
      <trkpt lat="43.56088" lon="1.18023">
        <ele>206.4</ele>
        <time>2023-11-19T08:30:12Z</time>
      </trkpt>
      <trkpt lat="43.56117" lon="1.17985">
        <ele>206.4</ele>
        <time>2023-11-19T08:30:17Z</time>
      </trkpt>
      <trkpt lat="43.56154" lon="1.17929">
        <ele>206.6</ele>
        <time>2023-11-19T08:30:24Z</time>
      </trkpt>
      <trkpt lat="43.56159" lon="1.17921">
        <ele>206.6</ele>
        <time>2023-11-19T08:30:25Z</time>
      </trkpt>
      <trkpt lat="43.56171" lon="1.17907">
        <ele>206.6</ele>
        <time>2023-11-19T08:30:27Z</time>
      </trkpt>
      <trkpt lat="43.56194" lon="1.1788">
        <ele>206.8</ele>
        <time>2023-11-19T08:30:31Z</time>
      </trkpt>
      <trkpt lat="43.56224" lon="1.17831">
        <ele>207</ele>
        <time>2023-11-19T08:30:37Z</time>
      </trkpt>
      <trkpt lat="43.56255" lon="1.1777">
        <ele>207.2</ele>
        <time>2023-11-19T08:30:44Z</time>
      </trkpt>
      <trkpt lat="43.56267" lon="1.17743">
        <ele>207.4</ele>
        <time>2023-11-19T08:30:47Z</time>
      </trkpt>
      <trkpt lat="43.56297" lon="1.1768">
        <ele>207.4</ele>
        <time>2023-11-19T08:30:54Z</time>
      </trkpt>
      <trkpt lat="43.56301" lon="1.17671">
        <ele>207.4</ele>
        <time>2023-11-19T08:30:55Z</time>
      </trkpt>
      <trkpt lat="43.56315" lon="1.17634">
        <ele>207.6</ele>
        <time>2023-11-19T08:30:59Z</time>
      </trkpt>
      <trkpt lat="43.56319" lon="1.17614">
        <ele>207.6</ele>
        <time>2023-11-19T08:31:01Z</time>
      </trkpt>
      <trkpt lat="43.56321" lon="1.17593">
        <ele>207.8</ele>
        <time>2023-11-19T08:31:03Z</time>
      </trkpt>
      <trkpt lat="43.56324" lon="1.17562">
        <ele>207.8</ele>
        <time>2023-11-19T08:31:06Z</time>
      </trkpt>
      <trkpt lat="43.56337" lon="1.17514">
        <ele>208</ele>
        <time>2023-11-19T08:31:11Z</time>
      </trkpt>
      <trkpt lat="43.56365" lon="1.17439">
        <ele>208.4</ele>
        <time>2023-11-19T08:31:19Z</time>
      </trkpt>
      <trkpt lat="43.56372" lon="1.1742">
        <ele>208.6</ele>
        <time>2023-11-19T08:31:21Z</time>
      </trkpt>
      <trkpt lat="43.56389" lon="1.17375">
        <ele>208.8</ele>
        <time>2023-11-19T08:31:26Z</time>
      </trkpt>
      <trkpt lat="43.5641" lon="1.17318">
        <ele>209</ele>
        <time>2023-11-19T08:31:32Z</time>
      </trkpt>
      <trkpt lat="43.56426" lon="1.17245">
        <ele>209.2</ele>
        <time>2023-11-19T08:31:39Z</time>
      </trkpt>
      <trkpt lat="43.56437" lon="1.17172">
        <ele>209.4</ele>
        <time>2023-11-19T08:31:46Z</time>
      </trkpt>
      <trkpt lat="43.56443" lon="1.17129">
        <ele>209.8</ele>
        <time>2023-11-19T08:31:50Z</time>
      </trkpt>
      <trkpt lat="43.56448" lon="1.17097">
        <ele>209.8</ele>
        <time>2023-11-19T08:31:53Z</time>
      </trkpt>
      <trkpt lat="43.56458" lon="1.17034">
        <ele>210</ele>
        <time>2023-11-19T08:31:59Z</time>
      </trkpt>
      <trkpt lat="43.56468" lon="1.1696">
        <ele>210.4</ele>
        <time>2023-11-19T08:32:06Z</time>
      </trkpt>
      <trkpt lat="43.56472" lon="1.16928">
        <ele>210.4</ele>
        <time>2023-11-19T08:32:09Z</time>
      </trkpt>
      <trkpt lat="43.56479" lon="1.16864">
        <ele>211</ele>
        <time>2023-11-19T08:32:15Z</time>
      </trkpt>
      <trkpt lat="43.56485" lon="1.16812">
        <ele>211.4</ele>
        <time>2023-11-19T08:32:20Z</time>
      </trkpt>
      <trkpt lat="43.56494" lon="1.16729">
        <ele>211.6</ele>
        <time>2023-11-19T08:32:28Z</time>
      </trkpt>
      <trkpt lat="43.56496" lon="1.16708">
        <ele>211.6</ele>
        <time>2023-11-19T08:32:30Z</time>
      </trkpt>
      <trkpt lat="43.56504" lon="1.16636">
        <ele>212</ele>
        <time>2023-11-19T08:32:37Z</time>
      </trkpt>
      <trkpt lat="43.56507" lon="1.16584">
        <ele>212.2</ele>
        <time>2023-11-19T08:32:42Z</time>
      </trkpt>
      <trkpt lat="43.56511" lon="1.165">
        <ele>212.6</ele>
        <time>2023-11-19T08:32:50Z</time>
      </trkpt>
      <trkpt lat="43.56513" lon="1.16479">
        <ele>212.6</ele>
        <time>2023-11-19T08:32:52Z</time>
      </trkpt>
      <trkpt lat="43.56524" lon="1.16397">
        <ele>212.8</ele>
        <time>2023-11-19T08:33:00Z</time>
      </trkpt>
      <trkpt lat="43.56528" lon="1.16377">
        <ele>213</ele>
        <time>2023-11-19T08:33:02Z</time>
      </trkpt>
      <trkpt lat="43.56542" lon="1.16295">
        <ele>213.2</ele>
        <time>2023-11-19T08:33:10Z</time>
      </trkpt>
      <trkpt lat="43.56556" lon="1.16214">
        <ele>213.2</ele>
        <time>2023-11-19T08:33:18Z</time>
      </trkpt>
      <trkpt lat="43.56558" lon="1.16204">
        <ele>213.2</ele>
        <time>2023-11-19T08:33:19Z</time>
      </trkpt>
      <trkpt lat="43.56574" lon="1.16139">
        <ele>213.6</ele>
        <time>2023-11-19T08:33:26Z</time>
      </trkpt>
      <trkpt lat="43.56595" lon="1.16098">
        <ele>214</ele>
        <time>2023-11-19T08:33:31Z</time>
      </trkpt>
      <trkpt lat="43.56599" lon="1.1609">
        <ele>214.2</ele>
        <time>2023-11-19T08:33:32Z</time>
      </trkpt>
      <trkpt lat="43.56614" lon="1.16067">
        <ele>214.4</ele>
        <time>2023-11-19T08:33:35Z</time>
      </trkpt>
      <trkpt lat="43.56628" lon="1.16045">
        <ele>215</ele>
        <time>2023-11-19T08:33:38Z</time>
      </trkpt>
      <trkpt lat="43.56643" lon="1.16023">
        <ele>215.4</ele>
        <time>2023-11-19T08:33:41Z</time>
      </trkpt>
      <trkpt lat="43.56684" lon="1.15969">
        <ele>215.8</ele>
        <time>2023-11-19T08:33:49Z</time>
      </trkpt>
      <trkpt lat="43.5669" lon="1.15964">
        <ele>215.8</ele>
        <time>2023-11-19T08:33:50Z</time>
      </trkpt>
      <trkpt lat="43.56701" lon="1.15953">
        <ele>216</ele>
        <time>2023-11-19T08:33:52Z</time>
      </trkpt>
      <trkpt lat="43.56735" lon="1.15921">
        <ele>216.8</ele>
        <time>2023-11-19T08:33:58Z</time>
      </trkpt>
      <trkpt lat="43.5674" lon="1.15915">
        <ele>216.8</ele>
        <time>2023-11-19T08:33:59Z</time>
      </trkpt>
      <trkpt lat="43.56747" lon="1.15899">
        <ele>217</ele>
        <time>2023-11-19T08:34:01Z</time>
      </trkpt>
      <trkpt lat="43.5675" lon="1.1589">
        <ele>217.2</ele>
        <time>2023-11-19T08:34:02Z</time>
      </trkpt>
      <trkpt lat="43.56755" lon="1.15852">
        <ele>218</ele>
        <time>2023-11-19T08:34:06Z</time>
      </trkpt>
      <trkpt lat="43.56756" lon="1.15843">
        <ele>218.2</ele>
        <time>2023-11-19T08:34:07Z</time>
      </trkpt>
      <trkpt lat="43.56757" lon="1.15808">
        <ele>218.4</ele>
        <time>2023-11-19T08:34:11Z</time>
      </trkpt>
      <trkpt lat="43.5676" lon="1.15792">
        <ele>218.6</ele>
        <time>2023-11-19T08:34:13Z</time>
      </trkpt>
      <trkpt lat="43.56772" lon="1.15743">
        <ele>219.4</ele>
        <time>2023-11-19T08:34:19Z</time>
      </trkpt>
      <trkpt lat="43.56779" lon="1.15719">
        <ele>220.2</ele>
        <time>2023-11-19T08:34:22Z</time>
      </trkpt>
      <trkpt lat="43.56788" lon="1.15687">
        <ele>220.4</ele>
        <time>2023-11-19T08:34:26Z</time>
      </trkpt>
      <trkpt lat="43.56797" lon="1.15658">
        <ele>220.8</ele>
        <time>2023-11-19T08:34:30Z</time>
      </trkpt>
      <trkpt lat="43.56804" lon="1.15631">
        <ele>221.6</ele>
        <time>2023-11-19T08:34:34Z</time>
      </trkpt>
      <trkpt lat="43.5681" lon="1.15604">
        <ele>222.4</ele>
        <time>2023-11-19T08:34:38Z</time>
      </trkpt>
      <trkpt lat="43.56812" lon="1.15597">
        <ele>222.6</ele>
        <time>2023-11-19T08:34:39Z</time>
      </trkpt>
      <trkpt lat="43.56813" lon="1.1559">
        <ele>222.8</ele>
        <time>2023-11-19T08:34:40Z</time>
      </trkpt>
      <trkpt lat="43.56817" lon="1.15563">
        <ele>223.8</ele>
        <time>2023-11-19T08:34:44Z</time>
      </trkpt>
      <trkpt lat="43.56821" lon="1.15544">
        <ele>224.8</ele>
        <time>2023-11-19T08:34:47Z</time>
      </trkpt>
      <trkpt lat="43.56829" lon="1.15511">
        <ele>226.2</ele>
        <time>2023-11-19T08:34:52Z</time>
      </trkpt>
      <trkpt lat="43.5683" lon="1.15504">
        <ele>226.8</ele>
        <time>2023-11-19T08:34:53Z</time>
      </trkpt>
      <trkpt lat="43.56832" lon="1.15491">
        <ele>227.4</ele>
        <time>2023-11-19T08:34:55Z</time>
      </trkpt>
      <trkpt lat="43.56836" lon="1.1547">
        <ele>228.2</ele>
        <time>2023-11-19T08:34:58Z</time>
      </trkpt>
      <trkpt lat="43.56837" lon="1.15463">
        <ele>228.6</ele>
        <time>2023-11-19T08:34:59Z</time>
      </trkpt>
      <trkpt lat="43.56839" lon="1.15456">
        <ele>228.8</ele>
        <time>2023-11-19T08:35:00Z</time>
      </trkpt>
      <trkpt lat="43.56842" lon="1.15443">
        <ele>229.4</ele>
        <time>2023-11-19T08:35:02Z</time>
      </trkpt>
      <trkpt lat="43.56843" lon="1.15435">
        <ele>229.8</ele>
        <time>2023-11-19T08:35:03Z</time>
      </trkpt>
      <trkpt lat="43.56844" lon="1.15428">
        <ele>230.2</ele>
        <time>2023-11-19T08:35:04Z</time>
      </trkpt>
      <trkpt lat="43.56848" lon="1.15414">
        <ele>230.8</ele>
        <time>2023-11-19T08:35:06Z</time>
      </trkpt>
      <trkpt lat="43.56852" lon="1.15393">
        <ele>231.2</ele>
        <time>2023-11-19T08:35:09Z</time>
      </trkpt>
      <trkpt lat="43.56854" lon="1.15387">
        <ele>231.4</ele>
        <time>2023-11-19T08:35:10Z</time>
      </trkpt>
      <trkpt lat="43.56858" lon="1.15366">
        <ele>232</ele>
        <time>2023-11-19T08:35:13Z</time>
      </trkpt>
      <trkpt lat="43.56861" lon="1.15353">
        <ele>232.2</ele>
        <time>2023-11-19T08:35:15Z</time>
      </trkpt>
      <trkpt lat="43.56862" lon="1.15346">
        <ele>232.6</ele>
        <time>2023-11-19T08:35:16Z</time>
      </trkpt>
      <trkpt lat="43.56864" lon="1.15333">
        <ele>233</ele>
        <time>2023-11-19T08:35:18Z</time>
      </trkpt>
      <trkpt lat="43.56869" lon="1.15313">
        <ele>234</ele>
        <time>2023-11-19T08:35:21Z</time>
      </trkpt>
      <trkpt lat="43.5687" lon="1.15306">
        <ele>234.2</ele>
        <time>2023-11-19T08:35:22Z</time>
      </trkpt>
      <trkpt lat="43.56871" lon="1.15299">
        <ele>234.6</ele>
        <time>2023-11-19T08:35:23Z</time>
      </trkpt>
      <trkpt lat="43.56874" lon="1.15285">
        <ele>235.4</ele>
        <time>2023-11-19T08:35:25Z</time>
      </trkpt>
      <trkpt lat="43.56877" lon="1.15264">
        <ele>236.6</ele>
        <time>2023-11-19T08:35:28Z</time>
      </trkpt>
      <trkpt lat="43.56879" lon="1.15257">
        <ele>236.6</ele>
        <time>2023-11-19T08:35:29Z</time>
      </trkpt>
      <trkpt lat="43.56883" lon="1.15244">
        <ele>237.2</ele>
        <time>2023-11-19T08:35:31Z</time>
      </trkpt>
      <trkpt lat="43.56885" lon="1.1523">
        <ele>237.6</ele>
        <time>2023-11-19T08:35:33Z</time>
      </trkpt>
      <trkpt lat="43.56888" lon="1.15217">
        <ele>238</ele>
        <time>2023-11-19T08:35:35Z</time>
      </trkpt>
      <trkpt lat="43.56892" lon="1.15196">
        <ele>239</ele>
        <time>2023-11-19T08:35:38Z</time>
      </trkpt>
      <trkpt lat="43.56898" lon="1.15175">
        <ele>240</ele>
        <time>2023-11-19T08:35:41Z</time>
      </trkpt>
      <trkpt lat="43.569" lon="1.15168">
        <ele>240.2</ele>
        <time>2023-11-19T08:35:42Z</time>
      </trkpt>
      <trkpt lat="43.56906" lon="1.15141">
        <ele>241</ele>
        <time>2023-11-19T08:35:46Z</time>
      </trkpt>
      <trkpt lat="43.56912" lon="1.15121">
        <ele>242.2</ele>
        <time>2023-11-19T08:35:49Z</time>
      </trkpt>
      <trkpt lat="43.56921" lon="1.15096">
        <ele>243.4</ele>
        <time>2023-11-19T08:35:53Z</time>
      </trkpt>
      <trkpt lat="43.56928" lon="1.15076">
        <ele>244.4</ele>
        <time>2023-11-19T08:35:56Z</time>
      </trkpt>
      <trkpt lat="43.56935" lon="1.15057">
        <ele>245.4</ele>
        <time>2023-11-19T08:35:59Z</time>
      </trkpt>
      <trkpt lat="43.56943" lon="1.15031">
        <ele>246.4</ele>
        <time>2023-11-19T08:36:03Z</time>
      </trkpt>
      <trkpt lat="43.5695" lon="1.15003">
        <ele>247.4</ele>
        <time>2023-11-19T08:36:07Z</time>
      </trkpt>
      <trkpt lat="43.56952" lon="1.14996">
        <ele>247.6</ele>
        <time>2023-11-19T08:36:08Z</time>
      </trkpt>
      <trkpt lat="43.5696" lon="1.14968">
        <ele>248.6</ele>
        <time>2023-11-19T08:36:12Z</time>
      </trkpt>
      <trkpt lat="43.56965" lon="1.14947">
        <ele>249.8</ele>
        <time>2023-11-19T08:36:15Z</time>
      </trkpt>
      <trkpt lat="43.56966" lon="1.1494">
        <ele>250</ele>
        <time>2023-11-19T08:36:16Z</time>
      </trkpt>
      <trkpt lat="43.5697" lon="1.14926">
        <ele>250.8</ele>
        <time>2023-11-19T08:36:18Z</time>
      </trkpt>
      <trkpt lat="43.56979" lon="1.14884">
        <ele>252</ele>
        <time>2023-11-19T08:36:24Z</time>
      </trkpt>
      <trkpt lat="43.56989" lon="1.14824">
        <ele>253</ele>
        <time>2023-11-19T08:36:32Z</time>
      </trkpt>
      <trkpt lat="43.5699" lon="1.14817">
        <ele>253.4</ele>
        <time>2023-11-19T08:36:33Z</time>
      </trkpt>
      <trkpt lat="43.56993" lon="1.14802">
        <ele>254.2</ele>
        <time>2023-11-19T08:36:35Z</time>
      </trkpt>
      <trkpt lat="43.57" lon="1.14766">
        <ele>255.4</ele>
        <time>2023-11-19T08:36:40Z</time>
      </trkpt>
      <trkpt lat="43.57004" lon="1.14744">
        <ele>256</ele>
        <time>2023-11-19T08:36:43Z</time>
      </trkpt>
      <trkpt lat="43.57008" lon="1.14724">
        <ele>256.6</ele>
        <time>2023-11-19T08:36:46Z</time>
      </trkpt>
      <trkpt lat="43.57014" lon="1.1469">
        <ele>257.6</ele>
        <time>2023-11-19T08:36:51Z</time>
      </trkpt>
      <trkpt lat="43.57015" lon="1.14684">
        <ele>257.8</ele>
        <time>2023-11-19T08:36:52Z</time>
      </trkpt>
      <trkpt lat="43.57017" lon="1.14672">
        <ele>258.6</ele>
        <time>2023-11-19T08:36:54Z</time>
      </trkpt>
      <trkpt lat="43.57016" lon="1.14665">
        <ele>259</ele>
        <time>2023-11-19T08:36:55Z</time>
      </trkpt>
      <trkpt lat="43.57016" lon="1.14653">
        <ele>259.4</ele>
        <time>2023-11-19T08:36:57Z</time>
      </trkpt>
      <trkpt lat="43.57016" lon="1.14635">
        <ele>260</ele>
        <time>2023-11-19T08:37:00Z</time>
      </trkpt>
      <trkpt lat="43.57016" lon="1.14611">
        <ele>261</ele>
        <time>2023-11-19T08:37:04Z</time>
      </trkpt>
      <trkpt lat="43.57016" lon="1.14605">
        <ele>261.2</ele>
        <time>2023-11-19T08:37:05Z</time>
      </trkpt>
      <trkpt lat="43.57016" lon="1.14595">
        <ele>262</ele>
        <time>2023-11-19T08:37:07Z</time>
      </trkpt>
      <trkpt lat="43.57016" lon="1.14589">
        <ele>262.6</ele>
        <time>2023-11-19T08:37:08Z</time>
      </trkpt>
      <trkpt lat="43.57017" lon="1.14573">
        <ele>263.8</ele>
        <time>2023-11-19T08:37:11Z</time>
      </trkpt>
      <trkpt lat="43.57021" lon="1.14552">
        <ele>265</ele>
        <time>2023-11-19T08:37:15Z</time>
      </trkpt>
      <trkpt lat="43.57023" lon="1.14542">
        <ele>265.6</ele>
        <time>2023-11-19T08:37:17Z</time>
      </trkpt>
      <trkpt lat="43.57026" lon="1.14532">
        <ele>266.2</ele>
        <time>2023-11-19T08:37:19Z</time>
      </trkpt>
      <trkpt lat="43.57031" lon="1.14517">
        <ele>267.2</ele>
        <time>2023-11-19T08:37:22Z</time>
      </trkpt>
      <trkpt lat="43.57035" lon="1.14507">
        <ele>267.6</ele>
        <time>2023-11-19T08:37:24Z</time>
      </trkpt>
      <trkpt lat="43.5704" lon="1.14493">
        <ele>268.4</ele>
        <time>2023-11-19T08:37:27Z</time>
      </trkpt>
      <trkpt lat="43.57046" lon="1.14477">
        <ele>269.2</ele>
        <time>2023-11-19T08:37:30Z</time>
      </trkpt>
      <trkpt lat="43.5705" lon="1.14467">
        <ele>269.6</ele>
        <time>2023-11-19T08:37:32Z</time>
      </trkpt>
      <trkpt lat="43.57058" lon="1.14448">
        <ele>270.8</ele>
        <time>2023-11-19T08:37:36Z</time>
      </trkpt>
      <trkpt lat="43.57063" lon="1.14433">
        <ele>271.8</ele>
        <time>2023-11-19T08:37:39Z</time>
      </trkpt>
      <trkpt lat="43.57073" lon="1.1441">
        <ele>273.2</ele>
        <time>2023-11-19T08:37:44Z</time>
      </trkpt>
      <trkpt lat="43.57079" lon="1.14398">
        <ele>274</ele>
        <time>2023-11-19T08:37:47Z</time>
      </trkpt>
      <trkpt lat="43.57081" lon="1.14394">
        <ele>274.4</ele>
        <time>2023-11-19T08:37:48Z</time>
      </trkpt>
      <trkpt lat="43.57091" lon="1.14376">
        <ele>275.6</ele>
        <time>2023-11-19T08:37:52Z</time>
      </trkpt>
      <trkpt lat="43.57101" lon="1.14357">
        <ele>276.6</ele>
        <time>2023-11-19T08:37:56Z</time>
      </trkpt>
      <trkpt lat="43.57105" lon="1.14352">
        <ele>277</ele>
        <time>2023-11-19T08:37:57Z</time>
      </trkpt>
      <trkpt lat="43.57117" lon="1.14331">
        <ele>277.8</ele>
        <time>2023-11-19T08:38:01Z</time>
      </trkpt>
      <trkpt lat="43.5712" lon="1.14325">
        <ele>278</ele>
        <time>2023-11-19T08:38:02Z</time>
      </trkpt>
      <trkpt lat="43.5714" lon="1.14286">
        <ele>278.6</ele>
        <time>2023-11-19T08:38:08Z</time>
      </trkpt>
      <trkpt lat="43.57163" lon="1.1424">
        <ele>278.4</ele>
        <time>2023-11-19T08:38:14Z</time>
      </trkpt>
      <trkpt lat="43.57187" lon="1.14199">
        <ele>277.8</ele>
        <time>2023-11-19T08:38:19Z</time>
      </trkpt>
      <trkpt lat="43.57225" lon="1.14158">
        <ele>276.6</ele>
        <time>2023-11-19T08:38:24Z</time>
      </trkpt>
      <trkpt lat="43.57251" lon="1.14133">
        <ele>275.2</ele>
        <time>2023-11-19T08:38:27Z</time>
      </trkpt>
      <trkpt lat="43.57268" lon="1.14114">
        <ele>274.6</ele>
        <time>2023-11-19T08:38:29Z</time>
      </trkpt>
      <trkpt lat="43.57275" lon="1.14103">
        <ele>274</ele>
        <time>2023-11-19T08:38:30Z</time>
      </trkpt>
      <trkpt lat="43.57281" lon="1.14091">
        <ele>273.6</ele>
        <time>2023-11-19T08:38:31Z</time>
      </trkpt>
      <trkpt lat="43.57287" lon="1.14079">
        <ele>273</ele>
        <time>2023-11-19T08:38:32Z</time>
      </trkpt>
      <trkpt lat="43.57293" lon="1.14067">
        <ele>272.6</ele>
        <time>2023-11-19T08:38:33Z</time>
      </trkpt>
      <trkpt lat="43.57305" lon="1.14044">
        <ele>271.8</ele>
        <time>2023-11-19T08:38:35Z</time>
      </trkpt>
      <trkpt lat="43.57321" lon="1.14012">
        <ele>270.2</ele>
        <time>2023-11-19T08:38:38Z</time>
      </trkpt>
      <trkpt lat="43.57339" lon="1.13982">
        <ele>269</ele>
        <time>2023-11-19T08:38:41Z</time>
      </trkpt>
      <trkpt lat="43.57353" lon="1.13954">
        <ele>268.6</ele>
        <time>2023-11-19T08:38:44Z</time>
      </trkpt>
      <trkpt lat="43.57383" lon="1.13895">
        <ele>268.4</ele>
        <time>2023-11-19T08:38:51Z</time>
      </trkpt>
      <trkpt lat="43.57409" lon="1.13843">
        <ele>270.2</ele>
        <time>2023-11-19T08:38:58Z</time>
      </trkpt>
      <trkpt lat="43.57415" lon="1.1383">
        <ele>270.8</ele>
        <time>2023-11-19T08:39:00Z</time>
      </trkpt>
      <trkpt lat="43.57418" lon="1.13823">
        <ele>271.2</ele>
        <time>2023-11-19T08:39:01Z</time>
      </trkpt>
      <trkpt lat="43.57421" lon="1.13817">
        <ele>271.4</ele>
        <time>2023-11-19T08:39:02Z</time>
      </trkpt>
      <trkpt lat="43.57431" lon="1.138">
        <ele>272.4</ele>
        <time>2023-11-19T08:39:05Z</time>
      </trkpt>
      <trkpt lat="43.57436" lon="1.13788">
        <ele>273.8</ele>
        <time>2023-11-19T08:39:07Z</time>
      </trkpt>
      <trkpt lat="43.57439" lon="1.13783">
        <ele>274</ele>
        <time>2023-11-19T08:39:08Z</time>
      </trkpt>
      <trkpt lat="43.57445" lon="1.13774">
        <ele>274.8</ele>
        <time>2023-11-19T08:39:10Z</time>
      </trkpt>
      <trkpt lat="43.57453" lon="1.13761">
        <ele>276</ele>
        <time>2023-11-19T08:39:13Z</time>
      </trkpt>
      <trkpt lat="43.57458" lon="1.13753">
        <ele>277.2</ele>
        <time>2023-11-19T08:39:15Z</time>
      </trkpt>
      <trkpt lat="43.57464" lon="1.1374">
        <ele>278.2</ele>
        <time>2023-11-19T08:39:18Z</time>
      </trkpt>
      <trkpt lat="43.57468" lon="1.13732">
        <ele>279</ele>
        <time>2023-11-19T08:39:20Z</time>
      </trkpt>
      <trkpt lat="43.5747" lon="1.13727">
        <ele>279.6</ele>
        <time>2023-11-19T08:39:21Z</time>
      </trkpt>
      <trkpt lat="43.57477" lon="1.1371">
        <ele>281.2</ele>
        <time>2023-11-19T08:39:25Z</time>
      </trkpt>
      <trkpt lat="43.57484" lon="1.13694">
        <ele>282.6</ele>
        <time>2023-11-19T08:39:29Z</time>
      </trkpt>
      <trkpt lat="43.57486" lon="1.1369">
        <ele>282.8</ele>
        <time>2023-11-19T08:39:30Z</time>
      </trkpt>
      <trkpt lat="43.57489" lon="1.13682">
        <ele>283.6</ele>
        <time>2023-11-19T08:39:32Z</time>
      </trkpt>
      <trkpt lat="43.57497" lon="1.13666">
        <ele>284.8</ele>
        <time>2023-11-19T08:39:36Z</time>
      </trkpt>
      <trkpt lat="43.57505" lon="1.13649">
        <ele>286.2</ele>
        <time>2023-11-19T08:39:40Z</time>
      </trkpt>
      <trkpt lat="43.57514" lon="1.13631">
        <ele>287.8</ele>
        <time>2023-11-19T08:39:45Z</time>
      </trkpt>
      <trkpt lat="43.57519" lon="1.1362">
        <ele>288.8</ele>
        <time>2023-11-19T08:39:48Z</time>
      </trkpt>
      <trkpt lat="43.57521" lon="1.13616">
        <ele>289.4</ele>
        <time>2023-11-19T08:39:49Z</time>
      </trkpt>
      <trkpt lat="43.5753" lon="1.13599">
        <ele>290.6</ele>
        <time>2023-11-19T08:39:54Z</time>
      </trkpt>
      <trkpt lat="43.57536" lon="1.13584">
        <ele>291.8</ele>
        <time>2023-11-19T08:39:58Z</time>
      </trkpt>
      <trkpt lat="43.57544" lon="1.13564">
        <ele>293.4</ele>
        <time>2023-11-19T08:40:04Z</time>
      </trkpt>
      <trkpt lat="43.57546" lon="1.1356">
        <ele>293.8</ele>
        <time>2023-11-19T08:40:05Z</time>
      </trkpt>
      <trkpt lat="43.57554" lon="1.13536">
        <ele>294.6</ele>
        <time>2023-11-19T08:40:11Z</time>
      </trkpt>
      <trkpt lat="43.57557" lon="1.13528">
        <ele>295.2</ele>
        <time>2023-11-19T08:40:13Z</time>
      </trkpt>
      <trkpt lat="43.57561" lon="1.13521">
        <ele>296</ele>
        <time>2023-11-19T08:40:15Z</time>
      </trkpt>
      <trkpt lat="43.57571" lon="1.135">
        <ele>297</ele>
        <time>2023-11-19T08:40:20Z</time>
      </trkpt>
      <trkpt lat="43.57577" lon="1.13486">
        <ele>297.8</ele>
        <time>2023-11-19T08:40:23Z</time>
      </trkpt>
      <trkpt lat="43.57579" lon="1.13482">
        <ele>298</ele>
        <time>2023-11-19T08:40:24Z</time>
      </trkpt>
      <trkpt lat="43.57589" lon="1.13463">
        <ele>299</ele>
        <time>2023-11-19T08:40:28Z</time>
      </trkpt>
      <trkpt lat="43.57595" lon="1.13453">
        <ele>299.2</ele>
        <time>2023-11-19T08:40:30Z</time>
      </trkpt>
      <trkpt lat="43.57609" lon="1.13425">
        <ele>300.2</ele>
        <time>2023-11-19T08:40:35Z</time>
      </trkpt>
      <trkpt lat="43.57621" lon="1.13403">
        <ele>300.6</ele>
        <time>2023-11-19T08:40:39Z</time>
      </trkpt>
      <trkpt lat="43.57649" lon="1.13349">
        <ele>301.2</ele>
        <time>2023-11-19T08:40:48Z</time>
      </trkpt>
      <trkpt lat="43.57652" lon="1.13343">
        <ele>301.4</ele>
        <time>2023-11-19T08:40:49Z</time>
      </trkpt>
      <trkpt lat="43.57676" lon="1.13297">
        <ele>301.8</ele>
        <time>2023-11-19T08:40:56Z</time>
      </trkpt>
      <trkpt lat="43.57708" lon="1.13243">
        <ele>301.8</ele>
        <time>2023-11-19T08:41:04Z</time>
      </trkpt>
      <trkpt lat="43.57742" lon="1.13183">
        <ele>301.4</ele>
        <time>2023-11-19T08:41:13Z</time>
      </trkpt>
      <trkpt lat="43.57754" lon="1.13164">
        <ele>301.4</ele>
        <time>2023-11-19T08:41:16Z</time>
      </trkpt>
      <trkpt lat="43.57772" lon="1.13136">
        <ele>301.2</ele>
        <time>2023-11-19T08:41:21Z</time>
      </trkpt>
      <trkpt lat="43.57776" lon="1.13133">
        <ele>301.2</ele>
        <time>2023-11-19T08:41:22Z</time>
      </trkpt>
      <trkpt lat="43.57779" lon="1.1313">
        <ele>301.2</ele>
        <time>2023-11-19T08:41:23Z</time>
      </trkpt>
      <trkpt lat="43.5779" lon="1.13128">
        <ele>300.8</ele>
        <time>2023-11-19T08:41:26Z</time>
      </trkpt>
      <trkpt lat="43.57805" lon="1.13133">
        <ele>300.6</ele>
        <time>2023-11-19T08:41:32Z</time>
      </trkpt>
      <trkpt lat="43.57823" lon="1.13137">
        <ele>301.4</ele>
        <time>2023-11-19T08:41:40Z</time>
      </trkpt>
      <trkpt lat="43.57825" lon="1.13135">
        <ele>301.4</ele>
        <time>2023-11-19T08:41:42Z</time>
      </trkpt>
      <trkpt lat="43.57825" lon="1.13133">
        <ele>301.4</ele>
        <time>2023-11-19T08:41:43Z</time>
      </trkpt>
      <trkpt lat="43.57817" lon="1.1313">
        <ele>301.6</ele>
        <time>2023-11-19T08:41:47Z</time>
      </trkpt>
      <trkpt lat="43.57804" lon="1.13128">
        <ele>301.4</ele>
        <time>2023-11-19T08:41:54Z</time>
      </trkpt>
      <trkpt lat="43.57804" lon="1.13129">
        <ele>301.4</ele>
        <time>2023-11-19T08:41:55Z</time>
      </trkpt>
      <trkpt lat="43.57807" lon="1.13134">
        <ele>301.4</ele>
        <time>2023-11-19T08:41:59Z</time>
      </trkpt>
      <trkpt lat="43.57817" lon="1.13136">
        <ele>301.2</ele>
        <time>2023-11-19T08:42:07Z</time>
      </trkpt>
      <trkpt lat="43.57832" lon="1.1314">
        <ele>301.2</ele>
        <time>2023-11-19T08:42:14Z</time>
      </trkpt>
      <trkpt lat="43.57838" lon="1.13141">
        <ele>301.4</ele>
        <time>2023-11-19T08:42:16Z</time>
      </trkpt>
      <trkpt lat="43.57858" lon="1.13146">
        <ele>301.6</ele>
        <time>2023-11-19T08:42:22Z</time>
      </trkpt>
      <trkpt lat="43.57893" lon="1.13158">
        <ele>301.8</ele>
        <time>2023-11-19T08:42:30Z</time>
      </trkpt>
      <trkpt lat="43.57937" lon="1.1318">
        <ele>302</ele>
        <time>2023-11-19T08:42:39Z</time>
      </trkpt>
      <trkpt lat="43.57991" lon="1.13211">
        <ele>302.2</ele>
        <time>2023-11-19T08:42:50Z</time>
      </trkpt>
      <trkpt lat="43.58032" lon="1.13233">
        <ele>302.4</ele>
        <time>2023-11-19T08:42:58Z</time>
      </trkpt>
      <trkpt lat="43.58067" lon="1.13255">
        <ele>302.4</ele>
        <time>2023-11-19T08:43:05Z</time>
      </trkpt>
      <trkpt lat="43.58071" lon="1.1326">
        <ele>302.4</ele>
        <time>2023-11-19T08:43:06Z</time>
      </trkpt>
      <trkpt lat="43.5808" lon="1.13269">
        <ele>302.6</ele>
        <time>2023-11-19T08:43:08Z</time>
      </trkpt>
      <trkpt lat="43.58094" lon="1.13293">
        <ele>302.8</ele>
        <time>2023-11-19T08:43:12Z</time>
      </trkpt>
      <trkpt lat="43.58099" lon="1.13305">
        <ele>302.8</ele>
        <time>2023-11-19T08:43:14Z</time>
      </trkpt>
      <trkpt lat="43.58103" lon="1.13329">
        <ele>303</ele>
        <time>2023-11-19T08:43:17Z</time>
      </trkpt>
      <trkpt lat="43.58101" lon="1.13383">
        <ele>303.6</ele>
        <time>2023-11-19T08:43:24Z</time>
      </trkpt>
      <trkpt lat="43.58099" lon="1.13401">
        <ele>303.6</ele>
        <time>2023-11-19T08:43:26Z</time>
      </trkpt>
      <trkpt lat="43.58095" lon="1.13436">
        <ele>304</ele>
        <time>2023-11-19T08:43:30Z</time>
      </trkpt>
      <trkpt lat="43.58093" lon="1.13454">
        <ele>304</ele>
        <time>2023-11-19T08:43:32Z</time>
      </trkpt>
      <trkpt lat="43.58089" lon="1.13533">
        <ele>304</ele>
        <time>2023-11-19T08:43:41Z</time>
      </trkpt>
      <trkpt lat="43.58093" lon="1.13594">
        <ele>303.8</ele>
        <time>2023-11-19T08:43:49Z</time>
      </trkpt>
      <trkpt lat="43.58107" lon="1.13674">
        <ele>303.4</ele>
        <time>2023-11-19T08:43:59Z</time>
      </trkpt>
      <trkpt lat="43.58121" lon="1.13752">
        <ele>303</ele>
        <time>2023-11-19T08:44:08Z</time>
      </trkpt>
      <trkpt lat="43.58122" lon="1.13761">
        <ele>303</ele>
        <time>2023-11-19T08:44:09Z</time>
      </trkpt>
      <trkpt lat="43.58135" lon="1.13835">
        <ele>303</ele>
        <time>2023-11-19T08:44:18Z</time>
      </trkpt>
      <trkpt lat="43.58143" lon="1.13876">
        <ele>303.2</ele>
        <time>2023-11-19T08:44:23Z</time>
      </trkpt>
      <trkpt lat="43.58158" lon="1.13948">
        <ele>303.4</ele>
        <time>2023-11-19T08:44:32Z</time>
      </trkpt>
      <trkpt lat="43.58165" lon="1.13978">
        <ele>303.4</ele>
        <time>2023-11-19T08:44:36Z</time>
      </trkpt>
      <trkpt lat="43.58176" lon="1.14052">
        <ele>303.8</ele>
        <time>2023-11-19T08:44:45Z</time>
      </trkpt>
      <trkpt lat="43.58177" lon="1.1406">
        <ele>304</ele>
        <time>2023-11-19T08:44:46Z</time>
      </trkpt>
      <trkpt lat="43.58186" lon="1.1414">
        <ele>304.6</ele>
        <time>2023-11-19T08:44:56Z</time>
      </trkpt>
      <trkpt lat="43.5819" lon="1.14155">
        <ele>304.8</ele>
        <time>2023-11-19T08:44:58Z</time>
      </trkpt>
      <trkpt lat="43.58199" lon="1.14175">
        <ele>305</ele>
        <time>2023-11-19T08:45:01Z</time>
      </trkpt>
      <trkpt lat="43.58202" lon="1.14179">
        <ele>305</ele>
        <time>2023-11-19T08:45:02Z</time>
      </trkpt>
      <trkpt lat="43.58207" lon="1.14185">
        <ele>305</ele>
        <time>2023-11-19T08:45:03Z</time>
      </trkpt>
      <trkpt lat="43.58216" lon="1.14191">
        <ele>305.2</ele>
        <time>2023-11-19T08:45:05Z</time>
      </trkpt>
      <trkpt lat="43.5822" lon="1.14193">
        <ele>305.4</ele>
        <time>2023-11-19T08:45:06Z</time>
      </trkpt>
      <trkpt lat="43.5823" lon="1.14198">
        <ele>305.6</ele>
        <time>2023-11-19T08:45:08Z</time>
      </trkpt>
      <trkpt lat="43.58234" lon="1.14201">
        <ele>305.8</ele>
        <time>2023-11-19T08:45:09Z</time>
      </trkpt>
      <trkpt lat="43.58239" lon="1.14204">
        <ele>305.8</ele>
        <time>2023-11-19T08:45:10Z</time>
      </trkpt>
      <trkpt lat="43.58244" lon="1.14207">
        <ele>305.8</ele>
        <time>2023-11-19T08:45:11Z</time>
      </trkpt>
      <trkpt lat="43.5825" lon="1.14208">
        <ele>305.8</ele>
        <time>2023-11-19T08:45:12Z</time>
      </trkpt>
      <trkpt lat="43.58261" lon="1.14205">
        <ele>305.8</ele>
        <time>2023-11-19T08:45:14Z</time>
      </trkpt>
      <trkpt lat="43.58272" lon="1.14201">
        <ele>305.8</ele>
        <time>2023-11-19T08:45:16Z</time>
      </trkpt>
      <trkpt lat="43.58295" lon="1.14196">
        <ele>306</ele>
        <time>2023-11-19T08:45:20Z</time>
      </trkpt>
      <trkpt lat="43.5834" lon="1.14198">
        <ele>306.8</ele>
        <time>2023-11-19T08:45:28Z</time>
      </trkpt>
      <trkpt lat="43.58346" lon="1.14198">
        <ele>306.8</ele>
        <time>2023-11-19T08:45:29Z</time>
      </trkpt>
      <trkpt lat="43.58374" lon="1.14201">
        <ele>307.2</ele>
        <time>2023-11-19T08:45:33Z</time>
      </trkpt>
      <trkpt lat="43.58381" lon="1.14203">
        <ele>307.2</ele>
        <time>2023-11-19T08:45:34Z</time>
      </trkpt>
      <trkpt lat="43.58393" lon="1.1421">
        <ele>307.2</ele>
        <time>2023-11-19T08:45:36Z</time>
      </trkpt>
      <trkpt lat="43.58405" lon="1.1421">
        <ele>307</ele>
        <time>2023-11-19T08:45:38Z</time>
      </trkpt>
      <trkpt lat="43.58424" lon="1.14202">
        <ele>306.8</ele>
        <time>2023-11-19T08:45:41Z</time>
      </trkpt>
      <trkpt lat="43.58438" lon="1.14203">
        <ele>306.6</ele>
        <time>2023-11-19T08:45:43Z</time>
      </trkpt>
      <trkpt lat="43.58465" lon="1.14224">
        <ele>305.8</ele>
        <time>2023-11-19T08:45:47Z</time>
      </trkpt>
      <trkpt lat="43.58478" lon="1.14238">
        <ele>305.8</ele>
        <time>2023-11-19T08:45:49Z</time>
      </trkpt>
      <trkpt lat="43.58513" lon="1.14273">
        <ele>304.6</ele>
        <time>2023-11-19T08:45:54Z</time>
      </trkpt>
      <trkpt lat="43.58527" lon="1.14287">
        <ele>303.6</ele>
        <time>2023-11-19T08:45:56Z</time>
      </trkpt>
      <trkpt lat="43.5855" lon="1.14305">
        <ele>302.2</ele>
        <time>2023-11-19T08:45:59Z</time>
      </trkpt>
      <trkpt lat="43.58565" lon="1.14315">
        <ele>301.8</ele>
        <time>2023-11-19T08:46:01Z</time>
      </trkpt>
      <trkpt lat="43.58617" lon="1.14346">
        <ele>301.4</ele>
        <time>2023-11-19T08:46:08Z</time>
      </trkpt>
      <trkpt lat="43.58624" lon="1.14351">
        <ele>301.4</ele>
        <time>2023-11-19T08:46:09Z</time>
      </trkpt>
      <trkpt lat="43.5868" lon="1.14382">
        <ele>301.8</ele>
        <time>2023-11-19T08:46:17Z</time>
      </trkpt>
      <trkpt lat="43.58687" lon="1.14386">
        <ele>302</ele>
        <time>2023-11-19T08:46:18Z</time>
      </trkpt>
      <trkpt lat="43.58743" lon="1.14418">
        <ele>302.8</ele>
        <time>2023-11-19T08:46:26Z</time>
      </trkpt>
      <trkpt lat="43.58781" lon="1.14438">
        <ele>303</ele>
        <time>2023-11-19T08:46:31Z</time>
      </trkpt>
      <trkpt lat="43.58831" lon="1.1447">
        <ele>302.8</ele>
        <time>2023-11-19T08:46:38Z</time>
      </trkpt>
      <trkpt lat="43.58839" lon="1.14474">
        <ele>302.8</ele>
        <time>2023-11-19T08:46:39Z</time>
      </trkpt>
      <trkpt lat="43.58884" lon="1.14497">
        <ele>302.4</ele>
        <time>2023-11-19T08:46:45Z</time>
      </trkpt>
      <trkpt lat="43.58918" lon="1.14526">
        <ele>302.2</ele>
        <time>2023-11-19T08:46:50Z</time>
      </trkpt>
      <trkpt lat="43.58946" lon="1.14562">
        <ele>302.2</ele>
        <time>2023-11-19T08:46:55Z</time>
      </trkpt>
      <trkpt lat="43.58972" lon="1.14612">
        <ele>301.8</ele>
        <time>2023-11-19T08:47:01Z</time>
      </trkpt>
      <trkpt lat="43.58999" lon="1.14679">
        <ele>301.6</ele>
        <time>2023-11-19T08:47:08Z</time>
      </trkpt>
      <trkpt lat="43.59003" lon="1.1469">
        <ele>301.6</ele>
        <time>2023-11-19T08:47:09Z</time>
      </trkpt>
      <trkpt lat="43.59011" lon="1.14713">
        <ele>301.2</ele>
        <time>2023-11-19T08:47:11Z</time>
      </trkpt>
      <trkpt lat="43.59015" lon="1.14723">
        <ele>301</ele>
        <time>2023-11-19T08:47:12Z</time>
      </trkpt>
      <trkpt lat="43.59026" lon="1.14744">
        <ele>300.6</ele>
        <time>2023-11-19T08:47:14Z</time>
      </trkpt>
      <trkpt lat="43.59035" lon="1.14764">
        <ele>299.8</ele>
        <time>2023-11-19T08:47:16Z</time>
      </trkpt>
      <trkpt lat="43.59047" lon="1.14792">
        <ele>299</ele>
        <time>2023-11-19T08:47:19Z</time>
      </trkpt>
      <trkpt lat="43.59063" lon="1.14833">
        <ele>299</ele>
        <time>2023-11-19T08:47:24Z</time>
      </trkpt>
      <trkpt lat="43.5908" lon="1.14876">
        <ele>299.8</ele>
        <time>2023-11-19T08:47:30Z</time>
      </trkpt>
      <trkpt lat="43.59087" lon="1.14894">
        <ele>300.6</ele>
        <time>2023-11-19T08:47:33Z</time>
      </trkpt>
      <trkpt lat="43.59088" lon="1.149">
        <ele>300.8</ele>
        <time>2023-11-19T08:47:34Z</time>
      </trkpt>
      <trkpt lat="43.59089" lon="1.14906">
        <ele>301</ele>
        <time>2023-11-19T08:47:35Z</time>
      </trkpt>
      <trkpt lat="43.59094" lon="1.14917">
        <ele>301.4</ele>
        <time>2023-11-19T08:47:37Z</time>
      </trkpt>
      <trkpt lat="43.59102" lon="1.14924">
        <ele>302</ele>
        <time>2023-11-19T08:47:39Z</time>
      </trkpt>
      <trkpt lat="43.59131" lon="1.14941">
        <ele>303</ele>
        <time>2023-11-19T08:47:45Z</time>
      </trkpt>
      <trkpt lat="43.59142" lon="1.14944">
        <ele>303.2</ele>
        <time>2023-11-19T08:47:47Z</time>
      </trkpt>
      <trkpt lat="43.59153" lon="1.14939">
        <ele>303.4</ele>
        <time>2023-11-19T08:47:49Z</time>
      </trkpt>
      <trkpt lat="43.59161" lon="1.14925">
        <ele>303.4</ele>
        <time>2023-11-19T08:47:51Z</time>
      </trkpt>
      <trkpt lat="43.59163" lon="1.14917">
        <ele>303.4</ele>
        <time>2023-11-19T08:47:52Z</time>
      </trkpt>
      <trkpt lat="43.59172" lon="1.14895">
        <ele>303.4</ele>
        <time>2023-11-19T08:47:55Z</time>
      </trkpt>
      <trkpt lat="43.59181" lon="1.14885">
        <ele>303.4</ele>
        <time>2023-11-19T08:47:57Z</time>
      </trkpt>
      <trkpt lat="43.59196" lon="1.14882">
        <ele>303.4</ele>
        <time>2023-11-19T08:47:59Z</time>
      </trkpt>
      <trkpt lat="43.59203" lon="1.14884">
        <ele>303.4</ele>
        <time>2023-11-19T08:48:00Z</time>
      </trkpt>
      <trkpt lat="43.59247" lon="1.14907">
        <ele>303.4</ele>
        <time>2023-11-19T08:48:06Z</time>
      </trkpt>
      <trkpt lat="43.59298" lon="1.14941">
        <ele>302.6</ele>
        <time>2023-11-19T08:48:13Z</time>
      </trkpt>
      <trkpt lat="43.59333" lon="1.1497">
        <ele>302</ele>
        <time>2023-11-19T08:48:18Z</time>
      </trkpt>
      <trkpt lat="43.59361" lon="1.14993">
        <ele>301.2</ele>
        <time>2023-11-19T08:48:22Z</time>
      </trkpt>
      <trkpt lat="43.59374" lon="1.15005">
        <ele>301</ele>
        <time>2023-11-19T08:48:24Z</time>
      </trkpt>
      <trkpt lat="43.59415" lon="1.15033">
        <ele>300.4</ele>
        <time>2023-11-19T08:48:30Z</time>
      </trkpt>
      <trkpt lat="43.5947" lon="1.15058">
        <ele>300.2</ele>
        <time>2023-11-19T08:48:38Z</time>
      </trkpt>
      <trkpt lat="43.59524" lon="1.1508">
        <ele>299.8</ele>
        <time>2023-11-19T08:48:45Z</time>
      </trkpt>
      <trkpt lat="43.59568" lon="1.15097">
        <ele>298.8</ele>
        <time>2023-11-19T08:48:50Z</time>
      </trkpt>
      <trkpt lat="43.59577" lon="1.15098">
        <ele>298.2</ele>
        <time>2023-11-19T08:48:51Z</time>
      </trkpt>
      <trkpt lat="43.59586" lon="1.15099">
        <ele>297.6</ele>
        <time>2023-11-19T08:48:52Z</time>
      </trkpt>
      <trkpt lat="43.59595" lon="1.15098">
        <ele>297.4</ele>
        <time>2023-11-19T08:48:53Z</time>
      </trkpt>
      <trkpt lat="43.59612" lon="1.15094">
        <ele>296.8</ele>
        <time>2023-11-19T08:48:55Z</time>
      </trkpt>
      <trkpt lat="43.5962" lon="1.15091">
        <ele>296.4</ele>
        <time>2023-11-19T08:48:56Z</time>
      </trkpt>
      <trkpt lat="43.59642" lon="1.15081">
        <ele>296.2</ele>
        <time>2023-11-19T08:48:59Z</time>
      </trkpt>
      <trkpt lat="43.59673" lon="1.15069">
        <ele>296.4</ele>
        <time>2023-11-19T08:49:04Z</time>
      </trkpt>
      <trkpt lat="43.59711" lon="1.15068">
        <ele>297.6</ele>
        <time>2023-11-19T08:49:10Z</time>
      </trkpt>
      <trkpt lat="43.5972" lon="1.1507">
        <ele>297.8</ele>
        <time>2023-11-19T08:49:11Z</time>
      </trkpt>
      <trkpt lat="43.59747" lon="1.15079">
        <ele>298.2</ele>
        <time>2023-11-19T08:49:15Z</time>
      </trkpt>
      <trkpt lat="43.59754" lon="1.15082">
        <ele>298.4</ele>
        <time>2023-11-19T08:49:16Z</time>
      </trkpt>
      <trkpt lat="43.59789" lon="1.151">
        <ele>298.4</ele>
        <time>2023-11-19T08:49:21Z</time>
      </trkpt>
      <trkpt lat="43.59844" lon="1.15122">
        <ele>298</ele>
        <time>2023-11-19T08:49:28Z</time>
      </trkpt>
      <trkpt lat="43.59853" lon="1.15123">
        <ele>297.6</ele>
        <time>2023-11-19T08:49:29Z</time>
      </trkpt>
      <trkpt lat="43.59864" lon="1.15125">
        <ele>297.8</ele>
        <time>2023-11-19T08:49:30Z</time>
      </trkpt>
      <trkpt lat="43.5989" lon="1.15122">
        <ele>297</ele>
        <time>2023-11-19T08:49:33Z</time>
      </trkpt>
      <trkpt lat="43.59899" lon="1.15121">
        <ele>296.8</ele>
        <time>2023-11-19T08:49:34Z</time>
      </trkpt>
      <trkpt lat="43.59935" lon="1.1511">
        <ele>295.6</ele>
        <time>2023-11-19T08:49:38Z</time>
      </trkpt>
      <trkpt lat="43.59956" lon="1.15103">
        <ele>295.2</ele>
        <time>2023-11-19T08:49:40Z</time>
      </trkpt>
      <trkpt lat="43.59983" lon="1.15098">
        <ele>294.4</ele>
        <time>2023-11-19T08:49:43Z</time>
      </trkpt>
      <trkpt lat="43.59993" lon="1.15098">
        <ele>294</ele>
        <time>2023-11-19T08:49:44Z</time>
      </trkpt>
      <trkpt lat="43.60002" lon="1.15098">
        <ele>293.6</ele>
        <time>2023-11-19T08:49:45Z</time>
      </trkpt>
      <trkpt lat="43.6002" lon="1.151">
        <ele>293.2</ele>
        <time>2023-11-19T08:49:47Z</time>
      </trkpt>
      <trkpt lat="43.6004" lon="1.15104">
        <ele>292.8</ele>
        <time>2023-11-19T08:49:49Z</time>
      </trkpt>
      <trkpt lat="43.60054" lon="1.1511">
        <ele>292.2</ele>
        <time>2023-11-19T08:49:51Z</time>
      </trkpt>
      <trkpt lat="43.60062" lon="1.15114">
        <ele>292</ele>
        <time>2023-11-19T08:49:52Z</time>
      </trkpt>
      <trkpt lat="43.60069" lon="1.15119">
        <ele>291.8</ele>
        <time>2023-11-19T08:49:53Z</time>
      </trkpt>
      <trkpt lat="43.60082" lon="1.15131">
        <ele>291.6</ele>
        <time>2023-11-19T08:49:55Z</time>
      </trkpt>
      <trkpt lat="43.60099" lon="1.1515">
        <ele>291.2</ele>
        <time>2023-11-19T08:49:58Z</time>
      </trkpt>
      <trkpt lat="43.60109" lon="1.15165">
        <ele>291.2</ele>
        <time>2023-11-19T08:50:00Z</time>
      </trkpt>
      <trkpt lat="43.60113" lon="1.15173">
        <ele>291.2</ele>
        <time>2023-11-19T08:50:01Z</time>
      </trkpt>
      <trkpt lat="43.60128" lon="1.15212">
        <ele>291.8</ele>
        <time>2023-11-19T08:50:05Z</time>
      </trkpt>
      <trkpt lat="43.6015" lon="1.1528">
        <ele>292.2</ele>
        <time>2023-11-19T08:50:11Z</time>
      </trkpt>
      <trkpt lat="43.60153" lon="1.15291">
        <ele>292.2</ele>
        <time>2023-11-19T08:50:12Z</time>
      </trkpt>
      <trkpt lat="43.60168" lon="1.15331">
        <ele>292.2</ele>
        <time>2023-11-19T08:50:16Z</time>
      </trkpt>
      <trkpt lat="43.6018" lon="1.15363">
        <ele>291.8</ele>
        <time>2023-11-19T08:50:19Z</time>
      </trkpt>
      <trkpt lat="43.60189" lon="1.15379">
        <ele>291.8</ele>
        <time>2023-11-19T08:50:21Z</time>
      </trkpt>
      <trkpt lat="43.60201" lon="1.15394">
        <ele>291.8</ele>
        <time>2023-11-19T08:50:23Z</time>
      </trkpt>
      <trkpt lat="43.60216" lon="1.15408">
        <ele>291.8</ele>
        <time>2023-11-19T08:50:25Z</time>
      </trkpt>
      <trkpt lat="43.60256" lon="1.15434">
        <ele>292</ele>
        <time>2023-11-19T08:50:31Z</time>
      </trkpt>
      <trkpt lat="43.60294" lon="1.15461">
        <ele>292.2</ele>
        <time>2023-11-19T08:50:37Z</time>
      </trkpt>
      <trkpt lat="43.603" lon="1.15466">
        <ele>292.4</ele>
        <time>2023-11-19T08:50:38Z</time>
      </trkpt>
      <trkpt lat="43.60317" lon="1.15486">
        <ele>292.4</ele>
        <time>2023-11-19T08:50:41Z</time>
      </trkpt>
      <trkpt lat="43.60351" lon="1.15539">
        <ele>292</ele>
        <time>2023-11-19T08:50:47Z</time>
      </trkpt>
      <trkpt lat="43.6039" lon="1.15606">
        <ele>291</ele>
        <time>2023-11-19T08:50:54Z</time>
      </trkpt>
      <trkpt lat="43.604" lon="1.15624">
        <ele>290.8</ele>
        <time>2023-11-19T08:50:56Z</time>
      </trkpt>
      <trkpt lat="43.60429" lon="1.15676">
        <ele>290.4</ele>
        <time>2023-11-19T08:51:02Z</time>
      </trkpt>
      <trkpt lat="43.60461" lon="1.15739">
        <ele>290</ele>
        <time>2023-11-19T08:51:09Z</time>
      </trkpt>
      <trkpt lat="43.60471" lon="1.1576">
        <ele>290</ele>
        <time>2023-11-19T08:51:11Z</time>
      </trkpt>
      <trkpt lat="43.60502" lon="1.15822">
        <ele>289.4</ele>
        <time>2023-11-19T08:51:17Z</time>
      </trkpt>
      <trkpt lat="43.60512" lon="1.15842">
        <ele>288.8</ele>
        <time>2023-11-19T08:51:19Z</time>
      </trkpt>
      <trkpt lat="43.60533" lon="1.15884">
        <ele>288.2</ele>
        <time>2023-11-19T08:51:23Z</time>
      </trkpt>
      <trkpt lat="43.60552" lon="1.1591">
        <ele>287.8</ele>
        <time>2023-11-19T08:51:26Z</time>
      </trkpt>
      <trkpt lat="43.60559" lon="1.15916">
        <ele>287.8</ele>
        <time>2023-11-19T08:51:27Z</time>
      </trkpt>
      <trkpt lat="43.60597" lon="1.15943">
        <ele>287.4</ele>
        <time>2023-11-19T08:51:32Z</time>
      </trkpt>
      <trkpt lat="43.60632" lon="1.15963">
        <ele>287.2</ele>
        <time>2023-11-19T08:51:37Z</time>
      </trkpt>
      <trkpt lat="43.6068" lon="1.15983">
        <ele>287.8</ele>
        <time>2023-11-19T08:51:44Z</time>
      </trkpt>
      <trkpt lat="43.60733" lon="1.16005">
        <ele>288.4</ele>
        <time>2023-11-19T08:51:51Z</time>
      </trkpt>
      <trkpt lat="43.60741" lon="1.16009">
        <ele>288.4</ele>
        <time>2023-11-19T08:51:52Z</time>
      </trkpt>
      <trkpt lat="43.60795" lon="1.16036">
        <ele>288</ele>
        <time>2023-11-19T08:51:59Z</time>
      </trkpt>
      <trkpt lat="43.60802" lon="1.16041">
        <ele>287.8</ele>
        <time>2023-11-19T08:52:00Z</time>
      </trkpt>
      <trkpt lat="43.60819" lon="1.16057">
        <ele>287.4</ele>
        <time>2023-11-19T08:52:03Z</time>
      </trkpt>
      <trkpt lat="43.60825" lon="1.16064">
        <ele>287.2</ele>
        <time>2023-11-19T08:52:04Z</time>
      </trkpt>
      <trkpt lat="43.60852" lon="1.16098">
        <ele>286.6</ele>
        <time>2023-11-19T08:52:08Z</time>
      </trkpt>
      <trkpt lat="43.60864" lon="1.16116">
        <ele>286.4</ele>
        <time>2023-11-19T08:52:10Z</time>
      </trkpt>
      <trkpt lat="43.60876" lon="1.16133">
        <ele>285.4</ele>
        <time>2023-11-19T08:52:12Z</time>
      </trkpt>
      <trkpt lat="43.60897" lon="1.16165">
        <ele>284.8</ele>
        <time>2023-11-19T08:52:15Z</time>
      </trkpt>
      <trkpt lat="43.60911" lon="1.16186">
        <ele>283.8</ele>
        <time>2023-11-19T08:52:17Z</time>
      </trkpt>
      <trkpt lat="43.6093" lon="1.16217">
        <ele>282.2</ele>
        <time>2023-11-19T08:52:20Z</time>
      </trkpt>
      <trkpt lat="43.60942" lon="1.16237">
        <ele>281.2</ele>
        <time>2023-11-19T08:52:22Z</time>
      </trkpt>
      <trkpt lat="43.60967" lon="1.16278">
        <ele>279.6</ele>
        <time>2023-11-19T08:52:26Z</time>
      </trkpt>
      <trkpt lat="43.60986" lon="1.16308">
        <ele>278.4</ele>
        <time>2023-11-19T08:52:29Z</time>
      </trkpt>
      <trkpt lat="43.61005" lon="1.16338">
        <ele>277.4</ele>
        <time>2023-11-19T08:52:32Z</time>
      </trkpt>
      <trkpt lat="43.61011" lon="1.16348">
        <ele>276.8</ele>
        <time>2023-11-19T08:52:33Z</time>
      </trkpt>
      <trkpt lat="43.61036" lon="1.16389">
        <ele>275.8</ele>
        <time>2023-11-19T08:52:37Z</time>
      </trkpt>
      <trkpt lat="43.61063" lon="1.16432">
        <ele>275</ele>
        <time>2023-11-19T08:52:42Z</time>
      </trkpt>
      <trkpt lat="43.61075" lon="1.1645">
        <ele>274.8</ele>
        <time>2023-11-19T08:52:44Z</time>
      </trkpt>
      <trkpt lat="43.61116" lon="1.16514">
        <ele>274.4</ele>
        <time>2023-11-19T08:52:51Z</time>
      </trkpt>
      <trkpt lat="43.6112" lon="1.16521">
        <ele>274.2</ele>
        <time>2023-11-19T08:52:52Z</time>
      </trkpt>
      <trkpt lat="43.61158" lon="1.16582">
        <ele>274.4</ele>
        <time>2023-11-19T08:52:59Z</time>
      </trkpt>
      <trkpt lat="43.61176" lon="1.16609">
        <ele>274.4</ele>
        <time>2023-11-19T08:53:02Z</time>
      </trkpt>
      <trkpt lat="43.61213" lon="1.16646">
        <ele>274.6</ele>
        <time>2023-11-19T08:53:08Z</time>
      </trkpt>
      <trkpt lat="43.61264" lon="1.16686">
        <ele>275.6</ele>
        <time>2023-11-19T08:53:16Z</time>
      </trkpt>
      <trkpt lat="43.61277" lon="1.16696">
        <ele>276</ele>
        <time>2023-11-19T08:53:18Z</time>
      </trkpt>
      <trkpt lat="43.61314" lon="1.16725">
        <ele>277</ele>
        <time>2023-11-19T08:53:24Z</time>
      </trkpt>
      <trkpt lat="43.61327" lon="1.16735">
        <ele>277.6</ele>
        <time>2023-11-19T08:53:26Z</time>
      </trkpt>
      <trkpt lat="43.61333" lon="1.1674">
        <ele>278.2</ele>
        <time>2023-11-19T08:53:28Z</time>
      </trkpt>
      <trkpt lat="43.61372" lon="1.16776">
        <ele>279.2</ele>
        <time>2023-11-19T08:53:33Z</time>
      </trkpt>
      <trkpt lat="43.61397" lon="1.16814">
        <ele>280.2</ele>
        <time>2023-11-19T08:53:38Z</time>
      </trkpt>
      <trkpt lat="43.61401" lon="1.16822">
        <ele>280.4</ele>
        <time>2023-11-19T08:53:39Z</time>
      </trkpt>
      <trkpt lat="43.61434" lon="1.16891">
        <ele>281</ele>
        <time>2023-11-19T08:53:47Z</time>
      </trkpt>
      <trkpt lat="43.6147" lon="1.1695">
        <ele>281.4</ele>
        <time>2023-11-19T08:53:54Z</time>
      </trkpt>
      <trkpt lat="43.6151" lon="1.17001">
        <ele>281</ele>
        <time>2023-11-19T08:54:01Z</time>
      </trkpt>
      <trkpt lat="43.61522" lon="1.17016">
        <ele>280.8</ele>
        <time>2023-11-19T08:54:03Z</time>
      </trkpt>
      <trkpt lat="43.61543" lon="1.1704">
        <ele>280.2</ele>
        <time>2023-11-19T08:54:06Z</time>
      </trkpt>
      <trkpt lat="43.61564" lon="1.17064">
        <ele>279.2</ele>
        <time>2023-11-19T08:54:09Z</time>
      </trkpt>
      <trkpt lat="43.61573" lon="1.17071">
        <ele>279</ele>
        <time>2023-11-19T08:54:10Z</time>
      </trkpt>
      <trkpt lat="43.61599" lon="1.1709">
        <ele>277.8</ele>
        <time>2023-11-19T08:54:13Z</time>
      </trkpt>
      <trkpt lat="43.61608" lon="1.17095">
        <ele>277.6</ele>
        <time>2023-11-19T08:54:14Z</time>
      </trkpt>
      <trkpt lat="43.61625" lon="1.17106">
        <ele>276.4</ele>
        <time>2023-11-19T08:54:16Z</time>
      </trkpt>
      <trkpt lat="43.61668" lon="1.17131">
        <ele>275.4</ele>
        <time>2023-11-19T08:54:21Z</time>
      </trkpt>
      <trkpt lat="43.61677" lon="1.17135">
        <ele>275</ele>
        <time>2023-11-19T08:54:22Z</time>
      </trkpt>
      <trkpt lat="43.61694" lon="1.17143">
        <ele>274.4</ele>
        <time>2023-11-19T08:54:24Z</time>
      </trkpt>
      <trkpt lat="43.61725" lon="1.17158">
        <ele>273.4</ele>
        <time>2023-11-19T08:54:28Z</time>
      </trkpt>
      <trkpt lat="43.61733" lon="1.17162">
        <ele>273.2</ele>
        <time>2023-11-19T08:54:29Z</time>
      </trkpt>
      <trkpt lat="43.61754" lon="1.1718">
        <ele>272.4</ele>
        <time>2023-11-19T08:54:32Z</time>
      </trkpt>
      <trkpt lat="43.61761" lon="1.17187">
        <ele>272</ele>
        <time>2023-11-19T08:54:33Z</time>
      </trkpt>
      <trkpt lat="43.61793" lon="1.17228">
        <ele>271</ele>
        <time>2023-11-19T08:54:38Z</time>
      </trkpt>
      <trkpt lat="43.618" lon="1.17237">
        <ele>270.8</ele>
        <time>2023-11-19T08:54:39Z</time>
      </trkpt>
      <trkpt lat="43.61841" lon="1.17287">
        <ele>270</ele>
        <time>2023-11-19T08:54:45Z</time>
      </trkpt>
      <trkpt lat="43.61847" lon="1.17295">
        <ele>269.6</ele>
        <time>2023-11-19T08:54:46Z</time>
      </trkpt>
      <trkpt lat="43.61866" lon="1.17322">
        <ele>268.8</ele>
        <time>2023-11-19T08:54:49Z</time>
      </trkpt>
      <trkpt lat="43.61897" lon="1.17367">
        <ele>267.6</ele>
        <time>2023-11-19T08:54:54Z</time>
      </trkpt>
      <trkpt lat="43.61916" lon="1.17394">
        <ele>266.6</ele>
        <time>2023-11-19T08:54:57Z</time>
      </trkpt>
      <trkpt lat="43.61936" lon="1.17419">
        <ele>265.4</ele>
        <time>2023-11-19T08:55:00Z</time>
      </trkpt>
      <trkpt lat="43.6195" lon="1.17437">
        <ele>265</ele>
        <time>2023-11-19T08:55:02Z</time>
      </trkpt>
      <trkpt lat="43.61972" lon="1.17463">
        <ele>264.4</ele>
        <time>2023-11-19T08:55:05Z</time>
      </trkpt>
      <trkpt lat="43.61986" lon="1.1748">
        <ele>263.8</ele>
        <time>2023-11-19T08:55:07Z</time>
      </trkpt>
      <trkpt lat="43.62001" lon="1.17496">
        <ele>263.2</ele>
        <time>2023-11-19T08:55:09Z</time>
      </trkpt>
      <trkpt lat="43.62041" lon="1.17539">
        <ele>262</ele>
        <time>2023-11-19T08:55:15Z</time>
      </trkpt>
      <trkpt lat="43.62061" lon="1.17563">
        <ele>261.4</ele>
        <time>2023-11-19T08:55:20Z</time>
      </trkpt>
      <trkpt lat="43.62069" lon="1.17582">
        <ele>261.2</ele>
        <time>2023-11-19T08:55:24Z</time>
      </trkpt>
      <trkpt lat="43.62068" lon="1.17594">
        <ele>261.2</ele>
        <time>2023-11-19T08:55:26Z</time>
      </trkpt>
      <trkpt lat="43.62067" lon="1.17607">
        <ele>261.2</ele>
        <time>2023-11-19T08:55:28Z</time>
      </trkpt>
      <trkpt lat="43.62062" lon="1.17648">
        <ele>261.6</ele>
        <time>2023-11-19T08:55:34Z</time>
      </trkpt>
      <trkpt lat="43.62061" lon="1.17655">
        <ele>261.6</ele>
        <time>2023-11-19T08:55:35Z</time>
      </trkpt>
      <trkpt lat="43.62051" lon="1.17717">
        <ele>262.2</ele>
        <time>2023-11-19T08:55:42Z</time>
      </trkpt>
      <trkpt lat="43.62042" lon="1.1778">
        <ele>263.2</ele>
        <time>2023-11-19T08:55:49Z</time>
      </trkpt>
      <trkpt lat="43.62039" lon="1.17797">
        <ele>263.4</ele>
        <time>2023-11-19T08:55:51Z</time>
      </trkpt>
      <trkpt lat="43.62035" lon="1.1783">
        <ele>264.2</ele>
        <time>2023-11-19T08:55:55Z</time>
      </trkpt>
      <trkpt lat="43.62033" lon="1.17862">
        <ele>264.8</ele>
        <time>2023-11-19T08:55:59Z</time>
      </trkpt>
      <trkpt lat="43.62032" lon="1.1789">
        <ele>265.2</ele>
        <time>2023-11-19T08:56:03Z</time>
      </trkpt>
      <trkpt lat="43.62035" lon="1.17894">
        <ele>265.4</ele>
        <time>2023-11-19T08:56:04Z</time>
      </trkpt>
      <trkpt lat="43.62039" lon="1.17898">
        <ele>265.6</ele>
        <time>2023-11-19T08:56:05Z</time>
      </trkpt>
      <trkpt lat="43.62054" lon="1.17907">
        <ele>265.8</ele>
        <time>2023-11-19T08:56:08Z</time>
      </trkpt>
      <trkpt lat="43.62087" lon="1.17929">
        <ele>265.8</ele>
        <time>2023-11-19T08:56:14Z</time>
      </trkpt>
      <trkpt lat="43.62127" lon="1.17957">
        <ele>265.2</ele>
        <time>2023-11-19T08:56:20Z</time>
      </trkpt>
      <trkpt lat="43.62165" lon="1.17982">
        <ele>264.4</ele>
        <time>2023-11-19T08:56:25Z</time>
      </trkpt>
      <trkpt lat="43.62173" lon="1.17986">
        <ele>264.2</ele>
        <time>2023-11-19T08:56:26Z</time>
      </trkpt>
      <trkpt lat="43.6219" lon="1.17992">
        <ele>263.8</ele>
        <time>2023-11-19T08:56:28Z</time>
      </trkpt>
      <trkpt lat="43.622" lon="1.17994">
        <ele>263.8</ele>
        <time>2023-11-19T08:56:29Z</time>
      </trkpt>
      <trkpt lat="43.62236" lon="1.17996">
        <ele>263</ele>
        <time>2023-11-19T08:56:33Z</time>
      </trkpt>
      <trkpt lat="43.62255" lon="1.17996">
        <ele>262.4</ele>
        <time>2023-11-19T08:56:35Z</time>
      </trkpt>
      <trkpt lat="43.62281" lon="1.17997">
        <ele>261.8</ele>
        <time>2023-11-19T08:56:38Z</time>
      </trkpt>
      <trkpt lat="43.62313" lon="1.17998">
        <ele>261.2</ele>
        <time>2023-11-19T08:56:42Z</time>
      </trkpt>
      <trkpt lat="43.62352" lon="1.17998">
        <ele>260.8</ele>
        <time>2023-11-19T08:56:47Z</time>
      </trkpt>
      <trkpt lat="43.62367" lon="1.17999">
        <ele>260.8</ele>
        <time>2023-11-19T08:56:49Z</time>
      </trkpt>
      <trkpt lat="43.62428" lon="1.18002">
        <ele>261</ele>
        <time>2023-11-19T08:56:57Z</time>
      </trkpt>
      <trkpt lat="43.62436" lon="1.18003">
        <ele>261</ele>
        <time>2023-11-19T08:56:58Z</time>
      </trkpt>
      <trkpt lat="43.6248" lon="1.1802">
        <ele>261.2</ele>
        <time>2023-11-19T08:57:04Z</time>
      </trkpt>
      <trkpt lat="43.62523" lon="1.18049">
        <ele>261.4</ele>
        <time>2023-11-19T08:57:10Z</time>
      </trkpt>
      <trkpt lat="43.62561" lon="1.18076">
        <ele>261</ele>
        <time>2023-11-19T08:57:15Z</time>
      </trkpt>
      <trkpt lat="43.62579" lon="1.18087">
        <ele>260.6</ele>
        <time>2023-11-19T08:57:17Z</time>
      </trkpt>
      <trkpt lat="43.626" lon="1.18097">
        <ele>260.2</ele>
        <time>2023-11-19T08:57:19Z</time>
      </trkpt>
      <trkpt lat="43.62611" lon="1.18101">
        <ele>259.6</ele>
        <time>2023-11-19T08:57:20Z</time>
      </trkpt>
      <trkpt lat="43.62648" lon="1.18108">
        <ele>258.4</ele>
        <time>2023-11-19T08:57:23Z</time>
      </trkpt>
      <trkpt lat="43.62672" lon="1.18113">
        <ele>256.4</ele>
        <time>2023-11-19T08:57:25Z</time>
      </trkpt>
      <trkpt lat="43.62697" lon="1.18119">
        <ele>255.2</ele>
        <time>2023-11-19T08:57:27Z</time>
      </trkpt>
      <trkpt lat="43.62734" lon="1.18128">
        <ele>254</ele>
        <time>2023-11-19T08:57:30Z</time>
      </trkpt>
      <trkpt lat="43.62758" lon="1.18136">
        <ele>252.8</ele>
        <time>2023-11-19T08:57:32Z</time>
      </trkpt>
      <trkpt lat="43.62781" lon="1.18144">
        <ele>251.4</ele>
        <time>2023-11-19T08:57:34Z</time>
      </trkpt>
      <trkpt lat="43.62814" lon="1.18154">
        <ele>250.2</ele>
        <time>2023-11-19T08:57:37Z</time>
      </trkpt>
      <trkpt lat="43.62825" lon="1.18158">
        <ele>249.6</ele>
        <time>2023-11-19T08:57:38Z</time>
      </trkpt>
      <trkpt lat="43.62845" lon="1.18165">
        <ele>248.6</ele>
        <time>2023-11-19T08:57:40Z</time>
      </trkpt>
      <trkpt lat="43.62875" lon="1.18175">
        <ele>247.4</ele>
        <time>2023-11-19T08:57:43Z</time>
      </trkpt>
      <trkpt lat="43.62893" lon="1.18181">
        <ele>246.8</ele>
        <time>2023-11-19T08:57:45Z</time>
      </trkpt>
      <trkpt lat="43.62928" lon="1.18192">
        <ele>246.2</ele>
        <time>2023-11-19T08:57:49Z</time>
      </trkpt>
      <trkpt lat="43.62942" lon="1.18196">
        <ele>246</ele>
        <time>2023-11-19T08:57:51Z</time>
      </trkpt>
      <trkpt lat="43.62963" lon="1.18202">
        <ele>246</ele>
        <time>2023-11-19T08:57:55Z</time>
      </trkpt>
      <trkpt lat="43.62976" lon="1.18205">
        <ele>245.8</ele>
        <time>2023-11-19T08:57:59Z</time>
      </trkpt>
      <trkpt lat="43.62985" lon="1.18205">
        <ele>245.6</ele>
        <time>2023-11-19T08:58:01Z</time>
      </trkpt>
      <trkpt lat="43.62994" lon="1.18201">
        <ele>245.6</ele>
        <time>2023-11-19T08:58:03Z</time>
      </trkpt>
      <trkpt lat="43.63022" lon="1.18178">
        <ele>245.6</ele>
        <time>2023-11-19T08:58:09Z</time>
      </trkpt>
      <trkpt lat="43.63059" lon="1.18149">
        <ele>246.4</ele>
        <time>2023-11-19T08:58:16Z</time>
      </trkpt>
      <trkpt lat="43.63101" lon="1.18128">
        <ele>247</ele>
        <time>2023-11-19T08:58:23Z</time>
      </trkpt>
      <trkpt lat="43.63108" lon="1.18126">
        <ele>247.2</ele>
        <time>2023-11-19T08:58:24Z</time>
      </trkpt>
      <trkpt lat="43.63164" lon="1.1811">
        <ele>247.6</ele>
        <time>2023-11-19T08:58:32Z</time>
      </trkpt>
      <trkpt lat="43.63221" lon="1.18094">
        <ele>247.6</ele>
        <time>2023-11-19T08:58:40Z</time>
      </trkpt>
      <trkpt lat="43.63243" lon="1.18089">
        <ele>247.6</ele>
        <time>2023-11-19T08:58:44Z</time>
      </trkpt>
      <trkpt lat="43.633" lon="1.18077">
        <ele>247.6</ele>
        <time>2023-11-19T08:58:51Z</time>
      </trkpt>
      <trkpt lat="43.63308" lon="1.18077">
        <ele>247.6</ele>
        <time>2023-11-19T08:58:52Z</time>
      </trkpt>
      <trkpt lat="43.63315" lon="1.18079">
        <ele>247.6</ele>
        <time>2023-11-19T08:58:53Z</time>
      </trkpt>
      <trkpt lat="43.63322" lon="1.18082">
        <ele>247.2</ele>
        <time>2023-11-19T08:58:54Z</time>
      </trkpt>
      <trkpt lat="43.63335" lon="1.1809">
        <ele>246.6</ele>
        <time>2023-11-19T08:58:56Z</time>
      </trkpt>
      <trkpt lat="43.63341" lon="1.18093">
        <ele>246.6</ele>
        <time>2023-11-19T08:58:57Z</time>
      </trkpt>
      <trkpt lat="43.63363" lon="1.181">
        <ele>246.4</ele>
        <time>2023-11-19T08:59:00Z</time>
      </trkpt>
      <trkpt lat="43.63378" lon="1.18104">
        <ele>246.4</ele>
        <time>2023-11-19T08:59:02Z</time>
      </trkpt>
      <trkpt lat="43.63409" lon="1.18112">
        <ele>246.2</ele>
        <time>2023-11-19T08:59:06Z</time>
      </trkpt>
      <trkpt lat="43.63432" lon="1.18118">
        <ele>246</ele>
        <time>2023-11-19T08:59:09Z</time>
      </trkpt>
      <trkpt lat="43.63446" lon="1.18127">
        <ele>246</ele>
        <time>2023-11-19T08:59:11Z</time>
      </trkpt>
      <trkpt lat="43.63451" lon="1.18134">
        <ele>246</ele>
        <time>2023-11-19T08:59:12Z</time>
      </trkpt>
      <trkpt lat="43.6346" lon="1.18151">
        <ele>246</ele>
        <time>2023-11-19T08:59:14Z</time>
      </trkpt>
      <trkpt lat="43.63472" lon="1.18164">
        <ele>246</ele>
        <time>2023-11-19T08:59:16Z</time>
      </trkpt>
      <trkpt lat="43.63503" lon="1.18178">
        <ele>246.6</ele>
        <time>2023-11-19T08:59:20Z</time>
      </trkpt>
      <trkpt lat="43.63511" lon="1.18183">
        <ele>246.6</ele>
        <time>2023-11-19T08:59:21Z</time>
      </trkpt>
      <trkpt lat="43.63524" lon="1.18199">
        <ele>246.6</ele>
        <time>2023-11-19T08:59:23Z</time>
      </trkpt>
      <trkpt lat="43.63531" lon="1.18222">
        <ele>246.6</ele>
        <time>2023-11-19T08:59:25Z</time>
      </trkpt>
      <trkpt lat="43.63531" lon="1.18262">
        <ele>246.4</ele>
        <time>2023-11-19T08:59:28Z</time>
      </trkpt>
      <trkpt lat="43.6353" lon="1.18317">
        <ele>245</ele>
        <time>2023-11-19T08:59:32Z</time>
      </trkpt>
      <trkpt lat="43.63529" lon="1.18361">
        <ele>244</ele>
        <time>2023-11-19T08:59:35Z</time>
      </trkpt>
      <trkpt lat="43.6353" lon="1.18393">
        <ele>243</ele>
        <time>2023-11-19T08:59:37Z</time>
      </trkpt>
      <trkpt lat="43.63531" lon="1.18436">
        <ele>241.2</ele>
        <time>2023-11-19T08:59:40Z</time>
      </trkpt>
      <trkpt lat="43.63532" lon="1.18462">
        <ele>240.2</ele>
        <time>2023-11-19T08:59:42Z</time>
      </trkpt>
      <trkpt lat="43.63533" lon="1.18505">
        <ele>238.8</ele>
        <time>2023-11-19T08:59:45Z</time>
      </trkpt>
      <trkpt lat="43.63534" lon="1.18558">
        <ele>237.8</ele>
        <time>2023-11-19T08:59:49Z</time>
      </trkpt>
      <trkpt lat="43.63535" lon="1.18597">
        <ele>237</ele>
        <time>2023-11-19T08:59:52Z</time>
      </trkpt>
      <trkpt lat="43.63535" lon="1.18609">
        <ele>236.6</ele>
        <time>2023-11-19T08:59:53Z</time>
      </trkpt>
      <trkpt lat="43.63536" lon="1.18684">
        <ele>236</ele>
        <time>2023-11-19T08:59:59Z</time>
      </trkpt>
      <trkpt lat="43.63536" lon="1.18719">
        <ele>235.6</ele>
        <time>2023-11-19T09:00:02Z</time>
      </trkpt>
      <trkpt lat="43.63537" lon="1.18742">
        <ele>235.4</ele>
        <time>2023-11-19T09:00:04Z</time>
      </trkpt>
      <trkpt lat="43.63539" lon="1.18752">
        <ele>235.2</ele>
        <time>2023-11-19T09:00:05Z</time>
      </trkpt>
      <trkpt lat="43.63543" lon="1.18761">
        <ele>235.2</ele>
        <time>2023-11-19T09:00:06Z</time>
      </trkpt>
      <trkpt lat="43.6355" lon="1.18766">
        <ele>235.2</ele>
        <time>2023-11-19T09:00:07Z</time>
      </trkpt>
      <trkpt lat="43.63557" lon="1.18768">
        <ele>235.2</ele>
        <time>2023-11-19T09:00:08Z</time>
      </trkpt>
      <trkpt lat="43.63581" lon="1.18772">
        <ele>235</ele>
        <time>2023-11-19T09:00:11Z</time>
      </trkpt>
      <trkpt lat="43.63641" lon="1.18782">
        <ele>235</ele>
        <time>2023-11-19T09:00:18Z</time>
      </trkpt>
      <trkpt lat="43.6365" lon="1.18784">
        <ele>235</ele>
        <time>2023-11-19T09:00:19Z</time>
      </trkpt>
      <trkpt lat="43.63712" lon="1.18794">
        <ele>235</ele>
        <time>2023-11-19T09:00:26Z</time>
      </trkpt>
      <trkpt lat="43.6372" lon="1.18796">
        <ele>235</ele>
        <time>2023-11-19T09:00:27Z</time>
      </trkpt>
      <trkpt lat="43.6378" lon="1.18813">
        <ele>234.8</ele>
        <time>2023-11-19T09:00:34Z</time>
      </trkpt>
      <trkpt lat="43.63812" lon="1.1883">
        <ele>234.6</ele>
        <time>2023-11-19T09:00:38Z</time>
      </trkpt>
      <trkpt lat="43.63848" lon="1.18865">
        <ele>234.4</ele>
        <time>2023-11-19T09:00:43Z</time>
      </trkpt>
      <trkpt lat="43.63898" lon="1.18917">
        <ele>234.2</ele>
        <time>2023-11-19T09:00:50Z</time>
      </trkpt>
      <trkpt lat="43.63905" lon="1.18923">
        <ele>234.2</ele>
        <time>2023-11-19T09:00:51Z</time>
      </trkpt>
      <trkpt lat="43.63952" lon="1.18953">
        <ele>234.4</ele>
        <time>2023-11-19T09:00:57Z</time>
      </trkpt>
      <trkpt lat="43.64003" lon="1.18987">
        <ele>234.6</ele>
        <time>2023-11-19T09:01:04Z</time>
      </trkpt>
      <trkpt lat="43.6401" lon="1.18992">
        <ele>234.6</ele>
        <time>2023-11-19T09:01:05Z</time>
      </trkpt>
      <trkpt lat="43.64053" lon="1.19013">
        <ele>234.6</ele>
        <time>2023-11-19T09:01:11Z</time>
      </trkpt>
      <trkpt lat="43.64112" lon="1.1903">
        <ele>234.2</ele>
        <time>2023-11-19T09:01:19Z</time>
      </trkpt>
      <trkpt lat="43.64156" lon="1.19053">
        <ele>234</ele>
        <time>2023-11-19T09:01:25Z</time>
      </trkpt>
      <trkpt lat="43.64187" lon="1.19067">
        <ele>233.4</ele>
        <time>2023-11-19T09:01:29Z</time>
      </trkpt>
      <trkpt lat="43.6421" lon="1.19076">
        <ele>233</ele>
        <time>2023-11-19T09:01:32Z</time>
      </trkpt>
      <trkpt lat="43.64218" lon="1.19079">
        <ele>233</ele>
        <time>2023-11-19T09:01:33Z</time>
      </trkpt>
      <trkpt lat="43.64231" lon="1.19091">
        <ele>232.6</ele>
        <time>2023-11-19T09:01:35Z</time>
      </trkpt>
      <trkpt lat="43.64237" lon="1.19097">
        <ele>232.2</ele>
        <time>2023-11-19T09:01:36Z</time>
      </trkpt>
      <trkpt lat="43.64252" lon="1.19104">
        <ele>231.8</ele>
        <time>2023-11-19T09:01:38Z</time>
      </trkpt>
      <trkpt lat="43.64285" lon="1.19104">
        <ele>231.4</ele>
        <time>2023-11-19T09:01:42Z</time>
      </trkpt>
      <trkpt lat="43.64293" lon="1.19105">
        <ele>231.2</ele>
        <time>2023-11-19T09:01:44Z</time>
      </trkpt>
      <trkpt lat="43.64349" lon="1.19106">
        <ele>231</ele>
        <time>2023-11-19T09:01:50Z</time>
      </trkpt>
      <trkpt lat="43.64349" lon="1.19106">
        <ele>231</ele>
        <time>2023-11-19T09:01:51Z</time>
      </trkpt>
      <trkpt lat="43.64409" lon="1.19096">
        <ele>231.2</ele>
        <time>2023-11-19T09:01:58Z</time>
      </trkpt>
      <trkpt lat="43.64416" lon="1.19094">
        <ele>231.2</ele>
        <time>2023-11-19T09:01:59Z</time>
      </trkpt>
      <trkpt lat="43.64442" lon="1.19087">
        <ele>231.6</ele>
        <time>2023-11-19T09:02:03Z</time>
      </trkpt>
      <trkpt lat="43.64473" lon="1.1908">
        <ele>232.2</ele>
        <time>2023-11-19T09:02:08Z</time>
      </trkpt>
      <trkpt lat="43.6448" lon="1.19079">
        <ele>232.2</ele>
        <time>2023-11-19T09:02:09Z</time>
      </trkpt>
      <trkpt lat="43.64515" lon="1.19076">
        <ele>232.8</ele>
        <time>2023-11-19T09:02:14Z</time>
      </trkpt>
      <trkpt lat="43.64552" lon="1.19074">
        <ele>233.4</ele>
        <time>2023-11-19T09:02:19Z</time>
      </trkpt>
      <trkpt lat="43.64567" lon="1.19071">
        <ele>233.4</ele>
        <time>2023-11-19T09:02:21Z</time>
      </trkpt>
      <trkpt lat="43.64625" lon="1.19054">
        <ele>233.2</ele>
        <time>2023-11-19T09:02:29Z</time>
      </trkpt>
      <trkpt lat="43.64639" lon="1.19049">
        <ele>233.2</ele>
        <time>2023-11-19T09:02:31Z</time>
      </trkpt>
      <trkpt lat="43.64677" lon="1.19035">
        <ele>232.2</ele>
        <time>2023-11-19T09:02:36Z</time>
      </trkpt>
      <trkpt lat="43.64699" lon="1.19031">
        <ele>232</ele>
        <time>2023-11-19T09:02:39Z</time>
      </trkpt>
      <trkpt lat="43.64747" lon="1.19029">
        <ele>231.6</ele>
        <time>2023-11-19T09:02:45Z</time>
      </trkpt>
      <trkpt lat="43.64786" lon="1.19017">
        <ele>231.4</ele>
        <time>2023-11-19T09:02:50Z</time>
      </trkpt>
      <trkpt lat="43.64841" lon="1.19">
        <ele>231.4</ele>
        <time>2023-11-19T09:02:57Z</time>
      </trkpt>
      <trkpt lat="43.64849" lon="1.18998">
        <ele>231.2</ele>
        <time>2023-11-19T09:02:58Z</time>
      </trkpt>
      <trkpt lat="43.64855" lon="1.18996">
        <ele>231</ele>
        <time>2023-11-19T09:03:00Z</time>
      </trkpt>
      <trkpt lat="43.64888" lon="1.18993">
        <ele>230.6</ele>
        <time>2023-11-19T09:03:03Z</time>
      </trkpt>
      <trkpt lat="43.64906" lon="1.18994">
        <ele>230.4</ele>
        <time>2023-11-19T09:03:05Z</time>
      </trkpt>
      <trkpt lat="43.64939" lon="1.18996">
        <ele>229.6</ele>
        <time>2023-11-19T09:03:09Z</time>
      </trkpt>
      <trkpt lat="43.64955" lon="1.18998">
        <ele>229</ele>
        <time>2023-11-19T09:03:11Z</time>
      </trkpt>
      <trkpt lat="43.64964" lon="1.19003">
        <ele>228.8</ele>
        <time>2023-11-19T09:03:12Z</time>
      </trkpt>
      <trkpt lat="43.64968" lon="1.19009">
        <ele>228.6</ele>
        <time>2023-11-19T09:03:13Z</time>
      </trkpt>
      <trkpt lat="43.64973" lon="1.19018">
        <ele>228</ele>
        <time>2023-11-19T09:03:14Z</time>
      </trkpt>
      <trkpt lat="43.64978" lon="1.19029">
        <ele>228</ele>
        <time>2023-11-19T09:03:15Z</time>
      </trkpt>
      <trkpt lat="43.64985" lon="1.19047">
        <ele>227.6</ele>
        <time>2023-11-19T09:03:17Z</time>
      </trkpt>
      <trkpt lat="43.64993" lon="1.19075">
        <ele>227.4</ele>
        <time>2023-11-19T09:03:20Z</time>
      </trkpt>
      <trkpt lat="43.65014" lon="1.19146">
        <ele>228.6</ele>
        <time>2023-11-19T09:03:28Z</time>
      </trkpt>
      <trkpt lat="43.65017" lon="1.19157">
        <ele>228.6</ele>
        <time>2023-11-19T09:03:29Z</time>
      </trkpt>
      <trkpt lat="43.65026" lon="1.19191">
        <ele>229.2</ele>
        <time>2023-11-19T09:03:33Z</time>
      </trkpt>
      <trkpt lat="43.65033" lon="1.19209">
        <ele>229.6</ele>
        <time>2023-11-19T09:03:35Z</time>
      </trkpt>
      <trkpt lat="43.6504" lon="1.19223">
        <ele>229.6</ele>
        <time>2023-11-19T09:03:37Z</time>
      </trkpt>
      <trkpt lat="43.65072" lon="1.19267">
        <ele>230.2</ele>
        <time>2023-11-19T09:03:43Z</time>
      </trkpt>
      <trkpt lat="43.65116" lon="1.19324">
        <ele>229.8</ele>
        <time>2023-11-19T09:03:51Z</time>
      </trkpt>
      <trkpt lat="43.65131" lon="1.19338">
        <ele>229.6</ele>
        <time>2023-11-19T09:03:53Z</time>
      </trkpt>
      <trkpt lat="43.65145" lon="1.19346">
        <ele>229.6</ele>
        <time>2023-11-19T09:03:55Z</time>
      </trkpt>
      <trkpt lat="43.65171" lon="1.1936">
        <ele>229.2</ele>
        <time>2023-11-19T09:03:58Z</time>
      </trkpt>
      <trkpt lat="43.65178" lon="1.19368">
        <ele>229</ele>
        <time>2023-11-19T09:03:59Z</time>
      </trkpt>
      <trkpt lat="43.6518" lon="1.19377">
        <ele>228.4</ele>
        <time>2023-11-19T09:04:00Z</time>
      </trkpt>
      <trkpt lat="43.65183" lon="1.19388">
        <ele>228</ele>
        <time>2023-11-19T09:04:01Z</time>
      </trkpt>
      <trkpt lat="43.65183" lon="1.19399">
        <ele>227.6</ele>
        <time>2023-11-19T09:04:02Z</time>
      </trkpt>
      <trkpt lat="43.65182" lon="1.19412">
        <ele>227</ele>
        <time>2023-11-19T09:04:03Z</time>
      </trkpt>
      <trkpt lat="43.65179" lon="1.19422">
        <ele>226.6</ele>
        <time>2023-11-19T09:04:04Z</time>
      </trkpt>
      <trkpt lat="43.65176" lon="1.19432">
        <ele>226.2</ele>
        <time>2023-11-19T09:04:05Z</time>
      </trkpt>
      <trkpt lat="43.65173" lon="1.19438">
        <ele>226</ele>
        <time>2023-11-19T09:04:06Z</time>
      </trkpt>
      <trkpt lat="43.65165" lon="1.19455">
        <ele>225.6</ele>
        <time>2023-11-19T09:04:08Z</time>
      </trkpt>
      <trkpt lat="43.65163" lon="1.19463">
        <ele>225.4</ele>
        <time>2023-11-19T09:04:09Z</time>
      </trkpt>
      <trkpt lat="43.65163" lon="1.1947">
        <ele>225.2</ele>
        <time>2023-11-19T09:04:10Z</time>
      </trkpt>
      <trkpt lat="43.65165" lon="1.19478">
        <ele>225</ele>
        <time>2023-11-19T09:04:11Z</time>
      </trkpt>
      <trkpt lat="43.65169" lon="1.19486">
        <ele>224.8</ele>
        <time>2023-11-19T09:04:12Z</time>
      </trkpt>
      <trkpt lat="43.65173" lon="1.19496">
        <ele>224.8</ele>
        <time>2023-11-19T09:04:13Z</time>
      </trkpt>
      <trkpt lat="43.65176" lon="1.19514">
        <ele>224.6</ele>
        <time>2023-11-19T09:04:15Z</time>
      </trkpt>
      <trkpt lat="43.6517" lon="1.19535">
        <ele>224.6</ele>
        <time>2023-11-19T09:04:17Z</time>
      </trkpt>
      <trkpt lat="43.65165" lon="1.19544">
        <ele>224.6</ele>
        <time>2023-11-19T09:04:18Z</time>
      </trkpt>
      <trkpt lat="43.65131" lon="1.19589">
        <ele>224.2</ele>
        <time>2023-11-19T09:04:24Z</time>
      </trkpt>
      <trkpt lat="43.65091" lon="1.19639">
        <ele>224.2</ele>
        <time>2023-11-19T09:04:31Z</time>
      </trkpt>
      <trkpt lat="43.65055" lon="1.19667">
        <ele>224.2</ele>
        <time>2023-11-19T09:04:36Z</time>
      </trkpt>
      <trkpt lat="43.65019" lon="1.19695">
        <ele>223.8</ele>
        <time>2023-11-19T09:04:41Z</time>
      </trkpt>
      <trkpt lat="43.65006" lon="1.19709">
        <ele>223.8</ele>
        <time>2023-11-19T09:04:43Z</time>
      </trkpt>
      <trkpt lat="43.64991" lon="1.19734">
        <ele>223.8</ele>
        <time>2023-11-19T09:04:46Z</time>
      </trkpt>
      <trkpt lat="43.64955" lon="1.19799">
        <ele>225</ele>
        <time>2023-11-19T09:04:54Z</time>
      </trkpt>
      <trkpt lat="43.6495" lon="1.19808">
        <ele>225</ele>
        <time>2023-11-19T09:04:55Z</time>
      </trkpt>
      <trkpt lat="43.64947" lon="1.19817">
        <ele>225</ele>
        <time>2023-11-19T09:04:56Z</time>
      </trkpt>
      <trkpt lat="43.64946" lon="1.19826">
        <ele>225.2</ele>
        <time>2023-11-19T09:04:57Z</time>
      </trkpt>
      <trkpt lat="43.64947" lon="1.19833">
        <ele>225.4</ele>
        <time>2023-11-19T09:04:58Z</time>
      </trkpt>
      <trkpt lat="43.6495" lon="1.19842">
        <ele>225.4</ele>
        <time>2023-11-19T09:04:59Z</time>
      </trkpt>
      <trkpt lat="43.64959" lon="1.19861">
        <ele>225.6</ele>
        <time>2023-11-19T09:05:01Z</time>
      </trkpt>
      <trkpt lat="43.64989" lon="1.19914">
        <ele>225.8</ele>
        <time>2023-11-19T09:05:07Z</time>
      </trkpt>
      <trkpt lat="43.65001" lon="1.19934">
        <ele>225.8</ele>
        <time>2023-11-19T09:05:09Z</time>
      </trkpt>
      <trkpt lat="43.65022" lon="1.19965">
        <ele>225.6</ele>
        <time>2023-11-19T09:05:13Z</time>
      </trkpt>
      <trkpt lat="43.65068" lon="1.20015">
        <ele>224.8</ele>
        <time>2023-11-19T09:05:20Z</time>
      </trkpt>
      <trkpt lat="43.65074" lon="1.20022">
        <ele>224.8</ele>
        <time>2023-11-19T09:05:21Z</time>
      </trkpt>
      <trkpt lat="43.65118" lon="1.20073">
        <ele>225</ele>
        <time>2023-11-19T09:05:29Z</time>
      </trkpt>
      <trkpt lat="43.65161" lon="1.2012">
        <ele>224.6</ele>
        <time>2023-11-19T09:05:37Z</time>
      </trkpt>
      <trkpt lat="43.65176" lon="1.2014">
        <ele>224.4</ele>
        <time>2023-11-19T09:05:41Z</time>
      </trkpt>
      <trkpt lat="43.6518" lon="1.2015">
        <ele>224.2</ele>
        <time>2023-11-19T09:05:45Z</time>
      </trkpt>
      <trkpt lat="43.6518" lon="1.20151">
        <ele>224.2</ele>
        <time>2023-11-19T09:05:48Z</time>
      </trkpt>
      <trkpt lat="43.65179" lon="1.20157">
        <ele>223.8</ele>
        <time>2023-11-19T09:06:18Z</time>
      </trkpt>
      <trkpt lat="43.65172" lon="1.20174">
        <ele>223.6</ele>
        <time>2023-11-19T09:06:23Z</time>
      </trkpt>
      <trkpt lat="43.65158" lon="1.20199">
        <ele>223.6</ele>
        <time>2023-11-19T09:06:28Z</time>
      </trkpt>
      <trkpt lat="43.65154" lon="1.20205">
        <ele>223.6</ele>
        <time>2023-11-19T09:06:29Z</time>
      </trkpt>
      <trkpt lat="43.65139" lon="1.20231">
        <ele>223.6</ele>
        <time>2023-11-19T09:06:33Z</time>
      </trkpt>
      <trkpt lat="43.65113" lon="1.20279">
        <ele>223.4</ele>
        <time>2023-11-19T09:06:39Z</time>
      </trkpt>
      <trkpt lat="43.65087" lon="1.20333">
        <ele>222.6</ele>
        <time>2023-11-19T09:06:44Z</time>
      </trkpt>
      <trkpt lat="43.65083" lon="1.20342">
        <ele>222.2</ele>
        <time>2023-11-19T09:06:45Z</time>
      </trkpt>
      <trkpt lat="43.65066" lon="1.20381">
        <ele>221.4</ele>
        <time>2023-11-19T09:06:48Z</time>
      </trkpt>
      <trkpt lat="43.65057" lon="1.20404">
        <ele>220.4</ele>
        <time>2023-11-19T09:06:50Z</time>
      </trkpt>
      <trkpt lat="43.65052" lon="1.20418">
        <ele>220.2</ele>
        <time>2023-11-19T09:06:51Z</time>
      </trkpt>
      <trkpt lat="43.6504" lon="1.20466">
        <ele>218.4</ele>
        <time>2023-11-19T09:06:54Z</time>
      </trkpt>
      <trkpt lat="43.65037" lon="1.20495">
        <ele>217</ele>
        <time>2023-11-19T09:06:56Z</time>
      </trkpt>
      <trkpt lat="43.65036" lon="1.20531">
        <ele>215.8</ele>
        <time>2023-11-19T09:06:58Z</time>
      </trkpt>
      <trkpt lat="43.65037" lon="1.20578">
        <ele>214</ele>
        <time>2023-11-19T09:07:01Z</time>
      </trkpt>
      <trkpt lat="43.65039" lon="1.20612">
        <ele>212.8</ele>
        <time>2023-11-19T09:07:03Z</time>
      </trkpt>
      <trkpt lat="43.6504" lon="1.20646">
        <ele>211.6</ele>
        <time>2023-11-19T09:07:05Z</time>
      </trkpt>
      <trkpt lat="43.65042" lon="1.20664">
        <ele>211.2</ele>
        <time>2023-11-19T09:07:06Z</time>
      </trkpt>
      <trkpt lat="43.65043" lon="1.20682">
        <ele>210.4</ele>
        <time>2023-11-19T09:07:07Z</time>
      </trkpt>
      <trkpt lat="43.65044" lon="1.207">
        <ele>208.8</ele>
        <time>2023-11-19T09:07:09Z</time>
      </trkpt>
      <trkpt lat="43.65047" lon="1.20756">
        <ele>207.4</ele>
        <time>2023-11-19T09:07:11Z</time>
      </trkpt>
      <trkpt lat="43.65048" lon="1.20777">
        <ele>206.4</ele>
        <time>2023-11-19T09:07:12Z</time>
      </trkpt>
      <trkpt lat="43.6505" lon="1.2081">
        <ele>204.8</ele>
        <time>2023-11-19T09:07:14Z</time>
      </trkpt>
      <trkpt lat="43.65054" lon="1.20846">
        <ele>203.6</ele>
        <time>2023-11-19T09:07:16Z</time>
      </trkpt>
      <trkpt lat="43.65057" lon="1.20863">
        <ele>203.2</ele>
        <time>2023-11-19T09:07:17Z</time>
      </trkpt>
      <trkpt lat="43.65061" lon="1.2088">
        <ele>202</ele>
        <time>2023-11-19T09:07:18Z</time>
      </trkpt>
      <trkpt lat="43.65071" lon="1.20914">
        <ele>200.4</ele>
        <time>2023-11-19T09:07:20Z</time>
      </trkpt>
      <trkpt lat="43.65081" lon="1.20947">
        <ele>199</ele>
        <time>2023-11-19T09:07:22Z</time>
      </trkpt>
      <trkpt lat="43.65086" lon="1.20963">
        <ele>197.8</ele>
        <time>2023-11-19T09:07:23Z</time>
      </trkpt>
      <trkpt lat="43.6509" lon="1.20983">
        <ele>197.4</ele>
        <time>2023-11-19T09:07:24Z</time>
      </trkpt>
      <trkpt lat="43.65092" lon="1.20999">
        <ele>196.4</ele>
        <time>2023-11-19T09:07:25Z</time>
      </trkpt>
      <trkpt lat="43.65092" lon="1.21012">
        <ele>195.8</ele>
        <time>2023-11-19T09:07:26Z</time>
      </trkpt>
      <trkpt lat="43.65091" lon="1.21028">
        <ele>195.2</ele>
        <time>2023-11-19T09:07:27Z</time>
      </trkpt>
      <trkpt lat="43.65088" lon="1.21042">
        <ele>194.8</ele>
        <time>2023-11-19T09:07:28Z</time>
      </trkpt>
      <trkpt lat="43.65078" lon="1.21066">
        <ele>194.4</ele>
        <time>2023-11-19T09:07:30Z</time>
      </trkpt>
      <trkpt lat="43.6506" lon="1.21087">
        <ele>194.4</ele>
        <time>2023-11-19T09:07:33Z</time>
      </trkpt>
      <trkpt lat="43.65053" lon="1.21092">
        <ele>194.4</ele>
        <time>2023-11-19T09:07:34Z</time>
      </trkpt>
      <trkpt lat="43.65025" lon="1.21111">
        <ele>195.8</ele>
        <time>2023-11-19T09:07:38Z</time>
      </trkpt>
      <trkpt lat="43.65012" lon="1.21119">
        <ele>196.4</ele>
        <time>2023-11-19T09:07:40Z</time>
      </trkpt>
      <trkpt lat="43.64991" lon="1.21133">
        <ele>197.6</ele>
        <time>2023-11-19T09:07:43Z</time>
      </trkpt>
      <trkpt lat="43.6498" lon="1.21142">
        <ele>198.4</ele>
        <time>2023-11-19T09:07:45Z</time>
      </trkpt>
      <trkpt lat="43.64975" lon="1.21148">
        <ele>198.8</ele>
        <time>2023-11-19T09:07:46Z</time>
      </trkpt>
      <trkpt lat="43.64958" lon="1.21167">
        <ele>200.4</ele>
        <time>2023-11-19T09:07:49Z</time>
      </trkpt>
      <trkpt lat="43.64949" lon="1.21177">
        <ele>201</ele>
        <time>2023-11-19T09:07:51Z</time>
      </trkpt>
      <trkpt lat="43.64945" lon="1.21183">
        <ele>201.8</ele>
        <time>2023-11-19T09:07:52Z</time>
      </trkpt>
      <trkpt lat="43.64933" lon="1.21201">
        <ele>202.8</ele>
        <time>2023-11-19T09:07:55Z</time>
      </trkpt>
      <trkpt lat="43.64925" lon="1.21216">
        <ele>203.4</ele>
        <time>2023-11-19T09:07:57Z</time>
      </trkpt>
      <trkpt lat="43.64921" lon="1.21224">
        <ele>203.8</ele>
        <time>2023-11-19T09:07:58Z</time>
      </trkpt>
      <trkpt lat="43.64909" lon="1.21244">
        <ele>205</ele>
        <time>2023-11-19T09:08:01Z</time>
      </trkpt>
      <trkpt lat="43.64904" lon="1.21251">
        <ele>205.2</ele>
        <time>2023-11-19T09:08:02Z</time>
      </trkpt>
      <trkpt lat="43.64891" lon="1.21267">
        <ele>206.2</ele>
        <time>2023-11-19T09:08:05Z</time>
      </trkpt>
      <trkpt lat="43.64877" lon="1.21285">
        <ele>207.2</ele>
        <time>2023-11-19T09:08:08Z</time>
      </trkpt>
      <trkpt lat="43.64861" lon="1.213">
        <ele>208.4</ele>
        <time>2023-11-19T09:08:11Z</time>
      </trkpt>
      <trkpt lat="43.64847" lon="1.21315">
        <ele>209.2</ele>
        <time>2023-11-19T09:08:14Z</time>
      </trkpt>
      <trkpt lat="43.6483" lon="1.21328">
        <ele>210.4</ele>
        <time>2023-11-19T09:08:17Z</time>
      </trkpt>
      <trkpt lat="43.64813" lon="1.21339">
        <ele>211.4</ele>
        <time>2023-11-19T09:08:20Z</time>
      </trkpt>
      <trkpt lat="43.64808" lon="1.21343">
        <ele>212</ele>
        <time>2023-11-19T09:08:21Z</time>
      </trkpt>
      <trkpt lat="43.64794" lon="1.21353">
        <ele>212.8</ele>
        <time>2023-11-19T09:08:23Z</time>
      </trkpt>
      <trkpt lat="43.64771" lon="1.21371">
        <ele>213.8</ele>
        <time>2023-11-19T09:08:27Z</time>
      </trkpt>
      <trkpt lat="43.64765" lon="1.21377">
        <ele>214.2</ele>
        <time>2023-11-19T09:08:28Z</time>
      </trkpt>
      <trkpt lat="43.64754" lon="1.21389">
        <ele>215.2</ele>
        <time>2023-11-19T09:08:30Z</time>
      </trkpt>
      <trkpt lat="43.64734" lon="1.21414">
        <ele>216.4</ele>
        <time>2023-11-19T09:08:34Z</time>
      </trkpt>
      <trkpt lat="43.64729" lon="1.2142">
        <ele>216.6</ele>
        <time>2023-11-19T09:08:35Z</time>
      </trkpt>
      <trkpt lat="43.64715" lon="1.21438">
        <ele>217.6</ele>
        <time>2023-11-19T09:08:38Z</time>
      </trkpt>
      <trkpt lat="43.64701" lon="1.21455">
        <ele>218.4</ele>
        <time>2023-11-19T09:08:41Z</time>
      </trkpt>
      <trkpt lat="43.64693" lon="1.21467">
        <ele>218.6</ele>
        <time>2023-11-19T09:08:43Z</time>
      </trkpt>
      <trkpt lat="43.64683" lon="1.2148">
        <ele>218.8</ele>
        <time>2023-11-19T09:08:45Z</time>
      </trkpt>
      <trkpt lat="43.64666" lon="1.215">
        <ele>219</ele>
        <time>2023-11-19T09:08:48Z</time>
      </trkpt>
      <trkpt lat="43.64636" lon="1.2154">
        <ele>219</ele>
        <time>2023-11-19T09:08:53Z</time>
      </trkpt>
      <trkpt lat="43.64595" lon="1.21593">
        <ele>217.4</ele>
        <time>2023-11-19T09:08:59Z</time>
      </trkpt>
      <trkpt lat="43.64588" lon="1.21602">
        <ele>217.2</ele>
        <time>2023-11-19T09:09:00Z</time>
      </trkpt>
      <trkpt lat="43.64567" lon="1.2163">
        <ele>216</ele>
        <time>2023-11-19T09:09:03Z</time>
      </trkpt>
      <trkpt lat="43.64541" lon="1.21663">
        <ele>214.4</ele>
        <time>2023-11-19T09:09:07Z</time>
      </trkpt>
      <trkpt lat="43.64522" lon="1.21689">
        <ele>213.8</ele>
        <time>2023-11-19T09:09:10Z</time>
      </trkpt>
      <trkpt lat="43.6451" lon="1.21706">
        <ele>213.2</ele>
        <time>2023-11-19T09:09:12Z</time>
      </trkpt>
      <trkpt lat="43.64492" lon="1.21732">
        <ele>212.6</ele>
        <time>2023-11-19T09:09:15Z</time>
      </trkpt>
      <trkpt lat="43.64472" lon="1.21761">
        <ele>211.8</ele>
        <time>2023-11-19T09:09:18Z</time>
      </trkpt>
      <trkpt lat="43.64435" lon="1.21813">
        <ele>211.4</ele>
        <time>2023-11-19T09:09:24Z</time>
      </trkpt>
      <trkpt lat="43.64397" lon="1.21868">
        <ele>211.2</ele>
        <time>2023-11-19T09:09:30Z</time>
      </trkpt>
      <trkpt lat="43.64366" lon="1.21913">
        <ele>211.2</ele>
        <time>2023-11-19T09:09:35Z</time>
      </trkpt>
      <trkpt lat="43.64323" lon="1.21976">
        <ele>211.2</ele>
        <time>2023-11-19T09:09:42Z</time>
      </trkpt>
      <trkpt lat="43.64317" lon="1.21985">
        <ele>211.2</ele>
        <time>2023-11-19T09:09:43Z</time>
      </trkpt>
      <trkpt lat="43.64273" lon="1.22048">
        <ele>211.2</ele>
        <time>2023-11-19T09:09:50Z</time>
      </trkpt>
      <trkpt lat="43.64261" lon="1.22063">
        <ele>211.2</ele>
        <time>2023-11-19T09:09:52Z</time>
      </trkpt>
      <trkpt lat="43.64222" lon="1.22119">
        <ele>211.4</ele>
        <time>2023-11-19T09:09:59Z</time>
      </trkpt>
      <trkpt lat="43.64216" lon="1.22127">
        <ele>211.4</ele>
        <time>2023-11-19T09:10:00Z</time>
      </trkpt>
      <trkpt lat="43.64177" lon="1.22186">
        <ele>211.4</ele>
        <time>2023-11-19T09:10:07Z</time>
      </trkpt>
      <trkpt lat="43.64166" lon="1.22201">
        <ele>211.4</ele>
        <time>2023-11-19T09:10:09Z</time>
      </trkpt>
      <trkpt lat="43.64136" lon="1.22244">
        <ele>211.4</ele>
        <time>2023-11-19T09:10:15Z</time>
      </trkpt>
      <trkpt lat="43.64096" lon="1.22302">
        <ele>211</ele>
        <time>2023-11-19T09:10:23Z</time>
      </trkpt>
      <trkpt lat="43.64084" lon="1.22318">
        <ele>210.8</ele>
        <time>2023-11-19T09:10:25Z</time>
      </trkpt>
      <trkpt lat="43.64075" lon="1.22331">
        <ele>210.4</ele>
        <time>2023-11-19T09:10:27Z</time>
      </trkpt>
      <trkpt lat="43.64039" lon="1.22385">
        <ele>209.8</ele>
        <time>2023-11-19T09:10:34Z</time>
      </trkpt>
      <trkpt lat="43.64019" lon="1.22415">
        <ele>209.4</ele>
        <time>2023-11-19T09:10:38Z</time>
      </trkpt>
      <trkpt lat="43.63998" lon="1.22446">
        <ele>209.2</ele>
        <time>2023-11-19T09:10:42Z</time>
      </trkpt>
      <trkpt lat="43.63963" lon="1.22495">
        <ele>208.8</ele>
        <time>2023-11-19T09:10:48Z</time>
      </trkpt>
      <trkpt lat="43.63941" lon="1.22527">
        <ele>208.4</ele>
        <time>2023-11-19T09:10:52Z</time>
      </trkpt>
      <trkpt lat="43.63919" lon="1.2256">
        <ele>208</ele>
        <time>2023-11-19T09:10:56Z</time>
      </trkpt>
      <trkpt lat="43.63907" lon="1.22577">
        <ele>207.8</ele>
        <time>2023-11-19T09:10:58Z</time>
      </trkpt>
      <trkpt lat="43.63876" lon="1.22621">
        <ele>207.4</ele>
        <time>2023-11-19T09:11:04Z</time>
      </trkpt>
      <trkpt lat="43.63834" lon="1.22682">
        <ele>207.8</ele>
        <time>2023-11-19T09:11:12Z</time>
      </trkpt>
      <trkpt lat="43.63823" lon="1.22698">
        <ele>208</ele>
        <time>2023-11-19T09:11:14Z</time>
      </trkpt>
      <trkpt lat="43.63789" lon="1.22747">
        <ele>209</ele>
        <time>2023-11-19T09:11:22Z</time>
      </trkpt>
      <trkpt lat="43.63778" lon="1.22762">
        <ele>209.2</ele>
        <time>2023-11-19T09:11:23Z</time>
      </trkpt>
      <trkpt lat="43.63741" lon="1.22817">
        <ele>210</ele>
        <time>2023-11-19T09:11:30Z</time>
      </trkpt>
      <trkpt lat="43.63721" lon="1.22844">
        <ele>210.2</ele>
        <time>2023-11-19T09:11:33Z</time>
      </trkpt>
      <trkpt lat="43.63705" lon="1.22869">
        <ele>210.4</ele>
        <time>2023-11-19T09:11:36Z</time>
      </trkpt>
      <trkpt lat="43.63664" lon="1.22928">
        <ele>210.2</ele>
        <time>2023-11-19T09:11:43Z</time>
      </trkpt>
      <trkpt lat="43.63658" lon="1.22937">
        <ele>210</ele>
        <time>2023-11-19T09:11:44Z</time>
      </trkpt>
      <trkpt lat="43.63617" lon="1.22996">
        <ele>209.4</ele>
        <time>2023-11-19T09:11:51Z</time>
      </trkpt>
      <trkpt lat="43.63605" lon="1.23014">
        <ele>209</ele>
        <time>2023-11-19T09:11:54Z</time>
      </trkpt>
      <trkpt lat="43.63563" lon="1.23075">
        <ele>208</ele>
        <time>2023-11-19T09:12:00Z</time>
      </trkpt>
      <trkpt lat="43.63556" lon="1.23084">
        <ele>207.8</ele>
        <time>2023-11-19T09:12:01Z</time>
      </trkpt>
      <trkpt lat="43.6355" lon="1.23093">
        <ele>207.8</ele>
        <time>2023-11-19T09:12:02Z</time>
      </trkpt>
      <trkpt lat="43.63508" lon="1.23154">
        <ele>206.8</ele>
        <time>2023-11-19T09:12:09Z</time>
      </trkpt>
      <trkpt lat="43.63503" lon="1.23162">
        <ele>206.6</ele>
        <time>2023-11-19T09:12:10Z</time>
      </trkpt>
      <trkpt lat="43.63471" lon="1.23209">
        <ele>206.2</ele>
        <time>2023-11-19T09:12:16Z</time>
      </trkpt>
      <trkpt lat="43.63451" lon="1.23237">
        <ele>206.2</ele>
        <time>2023-11-19T09:12:20Z</time>
      </trkpt>
      <trkpt lat="43.63417" lon="1.23284">
        <ele>206.6</ele>
        <time>2023-11-19T09:12:27Z</time>
      </trkpt>
      <trkpt lat="43.63379" lon="1.23339">
        <ele>207.4</ele>
        <time>2023-11-19T09:12:35Z</time>
      </trkpt>
      <trkpt lat="43.63379" lon="1.23339">
        <ele>207.6</ele>
        <time>2023-11-19T09:12:36Z</time>
      </trkpt>
      <trkpt lat="43.63334" lon="1.23398">
        <ele>208.6</ele>
        <time>2023-11-19T09:12:43Z</time>
      </trkpt>
      <trkpt lat="43.63328" lon="1.23405">
        <ele>208.6</ele>
        <time>2023-11-19T09:12:44Z</time>
      </trkpt>
      <trkpt lat="43.63317" lon="1.2342">
        <ele>208.6</ele>
        <time>2023-11-19T09:12:47Z</time>
      </trkpt>
      <trkpt lat="43.63274" lon="1.23474">
        <ele>208.6</ele>
        <time>2023-11-19T09:12:53Z</time>
      </trkpt>
      <trkpt lat="43.63232" lon="1.23527">
        <ele>207.6</ele>
        <time>2023-11-19T09:12:59Z</time>
      </trkpt>
      <trkpt lat="43.63224" lon="1.23536">
        <ele>207</ele>
        <time>2023-11-19T09:13:00Z</time>
      </trkpt>
      <trkpt lat="43.63209" lon="1.23556">
        <ele>206.2</ele>
        <time>2023-11-19T09:13:02Z</time>
      </trkpt>
      <trkpt lat="43.63185" lon="1.23586">
        <ele>204.6</ele>
        <time>2023-11-19T09:13:05Z</time>
      </trkpt>
      <trkpt lat="43.63169" lon="1.23606">
        <ele>203.4</ele>
        <time>2023-11-19T09:13:07Z</time>
      </trkpt>
      <trkpt lat="43.63145" lon="1.23636">
        <ele>202.2</ele>
        <time>2023-11-19T09:13:10Z</time>
      </trkpt>
      <trkpt lat="43.63128" lon="1.23658">
        <ele>200.8</ele>
        <time>2023-11-19T09:13:12Z</time>
      </trkpt>
      <trkpt lat="43.6311" lon="1.2368">
        <ele>199.6</ele>
        <time>2023-11-19T09:13:14Z</time>
      </trkpt>
      <trkpt lat="43.63093" lon="1.23702">
        <ele>198.2</ele>
        <time>2023-11-19T09:13:16Z</time>
      </trkpt>
      <trkpt lat="43.63075" lon="1.23724">
        <ele>196.6</ele>
        <time>2023-11-19T09:13:18Z</time>
      </trkpt>
      <trkpt lat="43.63051" lon="1.23755">
        <ele>195.4</ele>
        <time>2023-11-19T09:13:21Z</time>
      </trkpt>
      <trkpt lat="43.63044" lon="1.23765">
        <ele>194.6</ele>
        <time>2023-11-19T09:13:22Z</time>
      </trkpt>
      <trkpt lat="43.63036" lon="1.23774">
        <ele>194.2</ele>
        <time>2023-11-19T09:13:23Z</time>
      </trkpt>
      <trkpt lat="43.63023" lon="1.23793">
        <ele>193.8</ele>
        <time>2023-11-19T09:13:25Z</time>
      </trkpt>
      <trkpt lat="43.63012" lon="1.23813">
        <ele>193.4</ele>
        <time>2023-11-19T09:13:27Z</time>
      </trkpt>
      <trkpt lat="43.63004" lon="1.23837">
        <ele>193.2</ele>
        <time>2023-11-19T09:13:29Z</time>
      </trkpt>
      <trkpt lat="43.63001" lon="1.2385">
        <ele>193</ele>
        <time>2023-11-19T09:13:30Z</time>
      </trkpt>
      <trkpt lat="43.62986" lon="1.23921">
        <ele>191.8</ele>
        <time>2023-11-19T09:13:36Z</time>
      </trkpt>
      <trkpt lat="43.62983" lon="1.23933">
        <ele>191.8</ele>
        <time>2023-11-19T09:13:37Z</time>
      </trkpt>
      <trkpt lat="43.62969" lon="1.23995">
        <ele>191</ele>
        <time>2023-11-19T09:13:43Z</time>
      </trkpt>
      <trkpt lat="43.62964" lon="1.24015">
        <ele>190.8</ele>
        <time>2023-11-19T09:13:45Z</time>
      </trkpt>
      <trkpt lat="43.62955" lon="1.24053">
        <ele>190.8</ele>
        <time>2023-11-19T09:13:49Z</time>
      </trkpt>
      <trkpt lat="43.62942" lon="1.24104">
        <ele>190.4</ele>
        <time>2023-11-19T09:13:55Z</time>
      </trkpt>
      <trkpt lat="43.62927" lon="1.24174">
        <ele>190</ele>
        <time>2023-11-19T09:14:03Z</time>
      </trkpt>
      <trkpt lat="43.62914" lon="1.24229">
        <ele>190</ele>
        <time>2023-11-19T09:14:09Z</time>
      </trkpt>
      <trkpt lat="43.62903" lon="1.24273">
        <ele>189.8</ele>
        <time>2023-11-19T09:14:14Z</time>
      </trkpt>
      <trkpt lat="43.62886" lon="1.24346">
        <ele>189.2</ele>
        <time>2023-11-19T09:14:22Z</time>
      </trkpt>
      <trkpt lat="43.62871" lon="1.24414">
        <ele>189</ele>
        <time>2023-11-19T09:14:29Z</time>
      </trkpt>
      <trkpt lat="43.62869" lon="1.24425">
        <ele>189</ele>
        <time>2023-11-19T09:14:30Z</time>
      </trkpt>
      <trkpt lat="43.62853" lon="1.24504">
        <ele>189</ele>
        <time>2023-11-19T09:14:38Z</time>
      </trkpt>
      <trkpt lat="43.62851" lon="1.24512">
        <ele>189</ele>
        <time>2023-11-19T09:14:39Z</time>
      </trkpt>
      <trkpt lat="43.62834" lon="1.24593">
        <ele>189</ele>
        <time>2023-11-19T09:14:47Z</time>
      </trkpt>
      <trkpt lat="43.62829" lon="1.24621">
        <ele>188.8</ele>
        <time>2023-11-19T09:14:50Z</time>
      </trkpt>
      <trkpt lat="43.62815" lon="1.24703">
        <ele>188.6</ele>
        <time>2023-11-19T09:14:58Z</time>
      </trkpt>
      <trkpt lat="43.62811" lon="1.24721">
        <ele>188.4</ele>
        <time>2023-11-19T09:15:00Z</time>
      </trkpt>
      <trkpt lat="43.62799" lon="1.24795">
        <ele>188.2</ele>
        <time>2023-11-19T09:15:07Z</time>
      </trkpt>
      <trkpt lat="43.62791" lon="1.24847">
        <ele>188.2</ele>
        <time>2023-11-19T09:15:12Z</time>
      </trkpt>
      <trkpt lat="43.62774" lon="1.2492">
        <ele>188.2</ele>
        <time>2023-11-19T09:15:19Z</time>
      </trkpt>
      <trkpt lat="43.62771" lon="1.24931">
        <ele>188.2</ele>
        <time>2023-11-19T09:15:20Z</time>
      </trkpt>
      <trkpt lat="43.62752" lon="1.25">
        <ele>188.2</ele>
        <time>2023-11-19T09:15:27Z</time>
      </trkpt>
      <trkpt lat="43.62738" lon="1.25054">
        <ele>188.4</ele>
        <time>2023-11-19T09:15:32Z</time>
      </trkpt>
      <trkpt lat="43.62719" lon="1.25124">
        <ele>188.4</ele>
        <time>2023-11-19T09:15:39Z</time>
      </trkpt>
      <trkpt lat="43.62712" lon="1.25153">
        <ele>188.2</ele>
        <time>2023-11-19T09:15:42Z</time>
      </trkpt>
      <trkpt lat="43.62692" lon="1.25222">
        <ele>188</ele>
        <time>2023-11-19T09:15:49Z</time>
      </trkpt>
      <trkpt lat="43.6267" lon="1.25296">
        <ele>188</ele>
        <time>2023-11-19T09:15:56Z</time>
      </trkpt>
      <trkpt lat="43.62667" lon="1.25306">
        <ele>188</ele>
        <time>2023-11-19T09:15:57Z</time>
      </trkpt>
      <trkpt lat="43.6264" lon="1.25374">
        <ele>188</ele>
        <time>2023-11-19T09:16:04Z</time>
      </trkpt>
      <trkpt lat="43.62608" lon="1.25437">
        <ele>188.2</ele>
        <time>2023-11-19T09:16:11Z</time>
      </trkpt>
      <trkpt lat="43.62594" lon="1.25464">
        <ele>188.2</ele>
        <time>2023-11-19T09:16:14Z</time>
      </trkpt>
      <trkpt lat="43.62561" lon="1.25527">
        <ele>188.2</ele>
        <time>2023-11-19T09:16:21Z</time>
      </trkpt>
      <trkpt lat="43.62537" lon="1.25573">
        <ele>188.2</ele>
        <time>2023-11-19T09:16:26Z</time>
      </trkpt>
      <trkpt lat="43.62511" lon="1.25635">
        <ele>188.2</ele>
        <time>2023-11-19T09:16:32Z</time>
      </trkpt>
      <trkpt lat="43.625" lon="1.25703">
        <ele>188</ele>
        <time>2023-11-19T09:16:38Z</time>
      </trkpt>
      <trkpt lat="43.62486" lon="1.25761">
        <ele>187.8</ele>
        <time>2023-11-19T09:16:43Z</time>
      </trkpt>
      <trkpt lat="43.62458" lon="1.25831">
        <ele>187.6</ele>
        <time>2023-11-19T09:16:50Z</time>
      </trkpt>
      <trkpt lat="43.62427" lon="1.25902">
        <ele>187.4</ele>
        <time>2023-11-19T09:16:57Z</time>
      </trkpt>
      <trkpt lat="43.62422" lon="1.25911">
        <ele>187.4</ele>
        <time>2023-11-19T09:16:58Z</time>
      </trkpt>
      <trkpt lat="43.62392" lon="1.2598">
        <ele>187</ele>
        <time>2023-11-19T09:17:05Z</time>
      </trkpt>
      <trkpt lat="43.62388" lon="1.2599">
        <ele>187</ele>
        <time>2023-11-19T09:17:06Z</time>
      </trkpt>
      <trkpt lat="43.62367" lon="1.26061">
        <ele>187</ele>
        <time>2023-11-19T09:17:13Z</time>
      </trkpt>
      <trkpt lat="43.62359" lon="1.26089">
        <ele>187</ele>
        <time>2023-11-19T09:17:16Z</time>
      </trkpt>
      <trkpt lat="43.62337" lon="1.26169">
        <ele>187.8</ele>
        <time>2023-11-19T09:17:24Z</time>
      </trkpt>
      <trkpt lat="43.62333" lon="1.26189">
        <ele>187.8</ele>
        <time>2023-11-19T09:17:26Z</time>
      </trkpt>
      <trkpt lat="43.62321" lon="1.26262">
        <ele>188.8</ele>
        <time>2023-11-19T09:17:33Z</time>
      </trkpt>
      <trkpt lat="43.62317" lon="1.26293">
        <ele>189</ele>
        <time>2023-11-19T09:17:36Z</time>
      </trkpt>
      <trkpt lat="43.6231" lon="1.26377">
        <ele>189</ele>
        <time>2023-11-19T09:17:44Z</time>
      </trkpt>
      <trkpt lat="43.62307" lon="1.26408">
        <ele>188.8</ele>
        <time>2023-11-19T09:17:47Z</time>
      </trkpt>
      <trkpt lat="43.623" lon="1.26482">
        <ele>188.6</ele>
        <time>2023-11-19T09:17:54Z</time>
      </trkpt>
      <trkpt lat="43.62296" lon="1.26524">
        <ele>188.6</ele>
        <time>2023-11-19T09:17:58Z</time>
      </trkpt>
      <trkpt lat="43.62297" lon="1.26576">
        <ele>188.6</ele>
        <time>2023-11-19T09:18:03Z</time>
      </trkpt>
      <trkpt lat="43.62306" lon="1.2666">
        <ele>188.6</ele>
        <time>2023-11-19T09:18:11Z</time>
      </trkpt>
      <trkpt lat="43.6231" lon="1.26692">
        <ele>188.6</ele>
        <time>2023-11-19T09:18:14Z</time>
      </trkpt>
      <trkpt lat="43.6232" lon="1.26767">
        <ele>188.6</ele>
        <time>2023-11-19T09:18:21Z</time>
      </trkpt>
      <trkpt lat="43.62324" lon="1.268">
        <ele>188.6</ele>
        <time>2023-11-19T09:18:24Z</time>
      </trkpt>
      <trkpt lat="43.62334" lon="1.26879">
        <ele>188.6</ele>
        <time>2023-11-19T09:18:31Z</time>
      </trkpt>
      <trkpt lat="43.62337" lon="1.26902">
        <ele>188.6</ele>
        <time>2023-11-19T09:18:33Z</time>
      </trkpt>
      <trkpt lat="43.62348" lon="1.26975">
        <ele>188.6</ele>
        <time>2023-11-19T09:18:40Z</time>
      </trkpt>
      <trkpt lat="43.62361" lon="1.2706">
        <ele>189</ele>
        <time>2023-11-19T09:18:48Z</time>
      </trkpt>
      <trkpt lat="43.62363" lon="1.27071">
        <ele>189</ele>
        <time>2023-11-19T09:18:49Z</time>
      </trkpt>
      <trkpt lat="43.62376" lon="1.27134">
        <ele>189.2</ele>
        <time>2023-11-19T09:18:55Z</time>
      </trkpt>
      <trkpt lat="43.6238" lon="1.27155">
        <ele>189.2</ele>
        <time>2023-11-19T09:18:57Z</time>
      </trkpt>
      <trkpt lat="43.62397" lon="1.27231">
        <ele>189.6</ele>
        <time>2023-11-19T09:19:04Z</time>
      </trkpt>
      <trkpt lat="43.62404" lon="1.27265">
        <ele>189.8</ele>
        <time>2023-11-19T09:19:07Z</time>
      </trkpt>
      <trkpt lat="43.62422" lon="1.27344">
        <ele>189.8</ele>
        <time>2023-11-19T09:19:14Z</time>
      </trkpt>
      <trkpt lat="43.62429" lon="1.27378">
        <ele>189.8</ele>
        <time>2023-11-19T09:19:17Z</time>
      </trkpt>
      <trkpt lat="43.62445" lon="1.27455">
        <ele>189.6</ele>
        <time>2023-11-19T09:19:24Z</time>
      </trkpt>
      <trkpt lat="43.6245" lon="1.27477">
        <ele>189.6</ele>
        <time>2023-11-19T09:19:26Z</time>
      </trkpt>
      <trkpt lat="43.62466" lon="1.27552">
        <ele>189.6</ele>
        <time>2023-11-19T09:19:33Z</time>
      </trkpt>
      <trkpt lat="43.6247" lon="1.27575">
        <ele>189.6</ele>
        <time>2023-11-19T09:19:35Z</time>
      </trkpt>
      <trkpt lat="43.62482" lon="1.27653">
        <ele>189.6</ele>
        <time>2023-11-19T09:19:42Z</time>
      </trkpt>
      <trkpt lat="43.62485" lon="1.27686">
        <ele>189.6</ele>
        <time>2023-11-19T09:19:45Z</time>
      </trkpt>
      <trkpt lat="43.62485" lon="1.27697">
        <ele>189.4</ele>
        <time>2023-11-19T09:19:46Z</time>
      </trkpt>
      <trkpt lat="43.62482" lon="1.2772">
        <ele>189.2</ele>
        <time>2023-11-19T09:19:48Z</time>
      </trkpt>
      <trkpt lat="43.62478" lon="1.27731">
        <ele>189.2</ele>
        <time>2023-11-19T09:19:49Z</time>
      </trkpt>
      <trkpt lat="43.62452" lon="1.27793">
        <ele>188.8</ele>
        <time>2023-11-19T09:19:55Z</time>
      </trkpt>
      <trkpt lat="43.62431" lon="1.27854">
        <ele>188.4</ele>
        <time>2023-11-19T09:20:01Z</time>
      </trkpt>
      <trkpt lat="43.62424" lon="1.2792">
        <ele>187.8</ele>
        <time>2023-11-19T09:20:07Z</time>
      </trkpt>
      <trkpt lat="43.62426" lon="1.27988">
        <ele>187.6</ele>
        <time>2023-11-19T09:20:13Z</time>
      </trkpt>
      <trkpt lat="43.62431" lon="1.28056">
        <ele>187</ele>
        <time>2023-11-19T09:20:19Z</time>
      </trkpt>
      <trkpt lat="43.6243" lon="1.28067">
        <ele>186.8</ele>
        <time>2023-11-19T09:20:20Z</time>
      </trkpt>
      <trkpt lat="43.62426" lon="1.28105">
        <ele>186.4</ele>
        <time>2023-11-19T09:20:24Z</time>
      </trkpt>
      <trkpt lat="43.62423" lon="1.28117">
        <ele>186</ele>
        <time>2023-11-19T09:20:26Z</time>
      </trkpt>
      <trkpt lat="43.6242" lon="1.28127">
        <ele>185.8</ele>
        <time>2023-11-19T09:20:28Z</time>
      </trkpt>
      <trkpt lat="43.62419" lon="1.28137">
        <ele>185.6</ele>
        <time>2023-11-19T09:20:30Z</time>
      </trkpt>
      <trkpt lat="43.62421" lon="1.28142">
        <ele>185.4</ele>
        <time>2023-11-19T09:20:31Z</time>
      </trkpt>
      <trkpt lat="43.62425" lon="1.28144">
        <ele>185.4</ele>
        <time>2023-11-19T09:20:32Z</time>
      </trkpt>
      <trkpt lat="43.62433" lon="1.28145">
        <ele>184.8</ele>
        <time>2023-11-19T09:20:34Z</time>
      </trkpt>
      <trkpt lat="43.62448" lon="1.28142">
        <ele>184.6</ele>
        <time>2023-11-19T09:20:37Z</time>
      </trkpt>
      <trkpt lat="43.62461" lon="1.28139">
        <ele>184.6</ele>
        <time>2023-11-19T09:20:40Z</time>
      </trkpt>
      <trkpt lat="43.62476" lon="1.28138">
        <ele>184.6</ele>
        <time>2023-11-19T09:20:43Z</time>
      </trkpt>
      <trkpt lat="43.62493" lon="1.28135">
        <ele>185.6</ele>
        <time>2023-11-19T09:20:47Z</time>
      </trkpt>
      <trkpt lat="43.62504" lon="1.28133">
        <ele>186</ele>
        <time>2023-11-19T09:20:49Z</time>
      </trkpt>
      <trkpt lat="43.62534" lon="1.28127">
        <ele>187</ele>
        <time>2023-11-19T09:20:54Z</time>
      </trkpt>
      <trkpt lat="43.62576" lon="1.28116">
        <ele>187.6</ele>
        <time>2023-11-19T09:21:00Z</time>
      </trkpt>
      <trkpt lat="43.62628" lon="1.28098">
        <ele>188</ele>
        <time>2023-11-19T09:21:07Z</time>
      </trkpt>
      <trkpt lat="43.62663" lon="1.28096">
        <ele>188</ele>
        <time>2023-11-19T09:21:12Z</time>
      </trkpt>
      <trkpt lat="43.62698" lon="1.28108">
        <ele>188</ele>
        <time>2023-11-19T09:21:17Z</time>
      </trkpt>
      <trkpt lat="43.62705" lon="1.28112">
        <ele>188</ele>
        <time>2023-11-19T09:21:18Z</time>
      </trkpt>
      <trkpt lat="43.62718" lon="1.28125">
        <ele>188.2</ele>
        <time>2023-11-19T09:21:20Z</time>
      </trkpt>
      <trkpt lat="43.62732" lon="1.2813">
        <ele>188.4</ele>
        <time>2023-11-19T09:21:22Z</time>
      </trkpt>
      <trkpt lat="43.6274" lon="1.2813">
        <ele>188.4</ele>
        <time>2023-11-19T09:21:23Z</time>
      </trkpt>
      <trkpt lat="43.62747" lon="1.2813">
        <ele>188.4</ele>
        <time>2023-11-19T09:21:24Z</time>
      </trkpt>
      <trkpt lat="43.6277" lon="1.28137">
        <ele>188.4</ele>
        <time>2023-11-19T09:21:27Z</time>
      </trkpt>
      <trkpt lat="43.62827" lon="1.28161">
        <ele>187.6</ele>
        <time>2023-11-19T09:21:34Z</time>
      </trkpt>
      <trkpt lat="43.62868" lon="1.28168">
        <ele>187.4</ele>
        <time>2023-11-19T09:21:39Z</time>
      </trkpt>
      <trkpt lat="43.62894" lon="1.28168">
        <ele>187.4</ele>
        <time>2023-11-19T09:21:42Z</time>
      </trkpt>
      <trkpt lat="43.62911" lon="1.28173">
        <ele>187.2</ele>
        <time>2023-11-19T09:21:44Z</time>
      </trkpt>
      <trkpt lat="43.62967" lon="1.28201">
        <ele>187.4</ele>
        <time>2023-11-19T09:21:51Z</time>
      </trkpt>
      <trkpt lat="43.63022" lon="1.2823">
        <ele>187.4</ele>
        <time>2023-11-19T09:21:58Z</time>
      </trkpt>
      <trkpt lat="43.6303" lon="1.28232">
        <ele>187.2</ele>
        <time>2023-11-19T09:21:59Z</time>
      </trkpt>
      <trkpt lat="43.63073" lon="1.28236">
        <ele>187.2</ele>
        <time>2023-11-19T09:22:05Z</time>
      </trkpt>
      <trkpt lat="43.63094" lon="1.2824">
        <ele>187.2</ele>
        <time>2023-11-19T09:22:08Z</time>
      </trkpt>
      <trkpt lat="43.63108" lon="1.28246">
        <ele>187.4</ele>
        <time>2023-11-19T09:22:10Z</time>
      </trkpt>
      <trkpt lat="43.63161" lon="1.28276">
        <ele>187</ele>
        <time>2023-11-19T09:22:18Z</time>
      </trkpt>
      <trkpt lat="43.63182" lon="1.28287">
        <ele>187</ele>
        <time>2023-11-19T09:22:21Z</time>
      </trkpt>
      <trkpt lat="43.6323" lon="1.28314">
        <ele>186.6</ele>
        <time>2023-11-19T09:22:28Z</time>
      </trkpt>
      <trkpt lat="43.63289" lon="1.2834">
        <ele>186</ele>
        <time>2023-11-19T09:22:36Z</time>
      </trkpt>
      <trkpt lat="43.63328" lon="1.28344">
        <ele>185.8</ele>
        <time>2023-11-19T09:22:41Z</time>
      </trkpt>
      <trkpt lat="43.63382" lon="1.28338">
        <ele>185.6</ele>
        <time>2023-11-19T09:22:48Z</time>
      </trkpt>
      <trkpt lat="43.6339" lon="1.28337">
        <ele>185.6</ele>
        <time>2023-11-19T09:22:49Z</time>
      </trkpt>
      <trkpt lat="43.63446" lon="1.28331">
        <ele>185.6</ele>
        <time>2023-11-19T09:22:56Z</time>
      </trkpt>
      <trkpt lat="43.63462" lon="1.28328">
        <ele>185.6</ele>
        <time>2023-11-19T09:22:58Z</time>
      </trkpt>
      <trkpt lat="43.63477" lon="1.28321">
        <ele>185.6</ele>
        <time>2023-11-19T09:23:00Z</time>
      </trkpt>
      <trkpt lat="43.635" lon="1.28306">
        <ele>185.6</ele>
        <time>2023-11-19T09:23:03Z</time>
      </trkpt>
      <trkpt lat="43.63552" lon="1.28269">
        <ele>185.4</ele>
        <time>2023-11-19T09:23:10Z</time>
      </trkpt>
      <trkpt lat="43.63575" lon="1.28253">
        <ele>185.4</ele>
        <time>2023-11-19T09:23:13Z</time>
      </trkpt>
      <trkpt lat="43.63628" lon="1.28223">
        <ele>185.4</ele>
        <time>2023-11-19T09:23:20Z</time>
      </trkpt>
      <trkpt lat="43.63651" lon="1.28211">
        <ele>185.2</ele>
        <time>2023-11-19T09:23:23Z</time>
      </trkpt>
      <trkpt lat="43.63707" lon="1.28186">
        <ele>184.8</ele>
        <time>2023-11-19T09:23:30Z</time>
      </trkpt>
      <trkpt lat="43.63715" lon="1.28183">
        <ele>184.6</ele>
        <time>2023-11-19T09:23:31Z</time>
      </trkpt>
      <trkpt lat="43.63731" lon="1.28176">
        <ele>184.4</ele>
        <time>2023-11-19T09:23:33Z</time>
      </trkpt>
      <trkpt lat="43.63788" lon="1.2815">
        <ele>183.8</ele>
        <time>2023-11-19T09:23:40Z</time>
      </trkpt>
      <trkpt lat="43.63796" lon="1.28145">
        <ele>183.8</ele>
        <time>2023-11-19T09:23:41Z</time>
      </trkpt>
      <trkpt lat="43.63811" lon="1.28131">
        <ele>183.6</ele>
        <time>2023-11-19T09:23:43Z</time>
      </trkpt>
      <trkpt lat="43.63836" lon="1.28105">
        <ele>183.4</ele>
        <time>2023-11-19T09:23:47Z</time>
      </trkpt>
      <trkpt lat="43.63887" lon="1.28061">
        <ele>182.8</ele>
        <time>2023-11-19T09:23:54Z</time>
      </trkpt>
      <trkpt lat="43.63939" lon="1.28026">
        <ele>183.4</ele>
        <time>2023-11-19T09:24:01Z</time>
      </trkpt>
      <trkpt lat="43.63968" lon="1.28007">
        <ele>183.8</ele>
        <time>2023-11-19T09:24:05Z</time>
      </trkpt>
      <trkpt lat="43.63991" lon="1.27997">
        <ele>184.4</ele>
        <time>2023-11-19T09:24:08Z</time>
      </trkpt>
      <trkpt lat="43.64" lon="1.27996">
        <ele>184.6</ele>
        <time>2023-11-19T09:24:09Z</time>
      </trkpt>
      <trkpt lat="43.64017" lon="1.27995">
        <ele>184.6</ele>
        <time>2023-11-19T09:24:11Z</time>
      </trkpt>
      <trkpt lat="43.64042" lon="1.27996">
        <ele>185</ele>
        <time>2023-11-19T09:24:14Z</time>
      </trkpt>
      <trkpt lat="43.64103" lon="1.27995">
        <ele>185.6</ele>
        <time>2023-11-19T09:24:21Z</time>
      </trkpt>
      <trkpt lat="43.64111" lon="1.27994">
        <ele>185.4</ele>
        <time>2023-11-19T09:24:22Z</time>
      </trkpt>
      <trkpt lat="43.64171" lon="1.27985">
        <ele>185.8</ele>
        <time>2023-11-19T09:24:29Z</time>
      </trkpt>
      <trkpt lat="43.64189" lon="1.2798">
        <ele>185.6</ele>
        <time>2023-11-19T09:24:31Z</time>
      </trkpt>
      <trkpt lat="43.6425" lon="1.27959">
        <ele>185.4</ele>
        <time>2023-11-19T09:24:38Z</time>
      </trkpt>
      <trkpt lat="43.64267" lon="1.27951">
        <ele>185.4</ele>
        <time>2023-11-19T09:24:40Z</time>
      </trkpt>
      <trkpt lat="43.64317" lon="1.2792">
        <ele>185.6</ele>
        <time>2023-11-19T09:24:46Z</time>
      </trkpt>
      <trkpt lat="43.64372" lon="1.2788">
        <ele>185.6</ele>
        <time>2023-11-19T09:24:53Z</time>
      </trkpt>
      <trkpt lat="43.64404" lon="1.27856">
        <ele>185.8</ele>
        <time>2023-11-19T09:24:57Z</time>
      </trkpt>
      <trkpt lat="43.64412" lon="1.2785">
        <ele>185.8</ele>
        <time>2023-11-19T09:24:58Z</time>
      </trkpt>
      <trkpt lat="43.64468" lon="1.2781">
        <ele>186.2</ele>
        <time>2023-11-19T09:25:05Z</time>
      </trkpt>
      <trkpt lat="43.64485" lon="1.27801">
        <ele>186.2</ele>
        <time>2023-11-19T09:25:07Z</time>
      </trkpt>
      <trkpt lat="43.64538" lon="1.27783">
        <ele>186.2</ele>
        <time>2023-11-19T09:25:13Z</time>
      </trkpt>
      <trkpt lat="43.64547" lon="1.2778">
        <ele>186</ele>
        <time>2023-11-19T09:25:14Z</time>
      </trkpt>
      <trkpt lat="43.64589" lon="1.27761">
        <ele>186</ele>
        <time>2023-11-19T09:25:19Z</time>
      </trkpt>
      <trkpt lat="43.64626" lon="1.27726">
        <ele>186.2</ele>
        <time>2023-11-19T09:25:24Z</time>
      </trkpt>
      <trkpt lat="43.64672" lon="1.2769">
        <ele>186.2</ele>
        <time>2023-11-19T09:25:30Z</time>
      </trkpt>
      <trkpt lat="43.6469" lon="1.27682">
        <ele>186.2</ele>
        <time>2023-11-19T09:25:32Z</time>
      </trkpt>
      <trkpt lat="43.64709" lon="1.27682">
        <ele>186</ele>
        <time>2023-11-19T09:25:34Z</time>
      </trkpt>
      <trkpt lat="43.64744" lon="1.27697">
        <ele>185.6</ele>
        <time>2023-11-19T09:25:38Z</time>
      </trkpt>
      <trkpt lat="43.64795" lon="1.27723">
        <ele>185.4</ele>
        <time>2023-11-19T09:25:44Z</time>
      </trkpt>
      <trkpt lat="43.6482" lon="1.27736">
        <ele>185</ele>
        <time>2023-11-19T09:25:47Z</time>
      </trkpt>
      <trkpt lat="43.64829" lon="1.2774">
        <ele>184.8</ele>
        <time>2023-11-19T09:25:48Z</time>
      </trkpt>
      <trkpt lat="43.64837" lon="1.27743">
        <ele>184.8</ele>
        <time>2023-11-19T09:25:49Z</time>
      </trkpt>
      <trkpt lat="43.64854" lon="1.27741">
        <ele>184.6</ele>
        <time>2023-11-19T09:25:51Z</time>
      </trkpt>
      <trkpt lat="43.64869" lon="1.27728">
        <ele>184.6</ele>
        <time>2023-11-19T09:25:53Z</time>
      </trkpt>
      <trkpt lat="43.64877" lon="1.27707">
        <ele>184.6</ele>
        <time>2023-11-19T09:25:55Z</time>
      </trkpt>
      <trkpt lat="43.64879" lon="1.27695">
        <ele>184.6</ele>
        <time>2023-11-19T09:25:56Z</time>
      </trkpt>
      <trkpt lat="43.64899" lon="1.27622">
        <ele>184.6</ele>
        <time>2023-11-19T09:26:02Z</time>
      </trkpt>
      <trkpt lat="43.64905" lon="1.27598">
        <ele>184.8</ele>
        <time>2023-11-19T09:26:04Z</time>
      </trkpt>
      <trkpt lat="43.64912" lon="1.27576">
        <ele>184.8</ele>
        <time>2023-11-19T09:26:06Z</time>
      </trkpt>
      <trkpt lat="43.64923" lon="1.27558">
        <ele>184.8</ele>
        <time>2023-11-19T09:26:08Z</time>
      </trkpt>
      <trkpt lat="43.64938" lon="1.27558">
        <ele>184.8</ele>
        <time>2023-11-19T09:26:10Z</time>
      </trkpt>
      <trkpt lat="43.64969" lon="1.27585">
        <ele>184.6</ele>
        <time>2023-11-19T09:26:14Z</time>
      </trkpt>
      <trkpt lat="43.65008" lon="1.27617">
        <ele>184.2</ele>
        <time>2023-11-19T09:26:19Z</time>
      </trkpt>
      <trkpt lat="43.65021" lon="1.27635">
        <ele>184.2</ele>
        <time>2023-11-19T09:26:21Z</time>
      </trkpt>
      <trkpt lat="43.6503" lon="1.27657">
        <ele>184.2</ele>
        <time>2023-11-19T09:26:23Z</time>
      </trkpt>
      <trkpt lat="43.65034" lon="1.27669">
        <ele>184.2</ele>
        <time>2023-11-19T09:26:24Z</time>
      </trkpt>
      <trkpt lat="43.65038" lon="1.27695">
        <ele>184.2</ele>
        <time>2023-11-19T09:26:26Z</time>
      </trkpt>
      <trkpt lat="43.65045" lon="1.27718">
        <ele>184.4</ele>
        <time>2023-11-19T09:26:28Z</time>
      </trkpt>
      <trkpt lat="43.65058" lon="1.27749">
        <ele>184.6</ele>
        <time>2023-11-19T09:26:31Z</time>
      </trkpt>
      <trkpt lat="43.6506" lon="1.27761">
        <ele>184.6</ele>
        <time>2023-11-19T09:26:32Z</time>
      </trkpt>
      <trkpt lat="43.65062" lon="1.27774">
        <ele>184.6</ele>
        <time>2023-11-19T09:26:33Z</time>
      </trkpt>
      <trkpt lat="43.6507" lon="1.27797">
        <ele>184.6</ele>
        <time>2023-11-19T09:26:35Z</time>
      </trkpt>
      <trkpt lat="43.65098" lon="1.2783">
        <ele>185</ele>
        <time>2023-11-19T09:26:39Z</time>
      </trkpt>
      <trkpt lat="43.65141" lon="1.27878">
        <ele>185.2</ele>
        <time>2023-11-19T09:26:45Z</time>
      </trkpt>
      <trkpt lat="43.65177" lon="1.27916">
        <ele>185</ele>
        <time>2023-11-19T09:26:50Z</time>
      </trkpt>
      <trkpt lat="43.65221" lon="1.27957">
        <ele>184.8</ele>
        <time>2023-11-19T09:26:56Z</time>
      </trkpt>
      <trkpt lat="43.65273" lon="1.28001">
        <ele>184.6</ele>
        <time>2023-11-19T09:27:03Z</time>
      </trkpt>
      <trkpt lat="43.6528" lon="1.28008">
        <ele>184.6</ele>
        <time>2023-11-19T09:27:04Z</time>
      </trkpt>
      <trkpt lat="43.65311" lon="1.2805">
        <ele>184.2</ele>
        <time>2023-11-19T09:27:09Z</time>
      </trkpt>
      <trkpt lat="43.6534" lon="1.28095">
        <ele>184</ele>
        <time>2023-11-19T09:27:14Z</time>
      </trkpt>
      <trkpt lat="43.65347" lon="1.28103">
        <ele>184</ele>
        <time>2023-11-19T09:27:15Z</time>
      </trkpt>
      <trkpt lat="43.65354" lon="1.28108">
        <ele>183.8</ele>
        <time>2023-11-19T09:27:16Z</time>
      </trkpt>
      <trkpt lat="43.65363" lon="1.28112">
        <ele>183.8</ele>
        <time>2023-11-19T09:27:17Z</time>
      </trkpt>
      <trkpt lat="43.65372" lon="1.28113">
        <ele>183.8</ele>
        <time>2023-11-19T09:27:18Z</time>
      </trkpt>
      <trkpt lat="43.6539" lon="1.2811">
        <ele>183.8</ele>
        <time>2023-11-19T09:27:20Z</time>
      </trkpt>
      <trkpt lat="43.65398" lon="1.28106">
        <ele>183.6</ele>
        <time>2023-11-19T09:27:21Z</time>
      </trkpt>
      <trkpt lat="43.65451" lon="1.28082">
        <ele>183.4</ele>
        <time>2023-11-19T09:27:27Z</time>
      </trkpt>
      <trkpt lat="43.65478" lon="1.28072">
        <ele>183.4</ele>
        <time>2023-11-19T09:27:30Z</time>
      </trkpt>
      <trkpt lat="43.65533" lon="1.28053">
        <ele>183.2</ele>
        <time>2023-11-19T09:27:36Z</time>
      </trkpt>
      <trkpt lat="43.65553" lon="1.28051">
        <ele>183</ele>
        <time>2023-11-19T09:27:38Z</time>
      </trkpt>
      <trkpt lat="43.65601" lon="1.28046">
        <ele>182.8</ele>
        <time>2023-11-19T09:27:43Z</time>
      </trkpt>
      <trkpt lat="43.65633" lon="1.2804">
        <ele>182.4</ele>
        <time>2023-11-19T09:27:46Z</time>
      </trkpt>
      <trkpt lat="43.65676" lon="1.28024">
        <ele>181.4</ele>
        <time>2023-11-19T09:27:50Z</time>
      </trkpt>
      <trkpt lat="43.65687" lon="1.28017">
        <ele>180.8</ele>
        <time>2023-11-19T09:27:51Z</time>
      </trkpt>
      <trkpt lat="43.65698" lon="1.2801">
        <ele>180.2</ele>
        <time>2023-11-19T09:27:52Z</time>
      </trkpt>
      <trkpt lat="43.65708" lon="1.28003">
        <ele>180</ele>
        <time>2023-11-19T09:27:53Z</time>
      </trkpt>
      <trkpt lat="43.65731" lon="1.27995">
        <ele>178.8</ele>
        <time>2023-11-19T09:27:55Z</time>
      </trkpt>
      <trkpt lat="43.65742" lon="1.27995">
        <ele>177.6</ele>
        <time>2023-11-19T09:27:56Z</time>
      </trkpt>
      <trkpt lat="43.65763" lon="1.28005">
        <ele>176.6</ele>
        <time>2023-11-19T09:27:58Z</time>
      </trkpt>
      <trkpt lat="43.65771" lon="1.28017">
        <ele>176.2</ele>
        <time>2023-11-19T09:27:59Z</time>
      </trkpt>
      <trkpt lat="43.65777" lon="1.28029">
        <ele>175.2</ele>
        <time>2023-11-19T09:28:00Z</time>
      </trkpt>
      <trkpt lat="43.6579" lon="1.28053">
        <ele>174</ele>
        <time>2023-11-19T09:28:02Z</time>
      </trkpt>
      <trkpt lat="43.65798" lon="1.28062">
        <ele>173.2</ele>
        <time>2023-11-19T09:28:03Z</time>
      </trkpt>
      <trkpt lat="43.65806" lon="1.28071">
        <ele>173</ele>
        <time>2023-11-19T09:28:04Z</time>
      </trkpt>
      <trkpt lat="43.65824" lon="1.28082">
        <ele>172.2</ele>
        <time>2023-11-19T09:28:06Z</time>
      </trkpt>
      <trkpt lat="43.65841" lon="1.28086">
        <ele>172.2</ele>
        <time>2023-11-19T09:28:08Z</time>
      </trkpt>
      <trkpt lat="43.6585" lon="1.28084">
        <ele>172.2</ele>
        <time>2023-11-19T09:28:09Z</time>
      </trkpt>
      <trkpt lat="43.65859" lon="1.28081">
        <ele>172</ele>
        <time>2023-11-19T09:28:10Z</time>
      </trkpt>
      <trkpt lat="43.65876" lon="1.2807">
        <ele>172.2</ele>
        <time>2023-11-19T09:28:12Z</time>
      </trkpt>
      <trkpt lat="43.65884" lon="1.28066">
        <ele>172.2</ele>
        <time>2023-11-19T09:28:13Z</time>
      </trkpt>
      <trkpt lat="43.65905" lon="1.28058">
        <ele>173</ele>
        <time>2023-11-19T09:28:16Z</time>
      </trkpt>
      <trkpt lat="43.65918" lon="1.28059">
        <ele>174</ele>
        <time>2023-11-19T09:28:18Z</time>
      </trkpt>
      <trkpt lat="43.65931" lon="1.2806">
        <ele>175.2</ele>
        <time>2023-11-19T09:28:20Z</time>
      </trkpt>
      <trkpt lat="43.65937" lon="1.28062">
        <ele>176.2</ele>
        <time>2023-11-19T09:28:21Z</time>
      </trkpt>
      <trkpt lat="43.65951" lon="1.28069">
        <ele>177.2</ele>
        <time>2023-11-19T09:28:23Z</time>
      </trkpt>
      <trkpt lat="43.65958" lon="1.28073">
        <ele>177.6</ele>
        <time>2023-11-19T09:28:24Z</time>
      </trkpt>
      <trkpt lat="43.65972" lon="1.28082">
        <ele>178.2</ele>
        <time>2023-11-19T09:28:26Z</time>
      </trkpt>
      <trkpt lat="43.65993" lon="1.28095">
        <ele>179.8</ele>
        <time>2023-11-19T09:28:29Z</time>
      </trkpt>
      <trkpt lat="43.66015" lon="1.28109">
        <ele>180.2</ele>
        <time>2023-11-19T09:28:32Z</time>
      </trkpt>
      <trkpt lat="43.66065" lon="1.28141">
        <ele>180.4</ele>
        <time>2023-11-19T09:28:39Z</time>
      </trkpt>
      <trkpt lat="43.66107" lon="1.2817">
        <ele>180.4</ele>
        <time>2023-11-19T09:28:45Z</time>
      </trkpt>
      <trkpt lat="43.66112" lon="1.28177">
        <ele>180.2</ele>
        <time>2023-11-19T09:28:46Z</time>
      </trkpt>
      <trkpt lat="43.66117" lon="1.28184">
        <ele>180.2</ele>
        <time>2023-11-19T09:28:47Z</time>
      </trkpt>
      <trkpt lat="43.66123" lon="1.282">
        <ele>180.2</ele>
        <time>2023-11-19T09:28:49Z</time>
      </trkpt>
      <trkpt lat="43.66133" lon="1.2821">
        <ele>180.2</ele>
        <time>2023-11-19T09:28:51Z</time>
      </trkpt>
      <trkpt lat="43.6614" lon="1.28212">
        <ele>180.2</ele>
        <time>2023-11-19T09:28:52Z</time>
      </trkpt>
      <trkpt lat="43.66155" lon="1.28213">
        <ele>180.2</ele>
        <time>2023-11-19T09:28:54Z</time>
      </trkpt>
      <trkpt lat="43.66168" lon="1.28221">
        <ele>180.2</ele>
        <time>2023-11-19T09:28:56Z</time>
      </trkpt>
      <trkpt lat="43.66202" lon="1.28246">
        <ele>180.2</ele>
        <time>2023-11-19T09:29:01Z</time>
      </trkpt>
      <trkpt lat="43.6625" lon="1.28287">
        <ele>180.6</ele>
        <time>2023-11-19T09:29:08Z</time>
      </trkpt>
      <trkpt lat="43.66256" lon="1.28294">
        <ele>180.8</ele>
        <time>2023-11-19T09:29:09Z</time>
      </trkpt>
      <trkpt lat="43.66304" lon="1.28332">
        <ele>181.6</ele>
        <time>2023-11-19T09:29:16Z</time>
      </trkpt>
      <trkpt lat="43.66333" lon="1.28345">
        <ele>181.8</ele>
        <time>2023-11-19T09:29:20Z</time>
      </trkpt>
      <trkpt lat="43.66347" lon="1.28349">
        <ele>182</ele>
        <time>2023-11-19T09:29:22Z</time>
      </trkpt>
      <trkpt lat="43.66402" lon="1.28362">
        <ele>182.4</ele>
        <time>2023-11-19T09:29:30Z</time>
      </trkpt>
      <trkpt lat="43.66459" lon="1.28367">
        <ele>182.2</ele>
        <time>2023-11-19T09:29:38Z</time>
      </trkpt>
      <trkpt lat="43.66466" lon="1.28367">
        <ele>182.2</ele>
        <time>2023-11-19T09:29:39Z</time>
      </trkpt>
      <trkpt lat="43.6652" lon="1.28361">
        <ele>181.8</ele>
        <time>2023-11-19T09:29:46Z</time>
      </trkpt>
      <trkpt lat="43.6658" lon="1.28349">
        <ele>181.2</ele>
        <time>2023-11-19T09:29:54Z</time>
      </trkpt>
      <trkpt lat="43.66595" lon="1.28346">
        <ele>181.2</ele>
        <time>2023-11-19T09:29:56Z</time>
      </trkpt>
      <trkpt lat="43.66646" lon="1.28335">
        <ele>181</ele>
        <time>2023-11-19T09:30:03Z</time>
      </trkpt>
      <trkpt lat="43.66705" lon="1.28329">
        <ele>181.2</ele>
        <time>2023-11-19T09:30:11Z</time>
      </trkpt>
      <trkpt lat="43.66764" lon="1.28331">
        <ele>181.2</ele>
        <time>2023-11-19T09:30:19Z</time>
      </trkpt>
      <trkpt lat="43.66771" lon="1.28332">
        <ele>181.2</ele>
        <time>2023-11-19T09:30:20Z</time>
      </trkpt>
      <trkpt lat="43.66818" lon="1.28336">
        <ele>180.8</ele>
        <time>2023-11-19T09:30:26Z</time>
      </trkpt>
      <trkpt lat="43.66835" lon="1.28335">
        <ele>180.4</ele>
        <time>2023-11-19T09:30:28Z</time>
      </trkpt>
      <trkpt lat="43.66861" lon="1.28332">
        <ele>179.8</ele>
        <time>2023-11-19T09:30:31Z</time>
      </trkpt>
      <trkpt lat="43.66894" lon="1.28328">
        <ele>179.2</ele>
        <time>2023-11-19T09:30:35Z</time>
      </trkpt>
      <trkpt lat="43.66938" lon="1.28329">
        <ele>179.2</ele>
        <time>2023-11-19T09:30:41Z</time>
      </trkpt>
      <trkpt lat="43.66966" lon="1.28332">
        <ele>180</ele>
        <time>2023-11-19T09:30:45Z</time>
      </trkpt>
      <trkpt lat="43.6698" lon="1.28336">
        <ele>180.6</ele>
        <time>2023-11-19T09:30:47Z</time>
      </trkpt>
      <trkpt lat="43.66993" lon="1.28337">
        <ele>180.8</ele>
        <time>2023-11-19T09:30:49Z</time>
      </trkpt>
      <trkpt lat="43.66999" lon="1.28336">
        <ele>181</ele>
        <time>2023-11-19T09:30:50Z</time>
      </trkpt>
      <trkpt lat="43.67005" lon="1.28334">
        <ele>181</ele>
        <time>2023-11-19T09:30:51Z</time>
      </trkpt>
      <trkpt lat="43.67018" lon="1.28333">
        <ele>181.2</ele>
        <time>2023-11-19T09:30:53Z</time>
      </trkpt>
      <trkpt lat="43.67038" lon="1.28334">
        <ele>181.4</ele>
        <time>2023-11-19T09:30:56Z</time>
      </trkpt>
      <trkpt lat="43.6708" lon="1.28344">
        <ele>181.4</ele>
        <time>2023-11-19T09:31:02Z</time>
      </trkpt>
      <trkpt lat="43.67133" lon="1.28361">
        <ele>181.6</ele>
        <time>2023-11-19T09:31:10Z</time>
      </trkpt>
      <trkpt lat="43.67145" lon="1.28364">
        <ele>181.6</ele>
        <time>2023-11-19T09:31:12Z</time>
      </trkpt>
      <trkpt lat="43.67178" lon="1.28374">
        <ele>181.4</ele>
        <time>2023-11-19T09:31:18Z</time>
      </trkpt>
      <trkpt lat="43.67184" lon="1.28375">
        <ele>181.2</ele>
        <time>2023-11-19T09:31:21Z</time>
      </trkpt>
      <trkpt lat="43.67187" lon="1.28377">
        <ele>181.2</ele>
        <time>2023-11-19T09:31:22Z</time>
      </trkpt>
      <trkpt lat="43.67196" lon="1.28385">
        <ele>181.2</ele>
        <time>2023-11-19T09:31:25Z</time>
      </trkpt>
      <trkpt lat="43.67204" lon="1.28391">
        <ele>181</ele>
        <time>2023-11-19T09:31:27Z</time>
      </trkpt>
      <trkpt lat="43.67212" lon="1.28394">
        <ele>181</ele>
        <time>2023-11-19T09:31:29Z</time>
      </trkpt>
      <trkpt lat="43.67218" lon="1.28403">
        <ele>181</ele>
        <time>2023-11-19T09:31:31Z</time>
      </trkpt>
      <trkpt lat="43.67219" lon="1.2841">
        <ele>181</ele>
        <time>2023-11-19T09:31:32Z</time>
      </trkpt>
      <trkpt lat="43.67225" lon="1.28452">
        <ele>180.8</ele>
        <time>2023-11-19T09:31:37Z</time>
      </trkpt>
      <trkpt lat="43.67234" lon="1.28513">
        <ele>180.4</ele>
        <time>2023-11-19T09:31:44Z</time>
      </trkpt>
      <trkpt lat="43.67243" lon="1.28576">
        <ele>179.8</ele>
        <time>2023-11-19T09:31:51Z</time>
      </trkpt>
      <trkpt lat="43.67246" lon="1.28595">
        <ele>179.6</ele>
        <time>2023-11-19T09:31:53Z</time>
      </trkpt>
      <trkpt lat="43.67256" lon="1.28666">
        <ele>178.6</ele>
        <time>2023-11-19T09:32:00Z</time>
      </trkpt>
      <trkpt lat="43.67259" lon="1.28688">
        <ele>178.4</ele>
        <time>2023-11-19T09:32:02Z</time>
      </trkpt>
      <trkpt lat="43.67261" lon="1.28734">
        <ele>177.4</ele>
        <time>2023-11-19T09:32:06Z</time>
      </trkpt>
      <trkpt lat="43.6726" lon="1.28757">
        <ele>177.2</ele>
        <time>2023-11-19T09:32:08Z</time>
      </trkpt>
      <trkpt lat="43.67252" lon="1.28802">
        <ele>176.4</ele>
        <time>2023-11-19T09:32:12Z</time>
      </trkpt>
      <trkpt lat="43.67246" lon="1.28825">
        <ele>175.8</ele>
        <time>2023-11-19T09:32:14Z</time>
      </trkpt>
      <trkpt lat="43.67241" lon="1.28847">
        <ele>175</ele>
        <time>2023-11-19T09:32:16Z</time>
      </trkpt>
      <trkpt lat="43.67231" lon="1.28893">
        <ele>174</ele>
        <time>2023-11-19T09:32:20Z</time>
      </trkpt>
      <trkpt lat="43.67226" lon="1.28916">
        <ele>173.6</ele>
        <time>2023-11-19T09:32:22Z</time>
      </trkpt>
      <trkpt lat="43.67218" lon="1.28952">
        <ele>172.8</ele>
        <time>2023-11-19T09:32:25Z</time>
      </trkpt>
      <trkpt lat="43.67209" lon="1.28988">
        <ele>171.8</ele>
        <time>2023-11-19T09:32:28Z</time>
      </trkpt>
      <trkpt lat="43.67206" lon="1.29">
        <ele>171.4</ele>
        <time>2023-11-19T09:32:29Z</time>
      </trkpt>
      <trkpt lat="43.67191" lon="1.2906">
        <ele>170</ele>
        <time>2023-11-19T09:32:34Z</time>
      </trkpt>
      <trkpt lat="43.67186" lon="1.29084">
        <ele>169.2</ele>
        <time>2023-11-19T09:32:36Z</time>
      </trkpt>
      <trkpt lat="43.67182" lon="1.29108">
        <ele>168.8</ele>
        <time>2023-11-19T09:32:38Z</time>
      </trkpt>
      <trkpt lat="43.67181" lon="1.29132">
        <ele>168.4</ele>
        <time>2023-11-19T09:32:40Z</time>
      </trkpt>
      <trkpt lat="43.6718" lon="1.29158">
        <ele>167.4</ele>
        <time>2023-11-19T09:32:42Z</time>
      </trkpt>
      <trkpt lat="43.67181" lon="1.29212">
        <ele>165.8</ele>
        <time>2023-11-19T09:32:46Z</time>
      </trkpt>
      <trkpt lat="43.67183" lon="1.29268">
        <ele>164.8</ele>
        <time>2023-11-19T09:32:50Z</time>
      </trkpt>
      <trkpt lat="43.67182" lon="1.29309">
        <ele>163.8</ele>
        <time>2023-11-19T09:32:53Z</time>
      </trkpt>
      <trkpt lat="43.67182" lon="1.29322">
        <ele>163.6</ele>
        <time>2023-11-19T09:32:54Z</time>
      </trkpt>
      <trkpt lat="43.67176" lon="1.29346">
        <ele>162.8</ele>
        <time>2023-11-19T09:32:56Z</time>
      </trkpt>
      <trkpt lat="43.67173" lon="1.29357">
        <ele>162.6</ele>
        <time>2023-11-19T09:32:57Z</time>
      </trkpt>
      <trkpt lat="43.67174" lon="1.29377">
        <ele>162</ele>
        <time>2023-11-19T09:32:59Z</time>
      </trkpt>
      <trkpt lat="43.67186" lon="1.29387">
        <ele>161.6</ele>
        <time>2023-11-19T09:33:01Z</time>
      </trkpt>
      <trkpt lat="43.67192" lon="1.29384">
        <ele>161.4</ele>
        <time>2023-11-19T09:33:02Z</time>
      </trkpt>
      <trkpt lat="43.67207" lon="1.29374">
        <ele>161.2</ele>
        <time>2023-11-19T09:33:04Z</time>
      </trkpt>
      <trkpt lat="43.67215" lon="1.29373">
        <ele>161.2</ele>
        <time>2023-11-19T09:33:05Z</time>
      </trkpt>
      <trkpt lat="43.67223" lon="1.29373">
        <ele>161</ele>
        <time>2023-11-19T09:33:06Z</time>
      </trkpt>
      <trkpt lat="43.67238" lon="1.29379">
        <ele>160.8</ele>
        <time>2023-11-19T09:33:08Z</time>
      </trkpt>
      <trkpt lat="43.67259" lon="1.29397">
        <ele>160.2</ele>
        <time>2023-11-19T09:33:11Z</time>
      </trkpt>
      <trkpt lat="43.67264" lon="1.29404">
        <ele>160.2</ele>
        <time>2023-11-19T09:33:12Z</time>
      </trkpt>
      <trkpt lat="43.67269" lon="1.29414">
        <ele>160</ele>
        <time>2023-11-19T09:33:13Z</time>
      </trkpt>
      <trkpt lat="43.67279" lon="1.29443">
        <ele>159.8</ele>
        <time>2023-11-19T09:33:16Z</time>
      </trkpt>
      <trkpt lat="43.673" lon="1.2951">
        <ele>159.8</ele>
        <time>2023-11-19T09:33:23Z</time>
      </trkpt>
      <trkpt lat="43.67319" lon="1.29571">
        <ele>160.4</ele>
        <time>2023-11-19T09:33:30Z</time>
      </trkpt>
      <trkpt lat="43.6733" lon="1.29622">
        <ele>160.4</ele>
        <time>2023-11-19T09:33:35Z</time>
      </trkpt>
      <trkpt lat="43.67331" lon="1.29634">
        <ele>160.4</ele>
        <time>2023-11-19T09:33:36Z</time>
      </trkpt>
      <trkpt lat="43.67326" lon="1.29696">
        <ele>159.8</ele>
        <time>2023-11-19T09:33:41Z</time>
      </trkpt>
      <trkpt lat="43.67324" lon="1.29709">
        <ele>159.2</ele>
        <time>2023-11-19T09:33:42Z</time>
      </trkpt>
      <trkpt lat="43.67314" lon="1.29762">
        <ele>157.8</ele>
        <time>2023-11-19T09:33:46Z</time>
      </trkpt>
      <trkpt lat="43.67313" lon="1.29775">
        <ele>157.4</ele>
        <time>2023-11-19T09:33:47Z</time>
      </trkpt>
      <trkpt lat="43.67312" lon="1.29789">
        <ele>157.2</ele>
        <time>2023-11-19T09:33:48Z</time>
      </trkpt>
      <trkpt lat="43.67313" lon="1.29802">
        <ele>156.8</ele>
        <time>2023-11-19T09:33:49Z</time>
      </trkpt>
      <trkpt lat="43.67315" lon="1.29816">
        <ele>156.6</ele>
        <time>2023-11-19T09:33:50Z</time>
      </trkpt>
      <trkpt lat="43.67325" lon="1.29853">
        <ele>155.6</ele>
        <time>2023-11-19T09:33:53Z</time>
      </trkpt>
      <trkpt lat="43.67329" lon="1.29865">
        <ele>155.4</ele>
        <time>2023-11-19T09:33:54Z</time>
      </trkpt>
      <trkpt lat="43.67342" lon="1.29902">
        <ele>154.4</ele>
        <time>2023-11-19T09:33:57Z</time>
      </trkpt>
      <trkpt lat="43.67362" lon="1.29945">
        <ele>153.8</ele>
        <time>2023-11-19T09:34:01Z</time>
      </trkpt>
      <trkpt lat="43.67381" lon="1.29989">
        <ele>153.4</ele>
        <time>2023-11-19T09:34:05Z</time>
      </trkpt>
      <trkpt lat="43.67393" lon="1.30023">
        <ele>153</ele>
        <time>2023-11-19T09:34:08Z</time>
      </trkpt>
      <trkpt lat="43.67416" lon="1.30078">
        <ele>152.4</ele>
        <time>2023-11-19T09:34:13Z</time>
      </trkpt>
      <trkpt lat="43.67422" lon="1.30088">
        <ele>152.2</ele>
        <time>2023-11-19T09:34:14Z</time>
      </trkpt>
      <trkpt lat="43.6746" lon="1.30146">
        <ele>151.2</ele>
        <time>2023-11-19T09:34:20Z</time>
      </trkpt>
      <trkpt lat="43.67466" lon="1.30155">
        <ele>151</ele>
        <time>2023-11-19T09:34:21Z</time>
      </trkpt>
      <trkpt lat="43.67492" lon="1.30192">
        <ele>150</ele>
        <time>2023-11-19T09:34:25Z</time>
      </trkpt>
      <trkpt lat="43.67534" lon="1.30253">
        <ele>149.2</ele>
        <time>2023-11-19T09:34:32Z</time>
      </trkpt>
      <trkpt lat="43.67574" lon="1.30315">
        <ele>149.2</ele>
        <time>2023-11-19T09:34:39Z</time>
      </trkpt>
      <trkpt lat="43.67591" lon="1.30342">
        <ele>149.4</ele>
        <time>2023-11-19T09:34:42Z</time>
      </trkpt>
      <trkpt lat="43.67631" lon="1.30404">
        <ele>149.4</ele>
        <time>2023-11-19T09:34:49Z</time>
      </trkpt>
      <trkpt lat="43.67646" lon="1.3043">
        <ele>149.4</ele>
        <time>2023-11-19T09:34:52Z</time>
      </trkpt>
      <trkpt lat="43.67681" lon="1.30494">
        <ele>149.2</ele>
        <time>2023-11-19T09:34:59Z</time>
      </trkpt>
      <trkpt lat="43.67685" lon="1.30505">
        <ele>149</ele>
        <time>2023-11-19T09:35:00Z</time>
      </trkpt>
      <trkpt lat="43.67706" lon="1.30572">
        <ele>148.8</ele>
        <time>2023-11-19T09:35:06Z</time>
      </trkpt>
      <trkpt lat="43.67708" lon="1.30583">
        <ele>148.8</ele>
        <time>2023-11-19T09:35:07Z</time>
      </trkpt>
      <trkpt lat="43.67716" lon="1.30643">
        <ele>148</ele>
        <time>2023-11-19T09:35:12Z</time>
      </trkpt>
      <trkpt lat="43.6772" lon="1.30679">
        <ele>147.6</ele>
        <time>2023-11-19T09:35:15Z</time>
      </trkpt>
      <trkpt lat="43.6773" lon="1.30761">
        <ele>146.8</ele>
        <time>2023-11-19T09:35:22Z</time>
      </trkpt>
      <trkpt lat="43.67731" lon="1.30773">
        <ele>146.8</ele>
        <time>2023-11-19T09:35:23Z</time>
      </trkpt>
      <trkpt lat="43.67733" lon="1.30784">
        <ele>146.6</ele>
        <time>2023-11-19T09:35:24Z</time>
      </trkpt>
      <trkpt lat="43.67739" lon="1.30819">
        <ele>146.4</ele>
        <time>2023-11-19T09:35:27Z</time>
      </trkpt>
      <trkpt lat="43.67751" lon="1.30875">
        <ele>146.2</ele>
        <time>2023-11-19T09:35:32Z</time>
      </trkpt>
      <trkpt lat="43.67772" lon="1.3095">
        <ele>145.6</ele>
        <time>2023-11-19T09:35:39Z</time>
      </trkpt>
      <trkpt lat="43.67775" lon="1.3096">
        <ele>145.6</ele>
        <time>2023-11-19T09:35:40Z</time>
      </trkpt>
      <trkpt lat="43.6778" lon="1.30982">
        <ele>145.4</ele>
        <time>2023-11-19T09:35:42Z</time>
      </trkpt>
      <trkpt lat="43.67801" lon="1.31058">
        <ele>145</ele>
        <time>2023-11-19T09:35:49Z</time>
      </trkpt>
      <trkpt lat="43.67804" lon="1.31069">
        <ele>144.8</ele>
        <time>2023-11-19T09:35:50Z</time>
      </trkpt>
      <trkpt lat="43.67809" lon="1.31079">
        <ele>144.8</ele>
        <time>2023-11-19T09:35:51Z</time>
      </trkpt>
      <trkpt lat="43.6782" lon="1.31097">
        <ele>144.8</ele>
        <time>2023-11-19T09:35:53Z</time>
      </trkpt>
      <trkpt lat="43.67826" lon="1.31105">
        <ele>144.8</ele>
        <time>2023-11-19T09:35:54Z</time>
      </trkpt>
      <trkpt lat="43.67859" lon="1.31137">
        <ele>144.8</ele>
        <time>2023-11-19T09:35:59Z</time>
      </trkpt>
      <trkpt lat="43.67904" lon="1.31187">
        <ele>145.8</ele>
        <time>2023-11-19T09:36:06Z</time>
      </trkpt>
      <trkpt lat="43.67911" lon="1.31194">
        <ele>145.8</ele>
        <time>2023-11-19T09:36:07Z</time>
      </trkpt>
      <trkpt lat="43.6793" lon="1.31218">
        <ele>145.8</ele>
        <time>2023-11-19T09:36:10Z</time>
      </trkpt>
      <trkpt lat="43.67941" lon="1.31236">
        <ele>145.6</ele>
        <time>2023-11-19T09:36:12Z</time>
      </trkpt>
      <trkpt lat="43.67946" lon="1.31246">
        <ele>145.6</ele>
        <time>2023-11-19T09:36:13Z</time>
      </trkpt>
      <trkpt lat="43.67956" lon="1.31276">
        <ele>145.4</ele>
        <time>2023-11-19T09:36:16Z</time>
      </trkpt>
      <trkpt lat="43.67959" lon="1.31286">
        <ele>145.2</ele>
        <time>2023-11-19T09:36:17Z</time>
      </trkpt>
      <trkpt lat="43.67968" lon="1.31327">
        <ele>145.2</ele>
        <time>2023-11-19T09:36:21Z</time>
      </trkpt>
      <trkpt lat="43.67977" lon="1.31371">
        <ele>146</ele>
        <time>2023-11-19T09:36:26Z</time>
      </trkpt>
      <trkpt lat="43.67981" lon="1.31386">
        <ele>146.4</ele>
        <time>2023-11-19T09:36:28Z</time>
      </trkpt>
      <trkpt lat="43.67989" lon="1.31416">
        <ele>147.4</ele>
        <time>2023-11-19T09:36:32Z</time>
      </trkpt>
      <trkpt lat="43.67991" lon="1.31424">
        <ele>147.8</ele>
        <time>2023-11-19T09:36:33Z</time>
      </trkpt>
      <trkpt lat="43.67998" lon="1.31447">
        <ele>148.8</ele>
        <time>2023-11-19T09:36:36Z</time>
      </trkpt>
      <trkpt lat="43.68003" lon="1.3147">
        <ele>149.8</ele>
        <time>2023-11-19T09:36:39Z</time>
      </trkpt>
      <trkpt lat="43.68005" lon="1.31478">
        <ele>150</ele>
        <time>2023-11-19T09:36:40Z</time>
      </trkpt>
      <trkpt lat="43.68014" lon="1.31508">
        <ele>150.8</ele>
        <time>2023-11-19T09:36:44Z</time>
      </trkpt>
      <trkpt lat="43.68016" lon="1.31516">
        <ele>150.8</ele>
        <time>2023-11-19T09:36:45Z</time>
      </trkpt>
      <trkpt lat="43.6802" lon="1.31523">
        <ele>151</ele>
        <time>2023-11-19T09:36:46Z</time>
      </trkpt>
      <trkpt lat="43.68024" lon="1.3153">
        <ele>151</ele>
        <time>2023-11-19T09:36:47Z</time>
      </trkpt>
      <trkpt lat="43.68028" lon="1.31536">
        <ele>151</ele>
        <time>2023-11-19T09:36:48Z</time>
      </trkpt>
      <trkpt lat="43.68037" lon="1.31548">
        <ele>151.2</ele>
        <time>2023-11-19T09:36:50Z</time>
      </trkpt>
      <trkpt lat="43.6806" lon="1.31581">
        <ele>151.4</ele>
        <time>2023-11-19T09:36:55Z</time>
      </trkpt>
      <trkpt lat="43.68071" lon="1.3159">
        <ele>151.4</ele>
        <time>2023-11-19T09:36:57Z</time>
      </trkpt>
      <trkpt lat="43.68082" lon="1.31596">
        <ele>151.6</ele>
        <time>2023-11-19T09:36:59Z</time>
      </trkpt>
      <trkpt lat="43.68094" lon="1.316">
        <ele>151.8</ele>
        <time>2023-11-19T09:37:01Z</time>
      </trkpt>
      <trkpt lat="43.68099" lon="1.31605">
        <ele>152</ele>
        <time>2023-11-19T09:37:02Z</time>
      </trkpt>
      <trkpt lat="43.68104" lon="1.31612">
        <ele>152</ele>
        <time>2023-11-19T09:37:03Z</time>
      </trkpt>
      <trkpt lat="43.68106" lon="1.3162">
        <ele>152</ele>
        <time>2023-11-19T09:37:04Z</time>
      </trkpt>
      <trkpt lat="43.68108" lon="1.3163">
        <ele>152.2</ele>
        <time>2023-11-19T09:37:05Z</time>
      </trkpt>
      <trkpt lat="43.68113" lon="1.31679">
        <ele>152.2</ele>
        <time>2023-11-19T09:37:10Z</time>
      </trkpt>
      <trkpt lat="43.68114" lon="1.31688">
        <ele>152.2</ele>
        <time>2023-11-19T09:37:11Z</time>
      </trkpt>
      <trkpt lat="43.68125" lon="1.31751">
        <ele>152</ele>
        <time>2023-11-19T09:37:17Z</time>
      </trkpt>
      <trkpt lat="43.6813" lon="1.31772">
        <ele>151.8</ele>
        <time>2023-11-19T09:37:19Z</time>
      </trkpt>
      <trkpt lat="43.68141" lon="1.31786">
        <ele>151.6</ele>
        <time>2023-11-19T09:37:21Z</time>
      </trkpt>
      <trkpt lat="43.68153" lon="1.31786">
        <ele>151.2</ele>
        <time>2023-11-19T09:37:23Z</time>
      </trkpt>
      <trkpt lat="43.68158" lon="1.31783">
        <ele>151</ele>
        <time>2023-11-19T09:37:24Z</time>
      </trkpt>
      <trkpt lat="43.68163" lon="1.3178">
        <ele>151</ele>
        <time>2023-11-19T09:37:25Z</time>
      </trkpt>
      <trkpt lat="43.68173" lon="1.31773">
        <ele>150.8</ele>
        <time>2023-11-19T09:37:28Z</time>
      </trkpt>
      <trkpt lat="43.68182" lon="1.31783">
        <ele>151.2</ele>
        <time>2023-11-19T09:37:32Z</time>
      </trkpt>
      <trkpt lat="43.68195" lon="1.31802">
        <ele>152</ele>
        <time>2023-11-19T09:37:37Z</time>
      </trkpt>
      <trkpt lat="43.68201" lon="1.3181">
        <ele>152.2</ele>
        <time>2023-11-19T09:37:39Z</time>
      </trkpt>
      <trkpt lat="43.68218" lon="1.31838">
        <ele>152.6</ele>
        <time>2023-11-19T09:37:46Z</time>
      </trkpt>
      <trkpt lat="43.68236" lon="1.31866">
        <ele>152.8</ele>
        <time>2023-11-19T09:37:52Z</time>
      </trkpt>
      <trkpt lat="43.68251" lon="1.3189">
        <ele>152.8</ele>
        <time>2023-11-19T09:37:56Z</time>
      </trkpt>
      <trkpt lat="43.68261" lon="1.31897">
        <ele>152.6</ele>
        <time>2023-11-19T09:37:58Z</time>
      </trkpt>
      <trkpt lat="43.68273" lon="1.31904">
        <ele>152.4</ele>
        <time>2023-11-19T09:38:00Z</time>
      </trkpt>
      <trkpt lat="43.68286" lon="1.31911">
        <ele>152.2</ele>
        <time>2023-11-19T09:38:02Z</time>
      </trkpt>
      <trkpt lat="43.68297" lon="1.31925">
        <ele>151.8</ele>
        <time>2023-11-19T09:38:04Z</time>
      </trkpt>
      <trkpt lat="43.68302" lon="1.31934">
        <ele>151.6</ele>
        <time>2023-11-19T09:38:05Z</time>
      </trkpt>
      <trkpt lat="43.6831" lon="1.31953">
        <ele>151</ele>
        <time>2023-11-19T09:38:07Z</time>
      </trkpt>
      <trkpt lat="43.68317" lon="1.31972">
        <ele>150.6</ele>
        <time>2023-11-19T09:38:09Z</time>
      </trkpt>
      <trkpt lat="43.68324" lon="1.31992">
        <ele>149.8</ele>
        <time>2023-11-19T09:38:11Z</time>
      </trkpt>
      <trkpt lat="43.68328" lon="1.32011">
        <ele>149</ele>
        <time>2023-11-19T09:38:13Z</time>
      </trkpt>
      <trkpt lat="43.68333" lon="1.32018">
        <ele>148.6</ele>
        <time>2023-11-19T09:38:14Z</time>
      </trkpt>
      <trkpt lat="43.68339" lon="1.32023">
        <ele>148.2</ele>
        <time>2023-11-19T09:38:15Z</time>
      </trkpt>
      <trkpt lat="43.68353" lon="1.32031">
        <ele>147.6</ele>
        <time>2023-11-19T09:38:17Z</time>
      </trkpt>
      <trkpt lat="43.68359" lon="1.32037">
        <ele>147.6</ele>
        <time>2023-11-19T09:38:18Z</time>
      </trkpt>
      <trkpt lat="43.6837" lon="1.32048">
        <ele>147</ele>
        <time>2023-11-19T09:38:20Z</time>
      </trkpt>
      <trkpt lat="43.6838" lon="1.32063">
        <ele>146.6</ele>
        <time>2023-11-19T09:38:22Z</time>
      </trkpt>
      <trkpt lat="43.68383" lon="1.3207">
        <ele>146.6</ele>
        <time>2023-11-19T09:38:23Z</time>
      </trkpt>
      <trkpt lat="43.68385" lon="1.32078">
        <ele>146.2</ele>
        <time>2023-11-19T09:38:24Z</time>
      </trkpt>
      <trkpt lat="43.68389" lon="1.32085">
        <ele>146</ele>
        <time>2023-11-19T09:38:25Z</time>
      </trkpt>
      <trkpt lat="43.68393" lon="1.3209">
        <ele>145.6</ele>
        <time>2023-11-19T09:38:26Z</time>
      </trkpt>
      <trkpt lat="43.68398" lon="1.32091">
        <ele>145.4</ele>
        <time>2023-11-19T09:38:27Z</time>
      </trkpt>
      <trkpt lat="43.68404" lon="1.3209">
        <ele>145.2</ele>
        <time>2023-11-19T09:38:28Z</time>
      </trkpt>
      <trkpt lat="43.68409" lon="1.32089">
        <ele>145.2</ele>
        <time>2023-11-19T09:38:29Z</time>
      </trkpt>
      <trkpt lat="43.68419" lon="1.32094">
        <ele>145</ele>
        <time>2023-11-19T09:38:31Z</time>
      </trkpt>
      <trkpt lat="43.68459" lon="1.3213">
        <ele>145.2</ele>
        <time>2023-11-19T09:38:39Z</time>
      </trkpt>
      <trkpt lat="43.68486" lon="1.32153">
        <ele>145.2</ele>
        <time>2023-11-19T09:38:44Z</time>
      </trkpt>
      <trkpt lat="43.68498" lon="1.32159">
        <ele>145.4</ele>
        <time>2023-11-19T09:38:46Z</time>
      </trkpt>
      <trkpt lat="43.68505" lon="1.32162">
        <ele>145.6</ele>
        <time>2023-11-19T09:38:47Z</time>
      </trkpt>
      <trkpt lat="43.68525" lon="1.32165">
        <ele>145.8</ele>
        <time>2023-11-19T09:38:50Z</time>
      </trkpt>
      <trkpt lat="43.68538" lon="1.32164">
        <ele>145.8</ele>
        <time>2023-11-19T09:38:52Z</time>
      </trkpt>
      <trkpt lat="43.68557" lon="1.32158">
        <ele>146</ele>
        <time>2023-11-19T09:38:55Z</time>
      </trkpt>
      <trkpt lat="43.68563" lon="1.32154">
        <ele>146.2</ele>
        <time>2023-11-19T09:38:56Z</time>
      </trkpt>
      <trkpt lat="43.68568" lon="1.32142">
        <ele>146</ele>
        <time>2023-11-19T09:38:58Z</time>
      </trkpt>
      <trkpt lat="43.68562" lon="1.32131">
        <ele>146</ele>
        <time>2023-11-19T09:39:00Z</time>
      </trkpt>
      <trkpt lat="43.68557" lon="1.32126">
        <ele>146.2</ele>
        <time>2023-11-19T09:39:01Z</time>
      </trkpt>
      <trkpt lat="43.68552" lon="1.32116">
        <ele>146</ele>
        <time>2023-11-19T09:39:03Z</time>
      </trkpt>
      <trkpt lat="43.6855" lon="1.3211">
        <ele>146.2</ele>
        <time>2023-11-19T09:39:04Z</time>
      </trkpt>
      <trkpt lat="43.68549" lon="1.32105">
        <ele>146.2</ele>
        <time>2023-11-19T09:39:05Z</time>
      </trkpt>
      <trkpt lat="43.68546" lon="1.32077">
        <ele>146.8</ele>
        <time>2023-11-19T09:39:10Z</time>
      </trkpt>
      <trkpt lat="43.68545" lon="1.32061">
        <ele>147.2</ele>
        <time>2023-11-19T09:39:13Z</time>
      </trkpt>
      <trkpt lat="43.68544" lon="1.32049">
        <ele>147.4</ele>
        <time>2023-11-19T09:39:15Z</time>
      </trkpt>
      <trkpt lat="43.68538" lon="1.32004">
        <ele>148.2</ele>
        <time>2023-11-19T09:39:22Z</time>
      </trkpt>
      <trkpt lat="43.68538" lon="1.31998">
        <ele>148.2</ele>
        <time>2023-11-19T09:39:23Z</time>
      </trkpt>
      <trkpt lat="43.68543" lon="1.31959">
        <ele>149.2</ele>
        <time>2023-11-19T09:39:29Z</time>
      </trkpt>
      <trkpt lat="43.68544" lon="1.31953">
        <ele>149.2</ele>
        <time>2023-11-19T09:39:30Z</time>
      </trkpt>
      <trkpt lat="43.68553" lon="1.31913">
        <ele>150.2</ele>
        <time>2023-11-19T09:39:36Z</time>
      </trkpt>
      <trkpt lat="43.68561" lon="1.31867">
        <ele>151.6</ele>
        <time>2023-11-19T09:39:43Z</time>
      </trkpt>
      <trkpt lat="43.68565" lon="1.31847">
        <ele>152</ele>
        <time>2023-11-19T09:39:46Z</time>
      </trkpt>
      <trkpt lat="43.68571" lon="1.31815">
        <ele>152.8</ele>
        <time>2023-11-19T09:39:51Z</time>
      </trkpt>
      <trkpt lat="43.68576" lon="1.31789">
        <ele>153.2</ele>
        <time>2023-11-19T09:39:55Z</time>
      </trkpt>
      <trkpt lat="43.6858" lon="1.31763">
        <ele>153.8</ele>
        <time>2023-11-19T09:39:59Z</time>
      </trkpt>
      <trkpt lat="43.68582" lon="1.31749">
        <ele>154</ele>
        <time>2023-11-19T09:40:01Z</time>
      </trkpt>
      <trkpt lat="43.68581" lon="1.31737">
        <ele>154.2</ele>
        <time>2023-11-19T09:40:03Z</time>
      </trkpt>
      <trkpt lat="43.68578" lon="1.31725">
        <ele>154.4</ele>
        <time>2023-11-19T09:40:05Z</time>
      </trkpt>
      <trkpt lat="43.6857" lon="1.31706">
        <ele>154.6</ele>
        <time>2023-11-19T09:40:08Z</time>
      </trkpt>
      <trkpt lat="43.68566" lon="1.31691">
        <ele>154.8</ele>
        <time>2023-11-19T09:40:10Z</time>
      </trkpt>
      <trkpt lat="43.68564" lon="1.31682">
        <ele>154.8</ele>
        <time>2023-11-19T09:40:11Z</time>
      </trkpt>
      <trkpt lat="43.68564" lon="1.31674">
        <ele>154.8</ele>
        <time>2023-11-19T09:40:12Z</time>
      </trkpt>
      <trkpt lat="43.68563" lon="1.31655">
        <ele>154.8</ele>
        <time>2023-11-19T09:40:14Z</time>
      </trkpt>
      <trkpt lat="43.68566" lon="1.31635">
        <ele>154.4</ele>
        <time>2023-11-19T09:40:16Z</time>
      </trkpt>
      <trkpt lat="43.68568" lon="1.31614">
        <ele>154.4</ele>
        <time>2023-11-19T09:40:18Z</time>
      </trkpt>
      <trkpt lat="43.68568" lon="1.31584">
        <ele>154</ele>
        <time>2023-11-19T09:40:21Z</time>
      </trkpt>
      <trkpt lat="43.68571" lon="1.31575">
        <ele>153.6</ele>
        <time>2023-11-19T09:40:22Z</time>
      </trkpt>
      <trkpt lat="43.68576" lon="1.31568">
        <ele>153.6</ele>
        <time>2023-11-19T09:40:23Z</time>
      </trkpt>
      <trkpt lat="43.686" lon="1.31551">
        <ele>152.6</ele>
        <time>2023-11-19T09:40:27Z</time>
      </trkpt>
      <trkpt lat="43.68605" lon="1.31547">
        <ele>152.6</ele>
        <time>2023-11-19T09:40:28Z</time>
      </trkpt>
      <trkpt lat="43.68629" lon="1.31534">
        <ele>152.6</ele>
        <time>2023-11-19T09:40:32Z</time>
      </trkpt>
      <trkpt lat="43.68681" lon="1.31504">
        <ele>153.2</ele>
        <time>2023-11-19T09:40:41Z</time>
      </trkpt>
      <trkpt lat="43.68698" lon="1.31494">
        <ele>153.8</ele>
        <time>2023-11-19T09:40:44Z</time>
      </trkpt>
      <trkpt lat="43.68721" lon="1.31481">
        <ele>154.4</ele>
        <time>2023-11-19T09:40:48Z</time>
      </trkpt>
      <trkpt lat="43.68737" lon="1.31471">
        <ele>154.8</ele>
        <time>2023-11-19T09:40:51Z</time>
      </trkpt>
      <trkpt lat="43.68764" lon="1.31455">
        <ele>155.4</ele>
        <time>2023-11-19T09:40:56Z</time>
      </trkpt>
      <trkpt lat="43.68776" lon="1.31449">
        <ele>156</ele>
        <time>2023-11-19T09:40:58Z</time>
      </trkpt>
      <trkpt lat="43.6882" lon="1.31422">
        <ele>156.8</ele>
        <time>2023-11-19T09:41:06Z</time>
      </trkpt>
      <trkpt lat="43.68825" lon="1.3142">
        <ele>157</ele>
        <time>2023-11-19T09:41:07Z</time>
      </trkpt>
      <trkpt lat="43.68853" lon="1.31408">
        <ele>158.2</ele>
        <time>2023-11-19T09:41:12Z</time>
      </trkpt>
      <trkpt lat="43.68858" lon="1.31405">
        <ele>158.4</ele>
        <time>2023-11-19T09:41:13Z</time>
      </trkpt>
      <trkpt lat="43.68886" lon="1.31393">
        <ele>159.4</ele>
        <time>2023-11-19T09:41:18Z</time>
      </trkpt>
      <trkpt lat="43.68891" lon="1.31391">
        <ele>159.6</ele>
        <time>2023-11-19T09:41:19Z</time>
      </trkpt>
      <trkpt lat="43.68896" lon="1.31388">
        <ele>159.6</ele>
        <time>2023-11-19T09:41:20Z</time>
      </trkpt>
      <trkpt lat="43.68921" lon="1.31377">
        <ele>160.6</ele>
        <time>2023-11-19T09:41:25Z</time>
      </trkpt>
      <trkpt lat="43.68931" lon="1.31373">
        <ele>160.8</ele>
        <time>2023-11-19T09:41:27Z</time>
      </trkpt>
      <trkpt lat="43.68941" lon="1.31366">
        <ele>161.6</ele>
        <time>2023-11-19T09:41:29Z</time>
      </trkpt>
      <trkpt lat="43.68959" lon="1.31352">
        <ele>162.8</ele>
        <time>2023-11-19T09:41:33Z</time>
      </trkpt>
      <trkpt lat="43.68968" lon="1.31345">
        <ele>163.4</ele>
        <time>2023-11-19T09:41:35Z</time>
      </trkpt>
      <trkpt lat="43.68976" lon="1.31337">
        <ele>164</ele>
        <time>2023-11-19T09:41:37Z</time>
      </trkpt>
      <trkpt lat="43.69009" lon="1.31304">
        <ele>165</ele>
        <time>2023-11-19T09:41:44Z</time>
      </trkpt>
      <trkpt lat="43.69051" lon="1.31265">
        <ele>165.6</ele>
        <time>2023-11-19T09:41:52Z</time>
      </trkpt>
      <trkpt lat="43.6909" lon="1.31239">
        <ele>166</ele>
        <time>2023-11-19T09:41:59Z</time>
      </trkpt>
      <trkpt lat="43.69096" lon="1.31236">
        <ele>166</ele>
        <time>2023-11-19T09:42:00Z</time>
      </trkpt>
      <trkpt lat="43.69137" lon="1.31217">
        <ele>166.6</ele>
        <time>2023-11-19T09:42:07Z</time>
      </trkpt>
      <trkpt lat="43.69182" lon="1.31197">
        <ele>167</ele>
        <time>2023-11-19T09:42:14Z</time>
      </trkpt>
      <trkpt lat="43.69201" lon="1.31188">
        <ele>167.2</ele>
        <time>2023-11-19T09:42:17Z</time>
      </trkpt>
      <trkpt lat="43.69256" lon="1.31164">
        <ele>167</ele>
        <time>2023-11-19T09:42:25Z</time>
      </trkpt>
      <trkpt lat="43.69276" lon="1.31155">
        <ele>167</ele>
        <time>2023-11-19T09:42:28Z</time>
      </trkpt>
      <trkpt lat="43.69333" lon="1.31129">
        <ele>166.4</ele>
        <time>2023-11-19T09:42:36Z</time>
      </trkpt>
      <trkpt lat="43.69363" lon="1.31116">
        <ele>166.2</ele>
        <time>2023-11-19T09:42:40Z</time>
      </trkpt>
      <trkpt lat="43.69414" lon="1.31092">
        <ele>166.4</ele>
        <time>2023-11-19T09:42:47Z</time>
      </trkpt>
      <trkpt lat="43.69444" lon="1.31078">
        <ele>166.6</ele>
        <time>2023-11-19T09:42:51Z</time>
      </trkpt>
      <trkpt lat="43.69482" lon="1.31052">
        <ele>166.4</ele>
        <time>2023-11-19T09:42:56Z</time>
      </trkpt>
      <trkpt lat="43.69512" lon="1.31015">
        <ele>166.4</ele>
        <time>2023-11-19T09:43:01Z</time>
      </trkpt>
      <trkpt lat="43.6953" lon="1.30992">
        <ele>166.2</ele>
        <time>2023-11-19T09:43:04Z</time>
      </trkpt>
      <trkpt lat="43.69573" lon="1.30934">
        <ele>165.8</ele>
        <time>2023-11-19T09:43:11Z</time>
      </trkpt>
      <trkpt lat="43.69579" lon="1.30926">
        <ele>165.8</ele>
        <time>2023-11-19T09:43:12Z</time>
      </trkpt>
      <trkpt lat="43.6962" lon="1.3087">
        <ele>165.6</ele>
        <time>2023-11-19T09:43:19Z</time>
      </trkpt>
      <trkpt lat="43.69638" lon="1.30841">
        <ele>165.4</ele>
        <time>2023-11-19T09:43:22Z</time>
      </trkpt>
      <trkpt lat="43.69647" lon="1.30824">
        <ele>165.2</ele>
        <time>2023-11-19T09:43:24Z</time>
      </trkpt>
      <trkpt lat="43.69684" lon="1.30754">
        <ele>164.8</ele>
        <time>2023-11-19T09:43:31Z</time>
      </trkpt>
      <trkpt lat="43.69688" lon="1.30747">
        <ele>164.8</ele>
        <time>2023-11-19T09:43:32Z</time>
      </trkpt>
      <trkpt lat="43.69728" lon="1.30684">
        <ele>164.6</ele>
        <time>2023-11-19T09:43:39Z</time>
      </trkpt>
      <trkpt lat="43.69774" lon="1.30634">
        <ele>164.4</ele>
        <time>2023-11-19T09:43:46Z</time>
      </trkpt>
      <trkpt lat="43.69782" lon="1.30625">
        <ele>164.4</ele>
        <time>2023-11-19T09:43:47Z</time>
      </trkpt>
      <trkpt lat="43.69827" lon="1.30576">
        <ele>164.8</ele>
        <time>2023-11-19T09:43:54Z</time>
      </trkpt>
      <trkpt lat="43.69848" lon="1.30551">
        <ele>164.8</ele>
        <time>2023-11-19T09:43:57Z</time>
      </trkpt>
      <trkpt lat="43.69893" lon="1.30512">
        <ele>164.4</ele>
        <time>2023-11-19T09:44:03Z</time>
      </trkpt>
      <trkpt lat="43.6992" lon="1.305">
        <ele>164</ele>
        <time>2023-11-19T09:44:06Z</time>
      </trkpt>
      <trkpt lat="43.69956" lon="1.30485">
        <ele>163.4</ele>
        <time>2023-11-19T09:44:10Z</time>
      </trkpt>
      <trkpt lat="43.69985" lon="1.30472">
        <ele>162.8</ele>
        <time>2023-11-19T09:44:13Z</time>
      </trkpt>
      <trkpt lat="43.7004" lon="1.30449">
        <ele>162.2</ele>
        <time>2023-11-19T09:44:19Z</time>
      </trkpt>
      <trkpt lat="43.70067" lon="1.30437">
        <ele>161.6</ele>
        <time>2023-11-19T09:44:22Z</time>
      </trkpt>
      <trkpt lat="43.70084" lon="1.30427">
        <ele>161.4</ele>
        <time>2023-11-19T09:44:24Z</time>
      </trkpt>
      <trkpt lat="43.70091" lon="1.30419">
        <ele>161.2</ele>
        <time>2023-11-19T09:44:25Z</time>
      </trkpt>
      <trkpt lat="43.70123" lon="1.30375">
        <ele>160.8</ele>
        <time>2023-11-19T09:44:30Z</time>
      </trkpt>
      <trkpt lat="43.70164" lon="1.30312">
        <ele>161</ele>
        <time>2023-11-19T09:44:37Z</time>
      </trkpt>
      <trkpt lat="43.70194" lon="1.30269">
        <ele>161.2</ele>
        <time>2023-11-19T09:44:42Z</time>
      </trkpt>
      <trkpt lat="43.70207" lon="1.30255">
        <ele>161.4</ele>
        <time>2023-11-19T09:44:44Z</time>
      </trkpt>
      <trkpt lat="43.70222" lon="1.30246">
        <ele>161.8</ele>
        <time>2023-11-19T09:44:46Z</time>
      </trkpt>
      <trkpt lat="43.70264" lon="1.30235">
        <ele>162.8</ele>
        <time>2023-11-19T09:44:51Z</time>
      </trkpt>
      <trkpt lat="43.70281" lon="1.30229">
        <ele>163</ele>
        <time>2023-11-19T09:44:53Z</time>
      </trkpt>
      <trkpt lat="43.70337" lon="1.30203">
        <ele>163.6</ele>
        <time>2023-11-19T09:45:00Z</time>
      </trkpt>
      <trkpt lat="43.70352" lon="1.30195">
        <ele>163.8</ele>
        <time>2023-11-19T09:45:02Z</time>
      </trkpt>
      <trkpt lat="43.70404" lon="1.30162">
        <ele>163.8</ele>
        <time>2023-11-19T09:45:09Z</time>
      </trkpt>
      <trkpt lat="43.70426" lon="1.30147">
        <ele>163.8</ele>
        <time>2023-11-19T09:45:12Z</time>
      </trkpt>
      <trkpt lat="43.70481" lon="1.30108">
        <ele>163.6</ele>
        <time>2023-11-19T09:45:19Z</time>
      </trkpt>
      <trkpt lat="43.70498" lon="1.30096">
        <ele>163.6</ele>
        <time>2023-11-19T09:45:21Z</time>
      </trkpt>
      <trkpt lat="43.7055" lon="1.30063">
        <ele>162.8</ele>
        <time>2023-11-19T09:45:27Z</time>
      </trkpt>
      <trkpt lat="43.70559" lon="1.3006">
        <ele>162.8</ele>
        <time>2023-11-19T09:45:28Z</time>
      </trkpt>
      <trkpt lat="43.70598" lon="1.30061">
        <ele>162.2</ele>
        <time>2023-11-19T09:45:32Z</time>
      </trkpt>
      <trkpt lat="43.70607" lon="1.30062">
        <ele>161.8</ele>
        <time>2023-11-19T09:45:33Z</time>
      </trkpt>
      <trkpt lat="43.70662" lon="1.30069">
        <ele>160.8</ele>
        <time>2023-11-19T09:45:39Z</time>
      </trkpt>
      <trkpt lat="43.70679" lon="1.30072">
        <ele>160.8</ele>
        <time>2023-11-19T09:45:41Z</time>
      </trkpt>
      <trkpt lat="43.70719" lon="1.30089">
        <ele>161</ele>
        <time>2023-11-19T09:45:46Z</time>
      </trkpt>
      <trkpt lat="43.70767" lon="1.30113">
        <ele>161.4</ele>
        <time>2023-11-19T09:45:52Z</time>
      </trkpt>
      <trkpt lat="43.70814" lon="1.30127">
        <ele>161.8</ele>
        <time>2023-11-19T09:45:58Z</time>
      </trkpt>
      <trkpt lat="43.70847" lon="1.30127">
        <ele>162</ele>
        <time>2023-11-19T09:46:02Z</time>
      </trkpt>
      <trkpt lat="43.70864" lon="1.30125">
        <ele>162</ele>
        <time>2023-11-19T09:46:04Z</time>
      </trkpt>
      <trkpt lat="43.70921" lon="1.30117">
        <ele>162.4</ele>
        <time>2023-11-19T09:46:11Z</time>
      </trkpt>
      <trkpt lat="43.70946" lon="1.30113">
        <ele>162.4</ele>
        <time>2023-11-19T09:46:14Z</time>
      </trkpt>
      <trkpt lat="43.71002" lon="1.30101">
        <ele>162.2</ele>
        <time>2023-11-19T09:46:21Z</time>
      </trkpt>
      <trkpt lat="43.71026" lon="1.30097">
        <ele>162</ele>
        <time>2023-11-19T09:46:24Z</time>
      </trkpt>
      <trkpt lat="43.71085" lon="1.3009">
        <ele>161.8</ele>
        <time>2023-11-19T09:46:31Z</time>
      </trkpt>
      <trkpt lat="43.71103" lon="1.30088">
        <ele>161.8</ele>
        <time>2023-11-19T09:46:33Z</time>
      </trkpt>
      <trkpt lat="43.71165" lon="1.3008">
        <ele>161</ele>
        <time>2023-11-19T09:46:40Z</time>
      </trkpt>
      <trkpt lat="43.71173" lon="1.30079">
        <ele>160.8</ele>
        <time>2023-11-19T09:46:41Z</time>
      </trkpt>
      <trkpt lat="43.71207" lon="1.30075">
        <ele>160.6</ele>
        <time>2023-11-19T09:46:45Z</time>
      </trkpt>
      <trkpt lat="43.71265" lon="1.30067">
        <ele>160.2</ele>
        <time>2023-11-19T09:46:52Z</time>
      </trkpt>
      <trkpt lat="43.71283" lon="1.30065">
        <ele>160</ele>
        <time>2023-11-19T09:46:54Z</time>
      </trkpt>
      <trkpt lat="43.71318" lon="1.30058">
        <ele>159.8</ele>
        <time>2023-11-19T09:46:58Z</time>
      </trkpt>
      <trkpt lat="43.71352" lon="1.30051">
        <ele>159.8</ele>
        <time>2023-11-19T09:47:02Z</time>
      </trkpt>
      <trkpt lat="43.71368" lon="1.30049">
        <ele>159.6</ele>
        <time>2023-11-19T09:47:04Z</time>
      </trkpt>
      <trkpt lat="43.7138" lon="1.30054">
        <ele>159.6</ele>
        <time>2023-11-19T09:47:06Z</time>
      </trkpt>
      <trkpt lat="43.71392" lon="1.3006">
        <ele>159.6</ele>
        <time>2023-11-19T09:47:08Z</time>
      </trkpt>
      <trkpt lat="43.71398" lon="1.30061">
        <ele>159.6</ele>
        <time>2023-11-19T09:47:09Z</time>
      </trkpt>
      <trkpt lat="43.71433" lon="1.30068">
        <ele>160</ele>
        <time>2023-11-19T09:47:14Z</time>
      </trkpt>
      <trkpt lat="43.71485" lon="1.30091">
        <ele>160.2</ele>
        <time>2023-11-19T09:47:21Z</time>
      </trkpt>
      <trkpt lat="43.71508" lon="1.30104">
        <ele>160.2</ele>
        <time>2023-11-19T09:47:24Z</time>
      </trkpt>
      <trkpt lat="43.71523" lon="1.30106">
        <ele>160.4</ele>
        <time>2023-11-19T09:47:26Z</time>
      </trkpt>
      <trkpt lat="43.71531" lon="1.30105">
        <ele>160.4</ele>
        <time>2023-11-19T09:47:27Z</time>
      </trkpt>
      <trkpt lat="43.71554" lon="1.301">
        <ele>160.4</ele>
        <time>2023-11-19T09:47:30Z</time>
      </trkpt>
      <trkpt lat="43.71568" lon="1.30091">
        <ele>160.4</ele>
        <time>2023-11-19T09:47:32Z</time>
      </trkpt>
      <trkpt lat="43.71573" lon="1.30084">
        <ele>160.4</ele>
        <time>2023-11-19T09:47:33Z</time>
      </trkpt>
      <trkpt lat="43.71578" lon="1.30074">
        <ele>160.4</ele>
        <time>2023-11-19T09:47:34Z</time>
      </trkpt>
      <trkpt lat="43.71585" lon="1.30053">
        <ele>160.4</ele>
        <time>2023-11-19T09:47:36Z</time>
      </trkpt>
      <trkpt lat="43.71597" lon="1.30011">
        <ele>160</ele>
        <time>2023-11-19T09:47:40Z</time>
      </trkpt>
      <trkpt lat="43.71602" lon="1.30002">
        <ele>160</ele>
        <time>2023-11-19T09:47:41Z</time>
      </trkpt>
      <trkpt lat="43.71636" lon="1.29949">
        <ele>159.8</ele>
        <time>2023-11-19T09:47:47Z</time>
      </trkpt>
      <trkpt lat="43.71652" lon="1.29941">
        <ele>159.4</ele>
        <time>2023-11-19T09:47:49Z</time>
      </trkpt>
      <trkpt lat="43.71661" lon="1.29941">
        <ele>159.2</ele>
        <time>2023-11-19T09:47:50Z</time>
      </trkpt>
      <trkpt lat="43.7168" lon="1.29942">
        <ele>158.8</ele>
        <time>2023-11-19T09:47:52Z</time>
      </trkpt>
      <trkpt lat="43.71702" lon="1.29945">
        <ele>158</ele>
        <time>2023-11-19T09:47:54Z</time>
      </trkpt>
      <trkpt lat="43.71714" lon="1.29947">
        <ele>157.4</ele>
        <time>2023-11-19T09:47:55Z</time>
      </trkpt>
      <trkpt lat="43.71738" lon="1.2995">
        <ele>156.6</ele>
        <time>2023-11-19T09:47:57Z</time>
      </trkpt>
      <trkpt lat="43.71761" lon="1.29953">
        <ele>155</ele>
        <time>2023-11-19T09:47:59Z</time>
      </trkpt>
      <trkpt lat="43.71771" lon="1.29954">
        <ele>154</ele>
        <time>2023-11-19T09:48:00Z</time>
      </trkpt>
      <trkpt lat="43.7178" lon="1.29955">
        <ele>153.6</ele>
        <time>2023-11-19T09:48:01Z</time>
      </trkpt>
      <trkpt lat="43.71787" lon="1.29956">
        <ele>152.4</ele>
        <time>2023-11-19T09:48:02Z</time>
      </trkpt>
      <trkpt lat="43.71793" lon="1.29956">
        <ele>152</ele>
        <time>2023-11-19T09:48:03Z</time>
      </trkpt>
      <trkpt lat="43.71799" lon="1.29958">
        <ele>151.2</ele>
        <time>2023-11-19T09:48:04Z</time>
      </trkpt>
      <trkpt lat="43.71805" lon="1.29959">
        <ele>150.8</ele>
        <time>2023-11-19T09:48:05Z</time>
      </trkpt>
      <trkpt lat="43.7181" lon="1.29958">
        <ele>150</ele>
        <time>2023-11-19T09:48:06Z</time>
      </trkpt>
      <trkpt lat="43.71814" lon="1.29954">
        <ele>149.4</ele>
        <time>2023-11-19T09:48:07Z</time>
      </trkpt>
      <trkpt lat="43.71818" lon="1.29949">
        <ele>148.8</ele>
        <time>2023-11-19T09:48:08Z</time>
      </trkpt>
      <trkpt lat="43.71823" lon="1.29944">
        <ele>148.4</ele>
        <time>2023-11-19T09:48:09Z</time>
      </trkpt>
      <trkpt lat="43.71837" lon="1.29931">
        <ele>148</ele>
        <time>2023-11-19T09:48:12Z</time>
      </trkpt>
      <trkpt lat="43.71852" lon="1.29918">
        <ele>148</ele>
        <time>2023-11-19T09:48:15Z</time>
      </trkpt>
      <trkpt lat="43.71872" lon="1.29902">
        <ele>148.6</ele>
        <time>2023-11-19T09:48:20Z</time>
      </trkpt>
      <trkpt lat="43.71887" lon="1.2989">
        <ele>150</ele>
        <time>2023-11-19T09:48:25Z</time>
      </trkpt>
      <trkpt lat="43.7189" lon="1.2989">
        <ele>150.4</ele>
        <time>2023-11-19T09:48:26Z</time>
      </trkpt>
      <trkpt lat="43.71895" lon="1.29896">
        <ele>150.8</ele>
        <time>2023-11-19T09:48:28Z</time>
      </trkpt>
      <trkpt lat="43.71895" lon="1.299">
        <ele>151.2</ele>
        <time>2023-11-19T09:48:29Z</time>
      </trkpt>
      <trkpt lat="43.71893" lon="1.2991">
        <ele>151.8</ele>
        <time>2023-11-19T09:48:31Z</time>
      </trkpt>
      <trkpt lat="43.71888" lon="1.29924">
        <ele>152.8</ele>
        <time>2023-11-19T09:48:34Z</time>
      </trkpt>
      <trkpt lat="43.71886" lon="1.29928">
        <ele>153.4</ele>
        <time>2023-11-19T09:48:35Z</time>
      </trkpt>
      <trkpt lat="43.71881" lon="1.29942">
        <ele>154.6</ele>
        <time>2023-11-19T09:48:38Z</time>
      </trkpt>
      <trkpt lat="43.71878" lon="1.29952">
        <ele>155.6</ele>
        <time>2023-11-19T09:48:40Z</time>
      </trkpt>
      <trkpt lat="43.71878" lon="1.29957">
        <ele>155.8</ele>
        <time>2023-11-19T09:48:41Z</time>
      </trkpt>
      <trkpt lat="43.71882" lon="1.29963">
        <ele>156.2</ele>
        <time>2023-11-19T09:48:43Z</time>
      </trkpt>
      <trkpt lat="43.71884" lon="1.29964">
        <ele>156.6</ele>
        <time>2023-11-19T09:48:44Z</time>
      </trkpt>
      <trkpt lat="43.71887" lon="1.29964">
        <ele>156.6</ele>
        <time>2023-11-19T09:48:45Z</time>
      </trkpt>
      <trkpt lat="43.71908" lon="1.29958">
        <ele>157.6</ele>
        <time>2023-11-19T09:48:51Z</time>
      </trkpt>
      <trkpt lat="43.71914" lon="1.29956">
        <ele>157.8</ele>
        <time>2023-11-19T09:48:53Z</time>
      </trkpt>
      <trkpt lat="43.71924" lon="1.29956">
        <ele>158.2</ele>
        <time>2023-11-19T09:48:57Z</time>
      </trkpt>
      <trkpt lat="43.71927" lon="1.29959">
        <ele>158.2</ele>
        <time>2023-11-19T09:48:59Z</time>
      </trkpt>
      <trkpt lat="43.71928" lon="1.29961">
        <ele>158.4</ele>
        <time>2023-11-19T09:49:01Z</time>
      </trkpt>
      <trkpt lat="43.71929" lon="1.29962">
        <ele>158.4</ele>
        <time>2023-11-19T09:49:02Z</time>
      </trkpt>
      <trkpt lat="43.71929" lon="1.29962">
        <ele>158.6</ele>
        <time>2023-11-19T09:49:04Z</time>
      </trkpt>
      <trkpt lat="43.71932" lon="1.29954">
        <ele>158.8</ele>
        <time>2023-11-19T09:49:21Z</time>
      </trkpt>
      <trkpt lat="43.71934" lon="1.29951">
        <ele>158.8</ele>
        <time>2023-11-19T09:49:22Z</time>
      </trkpt>
      <trkpt lat="43.71948" lon="1.29937">
        <ele>158.8</ele>
        <time>2023-11-19T09:49:27Z</time>
      </trkpt>
      <trkpt lat="43.71952" lon="1.29933">
        <ele>158.6</ele>
        <time>2023-11-19T09:49:28Z</time>
      </trkpt>
      <trkpt lat="43.7196" lon="1.29925">
        <ele>158.6</ele>
        <time>2023-11-19T09:49:30Z</time>
      </trkpt>
      <trkpt lat="43.71978" lon="1.29906">
        <ele>158.6</ele>
        <time>2023-11-19T09:49:34Z</time>
      </trkpt>
      <trkpt lat="43.71987" lon="1.29895">
        <ele>158.4</ele>
        <time>2023-11-19T09:49:36Z</time>
      </trkpt>
      <trkpt lat="43.72004" lon="1.29878">
        <ele>158.2</ele>
        <time>2023-11-19T09:49:39Z</time>
      </trkpt>
      <trkpt lat="43.72045" lon="1.29842">
        <ele>157.8</ele>
        <time>2023-11-19T09:49:46Z</time>
      </trkpt>
      <trkpt lat="43.72063" lon="1.29829">
        <ele>157.8</ele>
        <time>2023-11-19T09:49:49Z</time>
      </trkpt>
      <trkpt lat="43.72088" lon="1.29806">
        <ele>157.8</ele>
        <time>2023-11-19T09:49:54Z</time>
      </trkpt>
      <trkpt lat="43.72096" lon="1.29799">
        <ele>158</ele>
        <time>2023-11-19T09:49:57Z</time>
      </trkpt>
      <trkpt lat="43.72112" lon="1.29781">
        <ele>158</ele>
        <time>2023-11-19T09:50:04Z</time>
      </trkpt>
      <trkpt lat="43.72129" lon="1.29761">
        <ele>158.2</ele>
        <time>2023-11-19T09:50:09Z</time>
      </trkpt>
      <trkpt lat="43.72149" lon="1.29737">
        <ele>158.2</ele>
        <time>2023-11-19T09:50:14Z</time>
      </trkpt>
      <trkpt lat="43.72185" lon="1.29692">
        <ele>158.4</ele>
        <time>2023-11-19T09:50:22Z</time>
      </trkpt>
      <trkpt lat="43.72199" lon="1.29675">
        <ele>158.4</ele>
        <time>2023-11-19T09:50:25Z</time>
      </trkpt>
      <trkpt lat="43.72214" lon="1.29655">
        <ele>158.6</ele>
        <time>2023-11-19T09:50:28Z</time>
      </trkpt>
      <trkpt lat="43.72248" lon="1.29612">
        <ele>158.8</ele>
        <time>2023-11-19T09:50:35Z</time>
      </trkpt>
      <trkpt lat="43.72259" lon="1.296">
        <ele>159</ele>
        <time>2023-11-19T09:50:37Z</time>
      </trkpt>
      <trkpt lat="43.723" lon="1.2955">
        <ele>159.4</ele>
        <time>2023-11-19T09:50:46Z</time>
      </trkpt>
      <trkpt lat="43.72344" lon="1.29499">
        <ele>159.6</ele>
        <time>2023-11-19T09:50:55Z</time>
      </trkpt>
      <trkpt lat="43.72387" lon="1.29447">
        <ele>159.4</ele>
        <time>2023-11-19T09:51:03Z</time>
      </trkpt>
      <trkpt lat="43.72432" lon="1.2939">
        <ele>159.2</ele>
        <time>2023-11-19T09:51:11Z</time>
      </trkpt>
      <trkpt lat="43.72437" lon="1.29382">
        <ele>159.2</ele>
        <time>2023-11-19T09:51:12Z</time>
      </trkpt>
      <trkpt lat="43.72459" lon="1.29336">
        <ele>159.2</ele>
        <time>2023-11-19T09:51:17Z</time>
      </trkpt>
      <trkpt lat="43.72484" lon="1.29266">
        <ele>159</ele>
        <time>2023-11-19T09:51:24Z</time>
      </trkpt>
      <trkpt lat="43.72488" lon="1.29256">
        <ele>159</ele>
        <time>2023-11-19T09:51:25Z</time>
      </trkpt>
      <trkpt lat="43.72515" lon="1.29181">
        <ele>158.8</ele>
        <time>2023-11-19T09:51:32Z</time>
      </trkpt>
      <trkpt lat="43.72523" lon="1.2916">
        <ele>158.6</ele>
        <time>2023-11-19T09:51:34Z</time>
      </trkpt>
      <trkpt lat="43.72553" lon="1.29088">
        <ele>158</ele>
        <time>2023-11-19T09:51:41Z</time>
      </trkpt>
      <trkpt lat="43.72562" lon="1.29068">
        <ele>157.8</ele>
        <time>2023-11-19T09:51:43Z</time>
      </trkpt>
      <trkpt lat="43.72577" lon="1.29039">
        <ele>157.6</ele>
        <time>2023-11-19T09:51:46Z</time>
      </trkpt>
      <trkpt lat="43.72589" lon="1.29022">
        <ele>157.4</ele>
        <time>2023-11-19T09:51:48Z</time>
      </trkpt>
      <trkpt lat="43.72628" lon="1.28966">
        <ele>157</ele>
        <time>2023-11-19T09:51:55Z</time>
      </trkpt>
      <trkpt lat="43.72634" lon="1.28958">
        <ele>157</ele>
        <time>2023-11-19T09:51:56Z</time>
      </trkpt>
      <trkpt lat="43.72676" lon="1.28898">
        <ele>157.6</ele>
        <time>2023-11-19T09:52:03Z</time>
      </trkpt>
      <trkpt lat="43.72701" lon="1.28852">
        <ele>157.6</ele>
        <time>2023-11-19T09:52:08Z</time>
      </trkpt>
      <trkpt lat="43.72733" lon="1.28782">
        <ele>157.8</ele>
        <time>2023-11-19T09:52:15Z</time>
      </trkpt>
      <trkpt lat="43.72747" lon="1.28753">
        <ele>158</ele>
        <time>2023-11-19T09:52:18Z</time>
      </trkpt>
      <trkpt lat="43.72781" lon="1.28687">
        <ele>158.6</ele>
        <time>2023-11-19T09:52:25Z</time>
      </trkpt>
      <trkpt lat="43.72791" lon="1.28668">
        <ele>158.6</ele>
        <time>2023-11-19T09:52:27Z</time>
      </trkpt>
      <trkpt lat="43.72802" lon="1.28636">
        <ele>158.8</ele>
        <time>2023-11-19T09:52:30Z</time>
      </trkpt>
      <trkpt lat="43.72807" lon="1.28615">
        <ele>159</ele>
        <time>2023-11-19T09:52:32Z</time>
      </trkpt>
      <trkpt lat="43.72828" lon="1.28539">
        <ele>159.6</ele>
        <time>2023-11-19T09:52:39Z</time>
      </trkpt>
      <trkpt lat="43.72833" lon="1.28519">
        <ele>159.8</ele>
        <time>2023-11-19T09:52:41Z</time>
      </trkpt>
      <trkpt lat="43.72835" lon="1.28508">
        <ele>159.8</ele>
        <time>2023-11-19T09:52:42Z</time>
      </trkpt>
      <trkpt lat="43.72857" lon="1.28443">
        <ele>160</ele>
        <time>2023-11-19T09:52:48Z</time>
      </trkpt>
      <trkpt lat="43.7289" lon="1.28372">
        <ele>159.6</ele>
        <time>2023-11-19T09:52:55Z</time>
      </trkpt>
      <trkpt lat="43.72895" lon="1.28362">
        <ele>159.6</ele>
        <time>2023-11-19T09:52:56Z</time>
      </trkpt>
      <trkpt lat="43.72911" lon="1.28329">
        <ele>159.4</ele>
        <time>2023-11-19T09:52:59Z</time>
      </trkpt>
      <trkpt lat="43.72945" lon="1.28257">
        <ele>159</ele>
        <time>2023-11-19T09:53:06Z</time>
      </trkpt>
      <trkpt lat="43.72981" lon="1.28191">
        <ele>159.2</ele>
        <time>2023-11-19T09:53:13Z</time>
      </trkpt>
      <trkpt lat="43.72991" lon="1.28173">
        <ele>159.4</ele>
        <time>2023-11-19T09:53:15Z</time>
      </trkpt>
      <trkpt lat="43.73027" lon="1.28109">
        <ele>159.4</ele>
        <time>2023-11-19T09:53:22Z</time>
      </trkpt>
      <trkpt lat="43.73045" lon="1.2807">
        <ele>159.4</ele>
        <time>2023-11-19T09:53:26Z</time>
      </trkpt>
      <trkpt lat="43.73073" lon="1.27995">
        <ele>159.4</ele>
        <time>2023-11-19T09:53:33Z</time>
      </trkpt>
      <trkpt lat="43.73077" lon="1.27984">
        <ele>159.4</ele>
        <time>2023-11-19T09:53:34Z</time>
      </trkpt>
      <trkpt lat="43.73104" lon="1.27908">
        <ele>159.6</ele>
        <time>2023-11-19T09:53:41Z</time>
      </trkpt>
      <trkpt lat="43.73117" lon="1.27877">
        <ele>159.6</ele>
        <time>2023-11-19T09:53:44Z</time>
      </trkpt>
      <trkpt lat="43.73144" lon="1.27806">
        <ele>160.2</ele>
        <time>2023-11-19T09:53:51Z</time>
      </trkpt>
      <trkpt lat="43.73157" lon="1.27774">
        <ele>160.6</ele>
        <time>2023-11-19T09:53:54Z</time>
      </trkpt>
      <trkpt lat="43.7317" lon="1.27713">
        <ele>160.8</ele>
        <time>2023-11-19T09:53:59Z</time>
      </trkpt>
      <trkpt lat="43.73177" lon="1.2763">
        <ele>161.2</ele>
        <time>2023-11-19T09:54:06Z</time>
      </trkpt>
      <trkpt lat="43.73178" lon="1.27608">
        <ele>161.2</ele>
        <time>2023-11-19T09:54:08Z</time>
      </trkpt>
      <trkpt lat="43.73183" lon="1.27534">
        <ele>161.8</ele>
        <time>2023-11-19T09:54:15Z</time>
      </trkpt>
      <trkpt lat="43.73183" lon="1.27523">
        <ele>162</ele>
        <time>2023-11-19T09:54:16Z</time>
      </trkpt>
      <trkpt lat="43.73189" lon="1.27439">
        <ele>162.4</ele>
        <time>2023-11-19T09:54:24Z</time>
      </trkpt>
      <trkpt lat="43.73191" lon="1.27429">
        <ele>162.6</ele>
        <time>2023-11-19T09:54:25Z</time>
      </trkpt>
      <trkpt lat="43.732" lon="1.27355">
        <ele>162.8</ele>
        <time>2023-11-19T09:54:32Z</time>
      </trkpt>
      <trkpt lat="43.73211" lon="1.27282">
        <ele>163.4</ele>
        <time>2023-11-19T09:54:39Z</time>
      </trkpt>
      <trkpt lat="43.73219" lon="1.27241">
        <ele>163.6</ele>
        <time>2023-11-19T09:54:43Z</time>
      </trkpt>
      <trkpt lat="43.73228" lon="1.272">
        <ele>164</ele>
        <time>2023-11-19T09:54:47Z</time>
      </trkpt>
      <trkpt lat="43.73243" lon="1.27138">
        <ele>164.4</ele>
        <time>2023-11-19T09:54:53Z</time>
      </trkpt>
      <trkpt lat="43.73261" lon="1.27065">
        <ele>164.8</ele>
        <time>2023-11-19T09:55:00Z</time>
      </trkpt>
      <trkpt lat="43.73267" lon="1.27044">
        <ele>165</ele>
        <time>2023-11-19T09:55:02Z</time>
      </trkpt>
      <trkpt lat="43.7327" lon="1.27034">
        <ele>165</ele>
        <time>2023-11-19T09:55:03Z</time>
      </trkpt>
      <trkpt lat="43.73292" lon="1.26976">
        <ele>165.8</ele>
        <time>2023-11-19T09:55:09Z</time>
      </trkpt>
      <trkpt lat="43.73309" lon="1.26936">
        <ele>166.2</ele>
        <time>2023-11-19T09:55:13Z</time>
      </trkpt>
      <trkpt lat="43.7333" lon="1.26886">
        <ele>166.8</ele>
        <time>2023-11-19T09:55:18Z</time>
      </trkpt>
      <trkpt lat="43.73352" lon="1.26826">
        <ele>167.2</ele>
        <time>2023-11-19T09:55:24Z</time>
      </trkpt>
      <trkpt lat="43.73355" lon="1.26816">
        <ele>167.2</ele>
        <time>2023-11-19T09:55:25Z</time>
      </trkpt>
      <trkpt lat="43.73378" lon="1.26742">
        <ele>167.4</ele>
        <time>2023-11-19T09:55:32Z</time>
      </trkpt>
      <trkpt lat="43.73383" lon="1.2673">
        <ele>167.4</ele>
        <time>2023-11-19T09:55:33Z</time>
      </trkpt>
      <trkpt lat="43.73413" lon="1.26668">
        <ele>166</ele>
        <time>2023-11-19T09:55:38Z</time>
      </trkpt>
      <trkpt lat="43.73429" lon="1.26644">
        <ele>165</ele>
        <time>2023-11-19T09:55:40Z</time>
      </trkpt>
      <trkpt lat="43.73446" lon="1.26622">
        <ele>163.8</ele>
        <time>2023-11-19T09:55:42Z</time>
      </trkpt>
      <trkpt lat="43.73454" lon="1.26612">
        <ele>162.6</ele>
        <time>2023-11-19T09:55:43Z</time>
      </trkpt>
      <trkpt lat="43.73475" lon="1.26591">
        <ele>161.2</ele>
        <time>2023-11-19T09:55:45Z</time>
      </trkpt>
      <trkpt lat="43.73483" lon="1.26584">
        <ele>160.8</ele>
        <time>2023-11-19T09:55:46Z</time>
      </trkpt>
      <trkpt lat="43.73493" lon="1.26576">
        <ele>159.8</ele>
        <time>2023-11-19T09:55:47Z</time>
      </trkpt>
      <trkpt lat="43.73513" lon="1.26559">
        <ele>158</ele>
        <time>2023-11-19T09:55:49Z</time>
      </trkpt>
      <trkpt lat="43.73533" lon="1.26533">
        <ele>156.2</ele>
        <time>2023-11-19T09:55:51Z</time>
      </trkpt>
      <trkpt lat="43.73542" lon="1.26525">
        <ele>155.8</ele>
        <time>2023-11-19T09:55:52Z</time>
      </trkpt>
      <trkpt lat="43.73552" lon="1.26515">
        <ele>154.6</ele>
        <time>2023-11-19T09:55:53Z</time>
      </trkpt>
      <trkpt lat="43.73565" lon="1.26505">
        <ele>153.4</ele>
        <time>2023-11-19T09:55:54Z</time>
      </trkpt>
      <trkpt lat="43.73587" lon="1.26485">
        <ele>151.6</ele>
        <time>2023-11-19T09:55:56Z</time>
      </trkpt>
      <trkpt lat="43.73608" lon="1.26464">
        <ele>150</ele>
        <time>2023-11-19T09:55:58Z</time>
      </trkpt>
      <trkpt lat="43.73632" lon="1.26439">
        <ele>147.8</ele>
        <time>2023-11-19T09:56:00Z</time>
      </trkpt>
      <trkpt lat="43.73659" lon="1.26417">
        <ele>145.2</ele>
        <time>2023-11-19T09:56:02Z</time>
      </trkpt>
      <trkpt lat="43.7367" lon="1.26411">
        <ele>143.6</ele>
        <time>2023-11-19T09:56:03Z</time>
      </trkpt>
      <trkpt lat="43.73695" lon="1.26397">
        <ele>140.6</ele>
        <time>2023-11-19T09:56:05Z</time>
      </trkpt>
      <trkpt lat="43.73707" lon="1.2639">
        <ele>139.6</ele>
        <time>2023-11-19T09:56:06Z</time>
      </trkpt>
      <trkpt lat="43.73717" lon="1.26381">
        <ele>138</ele>
        <time>2023-11-19T09:56:07Z</time>
      </trkpt>
      <trkpt lat="43.73727" lon="1.26367">
        <ele>137</ele>
        <time>2023-11-19T09:56:08Z</time>
      </trkpt>
      <trkpt lat="43.73734" lon="1.26356">
        <ele>135.6</ele>
        <time>2023-11-19T09:56:09Z</time>
      </trkpt>
      <trkpt lat="43.7374" lon="1.26342">
        <ele>134.8</ele>
        <time>2023-11-19T09:56:10Z</time>
      </trkpt>
      <trkpt lat="43.73746" lon="1.26323">
        <ele>133.4</ele>
        <time>2023-11-19T09:56:11Z</time>
      </trkpt>
      <trkpt lat="43.73749" lon="1.26309">
        <ele>132.8</ele>
        <time>2023-11-19T09:56:12Z</time>
      </trkpt>
      <trkpt lat="43.73752" lon="1.26292">
        <ele>131.6</ele>
        <time>2023-11-19T09:56:13Z</time>
      </trkpt>
      <trkpt lat="43.73755" lon="1.2627">
        <ele>130.2</ele>
        <time>2023-11-19T09:56:14Z</time>
      </trkpt>
      <trkpt lat="43.73759" lon="1.26238">
        <ele>128.2</ele>
        <time>2023-11-19T09:56:16Z</time>
      </trkpt>
      <trkpt lat="43.73766" lon="1.26202">
        <ele>126.4</ele>
        <time>2023-11-19T09:56:18Z</time>
      </trkpt>
      <trkpt lat="43.73772" lon="1.26169">
        <ele>124.6</ele>
        <time>2023-11-19T09:56:20Z</time>
      </trkpt>
      <trkpt lat="43.73775" lon="1.26154">
        <ele>124</ele>
        <time>2023-11-19T09:56:21Z</time>
      </trkpt>
      <trkpt lat="43.73777" lon="1.26141">
        <ele>123.2</ele>
        <time>2023-11-19T09:56:22Z</time>
      </trkpt>
      <trkpt lat="43.73779" lon="1.26119">
        <ele>121.8</ele>
        <time>2023-11-19T09:56:24Z</time>
      </trkpt>
      <trkpt lat="43.7378" lon="1.26112">
        <ele>120.8</ele>
        <time>2023-11-19T09:56:25Z</time>
      </trkpt>
      <trkpt lat="43.73781" lon="1.26106">
        <ele>120.4</ele>
        <time>2023-11-19T09:56:26Z</time>
      </trkpt>
      <trkpt lat="43.73782" lon="1.26102">
        <ele>120.2</ele>
        <time>2023-11-19T09:56:27Z</time>
      </trkpt>
      <trkpt lat="43.73783" lon="1.26099">
        <ele>119.8</ele>
        <time>2023-11-19T09:56:28Z</time>
      </trkpt>
      <trkpt lat="43.73784" lon="1.26097">
        <ele>119.2</ele>
        <time>2023-11-19T09:56:30Z</time>
      </trkpt>
      <trkpt lat="43.73785" lon="1.26097">
        <ele>118.6</ele>
        <time>2023-11-19T09:56:32Z</time>
      </trkpt>
      <trkpt lat="43.73786" lon="1.26094">
        <ele>118</ele>
        <time>2023-11-19T09:56:37Z</time>
      </trkpt>
      <trkpt lat="43.73781" lon="1.26083">
        <ele>117.8</ele>
        <time>2023-11-19T09:56:42Z</time>
      </trkpt>
      <trkpt lat="43.73779" lon="1.26081">
        <ele>117.6</ele>
        <time>2023-11-19T09:56:43Z</time>
      </trkpt>
      <trkpt lat="43.73769" lon="1.26072">
        <ele>117.6</ele>
        <time>2023-11-19T09:56:46Z</time>
      </trkpt>
      <trkpt lat="43.73765" lon="1.26068">
        <ele>117.6</ele>
        <time>2023-11-19T09:56:47Z</time>
      </trkpt>
      <trkpt lat="43.73742" lon="1.26043">
        <ele>117.4</ele>
        <time>2023-11-19T09:56:52Z</time>
      </trkpt>
      <trkpt lat="43.73701" lon="1.26001">
        <ele>116.8</ele>
        <time>2023-11-19T09:56:59Z</time>
      </trkpt>
      <trkpt lat="43.73687" lon="1.25987">
        <ele>116.6</ele>
        <time>2023-11-19T09:57:01Z</time>
      </trkpt>
      <trkpt lat="43.73653" lon="1.25951">
        <ele>115.8</ele>
        <time>2023-11-19T09:57:06Z</time>
      </trkpt>
      <trkpt lat="43.73632" lon="1.25929">
        <ele>115.6</ele>
        <time>2023-11-19T09:57:09Z</time>
      </trkpt>
      <trkpt lat="43.73597" lon="1.25892">
        <ele>115.2</ele>
        <time>2023-11-19T09:57:14Z</time>
      </trkpt>
      <trkpt lat="43.7355" lon="1.25843">
        <ele>115</ele>
        <time>2023-11-19T09:57:21Z</time>
      </trkpt>
      <trkpt lat="43.73504" lon="1.25795">
        <ele>115</ele>
        <time>2023-11-19T09:57:28Z</time>
      </trkpt>
      <trkpt lat="43.73485" lon="1.25775">
        <ele>115.2</ele>
        <time>2023-11-19T09:57:31Z</time>
      </trkpt>
      <trkpt lat="43.7345" lon="1.25741">
        <ele>116.6</ele>
        <time>2023-11-19T09:57:37Z</time>
      </trkpt>
      <trkpt lat="43.73433" lon="1.25723">
        <ele>117.8</ele>
        <time>2023-11-19T09:57:40Z</time>
      </trkpt>
      <trkpt lat="43.73417" lon="1.25706">
        <ele>118.8</ele>
        <time>2023-11-19T09:57:43Z</time>
      </trkpt>
      <trkpt lat="43.73411" lon="1.257">
        <ele>119</ele>
        <time>2023-11-19T09:57:44Z</time>
      </trkpt>
      <trkpt lat="43.73395" lon="1.25684">
        <ele>120</ele>
        <time>2023-11-19T09:57:47Z</time>
      </trkpt>
      <trkpt lat="43.73373" lon="1.25661">
        <ele>121.2</ele>
        <time>2023-11-19T09:57:51Z</time>
      </trkpt>
      <trkpt lat="43.73367" lon="1.25655">
        <ele>121.4</ele>
        <time>2023-11-19T09:57:52Z</time>
      </trkpt>
      <trkpt lat="43.73321" lon="1.25606">
        <ele>121.6</ele>
        <time>2023-11-19T09:57:59Z</time>
      </trkpt>
      <trkpt lat="43.7328" lon="1.25562">
        <ele>121.2</ele>
        <time>2023-11-19T09:58:05Z</time>
      </trkpt>
      <trkpt lat="43.7324" lon="1.2552">
        <ele>120.6</ele>
        <time>2023-11-19T09:58:11Z</time>
      </trkpt>
      <trkpt lat="43.73196" lon="1.25475">
        <ele>120.6</ele>
        <time>2023-11-19T09:58:18Z</time>
      </trkpt>
      <trkpt lat="43.73183" lon="1.25461">
        <ele>120.6</ele>
        <time>2023-11-19T09:58:20Z</time>
      </trkpt>
      <trkpt lat="43.7314" lon="1.25416">
        <ele>121</ele>
        <time>2023-11-19T09:58:27Z</time>
      </trkpt>
      <trkpt lat="43.73097" lon="1.25371">
        <ele>121.6</ele>
        <time>2023-11-19T09:58:34Z</time>
      </trkpt>
      <trkpt lat="43.73069" lon="1.25342">
        <ele>122</ele>
        <time>2023-11-19T09:58:39Z</time>
      </trkpt>
      <trkpt lat="43.73058" lon="1.2533">
        <ele>122.4</ele>
        <time>2023-11-19T09:58:41Z</time>
      </trkpt>
      <trkpt lat="43.73047" lon="1.25318">
        <ele>123</ele>
        <time>2023-11-19T09:58:43Z</time>
      </trkpt>
      <trkpt lat="43.73011" lon="1.25281">
        <ele>124</ele>
        <time>2023-11-19T09:58:49Z</time>
      </trkpt>
      <trkpt lat="43.72999" lon="1.25269">
        <ele>124.6</ele>
        <time>2023-11-19T09:58:51Z</time>
      </trkpt>
      <trkpt lat="43.7297" lon="1.25239">
        <ele>125.2</ele>
        <time>2023-11-19T09:58:56Z</time>
      </trkpt>
      <trkpt lat="43.72946" lon="1.25216">
        <ele>125.6</ele>
        <time>2023-11-19T09:59:00Z</time>
      </trkpt>
      <trkpt lat="43.72922" lon="1.2519">
        <ele>126.2</ele>
        <time>2023-11-19T09:59:04Z</time>
      </trkpt>
      <trkpt lat="43.72892" lon="1.25159">
        <ele>126.6</ele>
        <time>2023-11-19T09:59:09Z</time>
      </trkpt>
      <trkpt lat="43.72842" lon="1.25106">
        <ele>126.6</ele>
        <time>2023-11-19T09:59:17Z</time>
      </trkpt>
      <trkpt lat="43.72837" lon="1.25101">
        <ele>126.6</ele>
        <time>2023-11-19T09:59:18Z</time>
      </trkpt>
      <trkpt lat="43.7279" lon="1.25052">
        <ele>126.4</ele>
        <time>2023-11-19T09:59:25Z</time>
      </trkpt>
      <trkpt lat="43.72783" lon="1.25045">
        <ele>126.4</ele>
        <time>2023-11-19T09:59:26Z</time>
      </trkpt>
      <trkpt lat="43.72739" lon="1.24998">
        <ele>126.2</ele>
        <time>2023-11-19T09:59:33Z</time>
      </trkpt>
      <trkpt lat="43.72712" lon="1.24971">
        <ele>126</ele>
        <time>2023-11-19T09:59:37Z</time>
      </trkpt>
      <trkpt lat="43.72667" lon="1.24923">
        <ele>125.8</ele>
        <time>2023-11-19T09:59:44Z</time>
      </trkpt>
      <trkpt lat="43.72659" lon="1.24915">
        <ele>125.8</ele>
        <time>2023-11-19T09:59:45Z</time>
      </trkpt>
      <trkpt lat="43.72617" lon="1.2487">
        <ele>126</ele>
        <time>2023-11-19T09:59:52Z</time>
      </trkpt>
      <trkpt lat="43.72571" lon="1.24823">
        <ele>126.2</ele>
        <time>2023-11-19T09:59:59Z</time>
      </trkpt>
      <trkpt lat="43.72557" lon="1.24809">
        <ele>126.2</ele>
        <time>2023-11-19T10:00:01Z</time>
      </trkpt>
      <trkpt lat="43.72531" lon="1.24779">
        <ele>126</ele>
        <time>2023-11-19T10:00:05Z</time>
      </trkpt>
      <trkpt lat="43.72522" lon="1.24763">
        <ele>126</ele>
        <time>2023-11-19T10:00:07Z</time>
      </trkpt>
      <trkpt lat="43.72514" lon="1.24746">
        <ele>125.8</ele>
        <time>2023-11-19T10:00:09Z</time>
      </trkpt>
      <trkpt lat="43.72508" lon="1.24741">
        <ele>125.8</ele>
        <time>2023-11-19T10:00:10Z</time>
      </trkpt>
      <trkpt lat="43.725" lon="1.24739">
        <ele>125.8</ele>
        <time>2023-11-19T10:00:11Z</time>
      </trkpt>
      <trkpt lat="43.72494" lon="1.24742">
        <ele>125.8</ele>
        <time>2023-11-19T10:00:12Z</time>
      </trkpt>
      <trkpt lat="43.72488" lon="1.2476">
        <ele>125.8</ele>
        <time>2023-11-19T10:00:14Z</time>
      </trkpt>
      <trkpt lat="43.72491" lon="1.2479">
        <ele>125.6</ele>
        <time>2023-11-19T10:00:17Z</time>
      </trkpt>
      <trkpt lat="43.72484" lon="1.2485">
        <ele>125.6</ele>
        <time>2023-11-19T10:00:23Z</time>
      </trkpt>
      <trkpt lat="43.72473" lon="1.24931">
        <ele>126</ele>
        <time>2023-11-19T10:00:31Z</time>
      </trkpt>
      <trkpt lat="43.7247" lon="1.2496">
        <ele>126.6</ele>
        <time>2023-11-19T10:00:34Z</time>
      </trkpt>
      <trkpt lat="43.72466" lon="1.25015">
        <ele>127.2</ele>
        <time>2023-11-19T10:00:40Z</time>
      </trkpt>
      <trkpt lat="43.72466" lon="1.25033">
        <ele>127.4</ele>
        <time>2023-11-19T10:00:42Z</time>
      </trkpt>
      <trkpt lat="43.7247" lon="1.25074">
        <ele>128.4</ele>
        <time>2023-11-19T10:00:47Z</time>
      </trkpt>
      <trkpt lat="43.72471" lon="1.2509">
        <ele>128.6</ele>
        <time>2023-11-19T10:00:49Z</time>
      </trkpt>
      <trkpt lat="43.72474" lon="1.25129">
        <ele>129.4</ele>
        <time>2023-11-19T10:00:54Z</time>
      </trkpt>
      <trkpt lat="43.72474" lon="1.2516">
        <ele>130</ele>
        <time>2023-11-19T10:00:58Z</time>
      </trkpt>
      <trkpt lat="43.72474" lon="1.25168">
        <ele>130.2</ele>
        <time>2023-11-19T10:00:59Z</time>
      </trkpt>
      <trkpt lat="43.72474" lon="1.25176">
        <ele>130.6</ele>
        <time>2023-11-19T10:01:00Z</time>
      </trkpt>
      <trkpt lat="43.72473" lon="1.25192">
        <ele>131.2</ele>
        <time>2023-11-19T10:01:02Z</time>
      </trkpt>
      <trkpt lat="43.72472" lon="1.25206">
        <ele>131.6</ele>
        <time>2023-11-19T10:01:04Z</time>
      </trkpt>
      <trkpt lat="43.72471" lon="1.25227">
        <ele>133</ele>
        <time>2023-11-19T10:01:07Z</time>
      </trkpt>
      <trkpt lat="43.72469" lon="1.25262">
        <ele>134.2</ele>
        <time>2023-11-19T10:01:12Z</time>
      </trkpt>
      <trkpt lat="43.72469" lon="1.25269">
        <ele>134.6</ele>
        <time>2023-11-19T10:01:13Z</time>
      </trkpt>
      <trkpt lat="43.72468" lon="1.2529">
        <ele>135.4</ele>
        <time>2023-11-19T10:01:16Z</time>
      </trkpt>
      <trkpt lat="43.72466" lon="1.25309">
        <ele>136.6</ele>
        <time>2023-11-19T10:01:19Z</time>
      </trkpt>
      <trkpt lat="43.72465" lon="1.25328">
        <ele>137.8</ele>
        <time>2023-11-19T10:01:22Z</time>
      </trkpt>
      <trkpt lat="43.72464" lon="1.25346">
        <ele>139.2</ele>
        <time>2023-11-19T10:01:25Z</time>
      </trkpt>
      <trkpt lat="43.72464" lon="1.25352">
        <ele>139.6</ele>
        <time>2023-11-19T10:01:26Z</time>
      </trkpt>
      <trkpt lat="43.72463" lon="1.25358">
        <ele>140</ele>
        <time>2023-11-19T10:01:27Z</time>
      </trkpt>
      <trkpt lat="43.72461" lon="1.25369">
        <ele>140.4</ele>
        <time>2023-11-19T10:01:29Z</time>
      </trkpt>
      <trkpt lat="43.72458" lon="1.2538">
        <ele>141.2</ele>
        <time>2023-11-19T10:01:31Z</time>
      </trkpt>
      <trkpt lat="43.72457" lon="1.25385">
        <ele>141.6</ele>
        <time>2023-11-19T10:01:32Z</time>
      </trkpt>
      <trkpt lat="43.72451" lon="1.25404">
        <ele>143</ele>
        <time>2023-11-19T10:01:36Z</time>
      </trkpt>
      <trkpt lat="43.72448" lon="1.25413">
        <ele>143.6</ele>
        <time>2023-11-19T10:01:38Z</time>
      </trkpt>
      <trkpt lat="43.72445" lon="1.25423">
        <ele>144.4</ele>
        <time>2023-11-19T10:01:40Z</time>
      </trkpt>
      <trkpt lat="43.72443" lon="1.25436">
        <ele>145.4</ele>
        <time>2023-11-19T10:01:43Z</time>
      </trkpt>
      <trkpt lat="43.7244" lon="1.2545">
        <ele>146.2</ele>
        <time>2023-11-19T10:01:46Z</time>
      </trkpt>
      <trkpt lat="43.72439" lon="1.25454">
        <ele>147</ele>
        <time>2023-11-19T10:01:47Z</time>
      </trkpt>
      <trkpt lat="43.72437" lon="1.25467">
        <ele>148.4</ele>
        <time>2023-11-19T10:01:50Z</time>
      </trkpt>
      <trkpt lat="43.72435" lon="1.2548">
        <ele>149.4</ele>
        <time>2023-11-19T10:01:53Z</time>
      </trkpt>
      <trkpt lat="43.72435" lon="1.25484">
        <ele>150</ele>
        <time>2023-11-19T10:01:54Z</time>
      </trkpt>
      <trkpt lat="43.72434" lon="1.25493">
        <ele>150.6</ele>
        <time>2023-11-19T10:01:56Z</time>
      </trkpt>
      <trkpt lat="43.72434" lon="1.2551">
        <ele>151.8</ele>
        <time>2023-11-19T10:02:00Z</time>
      </trkpt>
      <trkpt lat="43.72433" lon="1.25522">
        <ele>152.6</ele>
        <time>2023-11-19T10:02:03Z</time>
      </trkpt>
      <trkpt lat="43.72433" lon="1.25526">
        <ele>152.8</ele>
        <time>2023-11-19T10:02:04Z</time>
      </trkpt>
      <trkpt lat="43.72433" lon="1.25535">
        <ele>153.8</ele>
        <time>2023-11-19T10:02:06Z</time>
      </trkpt>
      <trkpt lat="43.72434" lon="1.25548">
        <ele>154.8</ele>
        <time>2023-11-19T10:02:09Z</time>
      </trkpt>
      <trkpt lat="43.72434" lon="1.25551">
        <ele>155.4</ele>
        <time>2023-11-19T10:02:10Z</time>
      </trkpt>
      <trkpt lat="43.72434" lon="1.25561">
        <ele>156.2</ele>
        <time>2023-11-19T10:02:12Z</time>
      </trkpt>
      <trkpt lat="43.72435" lon="1.25577">
        <ele>157.6</ele>
        <time>2023-11-19T10:02:16Z</time>
      </trkpt>
      <trkpt lat="43.72436" lon="1.25582">
        <ele>157.8</ele>
        <time>2023-11-19T10:02:17Z</time>
      </trkpt>
      <trkpt lat="43.72437" lon="1.2559">
        <ele>158.6</ele>
        <time>2023-11-19T10:02:19Z</time>
      </trkpt>
      <trkpt lat="43.72439" lon="1.25602">
        <ele>159.8</ele>
        <time>2023-11-19T10:02:22Z</time>
      </trkpt>
      <trkpt lat="43.7244" lon="1.2561">
        <ele>160.2</ele>
        <time>2023-11-19T10:02:24Z</time>
      </trkpt>
      <trkpt lat="43.72441" lon="1.25619">
        <ele>161</ele>
        <time>2023-11-19T10:02:26Z</time>
      </trkpt>
      <trkpt lat="43.72444" lon="1.25632">
        <ele>162</ele>
        <time>2023-11-19T10:02:29Z</time>
      </trkpt>
      <trkpt lat="43.72446" lon="1.25645">
        <ele>163.2</ele>
        <time>2023-11-19T10:02:32Z</time>
      </trkpt>
      <trkpt lat="43.72447" lon="1.25649">
        <ele>163.4</ele>
        <time>2023-11-19T10:02:33Z</time>
      </trkpt>
      <trkpt lat="43.72449" lon="1.25663">
        <ele>164.4</ele>
        <time>2023-11-19T10:02:36Z</time>
      </trkpt>
      <trkpt lat="43.72453" lon="1.25685">
        <ele>165.8</ele>
        <time>2023-11-19T10:02:41Z</time>
      </trkpt>
      <trkpt lat="43.72454" lon="1.25695">
        <ele>166.2</ele>
        <time>2023-11-19T10:02:43Z</time>
      </trkpt>
      <trkpt lat="43.72454" lon="1.25705">
        <ele>166.8</ele>
        <time>2023-11-19T10:02:45Z</time>
      </trkpt>
      <trkpt lat="43.7245" lon="1.2572">
        <ele>168</ele>
        <time>2023-11-19T10:02:48Z</time>
      </trkpt>
      <trkpt lat="43.72437" lon="1.25752">
        <ele>169</ele>
        <time>2023-11-19T10:02:54Z</time>
      </trkpt>
      <trkpt lat="43.72432" lon="1.25762">
        <ele>169.4</ele>
        <time>2023-11-19T10:02:56Z</time>
      </trkpt>
      <trkpt lat="43.7242" lon="1.2579">
        <ele>170.6</ele>
        <time>2023-11-19T10:03:01Z</time>
      </trkpt>
      <trkpt lat="43.72413" lon="1.25806">
        <ele>171</ele>
        <time>2023-11-19T10:03:04Z</time>
      </trkpt>
      <trkpt lat="43.72401" lon="1.25831">
        <ele>171.6</ele>
        <time>2023-11-19T10:03:08Z</time>
      </trkpt>
      <trkpt lat="43.72386" lon="1.25863">
        <ele>172.2</ele>
        <time>2023-11-19T10:03:13Z</time>
      </trkpt>
      <trkpt lat="43.72358" lon="1.25921">
        <ele>172.4</ele>
        <time>2023-11-19T10:03:22Z</time>
      </trkpt>
      <trkpt lat="43.72333" lon="1.25954">
        <ele>172.4</ele>
        <time>2023-11-19T10:03:28Z</time>
      </trkpt>
      <trkpt lat="43.7231" lon="1.2598">
        <ele>172.2</ele>
        <time>2023-11-19T10:03:34Z</time>
      </trkpt>
      <trkpt lat="43.72299" lon="1.25995">
        <ele>172.2</ele>
        <time>2023-11-19T10:03:39Z</time>
      </trkpt>
      <trkpt lat="43.72297" lon="1.26">
        <ele>172.2</ele>
        <time>2023-11-19T10:03:44Z</time>
      </trkpt>
      <trkpt lat="43.72297" lon="1.26">
        <ele>172.2</ele>
        <time>2023-11-19T10:03:45Z</time>
      </trkpt>
      <trkpt lat="43.72296" lon="1.26004">
        <ele>171.4</ele>
        <time>2023-11-19T10:04:34Z</time>
      </trkpt>
      <trkpt lat="43.72294" lon="1.26012">
        <ele>171.4</ele>
        <time>2023-11-19T10:04:36Z</time>
      </trkpt>
      <trkpt lat="43.72293" lon="1.26016">
        <ele>171.4</ele>
        <time>2023-11-19T10:04:37Z</time>
      </trkpt>
      <trkpt lat="43.72289" lon="1.26034">
        <ele>171.2</ele>
        <time>2023-11-19T10:04:40Z</time>
      </trkpt>
      <trkpt lat="43.72287" lon="1.26041">
        <ele>171.2</ele>
        <time>2023-11-19T10:04:41Z</time>
      </trkpt>
      <trkpt lat="43.72281" lon="1.2607">
        <ele>171.2</ele>
        <time>2023-11-19T10:04:45Z</time>
      </trkpt>
      <trkpt lat="43.7228" lon="1.26079">
        <ele>171.2</ele>
        <time>2023-11-19T10:04:46Z</time>
      </trkpt>
      <trkpt lat="43.72271" lon="1.26139">
        <ele>171</ele>
        <time>2023-11-19T10:04:53Z</time>
      </trkpt>
      <trkpt lat="43.72265" lon="1.26194">
        <ele>170.6</ele>
        <time>2023-11-19T10:04:59Z</time>
      </trkpt>
      <trkpt lat="43.72264" lon="1.26203">
        <ele>170.6</ele>
        <time>2023-11-19T10:05:00Z</time>
      </trkpt>
      <trkpt lat="43.72253" lon="1.26276">
        <ele>170.6</ele>
        <time>2023-11-19T10:05:08Z</time>
      </trkpt>
      <trkpt lat="43.7225" lon="1.26285">
        <ele>170.6</ele>
        <time>2023-11-19T10:05:09Z</time>
      </trkpt>
      <trkpt lat="43.72229" lon="1.26338">
        <ele>170.8</ele>
        <time>2023-11-19T10:05:16Z</time>
      </trkpt>
      <trkpt lat="43.72203" lon="1.26387">
        <ele>170.8</ele>
        <time>2023-11-19T10:05:23Z</time>
      </trkpt>
      <trkpt lat="43.72176" lon="1.26439">
        <ele>171.2</ele>
        <time>2023-11-19T10:05:30Z</time>
      </trkpt>
      <trkpt lat="43.72143" lon="1.26507">
        <ele>171.4</ele>
        <time>2023-11-19T10:05:39Z</time>
      </trkpt>
      <trkpt lat="43.7214" lon="1.26513">
        <ele>171.4</ele>
        <time>2023-11-19T10:05:40Z</time>
      </trkpt>
      <trkpt lat="43.72136" lon="1.26521">
        <ele>171.4</ele>
        <time>2023-11-19T10:05:41Z</time>
      </trkpt>
      <trkpt lat="43.72111" lon="1.26574">
        <ele>171.6</ele>
        <time>2023-11-19T10:05:48Z</time>
      </trkpt>
      <trkpt lat="43.7208" lon="1.26638">
        <ele>171.6</ele>
        <time>2023-11-19T10:05:56Z</time>
      </trkpt>
      <trkpt lat="43.72073" lon="1.26653">
        <ele>171.6</ele>
        <time>2023-11-19T10:05:58Z</time>
      </trkpt>
      <trkpt lat="43.72047" lon="1.26708">
        <ele>171.4</ele>
        <time>2023-11-19T10:06:05Z</time>
      </trkpt>
      <trkpt lat="43.7202" lon="1.26771">
        <ele>172.4</ele>
        <time>2023-11-19T10:06:13Z</time>
      </trkpt>
      <trkpt lat="43.71994" lon="1.2684">
        <ele>172.2</ele>
        <time>2023-11-19T10:06:21Z</time>
      </trkpt>
      <trkpt lat="43.71975" lon="1.26911">
        <ele>171.4</ele>
        <time>2023-11-19T10:06:29Z</time>
      </trkpt>
      <trkpt lat="43.71958" lon="1.26978">
        <ele>170.6</ele>
        <time>2023-11-19T10:06:37Z</time>
      </trkpt>
      <trkpt lat="43.71945" lon="1.27051">
        <ele>170.4</ele>
        <time>2023-11-19T10:06:45Z</time>
      </trkpt>
      <trkpt lat="43.71931" lon="1.27129">
        <ele>171</ele>
        <time>2023-11-19T10:06:54Z</time>
      </trkpt>
      <trkpt lat="43.71929" lon="1.27137">
        <ele>171.2</ele>
        <time>2023-11-19T10:06:55Z</time>
      </trkpt>
      <trkpt lat="43.71921" lon="1.27168">
        <ele>171.8</ele>
        <time>2023-11-19T10:06:59Z</time>
      </trkpt>
      <trkpt lat="43.71908" lon="1.27216">
        <ele>172.4</ele>
        <time>2023-11-19T10:07:05Z</time>
      </trkpt>
      <trkpt lat="43.71893" lon="1.27264">
        <ele>172.8</ele>
        <time>2023-11-19T10:07:11Z</time>
      </trkpt>
      <trkpt lat="43.71882" lon="1.27302">
        <ele>173</ele>
        <time>2023-11-19T10:07:16Z</time>
      </trkpt>
      <trkpt lat="43.71866" lon="1.27357">
        <ele>172.8</ele>
        <time>2023-11-19T10:07:23Z</time>
      </trkpt>
      <trkpt lat="43.71849" lon="1.27412">
        <ele>173</ele>
        <time>2023-11-19T10:07:30Z</time>
      </trkpt>
      <trkpt lat="43.71829" lon="1.27484">
        <ele>173.2</ele>
        <time>2023-11-19T10:07:39Z</time>
      </trkpt>
      <trkpt lat="43.71804" lon="1.27556">
        <ele>173.2</ele>
        <time>2023-11-19T10:07:48Z</time>
      </trkpt>
      <trkpt lat="43.71777" lon="1.2762">
        <ele>173.2</ele>
        <time>2023-11-19T10:07:56Z</time>
      </trkpt>
      <trkpt lat="43.71761" lon="1.27677">
        <ele>173.2</ele>
        <time>2023-11-19T10:08:02Z</time>
      </trkpt>
      <trkpt lat="43.71748" lon="1.27754">
        <ele>173</ele>
        <time>2023-11-19T10:08:09Z</time>
      </trkpt>
      <trkpt lat="43.7174" lon="1.27836">
        <ele>173</ele>
        <time>2023-11-19T10:08:16Z</time>
      </trkpt>
      <trkpt lat="43.7174" lon="1.27848">
        <ele>173</ele>
        <time>2023-11-19T10:08:17Z</time>
      </trkpt>
      <trkpt lat="43.71741" lon="1.279">
        <ele>172.8</ele>
        <time>2023-11-19T10:08:22Z</time>
      </trkpt>
      <trkpt lat="43.71743" lon="1.27976">
        <ele>172.8</ele>
        <time>2023-11-19T10:08:30Z</time>
      </trkpt>
      <trkpt lat="43.71743" lon="1.28055">
        <ele>172.6</ele>
        <time>2023-11-19T10:08:38Z</time>
      </trkpt>
      <trkpt lat="43.71743" lon="1.28065">
        <ele>172.6</ele>
        <time>2023-11-19T10:08:39Z</time>
      </trkpt>
      <trkpt lat="43.71741" lon="1.28145">
        <ele>172.8</ele>
        <time>2023-11-19T10:08:47Z</time>
      </trkpt>
      <trkpt lat="43.71739" lon="1.28197">
        <ele>173</ele>
        <time>2023-11-19T10:08:52Z</time>
      </trkpt>
      <trkpt lat="43.71734" lon="1.28274">
        <ele>172.8</ele>
        <time>2023-11-19T10:08:59Z</time>
      </trkpt>
      <trkpt lat="43.7173" lon="1.28307">
        <ele>172.8</ele>
        <time>2023-11-19T10:09:02Z</time>
      </trkpt>
      <trkpt lat="43.71726" lon="1.2834">
        <ele>172.8</ele>
        <time>2023-11-19T10:09:05Z</time>
      </trkpt>
      <trkpt lat="43.71722" lon="1.28396">
        <ele>172.6</ele>
        <time>2023-11-19T10:09:10Z</time>
      </trkpt>
      <trkpt lat="43.71726" lon="1.28471">
        <ele>172</ele>
        <time>2023-11-19T10:09:17Z</time>
      </trkpt>
      <trkpt lat="43.71731" lon="1.28512">
        <ele>171.8</ele>
        <time>2023-11-19T10:09:21Z</time>
      </trkpt>
      <trkpt lat="43.71739" lon="1.28557">
        <ele>171.4</ele>
        <time>2023-11-19T10:09:25Z</time>
      </trkpt>
      <trkpt lat="43.71761" lon="1.28635">
        <ele>170.8</ele>
        <time>2023-11-19T10:09:32Z</time>
      </trkpt>
      <trkpt lat="43.71772" lon="1.28696">
        <ele>169.8</ele>
        <time>2023-11-19T10:09:37Z</time>
      </trkpt>
      <trkpt lat="43.71772" lon="1.28709">
        <ele>169.6</ele>
        <time>2023-11-19T10:09:38Z</time>
      </trkpt>
      <trkpt lat="43.71769" lon="1.28747">
        <ele>168.8</ele>
        <time>2023-11-19T10:09:41Z</time>
      </trkpt>
      <trkpt lat="43.71767" lon="1.2876">
        <ele>168.6</ele>
        <time>2023-11-19T10:09:42Z</time>
      </trkpt>
      <trkpt lat="43.7176" lon="1.288">
        <ele>167.4</ele>
        <time>2023-11-19T10:09:45Z</time>
      </trkpt>
      <trkpt lat="43.71748" lon="1.28851">
        <ele>166.4</ele>
        <time>2023-11-19T10:09:49Z</time>
      </trkpt>
      <trkpt lat="43.71745" lon="1.28864">
        <ele>166</ele>
        <time>2023-11-19T10:09:50Z</time>
      </trkpt>
      <trkpt lat="43.7174" lon="1.2889">
        <ele>165.4</ele>
        <time>2023-11-19T10:09:52Z</time>
      </trkpt>
      <trkpt lat="43.71731" lon="1.28927">
        <ele>164.8</ele>
        <time>2023-11-19T10:09:55Z</time>
      </trkpt>
      <trkpt lat="43.71726" lon="1.28952">
        <ele>164.6</ele>
        <time>2023-11-19T10:09:57Z</time>
      </trkpt>
      <trkpt lat="43.7172" lon="1.28976">
        <ele>163.8</ele>
        <time>2023-11-19T10:09:59Z</time>
      </trkpt>
      <trkpt lat="43.71708" lon="1.29031">
        <ele>163</ele>
        <time>2023-11-19T10:10:04Z</time>
      </trkpt>
      <trkpt lat="43.71704" lon="1.29057">
        <ele>162.8</ele>
        <time>2023-11-19T10:10:07Z</time>
      </trkpt>
      <trkpt lat="43.71703" lon="1.29064">
        <ele>162.6</ele>
        <time>2023-11-19T10:10:08Z</time>
      </trkpt>
      <trkpt lat="43.71699" lon="1.29078">
        <ele>162.4</ele>
        <time>2023-11-19T10:10:11Z</time>
      </trkpt>
      <trkpt lat="43.71693" lon="1.29075">
        <ele>162.2</ele>
        <time>2023-11-19T10:10:13Z</time>
      </trkpt>
      <trkpt lat="43.71678" lon="1.29056">
        <ele>161.8</ele>
        <time>2023-11-19T10:10:17Z</time>
      </trkpt>
      <trkpt lat="43.71674" lon="1.29051">
        <ele>161.8</ele>
        <time>2023-11-19T10:10:18Z</time>
      </trkpt>
      <trkpt lat="43.71647" lon="1.29023">
        <ele>161.6</ele>
        <time>2023-11-19T10:10:23Z</time>
      </trkpt>
      <trkpt lat="43.716" lon="1.28971">
        <ele>161.8</ele>
        <time>2023-11-19T10:10:31Z</time>
      </trkpt>
      <trkpt lat="43.71566" lon="1.28927">
        <ele>163</ele>
        <time>2023-11-19T10:10:37Z</time>
      </trkpt>
      <trkpt lat="43.7155" lon="1.28904">
        <ele>163.4</ele>
        <time>2023-11-19T10:10:40Z</time>
      </trkpt>
      <trkpt lat="43.7153" lon="1.28874">
        <ele>164</ele>
        <time>2023-11-19T10:10:44Z</time>
      </trkpt>
      <trkpt lat="43.71509" lon="1.28845">
        <ele>165</ele>
        <time>2023-11-19T10:10:48Z</time>
      </trkpt>
      <trkpt lat="43.71504" lon="1.28838">
        <ele>165.4</ele>
        <time>2023-11-19T10:10:49Z</time>
      </trkpt>
      <trkpt lat="43.71488" lon="1.28817">
        <ele>166.2</ele>
        <time>2023-11-19T10:10:52Z</time>
      </trkpt>
      <trkpt lat="43.71462" lon="1.2878">
        <ele>167.2</ele>
        <time>2023-11-19T10:10:57Z</time>
      </trkpt>
      <trkpt lat="43.71457" lon="1.28773">
        <ele>167.4</ele>
        <time>2023-11-19T10:10:58Z</time>
      </trkpt>
      <trkpt lat="43.71452" lon="1.28765">
        <ele>167.8</ele>
        <time>2023-11-19T10:10:59Z</time>
      </trkpt>
      <trkpt lat="43.71434" lon="1.28734">
        <ele>168.6</ele>
        <time>2023-11-19T10:11:03Z</time>
      </trkpt>
      <trkpt lat="43.71426" lon="1.28718">
        <ele>169.2</ele>
        <time>2023-11-19T10:11:05Z</time>
      </trkpt>
      <trkpt lat="43.71414" lon="1.28696">
        <ele>169.6</ele>
        <time>2023-11-19T10:11:08Z</time>
      </trkpt>
      <trkpt lat="43.71398" lon="1.28664">
        <ele>170.2</ele>
        <time>2023-11-19T10:11:12Z</time>
      </trkpt>
      <trkpt lat="43.71379" lon="1.28621">
        <ele>170.8</ele>
        <time>2023-11-19T10:11:17Z</time>
      </trkpt>
      <trkpt lat="43.71367" lon="1.28594">
        <ele>170.8</ele>
        <time>2023-11-19T10:11:20Z</time>
      </trkpt>
      <trkpt lat="43.7134" lon="1.28547">
        <ele>171.2</ele>
        <time>2023-11-19T10:11:26Z</time>
      </trkpt>
      <trkpt lat="43.71323" lon="1.28527">
        <ele>171.6</ele>
        <time>2023-11-19T10:11:29Z</time>
      </trkpt>
      <trkpt lat="43.7129" lon="1.28487">
        <ele>172</ele>
        <time>2023-11-19T10:11:35Z</time>
      </trkpt>
      <trkpt lat="43.7125" lon="1.28435">
        <ele>172.6</ele>
        <time>2023-11-19T10:11:42Z</time>
      </trkpt>
      <trkpt lat="43.71239" lon="1.2842">
        <ele>172.6</ele>
        <time>2023-11-19T10:11:44Z</time>
      </trkpt>
      <trkpt lat="43.71223" lon="1.28397">
        <ele>172.8</ele>
        <time>2023-11-19T10:11:47Z</time>
      </trkpt>
      <trkpt lat="43.71189" lon="1.28354">
        <ele>173</ele>
        <time>2023-11-19T10:11:53Z</time>
      </trkpt>
      <trkpt lat="43.71147" lon="1.28303">
        <ele>173.2</ele>
        <time>2023-11-19T10:12:00Z</time>
      </trkpt>
      <trkpt lat="43.71135" lon="1.28288">
        <ele>173.4</ele>
        <time>2023-11-19T10:12:02Z</time>
      </trkpt>
      <trkpt lat="43.71093" lon="1.28238">
        <ele>173.6</ele>
        <time>2023-11-19T10:12:09Z</time>
      </trkpt>
      <trkpt lat="43.71074" lon="1.28218">
        <ele>173.8</ele>
        <time>2023-11-19T10:12:12Z</time>
      </trkpt>
      <trkpt lat="43.71037" lon="1.2818">
        <ele>174</ele>
        <time>2023-11-19T10:12:18Z</time>
      </trkpt>
      <trkpt lat="43.71031" lon="1.28174">
        <ele>174</ele>
        <time>2023-11-19T10:12:19Z</time>
      </trkpt>
      <trkpt lat="43.71006" lon="1.28149">
        <ele>174.2</ele>
        <time>2023-11-19T10:12:23Z</time>
      </trkpt>
      <trkpt lat="43.70962" lon="1.28115">
        <ele>174</ele>
        <time>2023-11-19T10:12:29Z</time>
      </trkpt>
      <trkpt lat="43.70906" lon="1.28075">
        <ele>174</ele>
        <time>2023-11-19T10:12:36Z</time>
      </trkpt>
      <trkpt lat="43.70866" lon="1.2806">
        <ele>174.6</ele>
        <time>2023-11-19T10:12:41Z</time>
      </trkpt>
      <trkpt lat="43.70806" lon="1.28054">
        <ele>175</ele>
        <time>2023-11-19T10:12:48Z</time>
      </trkpt>
      <trkpt lat="43.70798" lon="1.28054">
        <ele>175</ele>
        <time>2023-11-19T10:12:49Z</time>
      </trkpt>
      <trkpt lat="43.7079" lon="1.28053">
        <ele>175.2</ele>
        <time>2023-11-19T10:12:50Z</time>
      </trkpt>
      <trkpt lat="43.70732" lon="1.28048">
        <ele>175.4</ele>
        <time>2023-11-19T10:12:57Z</time>
      </trkpt>
      <trkpt lat="43.70714" lon="1.28046">
        <ele>175.4</ele>
        <time>2023-11-19T10:12:59Z</time>
      </trkpt>
      <trkpt lat="43.70653" lon="1.28029">
        <ele>175.6</ele>
        <time>2023-11-19T10:13:06Z</time>
      </trkpt>
      <trkpt lat="43.70594" lon="1.28008">
        <ele>175.8</ele>
        <time>2023-11-19T10:13:13Z</time>
      </trkpt>
      <trkpt lat="43.70577" lon="1.28">
        <ele>175.8</ele>
        <time>2023-11-19T10:13:15Z</time>
      </trkpt>
      <trkpt lat="43.70521" lon="1.27969">
        <ele>175.8</ele>
        <time>2023-11-19T10:13:22Z</time>
      </trkpt>
      <trkpt lat="43.70514" lon="1.27963">
        <ele>175.8</ele>
        <time>2023-11-19T10:13:23Z</time>
      </trkpt>
      <trkpt lat="43.7049" lon="1.27947">
        <ele>176</ele>
        <time>2023-11-19T10:13:26Z</time>
      </trkpt>
      <trkpt lat="43.70438" lon="1.27903">
        <ele>176</ele>
        <time>2023-11-19T10:13:33Z</time>
      </trkpt>
      <trkpt lat="43.70385" lon="1.27858">
        <ele>176</ele>
        <time>2023-11-19T10:13:40Z</time>
      </trkpt>
      <trkpt lat="43.70333" lon="1.27814">
        <ele>176</ele>
        <time>2023-11-19T10:13:47Z</time>
      </trkpt>
      <trkpt lat="43.70318" lon="1.27801">
        <ele>176.2</ele>
        <time>2023-11-19T10:13:49Z</time>
      </trkpt>
      <trkpt lat="43.70264" lon="1.27756">
        <ele>176.2</ele>
        <time>2023-11-19T10:13:56Z</time>
      </trkpt>
      <trkpt lat="43.70233" lon="1.2773">
        <ele>176.2</ele>
        <time>2023-11-19T10:14:00Z</time>
      </trkpt>
      <trkpt lat="43.70181" lon="1.27682">
        <ele>175.6</ele>
        <time>2023-11-19T10:14:07Z</time>
      </trkpt>
      <trkpt lat="43.70166" lon="1.27665">
        <ele>175.4</ele>
        <time>2023-11-19T10:14:09Z</time>
      </trkpt>
      <trkpt lat="43.70123" lon="1.27614">
        <ele>175.2</ele>
        <time>2023-11-19T10:14:15Z</time>
      </trkpt>
      <trkpt lat="43.70089" lon="1.27573">
        <ele>175.6</ele>
        <time>2023-11-19T10:14:20Z</time>
      </trkpt>
      <trkpt lat="43.70059" lon="1.27545">
        <ele>175.6</ele>
        <time>2023-11-19T10:14:24Z</time>
      </trkpt>
      <trkpt lat="43.70044" lon="1.27532">
        <ele>175.6</ele>
        <time>2023-11-19T10:14:26Z</time>
      </trkpt>
      <trkpt lat="43.6999" lon="1.27493">
        <ele>176.2</ele>
        <time>2023-11-19T10:14:33Z</time>
      </trkpt>
      <trkpt lat="43.69983" lon="1.27486">
        <ele>176.2</ele>
        <time>2023-11-19T10:14:34Z</time>
      </trkpt>
      <trkpt lat="43.69933" lon="1.2744">
        <ele>176.6</ele>
        <time>2023-11-19T10:14:41Z</time>
      </trkpt>
      <trkpt lat="43.69913" lon="1.27422">
        <ele>176.6</ele>
        <time>2023-11-19T10:14:44Z</time>
      </trkpt>
      <trkpt lat="43.69863" lon="1.27374">
        <ele>176.6</ele>
        <time>2023-11-19T10:14:51Z</time>
      </trkpt>
      <trkpt lat="43.69844" lon="1.27355">
        <ele>176.4</ele>
        <time>2023-11-19T10:14:54Z</time>
      </trkpt>
      <trkpt lat="43.69794" lon="1.27307">
        <ele>176.2</ele>
        <time>2023-11-19T10:15:01Z</time>
      </trkpt>
      <trkpt lat="43.69769" lon="1.27282">
        <ele>176.2</ele>
        <time>2023-11-19T10:15:05Z</time>
      </trkpt>
      <trkpt lat="43.69722" lon="1.27228">
        <ele>176.6</ele>
        <time>2023-11-19T10:15:12Z</time>
      </trkpt>
      <trkpt lat="43.69717" lon="1.27222">
        <ele>176.8</ele>
        <time>2023-11-19T10:15:13Z</time>
      </trkpt>
      <trkpt lat="43.69676" lon="1.27166">
        <ele>177.2</ele>
        <time>2023-11-19T10:15:20Z</time>
      </trkpt>
      <trkpt lat="43.69661" lon="1.2714">
        <ele>177.4</ele>
        <time>2023-11-19T10:15:23Z</time>
      </trkpt>
      <trkpt lat="43.69631" lon="1.2708">
        <ele>177.6</ele>
        <time>2023-11-19T10:15:29Z</time>
      </trkpt>
      <trkpt lat="43.69596" lon="1.2701">
        <ele>177</ele>
        <time>2023-11-19T10:15:36Z</time>
      </trkpt>
      <trkpt lat="43.69591" lon="1.27">
        <ele>177</ele>
        <time>2023-11-19T10:15:37Z</time>
      </trkpt>
      <trkpt lat="43.69555" lon="1.26935">
        <ele>177.2</ele>
        <time>2023-11-19T10:15:44Z</time>
      </trkpt>
      <trkpt lat="43.6954" lon="1.26906">
        <ele>177.4</ele>
        <time>2023-11-19T10:15:47Z</time>
      </trkpt>
      <trkpt lat="43.69518" lon="1.2685">
        <ele>177.8</ele>
        <time>2023-11-19T10:15:53Z</time>
      </trkpt>
      <trkpt lat="43.69513" lon="1.26832">
        <ele>178</ele>
        <time>2023-11-19T10:15:55Z</time>
      </trkpt>
      <trkpt lat="43.69508" lon="1.26826">
        <ele>178.2</ele>
        <time>2023-11-19T10:15:56Z</time>
      </trkpt>
      <trkpt lat="43.69502" lon="1.26821">
        <ele>178.4</ele>
        <time>2023-11-19T10:15:57Z</time>
      </trkpt>
      <trkpt lat="43.69489" lon="1.26813">
        <ele>178.4</ele>
        <time>2023-11-19T10:15:59Z</time>
      </trkpt>
      <trkpt lat="43.69474" lon="1.26803">
        <ele>178.4</ele>
        <time>2023-11-19T10:16:01Z</time>
      </trkpt>
      <trkpt lat="43.69466" lon="1.268">
        <ele>178.4</ele>
        <time>2023-11-19T10:16:02Z</time>
      </trkpt>
      <trkpt lat="43.69457" lon="1.26798">
        <ele>178.4</ele>
        <time>2023-11-19T10:16:03Z</time>
      </trkpt>
      <trkpt lat="43.69439" lon="1.26801">
        <ele>178</ele>
        <time>2023-11-19T10:16:05Z</time>
      </trkpt>
      <trkpt lat="43.69413" lon="1.2681">
        <ele>177.2</ele>
        <time>2023-11-19T10:16:08Z</time>
      </trkpt>
      <trkpt lat="43.69397" lon="1.26817">
        <ele>176.6</ele>
        <time>2023-11-19T10:16:10Z</time>
      </trkpt>
      <trkpt lat="43.69383" lon="1.26821">
        <ele>175.6</ele>
        <time>2023-11-19T10:16:12Z</time>
      </trkpt>
      <trkpt lat="43.69377" lon="1.26824">
        <ele>175.4</ele>
        <time>2023-11-19T10:16:13Z</time>
      </trkpt>
      <trkpt lat="43.69364" lon="1.26829">
        <ele>175</ele>
        <time>2023-11-19T10:16:15Z</time>
      </trkpt>
      <trkpt lat="43.69351" lon="1.26835">
        <ele>175</ele>
        <time>2023-11-19T10:16:17Z</time>
      </trkpt>
      <trkpt lat="43.69338" lon="1.26841">
        <ele>175</ele>
        <time>2023-11-19T10:16:19Z</time>
      </trkpt>
      <trkpt lat="43.69332" lon="1.26843">
        <ele>175</ele>
        <time>2023-11-19T10:16:20Z</time>
      </trkpt>
      <trkpt lat="43.69298" lon="1.26847">
        <ele>176.4</ele>
        <time>2023-11-19T10:16:25Z</time>
      </trkpt>
      <trkpt lat="43.69291" lon="1.26846">
        <ele>176.8</ele>
        <time>2023-11-19T10:16:26Z</time>
      </trkpt>
      <trkpt lat="43.69263" lon="1.26848">
        <ele>178</ele>
        <time>2023-11-19T10:16:30Z</time>
      </trkpt>
      <trkpt lat="43.69256" lon="1.26851">
        <ele>178</ele>
        <time>2023-11-19T10:16:31Z</time>
      </trkpt>
      <trkpt lat="43.69221" lon="1.2687">
        <ele>178.6</ele>
        <time>2023-11-19T10:16:36Z</time>
      </trkpt>
      <trkpt lat="43.69169" lon="1.26906">
        <ele>178.8</ele>
        <time>2023-11-19T10:16:43Z</time>
      </trkpt>
      <trkpt lat="43.69121" lon="1.26951">
        <ele>178.6</ele>
        <time>2023-11-19T10:16:50Z</time>
      </trkpt>
      <trkpt lat="43.69114" lon="1.26957">
        <ele>178.6</ele>
        <time>2023-11-19T10:16:51Z</time>
      </trkpt>
      <trkpt lat="43.69072" lon="1.26992">
        <ele>178.6</ele>
        <time>2023-11-19T10:16:57Z</time>
      </trkpt>
      <trkpt lat="43.6903" lon="1.27028">
        <ele>179</ele>
        <time>2023-11-19T10:17:03Z</time>
      </trkpt>
      <trkpt lat="43.69024" lon="1.27034">
        <ele>179</ele>
        <time>2023-11-19T10:17:04Z</time>
      </trkpt>
      <trkpt lat="43.69008" lon="1.27054">
        <ele>179.2</ele>
        <time>2023-11-19T10:17:07Z</time>
      </trkpt>
      <trkpt lat="43.69003" lon="1.2707">
        <ele>179.2</ele>
        <time>2023-11-19T10:17:09Z</time>
      </trkpt>
      <trkpt lat="43.69008" lon="1.27086">
        <ele>179.2</ele>
        <time>2023-11-19T10:17:11Z</time>
      </trkpt>
      <trkpt lat="43.69014" lon="1.27098">
        <ele>179.2</ele>
        <time>2023-11-19T10:17:13Z</time>
      </trkpt>
      <trkpt lat="43.69019" lon="1.27106">
        <ele>179.4</ele>
        <time>2023-11-19T10:17:15Z</time>
      </trkpt>
      <trkpt lat="43.69022" lon="1.27104">
        <ele>179.4</ele>
        <time>2023-11-19T10:17:17Z</time>
      </trkpt>
      <trkpt lat="43.69019" lon="1.27098">
        <ele>179.4</ele>
        <time>2023-11-19T10:17:19Z</time>
      </trkpt>
      <trkpt lat="43.69017" lon="1.27094">
        <ele>179.4</ele>
        <time>2023-11-19T10:17:20Z</time>
      </trkpt>
      <trkpt lat="43.69007" lon="1.27081">
        <ele>179.2</ele>
        <time>2023-11-19T10:17:23Z</time>
      </trkpt>
      <trkpt lat="43.68998" lon="1.27077">
        <ele>179.2</ele>
        <time>2023-11-19T10:17:25Z</time>
      </trkpt>
      <trkpt lat="43.68989" lon="1.27082">
        <ele>179.2</ele>
        <time>2023-11-19T10:17:27Z</time>
      </trkpt>
      <trkpt lat="43.68985" lon="1.27088">
        <ele>179.2</ele>
        <time>2023-11-19T10:17:28Z</time>
      </trkpt>
      <trkpt lat="43.68982" lon="1.27094">
        <ele>179.2</ele>
        <time>2023-11-19T10:17:29Z</time>
      </trkpt>
      <trkpt lat="43.68968" lon="1.27121">
        <ele>179</ele>
        <time>2023-11-19T10:17:33Z</time>
      </trkpt>
      <trkpt lat="43.6894" lon="1.27165">
        <ele>179</ele>
        <time>2023-11-19T10:17:39Z</time>
      </trkpt>
      <trkpt lat="43.68901" lon="1.27217">
        <ele>179</ele>
        <time>2023-11-19T10:17:46Z</time>
      </trkpt>
      <trkpt lat="43.68861" lon="1.2726">
        <ele>178.8</ele>
        <time>2023-11-19T10:17:52Z</time>
      </trkpt>
      <trkpt lat="43.68837" lon="1.27274">
        <ele>178.6</ele>
        <time>2023-11-19T10:17:55Z</time>
      </trkpt>
      <trkpt lat="43.68829" lon="1.27277">
        <ele>178.4</ele>
        <time>2023-11-19T10:17:56Z</time>
      </trkpt>
      <trkpt lat="43.68797" lon="1.27283">
        <ele>178</ele>
        <time>2023-11-19T10:18:00Z</time>
      </trkpt>
      <trkpt lat="43.68789" lon="1.27283">
        <ele>177.8</ele>
        <time>2023-11-19T10:18:01Z</time>
      </trkpt>
      <trkpt lat="43.6873" lon="1.27274">
        <ele>177.6</ele>
        <time>2023-11-19T10:18:08Z</time>
      </trkpt>
      <trkpt lat="43.68722" lon="1.27273">
        <ele>177.8</ele>
        <time>2023-11-19T10:18:09Z</time>
      </trkpt>
      <trkpt lat="43.68666" lon="1.27268">
        <ele>177.6</ele>
        <time>2023-11-19T10:18:15Z</time>
      </trkpt>
      <trkpt lat="43.68646" lon="1.27271">
        <ele>177.6</ele>
        <time>2023-11-19T10:18:17Z</time>
      </trkpt>
      <trkpt lat="43.68631" lon="1.27278">
        <ele>177.2</ele>
        <time>2023-11-19T10:18:19Z</time>
      </trkpt>
      <trkpt lat="43.68616" lon="1.27291">
        <ele>176.8</ele>
        <time>2023-11-19T10:18:21Z</time>
      </trkpt>
      <trkpt lat="43.68608" lon="1.273">
        <ele>176.8</ele>
        <time>2023-11-19T10:18:22Z</time>
      </trkpt>
      <trkpt lat="43.68576" lon="1.27348">
        <ele>176.4</ele>
        <time>2023-11-19T10:18:27Z</time>
      </trkpt>
      <trkpt lat="43.68536" lon="1.27404">
        <ele>176.4</ele>
        <time>2023-11-19T10:18:33Z</time>
      </trkpt>
      <trkpt lat="43.68506" lon="1.27433">
        <ele>176.8</ele>
        <time>2023-11-19T10:18:37Z</time>
      </trkpt>
      <trkpt lat="43.68498" lon="1.27438">
        <ele>176.8</ele>
        <time>2023-11-19T10:18:38Z</time>
      </trkpt>
      <trkpt lat="43.68458" lon="1.2746">
        <ele>177.4</ele>
        <time>2023-11-19T10:18:43Z</time>
      </trkpt>
      <trkpt lat="43.68427" lon="1.27474">
        <ele>178</ele>
        <time>2023-11-19T10:18:47Z</time>
      </trkpt>
      <trkpt lat="43.68396" lon="1.27488">
        <ele>178.2</ele>
        <time>2023-11-19T10:18:51Z</time>
      </trkpt>
      <trkpt lat="43.68344" lon="1.27512">
        <ele>178.6</ele>
        <time>2023-11-19T10:18:58Z</time>
      </trkpt>
      <trkpt lat="43.68336" lon="1.27515">
        <ele>178.6</ele>
        <time>2023-11-19T10:18:59Z</time>
      </trkpt>
      <trkpt lat="43.68298" lon="1.27529">
        <ele>179</ele>
        <time>2023-11-19T10:19:04Z</time>
      </trkpt>
      <trkpt lat="43.68269" lon="1.27537">
        <ele>179</ele>
        <time>2023-11-19T10:19:08Z</time>
      </trkpt>
      <trkpt lat="43.68212" lon="1.27553">
        <ele>179.2</ele>
        <time>2023-11-19T10:19:16Z</time>
      </trkpt>
      <trkpt lat="43.68204" lon="1.27555">
        <ele>179.2</ele>
        <time>2023-11-19T10:19:17Z</time>
      </trkpt>
      <trkpt lat="43.68143" lon="1.27578">
        <ele>179.2</ele>
        <time>2023-11-19T10:19:25Z</time>
      </trkpt>
      <trkpt lat="43.68093" lon="1.2761">
        <ele>179.4</ele>
        <time>2023-11-19T10:19:32Z</time>
      </trkpt>
      <trkpt lat="43.68087" lon="1.27613">
        <ele>179.4</ele>
        <time>2023-11-19T10:19:33Z</time>
      </trkpt>
      <trkpt lat="43.68037" lon="1.27643">
        <ele>179.8</ele>
        <time>2023-11-19T10:19:40Z</time>
      </trkpt>
      <trkpt lat="43.6803" lon="1.27647">
        <ele>179.8</ele>
        <time>2023-11-19T10:19:41Z</time>
      </trkpt>
      <trkpt lat="43.68008" lon="1.27658">
        <ele>180</ele>
        <time>2023-11-19T10:19:44Z</time>
      </trkpt>
      <trkpt lat="43.67994" lon="1.27667">
        <ele>180.2</ele>
        <time>2023-11-19T10:19:46Z</time>
      </trkpt>
      <trkpt lat="43.67954" lon="1.27705">
        <ele>180.6</ele>
        <time>2023-11-19T10:19:52Z</time>
      </trkpt>
      <trkpt lat="43.67905" lon="1.27754">
        <ele>180.8</ele>
        <time>2023-11-19T10:19:59Z</time>
      </trkpt>
      <trkpt lat="43.67892" lon="1.27766">
        <ele>180.8</ele>
        <time>2023-11-19T10:20:01Z</time>
      </trkpt>
      <trkpt lat="43.67872" lon="1.27785">
        <ele>181.2</ele>
        <time>2023-11-19T10:20:04Z</time>
      </trkpt>
      <trkpt lat="43.67839" lon="1.27819">
        <ele>181.2</ele>
        <time>2023-11-19T10:20:09Z</time>
      </trkpt>
      <trkpt lat="43.67798" lon="1.27867">
        <ele>181.2</ele>
        <time>2023-11-19T10:20:16Z</time>
      </trkpt>
      <trkpt lat="43.67756" lon="1.27918">
        <ele>181.6</ele>
        <time>2023-11-19T10:20:23Z</time>
      </trkpt>
      <trkpt lat="43.67733" lon="1.27946">
        <ele>181.6</ele>
        <time>2023-11-19T10:20:27Z</time>
      </trkpt>
      <trkpt lat="43.67688" lon="1.27993">
        <ele>181.8</ele>
        <time>2023-11-19T10:20:34Z</time>
      </trkpt>
      <trkpt lat="43.67682" lon="1.27998">
        <ele>181.8</ele>
        <time>2023-11-19T10:20:35Z</time>
      </trkpt>
      <trkpt lat="43.67634" lon="1.28039">
        <ele>181.6</ele>
        <time>2023-11-19T10:20:42Z</time>
      </trkpt>
      <trkpt lat="43.67601" lon="1.28068">
        <ele>181.8</ele>
        <time>2023-11-19T10:20:47Z</time>
      </trkpt>
      <trkpt lat="43.67554" lon="1.28108">
        <ele>181.8</ele>
        <time>2023-11-19T10:20:54Z</time>
      </trkpt>
      <trkpt lat="43.67547" lon="1.28114">
        <ele>181.8</ele>
        <time>2023-11-19T10:20:55Z</time>
      </trkpt>
      <trkpt lat="43.67499" lon="1.28156">
        <ele>181.8</ele>
        <time>2023-11-19T10:21:02Z</time>
      </trkpt>
      <trkpt lat="43.67479" lon="1.28174">
        <ele>182</ele>
        <time>2023-11-19T10:21:05Z</time>
      </trkpt>
      <trkpt lat="43.67465" lon="1.28186">
        <ele>182.2</ele>
        <time>2023-11-19T10:21:07Z</time>
      </trkpt>
      <trkpt lat="43.6746" lon="1.2819">
        <ele>182.2</ele>
        <time>2023-11-19T10:21:08Z</time>
      </trkpt>
      <trkpt lat="43.67412" lon="1.28232">
        <ele>182</ele>
        <time>2023-11-19T10:21:15Z</time>
      </trkpt>
      <trkpt lat="43.67406" lon="1.28238">
        <ele>182.2</ele>
        <time>2023-11-19T10:21:16Z</time>
      </trkpt>
      <trkpt lat="43.67348" lon="1.28289">
        <ele>182</ele>
        <time>2023-11-19T10:21:24Z</time>
      </trkpt>
      <trkpt lat="43.67342" lon="1.28294">
        <ele>182.2</ele>
        <time>2023-11-19T10:21:25Z</time>
      </trkpt>
      <trkpt lat="43.67291" lon="1.28331">
        <ele>181.8</ele>
        <time>2023-11-19T10:21:33Z</time>
      </trkpt>
      <trkpt lat="43.67284" lon="1.28335">
        <ele>181.8</ele>
        <time>2023-11-19T10:21:34Z</time>
      </trkpt>
      <trkpt lat="43.67278" lon="1.28339">
        <ele>181.8</ele>
        <time>2023-11-19T10:21:35Z</time>
      </trkpt>
      <trkpt lat="43.67245" lon="1.28351">
        <ele>181.8</ele>
        <time>2023-11-19T10:21:40Z</time>
      </trkpt>
      <trkpt lat="43.67235" lon="1.28355">
        <ele>181.6</ele>
        <time>2023-11-19T10:21:42Z</time>
      </trkpt>
      <trkpt lat="43.67227" lon="1.28354">
        <ele>181.4</ele>
        <time>2023-11-19T10:21:44Z</time>
      </trkpt>
      <trkpt lat="43.67214" lon="1.28336">
        <ele>181.4</ele>
        <time>2023-11-19T10:21:48Z</time>
      </trkpt>
      <trkpt lat="43.67204" lon="1.28334">
        <ele>181.2</ele>
        <time>2023-11-19T10:21:50Z</time>
      </trkpt>
      <trkpt lat="43.67204" lon="1.28334">
        <ele>181.2</ele>
        <time>2023-11-19T10:21:51Z</time>
      </trkpt>
      <trkpt lat="43.67193" lon="1.2834">
        <ele>181.2</ele>
        <time>2023-11-19T10:21:52Z</time>
      </trkpt>
      <trkpt lat="43.67189" lon="1.28346">
        <ele>181.2</ele>
        <time>2023-11-19T10:21:53Z</time>
      </trkpt>
      <trkpt lat="43.67187" lon="1.28352">
        <ele>181.2</ele>
        <time>2023-11-19T10:21:54Z</time>
      </trkpt>
      <trkpt lat="43.67186" lon="1.28369">
        <ele>181.2</ele>
        <time>2023-11-19T10:21:56Z</time>
      </trkpt>
      <trkpt lat="43.67186" lon="1.28386">
        <ele>181.4</ele>
        <time>2023-11-19T10:21:58Z</time>
      </trkpt>
      <trkpt lat="43.67184" lon="1.28399">
        <ele>181.2</ele>
        <time>2023-11-19T10:22:00Z</time>
      </trkpt>
      <trkpt lat="43.67182" lon="1.28418">
        <ele>181.2</ele>
        <time>2023-11-19T10:22:02Z</time>
      </trkpt>
      <trkpt lat="43.6718" lon="1.28453">
        <ele>181</ele>
        <time>2023-11-19T10:22:06Z</time>
      </trkpt>
      <trkpt lat="43.67175" lon="1.28528">
        <ele>180.8</ele>
        <time>2023-11-19T10:22:14Z</time>
      </trkpt>
      <trkpt lat="43.6717" lon="1.28595">
        <ele>181.2</ele>
        <time>2023-11-19T10:22:21Z</time>
      </trkpt>
      <trkpt lat="43.67165" lon="1.28678">
        <ele>181.4</ele>
        <time>2023-11-19T10:22:30Z</time>
      </trkpt>
      <trkpt lat="43.67164" lon="1.28687">
        <ele>181.4</ele>
        <time>2023-11-19T10:22:31Z</time>
      </trkpt>
      <trkpt lat="43.67158" lon="1.28743">
        <ele>181.2</ele>
        <time>2023-11-19T10:22:37Z</time>
      </trkpt>
      <trkpt lat="43.67154" lon="1.28763">
        <ele>181.4</ele>
        <time>2023-11-19T10:22:39Z</time>
      </trkpt>
      <trkpt lat="43.67147" lon="1.28777">
        <ele>181</ele>
        <time>2023-11-19T10:22:41Z</time>
      </trkpt>
      <trkpt lat="43.67137" lon="1.28783">
        <ele>181</ele>
        <time>2023-11-19T10:22:43Z</time>
      </trkpt>
      <trkpt lat="43.6713" lon="1.28786">
        <ele>181</ele>
        <time>2023-11-19T10:22:44Z</time>
      </trkpt>
      <trkpt lat="43.671" lon="1.28797">
        <ele>180.6</ele>
        <time>2023-11-19T10:22:49Z</time>
      </trkpt>
      <trkpt lat="43.67088" lon="1.28799">
        <ele>180.6</ele>
        <time>2023-11-19T10:22:51Z</time>
      </trkpt>
      <trkpt lat="43.67082" lon="1.28799">
        <ele>180.6</ele>
        <time>2023-11-19T10:22:52Z</time>
      </trkpt>
      <trkpt lat="43.67069" lon="1.28797">
        <ele>180.6</ele>
        <time>2023-11-19T10:22:54Z</time>
      </trkpt>
      <trkpt lat="43.67063" lon="1.28795">
        <ele>180.4</ele>
        <time>2023-11-19T10:22:56Z</time>
      </trkpt>
      <trkpt lat="43.67044" lon="1.28789">
        <ele>180.4</ele>
        <time>2023-11-19T10:22:58Z</time>
      </trkpt>
      <trkpt lat="43.6703" lon="1.28787">
        <ele>180.4</ele>
        <time>2023-11-19T10:23:00Z</time>
      </trkpt>
      <trkpt lat="43.67024" lon="1.28788">
        <ele>180.4</ele>
        <time>2023-11-19T10:23:01Z</time>
      </trkpt>
      <trkpt lat="43.66999" lon="1.28794">
        <ele>180</ele>
        <time>2023-11-19T10:23:05Z</time>
      </trkpt>
      <trkpt lat="43.66954" lon="1.28809">
        <ele>179.6</ele>
        <time>2023-11-19T10:23:13Z</time>
      </trkpt>
      <trkpt lat="43.66949" lon="1.28811">
        <ele>180</ele>
        <time>2023-11-19T10:23:14Z</time>
      </trkpt>
      <trkpt lat="43.66938" lon="1.28815">
        <ele>180</ele>
        <time>2023-11-19T10:23:16Z</time>
      </trkpt>
      <trkpt lat="43.66925" lon="1.28818">
        <ele>180</ele>
        <time>2023-11-19T10:23:18Z</time>
      </trkpt>
      <trkpt lat="43.66899" lon="1.28819">
        <ele>179.8</ele>
        <time>2023-11-19T10:23:21Z</time>
      </trkpt>
      <trkpt lat="43.66866" lon="1.28822">
        <ele>178.8</ele>
        <time>2023-11-19T10:23:24Z</time>
      </trkpt>
      <trkpt lat="43.66857" lon="1.28824">
        <ele>178.6</ele>
        <time>2023-11-19T10:23:25Z</time>
      </trkpt>
      <trkpt lat="43.66833" lon="1.28831">
        <ele>177</ele>
        <time>2023-11-19T10:23:27Z</time>
      </trkpt>
      <trkpt lat="43.66814" lon="1.28837">
        <ele>175.8</ele>
        <time>2023-11-19T10:23:29Z</time>
      </trkpt>
      <trkpt lat="43.66792" lon="1.28841">
        <ele>174.6</ele>
        <time>2023-11-19T10:23:31Z</time>
      </trkpt>
      <trkpt lat="43.66784" lon="1.28841">
        <ele>173.2</ele>
        <time>2023-11-19T10:23:32Z</time>
      </trkpt>
      <trkpt lat="43.66777" lon="1.2884">
        <ele>172</ele>
        <time>2023-11-19T10:23:33Z</time>
      </trkpt>
      <trkpt lat="43.66773" lon="1.28838">
        <ele>171.8</ele>
        <time>2023-11-19T10:23:34Z</time>
      </trkpt>
      <trkpt lat="43.66768" lon="1.28837">
        <ele>171.4</ele>
        <time>2023-11-19T10:23:35Z</time>
      </trkpt>
      <trkpt lat="43.6676" lon="1.28837">
        <ele>170.2</ele>
        <time>2023-11-19T10:23:37Z</time>
      </trkpt>
      <trkpt lat="43.66739" lon="1.28846">
        <ele>169.4</ele>
        <time>2023-11-19T10:23:41Z</time>
      </trkpt>
      <trkpt lat="43.66731" lon="1.28848">
        <ele>169.2</ele>
        <time>2023-11-19T10:23:42Z</time>
      </trkpt>
      <trkpt lat="43.66725" lon="1.28848">
        <ele>169.2</ele>
        <time>2023-11-19T10:23:43Z</time>
      </trkpt>
      <trkpt lat="43.66717" lon="1.28848">
        <ele>169</ele>
        <time>2023-11-19T10:23:45Z</time>
      </trkpt>
      <trkpt lat="43.667" lon="1.28843">
        <ele>168.4</ele>
        <time>2023-11-19T10:23:46Z</time>
      </trkpt>
      <trkpt lat="43.66693" lon="1.28839">
        <ele>168.2</ele>
        <time>2023-11-19T10:23:47Z</time>
      </trkpt>
      <trkpt lat="43.66687" lon="1.28836">
        <ele>167.6</ele>
        <time>2023-11-19T10:23:48Z</time>
      </trkpt>
      <trkpt lat="43.66674" lon="1.28828">
        <ele>166.6</ele>
        <time>2023-11-19T10:23:50Z</time>
      </trkpt>
      <trkpt lat="43.66656" lon="1.28819">
        <ele>166</ele>
        <time>2023-11-19T10:23:53Z</time>
      </trkpt>
      <trkpt lat="43.66624" lon="1.28812">
        <ele>165.6</ele>
        <time>2023-11-19T10:23:57Z</time>
      </trkpt>
      <trkpt lat="43.66602" lon="1.28807">
        <ele>165.4</ele>
        <time>2023-11-19T10:24:00Z</time>
      </trkpt>
      <trkpt lat="43.66553" lon="1.28803">
        <ele>165.4</ele>
        <time>2023-11-19T10:24:07Z</time>
      </trkpt>
      <trkpt lat="43.66533" lon="1.288">
        <ele>165.4</ele>
        <time>2023-11-19T10:24:10Z</time>
      </trkpt>
      <trkpt lat="43.6652" lon="1.28793">
        <ele>165.6</ele>
        <time>2023-11-19T10:24:12Z</time>
      </trkpt>
      <trkpt lat="43.66506" lon="1.28773">
        <ele>165.6</ele>
        <time>2023-11-19T10:24:15Z</time>
      </trkpt>
      <trkpt lat="43.66501" lon="1.28766">
        <ele>165.6</ele>
        <time>2023-11-19T10:24:16Z</time>
      </trkpt>
      <trkpt lat="43.66486" lon="1.28735">
        <ele>166</ele>
        <time>2023-11-19T10:24:20Z</time>
      </trkpt>
      <trkpt lat="43.66473" lon="1.28716">
        <ele>166</ele>
        <time>2023-11-19T10:24:23Z</time>
      </trkpt>
      <trkpt lat="43.66453" lon="1.28689">
        <ele>166</ele>
        <time>2023-11-19T10:24:27Z</time>
      </trkpt>
      <trkpt lat="43.66439" lon="1.28679">
        <ele>166</ele>
        <time>2023-11-19T10:24:29Z</time>
      </trkpt>
      <trkpt lat="43.66405" lon="1.28651">
        <ele>166</ele>
        <time>2023-11-19T10:24:35Z</time>
      </trkpt>
      <trkpt lat="43.66394" lon="1.28643">
        <ele>166.2</ele>
        <time>2023-11-19T10:24:37Z</time>
      </trkpt>
      <trkpt lat="43.6637" lon="1.28634">
        <ele>166.4</ele>
        <time>2023-11-19T10:24:41Z</time>
      </trkpt>
      <trkpt lat="43.66364" lon="1.28631">
        <ele>166.6</ele>
        <time>2023-11-19T10:24:43Z</time>
      </trkpt>
      <trkpt lat="43.66346" lon="1.28623">
        <ele>167</ele>
        <time>2023-11-19T10:24:45Z</time>
      </trkpt>
      <trkpt lat="43.66341" lon="1.28621">
        <ele>167</ele>
        <time>2023-11-19T10:24:46Z</time>
      </trkpt>
      <trkpt lat="43.6631" lon="1.28604">
        <ele>167.4</ele>
        <time>2023-11-19T10:24:51Z</time>
      </trkpt>
      <trkpt lat="43.66304" lon="1.28599">
        <ele>167.4</ele>
        <time>2023-11-19T10:24:52Z</time>
      </trkpt>
      <trkpt lat="43.66262" lon="1.28556">
        <ele>167.2</ele>
        <time>2023-11-19T10:24:59Z</time>
      </trkpt>
      <trkpt lat="43.6622" lon="1.28522">
        <ele>167.2</ele>
        <time>2023-11-19T10:25:06Z</time>
      </trkpt>
      <trkpt lat="43.66196" lon="1.28507">
        <ele>167.4</ele>
        <time>2023-11-19T10:25:10Z</time>
      </trkpt>
      <trkpt lat="43.66182" lon="1.285">
        <ele>167.6</ele>
        <time>2023-11-19T10:25:12Z</time>
      </trkpt>
      <trkpt lat="43.66175" lon="1.28499">
        <ele>167.6</ele>
        <time>2023-11-19T10:25:13Z</time>
      </trkpt>
      <trkpt lat="43.66129" lon="1.28497">
        <ele>167.8</ele>
        <time>2023-11-19T10:25:20Z</time>
      </trkpt>
      <trkpt lat="43.66106" lon="1.28497">
        <ele>167.8</ele>
        <time>2023-11-19T10:25:23Z</time>
      </trkpt>
      <trkpt lat="43.66095" lon="1.28494">
        <ele>167.8</ele>
        <time>2023-11-19T10:25:25Z</time>
      </trkpt>
      <trkpt lat="43.66089" lon="1.28492">
        <ele>167.8</ele>
        <time>2023-11-19T10:25:26Z</time>
      </trkpt>
      <trkpt lat="43.66078" lon="1.28482">
        <ele>168</ele>
        <time>2023-11-19T10:25:28Z</time>
      </trkpt>
      <trkpt lat="43.66075" lon="1.28478">
        <ele>168</ele>
        <time>2023-11-19T10:25:29Z</time>
      </trkpt>
      <trkpt lat="43.66057" lon="1.28457">
        <ele>168.6</ele>
        <time>2023-11-19T10:25:34Z</time>
      </trkpt>
      <trkpt lat="43.66055" lon="1.28456">
        <ele>168.6</ele>
        <time>2023-11-19T10:25:35Z</time>
      </trkpt>
      <trkpt lat="43.66052" lon="1.28459">
        <ele>168.8</ele>
        <time>2023-11-19T10:25:37Z</time>
      </trkpt>
      <trkpt lat="43.66043" lon="1.28462">
        <ele>169.2</ele>
        <time>2023-11-19T10:25:41Z</time>
      </trkpt>
      <trkpt lat="43.66024" lon="1.28458">
        <ele>169.2</ele>
        <time>2023-11-19T10:25:47Z</time>
      </trkpt>
      <trkpt lat="43.66011" lon="1.28454">
        <ele>169.4</ele>
        <time>2023-11-19T10:25:49Z</time>
      </trkpt>
      <trkpt lat="43.65995" lon="1.28452">
        <ele>169.6</ele>
        <time>2023-11-19T10:25:52Z</time>
      </trkpt>
      <trkpt lat="43.65991" lon="1.28452">
        <ele>169.6</ele>
        <time>2023-11-19T10:25:53Z</time>
      </trkpt>
      <trkpt lat="43.65986" lon="1.28452">
        <ele>169.6</ele>
        <time>2023-11-19T10:25:54Z</time>
      </trkpt>
      <trkpt lat="43.65976" lon="1.28456">
        <ele>169.8</ele>
        <time>2023-11-19T10:25:57Z</time>
      </trkpt>
      <trkpt lat="43.6596" lon="1.28468">
        <ele>170.6</ele>
        <time>2023-11-19T10:26:03Z</time>
      </trkpt>
      <trkpt lat="43.65956" lon="1.28471">
        <ele>171</ele>
        <time>2023-11-19T10:26:04Z</time>
      </trkpt>
      <trkpt lat="43.65951" lon="1.28478">
        <ele>171.6</ele>
        <time>2023-11-19T10:26:06Z</time>
      </trkpt>
      <trkpt lat="43.65944" lon="1.28487">
        <ele>172.4</ele>
        <time>2023-11-19T10:26:09Z</time>
      </trkpt>
      <trkpt lat="43.65941" lon="1.28491">
        <ele>173</ele>
        <time>2023-11-19T10:26:10Z</time>
      </trkpt>
      <trkpt lat="43.65937" lon="1.28496">
        <ele>174.4</ele>
        <time>2023-11-19T10:26:12Z</time>
      </trkpt>
      <trkpt lat="43.65934" lon="1.28499">
        <ele>175.4</ele>
        <time>2023-11-19T10:26:14Z</time>
      </trkpt>
      <trkpt lat="43.65926" lon="1.28509">
        <ele>176.6</ele>
        <time>2023-11-19T10:26:16Z</time>
      </trkpt>
      <trkpt lat="43.65921" lon="1.28514">
        <ele>177.8</ele>
        <time>2023-11-19T10:26:18Z</time>
      </trkpt>
      <trkpt lat="43.65915" lon="1.28522">
        <ele>179.2</ele>
        <time>2023-11-19T10:26:20Z</time>
      </trkpt>
      <trkpt lat="43.6591" lon="1.28529">
        <ele>180.2</ele>
        <time>2023-11-19T10:26:22Z</time>
      </trkpt>
      <trkpt lat="43.65902" lon="1.28538">
        <ele>181.2</ele>
        <time>2023-11-19T10:26:24Z</time>
      </trkpt>
      <trkpt lat="43.65899" lon="1.28542">
        <ele>181.6</ele>
        <time>2023-11-19T10:26:25Z</time>
      </trkpt>
      <trkpt lat="43.65887" lon="1.28555">
        <ele>182.4</ele>
        <time>2023-11-19T10:26:28Z</time>
      </trkpt>
      <trkpt lat="43.65882" lon="1.28561">
        <ele>182.4</ele>
        <time>2023-11-19T10:26:29Z</time>
      </trkpt>
      <trkpt lat="43.65856" lon="1.2859">
        <ele>183.2</ele>
        <time>2023-11-19T10:26:35Z</time>
      </trkpt>
      <trkpt lat="43.65848" lon="1.28599">
        <ele>183.4</ele>
        <time>2023-11-19T10:26:37Z</time>
      </trkpt>
      <trkpt lat="43.65818" lon="1.28634">
        <ele>183.8</ele>
        <time>2023-11-19T10:26:43Z</time>
      </trkpt>
      <trkpt lat="43.65786" lon="1.28669">
        <ele>184</ele>
        <time>2023-11-19T10:26:49Z</time>
      </trkpt>
      <trkpt lat="43.65743" lon="1.28716">
        <ele>184</ele>
        <time>2023-11-19T10:26:57Z</time>
      </trkpt>
      <trkpt lat="43.65731" lon="1.2873">
        <ele>184</ele>
        <time>2023-11-19T10:26:59Z</time>
      </trkpt>
      <trkpt lat="43.65713" lon="1.28752">
        <ele>183.8</ele>
        <time>2023-11-19T10:27:03Z</time>
      </trkpt>
      <trkpt lat="43.6571" lon="1.28759">
        <ele>183.8</ele>
        <time>2023-11-19T10:27:04Z</time>
      </trkpt>
      <trkpt lat="43.65709" lon="1.28766">
        <ele>183.8</ele>
        <time>2023-11-19T10:27:05Z</time>
      </trkpt>
      <trkpt lat="43.6571" lon="1.28781">
        <ele>183.8</ele>
        <time>2023-11-19T10:27:07Z</time>
      </trkpt>
      <trkpt lat="43.65711" lon="1.28792">
        <ele>183.8</ele>
        <time>2023-11-19T10:27:08Z</time>
      </trkpt>
      <trkpt lat="43.6572" lon="1.28839">
        <ele>183.4</ele>
        <time>2023-11-19T10:27:13Z</time>
      </trkpt>
      <trkpt lat="43.65731" lon="1.28901">
        <ele>183</ele>
        <time>2023-11-19T10:27:20Z</time>
      </trkpt>
      <trkpt lat="43.65733" lon="1.28909">
        <ele>183</ele>
        <time>2023-11-19T10:27:21Z</time>
      </trkpt>
      <trkpt lat="43.65738" lon="1.28945">
        <ele>182.6</ele>
        <time>2023-11-19T10:27:25Z</time>
      </trkpt>
      <trkpt lat="43.65741" lon="1.28966">
        <ele>182.4</ele>
        <time>2023-11-19T10:27:27Z</time>
      </trkpt>
      <trkpt lat="43.65754" lon="1.29041">
        <ele>181.6</ele>
        <time>2023-11-19T10:27:35Z</time>
      </trkpt>
      <trkpt lat="43.65765" lon="1.29106">
        <ele>182</ele>
        <time>2023-11-19T10:27:42Z</time>
      </trkpt>
      <trkpt lat="43.65776" lon="1.29161">
        <ele>182.4</ele>
        <time>2023-11-19T10:27:48Z</time>
      </trkpt>
      <trkpt lat="43.6578" lon="1.29219">
        <ele>183</ele>
        <time>2023-11-19T10:27:54Z</time>
      </trkpt>
      <trkpt lat="43.65776" lon="1.29292">
        <ele>182.6</ele>
        <time>2023-11-19T10:28:01Z</time>
      </trkpt>
      <trkpt lat="43.65784" lon="1.29361">
        <ele>182.4</ele>
        <time>2023-11-19T10:28:08Z</time>
      </trkpt>
      <trkpt lat="43.65793" lon="1.29418">
        <ele>181.8</ele>
        <time>2023-11-19T10:28:14Z</time>
      </trkpt>
      <trkpt lat="43.658" lon="1.29466">
        <ele>181.8</ele>
        <time>2023-11-19T10:28:20Z</time>
      </trkpt>
      <trkpt lat="43.658" lon="1.29483">
        <ele>181.8</ele>
        <time>2023-11-19T10:28:22Z</time>
      </trkpt>
      <trkpt lat="43.65795" lon="1.29493">
        <ele>181.8</ele>
        <time>2023-11-19T10:28:24Z</time>
      </trkpt>
      <trkpt lat="43.65772" lon="1.29509">
        <ele>181.6</ele>
        <time>2023-11-19T10:28:28Z</time>
      </trkpt>
      <trkpt lat="43.65723" lon="1.29541">
        <ele>181.4</ele>
        <time>2023-11-19T10:28:36Z</time>
      </trkpt>
      <trkpt lat="43.65712" lon="1.29548">
        <ele>181.6</ele>
        <time>2023-11-19T10:28:38Z</time>
      </trkpt>
      <trkpt lat="43.65679" lon="1.29574">
        <ele>181.8</ele>
        <time>2023-11-19T10:28:44Z</time>
      </trkpt>
      <trkpt lat="43.65671" lon="1.29588">
        <ele>182</ele>
        <time>2023-11-19T10:28:46Z</time>
      </trkpt>
      <trkpt lat="43.65669" lon="1.29605">
        <ele>182</ele>
        <time>2023-11-19T10:28:48Z</time>
      </trkpt>
      <trkpt lat="43.6567" lon="1.29611">
        <ele>182</ele>
        <time>2023-11-19T10:28:49Z</time>
      </trkpt>
      <trkpt lat="43.65682" lon="1.29672">
        <ele>182</ele>
        <time>2023-11-19T10:28:56Z</time>
      </trkpt>
      <trkpt lat="43.657" lon="1.29751">
        <ele>182.6</ele>
        <time>2023-11-19T10:29:05Z</time>
      </trkpt>
      <trkpt lat="43.65714" lon="1.29802">
        <ele>183.4</ele>
        <time>2023-11-19T10:29:11Z</time>
      </trkpt>
      <trkpt lat="43.65719" lon="1.29821">
        <ele>183.6</ele>
        <time>2023-11-19T10:29:13Z</time>
      </trkpt>
      <trkpt lat="43.65731" lon="1.29869">
        <ele>183.8</ele>
        <time>2023-11-19T10:29:19Z</time>
      </trkpt>
      <trkpt lat="43.65739" lon="1.29902">
        <ele>183.8</ele>
        <time>2023-11-19T10:29:23Z</time>
      </trkpt>
      <trkpt lat="43.65739" lon="1.29911">
        <ele>184</ele>
        <time>2023-11-19T10:29:24Z</time>
      </trkpt>
      <trkpt lat="43.65738" lon="1.2992">
        <ele>184</ele>
        <time>2023-11-19T10:29:25Z</time>
      </trkpt>
      <trkpt lat="43.65732" lon="1.29936">
        <ele>184</ele>
        <time>2023-11-19T10:29:27Z</time>
      </trkpt>
      <trkpt lat="43.65697" lon="1.29996">
        <ele>183.8</ele>
        <time>2023-11-19T10:29:35Z</time>
      </trkpt>
      <trkpt lat="43.65669" lon="1.30059">
        <ele>183.6</ele>
        <time>2023-11-19T10:29:43Z</time>
      </trkpt>
      <trkpt lat="43.65641" lon="1.30119">
        <ele>183.6</ele>
        <time>2023-11-19T10:29:50Z</time>
      </trkpt>
      <trkpt lat="43.65606" lon="1.30183">
        <ele>183.6</ele>
        <time>2023-11-19T10:29:58Z</time>
      </trkpt>
      <trkpt lat="43.65571" lon="1.3024">
        <ele>183.6</ele>
        <time>2023-11-19T10:30:05Z</time>
      </trkpt>
      <trkpt lat="43.65562" lon="1.30257">
        <ele>183.6</ele>
        <time>2023-11-19T10:30:07Z</time>
      </trkpt>
      <trkpt lat="43.65529" lon="1.30317">
        <ele>183.2</ele>
        <time>2023-11-19T10:30:14Z</time>
      </trkpt>
      <trkpt lat="43.65518" lon="1.30345">
        <ele>183.2</ele>
        <time>2023-11-19T10:30:17Z</time>
      </trkpt>
      <trkpt lat="43.6549" lon="1.3041">
        <ele>182.6</ele>
        <time>2023-11-19T10:30:24Z</time>
      </trkpt>
      <trkpt lat="43.65485" lon="1.30419">
        <ele>182.6</ele>
        <time>2023-11-19T10:30:25Z</time>
      </trkpt>
      <trkpt lat="43.65469" lon="1.30457">
        <ele>182.4</ele>
        <time>2023-11-19T10:30:29Z</time>
      </trkpt>
      <trkpt lat="43.65448" lon="1.30506">
        <ele>182.8</ele>
        <time>2023-11-19T10:30:34Z</time>
      </trkpt>
      <trkpt lat="43.65419" lon="1.30572">
        <ele>182.4</ele>
        <time>2023-11-19T10:30:41Z</time>
      </trkpt>
      <trkpt lat="43.65403" lon="1.3061">
        <ele>182.4</ele>
        <time>2023-11-19T10:30:45Z</time>
      </trkpt>
      <trkpt lat="43.65376" lon="1.30675">
        <ele>182.6</ele>
        <time>2023-11-19T10:30:52Z</time>
      </trkpt>
      <trkpt lat="43.65364" lon="1.30702">
        <ele>182.8</ele>
        <time>2023-11-19T10:30:55Z</time>
      </trkpt>
      <trkpt lat="43.65345" lon="1.30746">
        <ele>183</ele>
        <time>2023-11-19T10:31:01Z</time>
      </trkpt>
      <trkpt lat="43.65313" lon="1.3081">
        <ele>183.4</ele>
        <time>2023-11-19T10:31:10Z</time>
      </trkpt>
      <trkpt lat="43.65283" lon="1.30863">
        <ele>183.4</ele>
        <time>2023-11-19T10:31:17Z</time>
      </trkpt>
      <trkpt lat="43.65252" lon="1.30924">
        <ele>183.4</ele>
        <time>2023-11-19T10:31:25Z</time>
      </trkpt>
      <trkpt lat="43.65248" lon="1.30932">
        <ele>183.4</ele>
        <time>2023-11-19T10:31:26Z</time>
      </trkpt>
      <trkpt lat="43.65229" lon="1.30983">
        <ele>183.4</ele>
        <time>2023-11-19T10:31:32Z</time>
      </trkpt>
      <trkpt lat="43.65225" lon="1.30992">
        <ele>183.4</ele>
        <time>2023-11-19T10:31:33Z</time>
      </trkpt>
      <trkpt lat="43.65214" lon="1.31006">
        <ele>183.4</ele>
        <time>2023-11-19T10:31:35Z</time>
      </trkpt>
      <trkpt lat="43.652" lon="1.31012">
        <ele>183.2</ele>
        <time>2023-11-19T10:31:37Z</time>
      </trkpt>
      <trkpt lat="43.65193" lon="1.31013">
        <ele>183</ele>
        <time>2023-11-19T10:31:38Z</time>
      </trkpt>
      <trkpt lat="43.65159" lon="1.31014">
        <ele>182.6</ele>
        <time>2023-11-19T10:31:44Z</time>
      </trkpt>
      <trkpt lat="43.65152" lon="1.31015">
        <ele>182.8</ele>
        <time>2023-11-19T10:31:47Z</time>
      </trkpt>
      <trkpt lat="43.65148" lon="1.31019">
        <ele>183</ele>
        <time>2023-11-19T10:31:51Z</time>
      </trkpt>
      <trkpt lat="43.65148" lon="1.31022">
        <ele>183.2</ele>
        <time>2023-11-19T10:31:52Z</time>
      </trkpt>
      <trkpt lat="43.65147" lon="1.31051">
        <ele>183.2</ele>
        <time>2023-11-19T10:31:57Z</time>
      </trkpt>
      <trkpt lat="43.65146" lon="1.311">
        <ele>183</ele>
        <time>2023-11-19T10:32:02Z</time>
      </trkpt>
      <trkpt lat="43.65142" lon="1.31157">
        <ele>181.8</ele>
        <time>2023-11-19T10:32:07Z</time>
      </trkpt>
      <trkpt lat="43.6514" lon="1.31185">
        <ele>181.2</ele>
        <time>2023-11-19T10:32:09Z</time>
      </trkpt>
      <trkpt lat="43.65137" lon="1.31222">
        <ele>179.4</ele>
        <time>2023-11-19T10:32:12Z</time>
      </trkpt>
      <trkpt lat="43.65134" lon="1.31248">
        <ele>178.4</ele>
        <time>2023-11-19T10:32:14Z</time>
      </trkpt>
      <trkpt lat="43.65134" lon="1.31248">
        <ele>178.2</ele>
        <time>2023-11-19T10:32:15Z</time>
      </trkpt>
      <trkpt lat="43.65129" lon="1.31302">
        <ele>176.6</ele>
        <time>2023-11-19T10:32:18Z</time>
      </trkpt>
      <trkpt lat="43.65125" lon="1.31331">
        <ele>175.8</ele>
        <time>2023-11-19T10:32:20Z</time>
      </trkpt>
      <trkpt lat="43.65124" lon="1.31345">
        <ele>175.2</ele>
        <time>2023-11-19T10:32:21Z</time>
      </trkpt>
      <trkpt lat="43.65122" lon="1.3136">
        <ele>174.2</ele>
        <time>2023-11-19T10:32:23Z</time>
      </trkpt>
      <trkpt lat="43.65117" lon="1.31404">
        <ele>172.6</ele>
        <time>2023-11-19T10:32:25Z</time>
      </trkpt>
      <trkpt lat="43.65115" lon="1.31419">
        <ele>172.2</ele>
        <time>2023-11-19T10:32:26Z</time>
      </trkpt>
      <trkpt lat="43.65113" lon="1.31434">
        <ele>171.4</ele>
        <time>2023-11-19T10:32:27Z</time>
      </trkpt>
      <trkpt lat="43.65111" lon="1.31449">
        <ele>170.2</ele>
        <time>2023-11-19T10:32:28Z</time>
      </trkpt>
      <trkpt lat="43.65105" lon="1.31482">
        <ele>168.8</ele>
        <time>2023-11-19T10:32:30Z</time>
      </trkpt>
      <trkpt lat="43.65102" lon="1.31498">
        <ele>168.2</ele>
        <time>2023-11-19T10:32:31Z</time>
      </trkpt>
      <trkpt lat="43.65098" lon="1.31515">
        <ele>167.2</ele>
        <time>2023-11-19T10:32:32Z</time>
      </trkpt>
      <trkpt lat="43.6509" lon="1.31547">
        <ele>165.8</ele>
        <time>2023-11-19T10:32:34Z</time>
      </trkpt>
      <trkpt lat="43.65078" lon="1.31574">
        <ele>163.8</ele>
        <time>2023-11-19T10:32:36Z</time>
      </trkpt>
      <trkpt lat="43.65064" lon="1.316">
        <ele>162.4</ele>
        <time>2023-11-19T10:32:38Z</time>
      </trkpt>
      <trkpt lat="43.65048" lon="1.31626">
        <ele>161</ele>
        <time>2023-11-19T10:32:40Z</time>
      </trkpt>
      <trkpt lat="43.6504" lon="1.31639">
        <ele>160.2</ele>
        <time>2023-11-19T10:32:41Z</time>
      </trkpt>
      <trkpt lat="43.65034" lon="1.31652">
        <ele>159.8</ele>
        <time>2023-11-19T10:32:42Z</time>
      </trkpt>
      <trkpt lat="43.65022" lon="1.3168">
        <ele>158.4</ele>
        <time>2023-11-19T10:32:44Z</time>
      </trkpt>
      <trkpt lat="43.65012" lon="1.31708">
        <ele>157.2</ele>
        <time>2023-11-19T10:32:46Z</time>
      </trkpt>
      <trkpt lat="43.64998" lon="1.31751">
        <ele>156</ele>
        <time>2023-11-19T10:32:49Z</time>
      </trkpt>
      <trkpt lat="43.64991" lon="1.31779">
        <ele>154.8</ele>
        <time>2023-11-19T10:32:51Z</time>
      </trkpt>
      <trkpt lat="43.64986" lon="1.31793">
        <ele>154.2</ele>
        <time>2023-11-19T10:32:52Z</time>
      </trkpt>
      <trkpt lat="43.64983" lon="1.31806">
        <ele>153.6</ele>
        <time>2023-11-19T10:32:53Z</time>
      </trkpt>
      <trkpt lat="43.64975" lon="1.31834">
        <ele>152.4</ele>
        <time>2023-11-19T10:32:55Z</time>
      </trkpt>
      <trkpt lat="43.64965" lon="1.31874">
        <ele>151.4</ele>
        <time>2023-11-19T10:32:58Z</time>
      </trkpt>
      <trkpt lat="43.64955" lon="1.31915">
        <ele>150.4</ele>
        <time>2023-11-19T10:33:01Z</time>
      </trkpt>
      <trkpt lat="43.64947" lon="1.31955">
        <ele>149.2</ele>
        <time>2023-11-19T10:33:04Z</time>
      </trkpt>
      <trkpt lat="43.64938" lon="1.31977">
        <ele>148.4</ele>
        <time>2023-11-19T10:33:06Z</time>
      </trkpt>
      <trkpt lat="43.64928" lon="1.31989">
        <ele>148</ele>
        <time>2023-11-19T10:33:08Z</time>
      </trkpt>
      <trkpt lat="43.64923" lon="1.31992">
        <ele>147.6</ele>
        <time>2023-11-19T10:33:09Z</time>
      </trkpt>
      <trkpt lat="43.64919" lon="1.31991">
        <ele>147</ele>
        <time>2023-11-19T10:33:10Z</time>
      </trkpt>
      <trkpt lat="43.64914" lon="1.31987">
        <ele>147</ele>
        <time>2023-11-19T10:33:11Z</time>
      </trkpt>
      <trkpt lat="43.6491" lon="1.31984">
        <ele>146.6</ele>
        <time>2023-11-19T10:33:12Z</time>
      </trkpt>
      <trkpt lat="43.64871" lon="1.31954">
        <ele>146</ele>
        <time>2023-11-19T10:33:20Z</time>
      </trkpt>
      <trkpt lat="43.64837" lon="1.31945">
        <ele>146</ele>
        <time>2023-11-19T10:33:26Z</time>
      </trkpt>
      <trkpt lat="43.648" lon="1.31943">
        <ele>146.4</ele>
        <time>2023-11-19T10:33:32Z</time>
      </trkpt>
      <trkpt lat="43.64787" lon="1.31945">
        <ele>146.6</ele>
        <time>2023-11-19T10:33:34Z</time>
      </trkpt>
      <trkpt lat="43.64762" lon="1.3195">
        <ele>147.4</ele>
        <time>2023-11-19T10:33:38Z</time>
      </trkpt>
      <trkpt lat="43.64735" lon="1.31954">
        <ele>148</ele>
        <time>2023-11-19T10:33:42Z</time>
      </trkpt>
      <trkpt lat="43.64728" lon="1.31954">
        <ele>148</ele>
        <time>2023-11-19T10:33:43Z</time>
      </trkpt>
      <trkpt lat="43.64716" lon="1.31951">
        <ele>148.2</ele>
        <time>2023-11-19T10:33:45Z</time>
      </trkpt>
      <trkpt lat="43.64699" lon="1.31942">
        <ele>148.6</ele>
        <time>2023-11-19T10:33:48Z</time>
      </trkpt>
      <trkpt lat="43.6468" lon="1.31937">
        <ele>149.2</ele>
        <time>2023-11-19T10:33:51Z</time>
      </trkpt>
      <trkpt lat="43.64655" lon="1.31933">
        <ele>149.8</ele>
        <time>2023-11-19T10:33:55Z</time>
      </trkpt>
      <trkpt lat="43.64641" lon="1.31936">
        <ele>150</ele>
        <time>2023-11-19T10:33:57Z</time>
      </trkpt>
      <trkpt lat="43.64634" lon="1.31938">
        <ele>150</ele>
        <time>2023-11-19T10:33:58Z</time>
      </trkpt>
      <trkpt lat="43.6462" lon="1.31938">
        <ele>150</ele>
        <time>2023-11-19T10:34:00Z</time>
      </trkpt>
      <trkpt lat="43.64614" lon="1.31937">
        <ele>150</ele>
        <time>2023-11-19T10:34:01Z</time>
      </trkpt>
      <trkpt lat="43.64557" lon="1.31929">
        <ele>149.8</ele>
        <time>2023-11-19T10:34:09Z</time>
      </trkpt>
      <trkpt lat="43.64498" lon="1.3193">
        <ele>150</ele>
        <time>2023-11-19T10:34:17Z</time>
      </trkpt>
      <trkpt lat="43.6449" lon="1.3193">
        <ele>150</ele>
        <time>2023-11-19T10:34:18Z</time>
      </trkpt>
      <trkpt lat="43.64433" lon="1.31933">
        <ele>150.2</ele>
        <time>2023-11-19T10:34:26Z</time>
      </trkpt>
      <trkpt lat="43.64426" lon="1.31933">
        <ele>150.2</ele>
        <time>2023-11-19T10:34:27Z</time>
      </trkpt>
      <trkpt lat="43.64368" lon="1.31933">
        <ele>151.2</ele>
        <time>2023-11-19T10:34:35Z</time>
      </trkpt>
      <trkpt lat="43.64345" lon="1.31932">
        <ele>151.8</ele>
        <time>2023-11-19T10:34:38Z</time>
      </trkpt>
      <trkpt lat="43.64299" lon="1.31932">
        <ele>151.8</ele>
        <time>2023-11-19T10:34:44Z</time>
      </trkpt>
      <trkpt lat="43.64284" lon="1.31926">
        <ele>151.8</ele>
        <time>2023-11-19T10:34:46Z</time>
      </trkpt>
      <trkpt lat="43.64271" lon="1.31913">
        <ele>151.6</ele>
        <time>2023-11-19T10:34:48Z</time>
      </trkpt>
      <trkpt lat="43.64266" lon="1.31904">
        <ele>151.6</ele>
        <time>2023-11-19T10:34:49Z</time>
      </trkpt>
      <trkpt lat="43.64263" lon="1.31895">
        <ele>151.6</ele>
        <time>2023-11-19T10:34:50Z</time>
      </trkpt>
      <trkpt lat="43.64259" lon="1.31875">
        <ele>151.4</ele>
        <time>2023-11-19T10:34:52Z</time>
      </trkpt>
      <trkpt lat="43.64253" lon="1.31834">
        <ele>151.2</ele>
        <time>2023-11-19T10:34:56Z</time>
      </trkpt>
      <trkpt lat="43.6425" lon="1.31824">
        <ele>151.2</ele>
        <time>2023-11-19T10:34:57Z</time>
      </trkpt>
      <trkpt lat="43.64236" lon="1.31789">
        <ele>151</ele>
        <time>2023-11-19T10:35:01Z</time>
      </trkpt>
      <trkpt lat="43.64232" lon="1.31781">
        <ele>151</ele>
        <time>2023-11-19T10:35:02Z</time>
      </trkpt>
      <trkpt lat="43.64207" lon="1.31747">
        <ele>151</ele>
        <time>2023-11-19T10:35:07Z</time>
      </trkpt>
      <trkpt lat="43.64162" lon="1.31709">
        <ele>152</ele>
        <time>2023-11-19T10:35:14Z</time>
      </trkpt>
      <trkpt lat="43.64129" lon="1.31684">
        <ele>152.2</ele>
        <time>2023-11-19T10:35:19Z</time>
      </trkpt>
      <trkpt lat="43.64096" lon="1.31658">
        <ele>152.6</ele>
        <time>2023-11-19T10:35:24Z</time>
      </trkpt>
      <trkpt lat="43.6409" lon="1.31652">
        <ele>152.6</ele>
        <time>2023-11-19T10:35:25Z</time>
      </trkpt>
      <trkpt lat="43.64068" lon="1.31621">
        <ele>153</ele>
        <time>2023-11-19T10:35:29Z</time>
      </trkpt>
      <trkpt lat="43.64057" lon="1.31605">
        <ele>153.4</ele>
        <time>2023-11-19T10:35:31Z</time>
      </trkpt>
      <trkpt lat="43.64023" lon="1.31562">
        <ele>154.2</ele>
        <time>2023-11-19T10:35:37Z</time>
      </trkpt>
      <trkpt lat="43.64011" lon="1.31548">
        <ele>154.4</ele>
        <time>2023-11-19T10:35:39Z</time>
      </trkpt>
      <trkpt lat="43.63981" lon="1.31513">
        <ele>155.4</ele>
        <time>2023-11-19T10:35:44Z</time>
      </trkpt>
      <trkpt lat="43.63976" lon="1.31506">
        <ele>155.4</ele>
        <time>2023-11-19T10:35:45Z</time>
      </trkpt>
      <trkpt lat="43.63966" lon="1.31489">
        <ele>155.8</ele>
        <time>2023-11-19T10:35:47Z</time>
      </trkpt>
      <trkpt lat="43.63962" lon="1.31479">
        <ele>156</ele>
        <time>2023-11-19T10:35:48Z</time>
      </trkpt>
      <trkpt lat="43.6395" lon="1.31438">
        <ele>156.4</ele>
        <time>2023-11-19T10:35:52Z</time>
      </trkpt>
      <trkpt lat="43.63945" lon="1.31416">
        <ele>156.6</ele>
        <time>2023-11-19T10:35:54Z</time>
      </trkpt>
      <trkpt lat="43.63928" lon="1.31346">
        <ele>157.4</ele>
        <time>2023-11-19T10:36:01Z</time>
      </trkpt>
      <trkpt lat="43.63919" lon="1.31307">
        <ele>158.4</ele>
        <time>2023-11-19T10:36:05Z</time>
      </trkpt>
      <trkpt lat="43.63917" lon="1.31298">
        <ele>158.6</ele>
        <time>2023-11-19T10:36:06Z</time>
      </trkpt>
      <trkpt lat="43.63907" lon="1.31251">
        <ele>159.4</ele>
        <time>2023-11-19T10:36:11Z</time>
      </trkpt>
      <trkpt lat="43.63905" lon="1.31232">
        <ele>159.6</ele>
        <time>2023-11-19T10:36:13Z</time>
      </trkpt>
      <trkpt lat="43.63901" lon="1.31173">
        <ele>160.6</ele>
        <time>2023-11-19T10:36:19Z</time>
      </trkpt>
      <trkpt lat="43.63901" lon="1.31164">
        <ele>160.8</ele>
        <time>2023-11-19T10:36:20Z</time>
      </trkpt>
      <trkpt lat="43.63898" lon="1.31107">
        <ele>161.6</ele>
        <time>2023-11-19T10:36:26Z</time>
      </trkpt>
      <trkpt lat="43.63898" lon="1.31089">
        <ele>161.6</ele>
        <time>2023-11-19T10:36:28Z</time>
      </trkpt>
      <trkpt lat="43.63899" lon="1.3108">
        <ele>162</ele>
        <time>2023-11-19T10:36:29Z</time>
      </trkpt>
      <trkpt lat="43.63901" lon="1.31062">
        <ele>162.4</ele>
        <time>2023-11-19T10:36:31Z</time>
      </trkpt>
      <trkpt lat="43.63902" lon="1.31054">
        <ele>162.6</ele>
        <time>2023-11-19T10:36:32Z</time>
      </trkpt>
      <trkpt lat="43.63899" lon="1.31037">
        <ele>163.2</ele>
        <time>2023-11-19T10:36:34Z</time>
      </trkpt>
      <trkpt lat="43.63896" lon="1.31021">
        <ele>163.2</ele>
        <time>2023-11-19T10:36:36Z</time>
      </trkpt>
      <trkpt lat="43.63893" lon="1.30992">
        <ele>164.2</ele>
        <time>2023-11-19T10:36:40Z</time>
      </trkpt>
      <trkpt lat="43.63892" lon="1.30963">
        <ele>165.2</ele>
        <time>2023-11-19T10:36:44Z</time>
      </trkpt>
      <trkpt lat="43.63891" lon="1.30945">
        <ele>166.2</ele>
        <time>2023-11-19T10:36:47Z</time>
      </trkpt>
      <trkpt lat="43.63891" lon="1.30938">
        <ele>166.4</ele>
        <time>2023-11-19T10:36:48Z</time>
      </trkpt>
      <trkpt lat="43.63892" lon="1.3092">
        <ele>167.6</ele>
        <time>2023-11-19T10:36:51Z</time>
      </trkpt>
      <trkpt lat="43.63893" lon="1.30915">
        <ele>168</ele>
        <time>2023-11-19T10:36:52Z</time>
      </trkpt>
      <trkpt lat="43.63893" lon="1.30905">
        <ele>168.8</ele>
        <time>2023-11-19T10:36:54Z</time>
      </trkpt>
      <trkpt lat="43.63894" lon="1.309">
        <ele>169</ele>
        <time>2023-11-19T10:36:55Z</time>
      </trkpt>
      <trkpt lat="43.63895" lon="1.30884">
        <ele>170.2</ele>
        <time>2023-11-19T10:36:58Z</time>
      </trkpt>
      <trkpt lat="43.63895" lon="1.30867">
        <ele>171.2</ele>
        <time>2023-11-19T10:37:01Z</time>
      </trkpt>
      <trkpt lat="43.63893" lon="1.30845">
        <ele>172.6</ele>
        <time>2023-11-19T10:37:05Z</time>
      </trkpt>
      <trkpt lat="43.6389" lon="1.30829">
        <ele>173.6</ele>
        <time>2023-11-19T10:37:08Z</time>
      </trkpt>
      <trkpt lat="43.63883" lon="1.30803">
        <ele>174.8</ele>
        <time>2023-11-19T10:37:13Z</time>
      </trkpt>
      <trkpt lat="43.6388" lon="1.30788">
        <ele>175.8</ele>
        <time>2023-11-19T10:37:16Z</time>
      </trkpt>
      <trkpt lat="43.63876" lon="1.30778">
        <ele>176.2</ele>
        <time>2023-11-19T10:37:18Z</time>
      </trkpt>
      <trkpt lat="43.63872" lon="1.30769">
        <ele>176.8</ele>
        <time>2023-11-19T10:37:20Z</time>
      </trkpt>
      <trkpt lat="43.63863" lon="1.30754">
        <ele>177.8</ele>
        <time>2023-11-19T10:37:23Z</time>
      </trkpt>
      <trkpt lat="43.63856" lon="1.30742">
        <ele>178.4</ele>
        <time>2023-11-19T10:37:25Z</time>
      </trkpt>
      <trkpt lat="43.6385" lon="1.3073">
        <ele>179</ele>
        <time>2023-11-19T10:37:27Z</time>
      </trkpt>
      <trkpt lat="43.63838" lon="1.30703">
        <ele>179.8</ele>
        <time>2023-11-19T10:37:31Z</time>
      </trkpt>
      <trkpt lat="43.63836" lon="1.30696">
        <ele>180.2</ele>
        <time>2023-11-19T10:37:32Z</time>
      </trkpt>
      <trkpt lat="43.63827" lon="1.30662">
        <ele>180.6</ele>
        <time>2023-11-19T10:37:36Z</time>
      </trkpt>
      <trkpt lat="43.63818" lon="1.30619">
        <ele>181.2</ele>
        <time>2023-11-19T10:37:41Z</time>
      </trkpt>
      <trkpt lat="43.63813" lon="1.30602">
        <ele>181.2</ele>
        <time>2023-11-19T10:37:43Z</time>
      </trkpt>
      <trkpt lat="43.63792" lon="1.3053">
        <ele>181.8</ele>
        <time>2023-11-19T10:37:52Z</time>
      </trkpt>
      <trkpt lat="43.63782" lon="1.30498">
        <ele>182</ele>
        <time>2023-11-19T10:37:56Z</time>
      </trkpt>
      <trkpt lat="43.63775" lon="1.30474">
        <ele>182.2</ele>
        <time>2023-11-19T10:37:59Z</time>
      </trkpt>
      <trkpt lat="43.63757" lon="1.30417">
        <ele>182.8</ele>
        <time>2023-11-19T10:38:06Z</time>
      </trkpt>
      <trkpt lat="43.6374" lon="1.30341">
        <ele>183</ele>
        <time>2023-11-19T10:38:15Z</time>
      </trkpt>
      <trkpt lat="43.6374" lon="1.30316">
        <ele>183</ele>
        <time>2023-11-19T10:38:18Z</time>
      </trkpt>
      <trkpt lat="43.63742" lon="1.303">
        <ele>183</ele>
        <time>2023-11-19T10:38:20Z</time>
      </trkpt>
      <trkpt lat="43.63743" lon="1.30292">
        <ele>183</ele>
        <time>2023-11-19T10:38:21Z</time>
      </trkpt>
      <trkpt lat="43.63748" lon="1.30271">
        <ele>183.2</ele>
        <time>2023-11-19T10:38:24Z</time>
      </trkpt>
      <trkpt lat="43.6375" lon="1.30263">
        <ele>183.4</ele>
        <time>2023-11-19T10:38:25Z</time>
      </trkpt>
      <trkpt lat="43.63756" lon="1.30242">
        <ele>183.4</ele>
        <time>2023-11-19T10:38:28Z</time>
      </trkpt>
      <trkpt lat="43.63763" lon="1.30222">
        <ele>183.6</ele>
        <time>2023-11-19T10:38:31Z</time>
      </trkpt>
      <trkpt lat="43.63779" lon="1.30169">
        <ele>184</ele>
        <time>2023-11-19T10:38:38Z</time>
      </trkpt>
      <trkpt lat="43.63783" lon="1.30153">
        <ele>184</ele>
        <time>2023-11-19T10:38:40Z</time>
      </trkpt>
      <trkpt lat="43.63786" lon="1.30128">
        <ele>184.2</ele>
        <time>2023-11-19T10:38:43Z</time>
      </trkpt>
      <trkpt lat="43.63788" lon="1.30111">
        <ele>184.2</ele>
        <time>2023-11-19T10:38:45Z</time>
      </trkpt>
      <trkpt lat="43.6379" lon="1.30063">
        <ele>184.4</ele>
        <time>2023-11-19T10:38:50Z</time>
      </trkpt>
      <trkpt lat="43.63785" lon="1.30005">
        <ele>184.6</ele>
        <time>2023-11-19T10:38:56Z</time>
      </trkpt>
      <trkpt lat="43.63777" lon="1.29926">
        <ele>184.6</ele>
        <time>2023-11-19T10:39:04Z</time>
      </trkpt>
      <trkpt lat="43.63768" lon="1.29856">
        <ele>184.6</ele>
        <time>2023-11-19T10:39:11Z</time>
      </trkpt>
      <trkpt lat="43.63765" lon="1.29847">
        <ele>184.6</ele>
        <time>2023-11-19T10:39:12Z</time>
      </trkpt>
      <trkpt lat="43.63761" lon="1.29838">
        <ele>184.6</ele>
        <time>2023-11-19T10:39:13Z</time>
      </trkpt>
      <trkpt lat="43.63749" lon="1.29827">
        <ele>184.6</ele>
        <time>2023-11-19T10:39:15Z</time>
      </trkpt>
      <trkpt lat="43.63706" lon="1.29807">
        <ele>184.6</ele>
        <time>2023-11-19T10:39:21Z</time>
      </trkpt>
      <trkpt lat="43.63648" lon="1.29781">
        <ele>185</ele>
        <time>2023-11-19T10:39:29Z</time>
      </trkpt>
      <trkpt lat="43.6364" lon="1.29777">
        <ele>185.2</ele>
        <time>2023-11-19T10:39:30Z</time>
      </trkpt>
      <trkpt lat="43.63619" lon="1.29766">
        <ele>185.2</ele>
        <time>2023-11-19T10:39:33Z</time>
      </trkpt>
      <trkpt lat="43.63613" lon="1.29761">
        <ele>185.2</ele>
        <time>2023-11-19T10:39:34Z</time>
      </trkpt>
      <trkpt lat="43.63608" lon="1.29755">
        <ele>185.2</ele>
        <time>2023-11-19T10:39:35Z</time>
      </trkpt>
      <trkpt lat="43.63602" lon="1.29738">
        <ele>185.4</ele>
        <time>2023-11-19T10:39:37Z</time>
      </trkpt>
      <trkpt lat="43.63601" lon="1.29729">
        <ele>185.4</ele>
        <time>2023-11-19T10:39:38Z</time>
      </trkpt>
      <trkpt lat="43.63601" lon="1.2972">
        <ele>185.4</ele>
        <time>2023-11-19T10:39:39Z</time>
      </trkpt>
      <trkpt lat="43.63606" lon="1.29694">
        <ele>185.4</ele>
        <time>2023-11-19T10:39:42Z</time>
      </trkpt>
      <trkpt lat="43.6362" lon="1.29625">
        <ele>185.6</ele>
        <time>2023-11-19T10:39:50Z</time>
      </trkpt>
      <trkpt lat="43.63638" lon="1.29549">
        <ele>185.8</ele>
        <time>2023-11-19T10:39:58Z</time>
      </trkpt>
      <trkpt lat="43.63642" lon="1.29529">
        <ele>185.8</ele>
        <time>2023-11-19T10:40:00Z</time>
      </trkpt>
      <trkpt lat="43.63644" lon="1.29519">
        <ele>185.8</ele>
        <time>2023-11-19T10:40:01Z</time>
      </trkpt>
      <trkpt lat="43.63644" lon="1.29498">
        <ele>185.6</ele>
        <time>2023-11-19T10:40:03Z</time>
      </trkpt>
      <trkpt lat="43.63637" lon="1.29479">
        <ele>185.4</ele>
        <time>2023-11-19T10:40:05Z</time>
      </trkpt>
      <trkpt lat="43.63632" lon="1.29471">
        <ele>185.4</ele>
        <time>2023-11-19T10:40:06Z</time>
      </trkpt>
      <trkpt lat="43.63625" lon="1.29465">
        <ele>185.4</ele>
        <time>2023-11-19T10:40:07Z</time>
      </trkpt>
      <trkpt lat="43.63606" lon="1.29451">
        <ele>185.4</ele>
        <time>2023-11-19T10:40:10Z</time>
      </trkpt>
      <trkpt lat="43.63553" lon="1.29418">
        <ele>185.6</ele>
        <time>2023-11-19T10:40:17Z</time>
      </trkpt>
      <trkpt lat="43.63546" lon="1.29413">
        <ele>185.6</ele>
        <time>2023-11-19T10:40:18Z</time>
      </trkpt>
      <trkpt lat="43.6354" lon="1.2941">
        <ele>185.8</ele>
        <time>2023-11-19T10:40:19Z</time>
      </trkpt>
      <trkpt lat="43.63508" lon="1.29389">
        <ele>186.4</ele>
        <time>2023-11-19T10:40:23Z</time>
      </trkpt>
      <trkpt lat="43.63464" lon="1.29362">
        <ele>186.6</ele>
        <time>2023-11-19T10:40:29Z</time>
      </trkpt>
      <trkpt lat="43.63408" lon="1.29325">
        <ele>186.8</ele>
        <time>2023-11-19T10:40:36Z</time>
      </trkpt>
      <trkpt lat="43.63387" lon="1.29312">
        <ele>186.8</ele>
        <time>2023-11-19T10:40:39Z</time>
      </trkpt>
      <trkpt lat="43.63336" lon="1.29278">
        <ele>186.8</ele>
        <time>2023-11-19T10:40:46Z</time>
      </trkpt>
      <trkpt lat="43.63321" lon="1.29269">
        <ele>186.8</ele>
        <time>2023-11-19T10:40:48Z</time>
      </trkpt>
      <trkpt lat="43.63275" lon="1.29231">
        <ele>187</ele>
        <time>2023-11-19T10:40:55Z</time>
      </trkpt>
      <trkpt lat="43.63267" lon="1.29224">
        <ele>187.2</ele>
        <time>2023-11-19T10:40:56Z</time>
      </trkpt>
      <trkpt lat="43.63235" lon="1.29195">
        <ele>187.6</ele>
        <time>2023-11-19T10:41:01Z</time>
      </trkpt>
      <trkpt lat="43.63196" lon="1.29162">
        <ele>187.4</ele>
        <time>2023-11-19T10:41:07Z</time>
      </trkpt>
      <trkpt lat="43.63148" lon="1.29123">
        <ele>187.6</ele>
        <time>2023-11-19T10:41:14Z</time>
      </trkpt>
      <trkpt lat="43.63133" lon="1.29111">
        <ele>187.6</ele>
        <time>2023-11-19T10:41:16Z</time>
      </trkpt>
      <trkpt lat="43.63086" lon="1.29076">
        <ele>187.2</ele>
        <time>2023-11-19T10:41:22Z</time>
      </trkpt>
      <trkpt lat="43.63038" lon="1.29045">
        <ele>186.4</ele>
        <time>2023-11-19T10:41:27Z</time>
      </trkpt>
      <trkpt lat="43.63029" lon="1.2904">
        <ele>186</ele>
        <time>2023-11-19T10:41:28Z</time>
      </trkpt>
      <trkpt lat="43.63009" lon="1.29029">
        <ele>185.2</ele>
        <time>2023-11-19T10:41:30Z</time>
      </trkpt>
      <trkpt lat="43.62981" lon="1.29011">
        <ele>184</ele>
        <time>2023-11-19T10:41:33Z</time>
      </trkpt>
      <trkpt lat="43.62964" lon="1.28999">
        <ele>183.6</ele>
        <time>2023-11-19T10:41:35Z</time>
      </trkpt>
      <trkpt lat="43.62928" lon="1.28972">
        <ele>183.8</ele>
        <time>2023-11-19T10:41:40Z</time>
      </trkpt>
      <trkpt lat="43.62878" lon="1.28941">
        <ele>185</ele>
        <time>2023-11-19T10:41:47Z</time>
      </trkpt>
      <trkpt lat="43.62835" lon="1.28916">
        <ele>186.2</ele>
        <time>2023-11-19T10:41:53Z</time>
      </trkpt>
      <trkpt lat="43.62813" lon="1.28904">
        <ele>186.4</ele>
        <time>2023-11-19T10:41:56Z</time>
      </trkpt>
      <trkpt lat="43.62777" lon="1.28885">
        <ele>187</ele>
        <time>2023-11-19T10:42:01Z</time>
      </trkpt>
      <trkpt lat="43.62761" lon="1.28884">
        <ele>187</ele>
        <time>2023-11-19T10:42:03Z</time>
      </trkpt>
      <trkpt lat="43.6272" lon="1.28898">
        <ele>187</ele>
        <time>2023-11-19T10:42:08Z</time>
      </trkpt>
      <trkpt lat="43.62695" lon="1.28907">
        <ele>187.4</ele>
        <time>2023-11-19T10:42:11Z</time>
      </trkpt>
      <trkpt lat="43.62654" lon="1.28921">
        <ele>187.6</ele>
        <time>2023-11-19T10:42:16Z</time>
      </trkpt>
      <trkpt lat="43.62613" lon="1.28921">
        <ele>187.6</ele>
        <time>2023-11-19T10:42:21Z</time>
      </trkpt>
      <trkpt lat="43.62605" lon="1.28918">
        <ele>187.6</ele>
        <time>2023-11-19T10:42:22Z</time>
      </trkpt>
      <trkpt lat="43.62583" lon="1.28905">
        <ele>187.6</ele>
        <time>2023-11-19T10:42:25Z</time>
      </trkpt>
      <trkpt lat="43.6253" lon="1.28862">
        <ele>187.4</ele>
        <time>2023-11-19T10:42:33Z</time>
      </trkpt>
      <trkpt lat="43.62504" lon="1.28833">
        <ele>186.8</ele>
        <time>2023-11-19T10:42:37Z</time>
      </trkpt>
      <trkpt lat="43.62486" lon="1.28823">
        <ele>186.4</ele>
        <time>2023-11-19T10:42:39Z</time>
      </trkpt>
      <trkpt lat="43.62468" lon="1.28833">
        <ele>185.4</ele>
        <time>2023-11-19T10:42:41Z</time>
      </trkpt>
      <trkpt lat="43.62462" lon="1.28841">
        <ele>185</ele>
        <time>2023-11-19T10:42:42Z</time>
      </trkpt>
      <trkpt lat="43.62455" lon="1.28851">
        <ele>184.6</ele>
        <time>2023-11-19T10:42:43Z</time>
      </trkpt>
      <trkpt lat="43.62447" lon="1.28863">
        <ele>184.4</ele>
        <time>2023-11-19T10:42:44Z</time>
      </trkpt>
      <trkpt lat="43.6244" lon="1.28874">
        <ele>183.8</ele>
        <time>2023-11-19T10:42:45Z</time>
      </trkpt>
      <trkpt lat="43.62428" lon="1.28896">
        <ele>182.8</ele>
        <time>2023-11-19T10:42:47Z</time>
      </trkpt>
      <trkpt lat="43.62422" lon="1.28904">
        <ele>182.2</ele>
        <time>2023-11-19T10:42:48Z</time>
      </trkpt>
      <trkpt lat="43.62413" lon="1.28913">
        <ele>181.8</ele>
        <time>2023-11-19T10:42:49Z</time>
      </trkpt>
      <trkpt lat="43.62404" lon="1.28917">
        <ele>181.2</ele>
        <time>2023-11-19T10:42:50Z</time>
      </trkpt>
      <trkpt lat="43.62397" lon="1.28918">
        <ele>181</ele>
        <time>2023-11-19T10:42:51Z</time>
      </trkpt>
      <trkpt lat="43.62379" lon="1.2891">
        <ele>179.6</ele>
        <time>2023-11-19T10:42:53Z</time>
      </trkpt>
      <trkpt lat="43.62369" lon="1.28898">
        <ele>178.6</ele>
        <time>2023-11-19T10:42:54Z</time>
      </trkpt>
      <trkpt lat="43.62363" lon="1.28886">
        <ele>178</ele>
        <time>2023-11-19T10:42:55Z</time>
      </trkpt>
      <trkpt lat="43.6236" lon="1.28874">
        <ele>177</ele>
        <time>2023-11-19T10:42:56Z</time>
      </trkpt>
      <trkpt lat="43.62355" lon="1.2886">
        <ele>175.8</ele>
        <time>2023-11-19T10:42:57Z</time>
      </trkpt>
      <trkpt lat="43.62343" lon="1.28829">
        <ele>174.6</ele>
        <time>2023-11-19T10:42:59Z</time>
      </trkpt>
      <trkpt lat="43.62332" lon="1.28802">
        <ele>173.6</ele>
        <time>2023-11-19T10:43:01Z</time>
      </trkpt>
      <trkpt lat="43.62321" lon="1.28775">
        <ele>172</ele>
        <time>2023-11-19T10:43:03Z</time>
      </trkpt>
      <trkpt lat="43.6231" lon="1.2875">
        <ele>170.6</ele>
        <time>2023-11-19T10:43:05Z</time>
      </trkpt>
      <trkpt lat="43.623" lon="1.2873">
        <ele>169.2</ele>
        <time>2023-11-19T10:43:07Z</time>
      </trkpt>
      <trkpt lat="43.62295" lon="1.28718">
        <ele>168.2</ele>
        <time>2023-11-19T10:43:08Z</time>
      </trkpt>
      <trkpt lat="43.62288" lon="1.28701">
        <ele>166.6</ele>
        <time>2023-11-19T10:43:10Z</time>
      </trkpt>
      <trkpt lat="43.62284" lon="1.28694">
        <ele>166.2</ele>
        <time>2023-11-19T10:43:11Z</time>
      </trkpt>
      <trkpt lat="43.62279" lon="1.2869">
        <ele>165.6</ele>
        <time>2023-11-19T10:43:12Z</time>
      </trkpt>
      <trkpt lat="43.62271" lon="1.28688">
        <ele>165</ele>
        <time>2023-11-19T10:43:13Z</time>
      </trkpt>
      <trkpt lat="43.62264" lon="1.28689">
        <ele>164.2</ele>
        <time>2023-11-19T10:43:14Z</time>
      </trkpt>
      <trkpt lat="43.62258" lon="1.28691">
        <ele>163.2</ele>
        <time>2023-11-19T10:43:15Z</time>
      </trkpt>
      <trkpt lat="43.62242" lon="1.28692">
        <ele>162.2</ele>
        <time>2023-11-19T10:43:17Z</time>
      </trkpt>
      <trkpt lat="43.62235" lon="1.28692">
        <ele>161.8</ele>
        <time>2023-11-19T10:43:18Z</time>
      </trkpt>
      <trkpt lat="43.62213" lon="1.28694">
        <ele>161</ele>
        <time>2023-11-19T10:43:21Z</time>
      </trkpt>
      <trkpt lat="43.62182" lon="1.28697">
        <ele>160</ele>
        <time>2023-11-19T10:43:25Z</time>
      </trkpt>
      <trkpt lat="43.62166" lon="1.28698">
        <ele>159.6</ele>
        <time>2023-11-19T10:43:27Z</time>
      </trkpt>
      <trkpt lat="43.62108" lon="1.28696">
        <ele>159.4</ele>
        <time>2023-11-19T10:43:35Z</time>
      </trkpt>
      <trkpt lat="43.6207" lon="1.28687">
        <ele>159.6</ele>
        <time>2023-11-19T10:43:41Z</time>
      </trkpt>
      <trkpt lat="43.62042" lon="1.28679">
        <ele>161.4</ele>
        <time>2023-11-19T10:43:46Z</time>
      </trkpt>
      <trkpt lat="43.62037" lon="1.28677">
        <ele>161.6</ele>
        <time>2023-11-19T10:43:47Z</time>
      </trkpt>
      <trkpt lat="43.62029" lon="1.28673">
        <ele>162.8</ele>
        <time>2023-11-19T10:43:49Z</time>
      </trkpt>
      <trkpt lat="43.62016" lon="1.28668">
        <ele>164</ele>
        <time>2023-11-19T10:43:52Z</time>
      </trkpt>
      <trkpt lat="43.62009" lon="1.28664">
        <ele>164.4</ele>
        <time>2023-11-19T10:43:54Z</time>
      </trkpt>
      <trkpt lat="43.62005" lon="1.28661">
        <ele>165</ele>
        <time>2023-11-19T10:43:55Z</time>
      </trkpt>
      <trkpt lat="43.62" lon="1.2866">
        <ele>165.6</ele>
        <time>2023-11-19T10:43:56Z</time>
      </trkpt>
      <trkpt lat="43.61996" lon="1.28658">
        <ele>165.8</ele>
        <time>2023-11-19T10:43:57Z</time>
      </trkpt>
      <trkpt lat="43.61992" lon="1.28657">
        <ele>166.4</ele>
        <time>2023-11-19T10:43:58Z</time>
      </trkpt>
      <trkpt lat="43.61988" lon="1.28656">
        <ele>166.8</ele>
        <time>2023-11-19T10:43:59Z</time>
      </trkpt>
      <trkpt lat="43.6198" lon="1.28652">
        <ele>167.6</ele>
        <time>2023-11-19T10:44:01Z</time>
      </trkpt>
      <trkpt lat="43.61976" lon="1.2865">
        <ele>168.4</ele>
        <time>2023-11-19T10:44:02Z</time>
      </trkpt>
      <trkpt lat="43.61974" lon="1.28649">
        <ele>168.8</ele>
        <time>2023-11-19T10:44:03Z</time>
      </trkpt>
      <trkpt lat="43.61966" lon="1.28646">
        <ele>169.8</ele>
        <time>2023-11-19T10:44:05Z</time>
      </trkpt>
      <trkpt lat="43.61953" lon="1.28641">
        <ele>170.8</ele>
        <time>2023-11-19T10:44:08Z</time>
      </trkpt>
      <trkpt lat="43.6195" lon="1.28639">
        <ele>171.6</ele>
        <time>2023-11-19T10:44:09Z</time>
      </trkpt>
      <trkpt lat="43.61946" lon="1.28637">
        <ele>172</ele>
        <time>2023-11-19T10:44:10Z</time>
      </trkpt>
      <trkpt lat="43.61934" lon="1.28631">
        <ele>173.2</ele>
        <time>2023-11-19T10:44:13Z</time>
      </trkpt>
      <trkpt lat="43.61931" lon="1.28629">
        <ele>173.4</ele>
        <time>2023-11-19T10:44:14Z</time>
      </trkpt>
      <trkpt lat="43.61924" lon="1.28621">
        <ele>174.2</ele>
        <time>2023-11-19T10:44:16Z</time>
      </trkpt>
      <trkpt lat="43.6192" lon="1.28618">
        <ele>174.6</ele>
        <time>2023-11-19T10:44:17Z</time>
      </trkpt>
      <trkpt lat="43.61915" lon="1.28611">
        <ele>175</ele>
        <time>2023-11-19T10:44:19Z</time>
      </trkpt>
      <trkpt lat="43.61912" lon="1.28606">
        <ele>175.6</ele>
        <time>2023-11-19T10:44:20Z</time>
      </trkpt>
      <trkpt lat="43.61906" lon="1.28594">
        <ele>176.8</ele>
        <time>2023-11-19T10:44:23Z</time>
      </trkpt>
      <trkpt lat="43.61904" lon="1.28589">
        <ele>177</ele>
        <time>2023-11-19T10:44:24Z</time>
      </trkpt>
      <trkpt lat="43.61899" lon="1.28579">
        <ele>178</ele>
        <time>2023-11-19T10:44:27Z</time>
      </trkpt>
      <trkpt lat="43.61894" lon="1.28569">
        <ele>178.8</ele>
        <time>2023-11-19T10:44:30Z</time>
      </trkpt>
      <trkpt lat="43.61892" lon="1.28565">
        <ele>179.2</ele>
        <time>2023-11-19T10:44:31Z</time>
      </trkpt>
      <trkpt lat="43.61885" lon="1.28552">
        <ele>180.2</ele>
        <time>2023-11-19T10:44:34Z</time>
      </trkpt>
      <trkpt lat="43.61876" lon="1.28536">
        <ele>181.2</ele>
        <time>2023-11-19T10:44:38Z</time>
      </trkpt>
      <trkpt lat="43.61873" lon="1.2853">
        <ele>181.4</ele>
        <time>2023-11-19T10:44:39Z</time>
      </trkpt>
      <trkpt lat="43.61859" lon="1.28511">
        <ele>181.8</ele>
        <time>2023-11-19T10:44:43Z</time>
      </trkpt>
      <trkpt lat="43.61851" lon="1.28501">
        <ele>181.8</ele>
        <time>2023-11-19T10:44:45Z</time>
      </trkpt>
      <trkpt lat="43.61832" lon="1.28483">
        <ele>181.6</ele>
        <time>2023-11-19T10:44:49Z</time>
      </trkpt>
      <trkpt lat="43.61817" lon="1.28469">
        <ele>181.2</ele>
        <time>2023-11-19T10:44:52Z</time>
      </trkpt>
      <trkpt lat="43.618" lon="1.28448">
        <ele>180.8</ele>
        <time>2023-11-19T10:44:56Z</time>
      </trkpt>
      <trkpt lat="43.61788" lon="1.28435">
        <ele>180.2</ele>
        <time>2023-11-19T10:44:59Z</time>
      </trkpt>
      <trkpt lat="43.61782" lon="1.28427">
        <ele>180</ele>
        <time>2023-11-19T10:45:01Z</time>
      </trkpt>
      <trkpt lat="43.6178" lon="1.2842">
        <ele>179.6</ele>
        <time>2023-11-19T10:45:04Z</time>
      </trkpt>
      <trkpt lat="43.6178" lon="1.2842">
        <ele>179.6</ele>
        <time>2023-11-19T10:45:05Z</time>
      </trkpt>
      <trkpt lat="43.61777" lon="1.28419">
        <ele>178.4</ele>
        <time>2023-11-19T10:45:27Z</time>
      </trkpt>
      <trkpt lat="43.61772" lon="1.28417">
        <ele>178.4</ele>
        <time>2023-11-19T10:45:29Z</time>
      </trkpt>
      <trkpt lat="43.61771" lon="1.28417">
        <ele>178.2</ele>
        <time>2023-11-19T10:45:30Z</time>
      </trkpt>
      <trkpt lat="43.61764" lon="1.28417">
        <ele>178</ele>
        <time>2023-11-19T10:45:33Z</time>
      </trkpt>
      <trkpt lat="43.61755" lon="1.28413">
        <ele>177.8</ele>
        <time>2023-11-19T10:45:35Z</time>
      </trkpt>
      <trkpt lat="43.61749" lon="1.2841">
        <ele>177.8</ele>
        <time>2023-11-19T10:45:36Z</time>
      </trkpt>
      <trkpt lat="43.61743" lon="1.28408">
        <ele>177.6</ele>
        <time>2023-11-19T10:45:37Z</time>
      </trkpt>
      <trkpt lat="43.61736" lon="1.28407">
        <ele>177.4</ele>
        <time>2023-11-19T10:45:38Z</time>
      </trkpt>
      <trkpt lat="43.61728" lon="1.28409">
        <ele>177.2</ele>
        <time>2023-11-19T10:45:39Z</time>
      </trkpt>
      <trkpt lat="43.61699" lon="1.28429">
        <ele>176.2</ele>
        <time>2023-11-19T10:45:43Z</time>
      </trkpt>
      <trkpt lat="43.61669" lon="1.28454">
        <ele>174.8</ele>
        <time>2023-11-19T10:45:47Z</time>
      </trkpt>
      <trkpt lat="43.61646" lon="1.28472">
        <ele>173.4</ele>
        <time>2023-11-19T10:45:50Z</time>
      </trkpt>
      <trkpt lat="43.61623" lon="1.28491">
        <ele>172.2</ele>
        <time>2023-11-19T10:45:53Z</time>
      </trkpt>
      <trkpt lat="43.616" lon="1.28507">
        <ele>171</ele>
        <time>2023-11-19T10:45:56Z</time>
      </trkpt>
      <trkpt lat="43.61586" lon="1.28513">
        <ele>170.4</ele>
        <time>2023-11-19T10:45:58Z</time>
      </trkpt>
      <trkpt lat="43.61571" lon="1.28518">
        <ele>170</ele>
        <time>2023-11-19T10:46:00Z</time>
      </trkpt>
      <trkpt lat="43.6153" lon="1.2853">
        <ele>168.8</ele>
        <time>2023-11-19T10:46:05Z</time>
      </trkpt>
      <trkpt lat="43.61473" lon="1.28544">
        <ele>168.2</ele>
        <time>2023-11-19T10:46:11Z</time>
      </trkpt>
      <trkpt lat="43.61443" lon="1.28551">
        <ele>168</ele>
        <time>2023-11-19T10:46:15Z</time>
      </trkpt>
      <trkpt lat="43.61428" lon="1.28555">
        <ele>168</ele>
        <time>2023-11-19T10:46:17Z</time>
      </trkpt>
      <trkpt lat="43.61387" lon="1.28565">
        <ele>167.8</ele>
        <time>2023-11-19T10:46:22Z</time>
      </trkpt>
      <trkpt lat="43.61336" lon="1.28569">
        <ele>167.8</ele>
        <time>2023-11-19T10:46:28Z</time>
      </trkpt>
      <trkpt lat="43.61309" lon="1.28568">
        <ele>167.8</ele>
        <time>2023-11-19T10:46:32Z</time>
      </trkpt>
      <trkpt lat="43.6127" lon="1.28565">
        <ele>167.8</ele>
        <time>2023-11-19T10:46:38Z</time>
      </trkpt>
      <trkpt lat="43.61263" lon="1.28564">
        <ele>167.8</ele>
        <time>2023-11-19T10:46:39Z</time>
      </trkpt>
      <trkpt lat="43.61257" lon="1.28563">
        <ele>167.8</ele>
        <time>2023-11-19T10:46:40Z</time>
      </trkpt>
      <trkpt lat="43.61235" lon="1.28555">
        <ele>167.8</ele>
        <time>2023-11-19T10:46:43Z</time>
      </trkpt>
      <trkpt lat="43.61195" lon="1.28531">
        <ele>167.8</ele>
        <time>2023-11-19T10:46:48Z</time>
      </trkpt>
      <trkpt lat="43.61163" lon="1.2851">
        <ele>167.8</ele>
        <time>2023-11-19T10:46:53Z</time>
      </trkpt>
      <trkpt lat="43.61134" lon="1.28493">
        <ele>167.8</ele>
        <time>2023-11-19T10:46:57Z</time>
      </trkpt>
      <trkpt lat="43.61083" lon="1.28465">
        <ele>168.2</ele>
        <time>2023-11-19T10:47:04Z</time>
      </trkpt>
      <trkpt lat="43.61077" lon="1.28462">
        <ele>168.4</ele>
        <time>2023-11-19T10:47:05Z</time>
      </trkpt>
      <trkpt lat="43.61045" lon="1.28451">
        <ele>168.4</ele>
        <time>2023-11-19T10:47:09Z</time>
      </trkpt>
      <trkpt lat="43.61036" lon="1.28445">
        <ele>168.4</ele>
        <time>2023-11-19T10:47:10Z</time>
      </trkpt>
      <trkpt lat="43.61032" lon="1.2844">
        <ele>168.4</ele>
        <time>2023-11-19T10:47:11Z</time>
      </trkpt>
      <trkpt lat="43.6102" lon="1.28425">
        <ele>168.4</ele>
        <time>2023-11-19T10:47:13Z</time>
      </trkpt>
      <trkpt lat="43.61004" lon="1.2842">
        <ele>168.4</ele>
        <time>2023-11-19T10:47:15Z</time>
      </trkpt>
      <trkpt lat="43.60948" lon="1.28415">
        <ele>168.4</ele>
        <time>2023-11-19T10:47:22Z</time>
      </trkpt>
      <trkpt lat="43.60889" lon="1.28409">
        <ele>168</ele>
        <time>2023-11-19T10:47:29Z</time>
      </trkpt>
      <trkpt lat="43.60873" lon="1.28405">
        <ele>168</ele>
        <time>2023-11-19T10:47:31Z</time>
      </trkpt>
      <trkpt lat="43.60819" lon="1.28389">
        <ele>168.2</ele>
        <time>2023-11-19T10:47:38Z</time>
      </trkpt>
      <trkpt lat="43.60803" lon="1.28378">
        <ele>168.4</ele>
        <time>2023-11-19T10:47:40Z</time>
      </trkpt>
      <trkpt lat="43.60797" lon="1.28371">
        <ele>168.4</ele>
        <time>2023-11-19T10:47:41Z</time>
      </trkpt>
      <trkpt lat="43.60786" lon="1.28358">
        <ele>168.8</ele>
        <time>2023-11-19T10:47:43Z</time>
      </trkpt>
      <trkpt lat="43.60772" lon="1.28352">
        <ele>168.8</ele>
        <time>2023-11-19T10:47:45Z</time>
      </trkpt>
      <trkpt lat="43.60756" lon="1.28354">
        <ele>169</ele>
        <time>2023-11-19T10:47:47Z</time>
      </trkpt>
      <trkpt lat="43.6074" lon="1.28351">
        <ele>169</ele>
        <time>2023-11-19T10:47:49Z</time>
      </trkpt>
      <trkpt lat="43.60725" lon="1.28343">
        <ele>169</ele>
        <time>2023-11-19T10:47:51Z</time>
      </trkpt>
      <trkpt lat="43.60695" lon="1.28327">
        <ele>169.6</ele>
        <time>2023-11-19T10:47:55Z</time>
      </trkpt>
      <trkpt lat="43.60648" lon="1.28302">
        <ele>170.2</ele>
        <time>2023-11-19T10:48:01Z</time>
      </trkpt>
      <trkpt lat="43.60623" lon="1.28291">
        <ele>170.2</ele>
        <time>2023-11-19T10:48:04Z</time>
      </trkpt>
      <trkpt lat="43.60577" lon="1.28275">
        <ele>169.8</ele>
        <time>2023-11-19T10:48:09Z</time>
      </trkpt>
      <trkpt lat="43.6055" lon="1.28265">
        <ele>169</ele>
        <time>2023-11-19T10:48:12Z</time>
      </trkpt>
      <trkpt lat="43.60526" lon="1.28252">
        <ele>168.2</ele>
        <time>2023-11-19T10:48:15Z</time>
      </trkpt>
      <trkpt lat="43.6052" lon="1.28248">
        <ele>167.8</ele>
        <time>2023-11-19T10:48:16Z</time>
      </trkpt>
      <trkpt lat="43.60504" lon="1.28234">
        <ele>166.6</ele>
        <time>2023-11-19T10:48:19Z</time>
      </trkpt>
      <trkpt lat="43.60494" lon="1.28212">
        <ele>166</ele>
        <time>2023-11-19T10:48:22Z</time>
      </trkpt>
      <trkpt lat="43.60485" lon="1.28199">
        <ele>165.4</ele>
        <time>2023-11-19T10:48:24Z</time>
      </trkpt>
      <trkpt lat="43.60479" lon="1.28194">
        <ele>165.2</ele>
        <time>2023-11-19T10:48:25Z</time>
      </trkpt>
      <trkpt lat="43.60473" lon="1.28189">
        <ele>165.2</ele>
        <time>2023-11-19T10:48:26Z</time>
      </trkpt>
      <trkpt lat="43.60463" lon="1.28172">
        <ele>165</ele>
        <time>2023-11-19T10:48:28Z</time>
      </trkpt>
      <trkpt lat="43.60449" lon="1.28116">
        <ele>164.8</ele>
        <time>2023-11-19T10:48:33Z</time>
      </trkpt>
      <trkpt lat="43.6043" lon="1.28033">
        <ele>165</ele>
        <time>2023-11-19T10:48:40Z</time>
      </trkpt>
      <trkpt lat="43.60425" lon="1.28011">
        <ele>165.4</ele>
        <time>2023-11-19T10:48:42Z</time>
      </trkpt>
      <trkpt lat="43.60424" lon="1.28">
        <ele>165.4</ele>
        <time>2023-11-19T10:48:43Z</time>
      </trkpt>
      <trkpt lat="43.60424" lon="1.27967">
        <ele>166.2</ele>
        <time>2023-11-19T10:48:46Z</time>
      </trkpt>
      <trkpt lat="43.60422" lon="1.27957">
        <ele>166.4</ele>
        <time>2023-11-19T10:48:47Z</time>
      </trkpt>
      <trkpt lat="43.60418" lon="1.27948">
        <ele>167</ele>
        <time>2023-11-19T10:48:48Z</time>
      </trkpt>
      <trkpt lat="43.60414" lon="1.27943">
        <ele>167.4</ele>
        <time>2023-11-19T10:48:49Z</time>
      </trkpt>
      <trkpt lat="43.60406" lon="1.27938">
        <ele>167.6</ele>
        <time>2023-11-19T10:48:50Z</time>
      </trkpt>
      <trkpt lat="43.60391" lon="1.27933">
        <ele>167.8</ele>
        <time>2023-11-19T10:48:52Z</time>
      </trkpt>
      <trkpt lat="43.60384" lon="1.2793">
        <ele>168</ele>
        <time>2023-11-19T10:48:53Z</time>
      </trkpt>
      <trkpt lat="43.60362" lon="1.27915">
        <ele>168.6</ele>
        <time>2023-11-19T10:48:56Z</time>
      </trkpt>
      <trkpt lat="43.60337" lon="1.27901">
        <ele>169</ele>
        <time>2023-11-19T10:48:59Z</time>
      </trkpt>
      <trkpt lat="43.6033" lon="1.27899">
        <ele>169</ele>
        <time>2023-11-19T10:49:00Z</time>
      </trkpt>
      <trkpt lat="43.60321" lon="1.27899">
        <ele>169</ele>
        <time>2023-11-19T10:49:01Z</time>
      </trkpt>
      <trkpt lat="43.60302" lon="1.27905">
        <ele>169</ele>
        <time>2023-11-19T10:49:03Z</time>
      </trkpt>
      <trkpt lat="43.60293" lon="1.27909">
        <ele>168.8</ele>
        <time>2023-11-19T10:49:05Z</time>
      </trkpt>
      <trkpt lat="43.60255" lon="1.27925">
        <ele>168.4</ele>
        <time>2023-11-19T10:49:08Z</time>
      </trkpt>
      <trkpt lat="43.60245" lon="1.27926">
        <ele>168</ele>
        <time>2023-11-19T10:49:09Z</time>
      </trkpt>
      <trkpt lat="43.60228" lon="1.27925">
        <ele>167.6</ele>
        <time>2023-11-19T10:49:11Z</time>
      </trkpt>
      <trkpt lat="43.60201" lon="1.2792">
        <ele>167.4</ele>
        <time>2023-11-19T10:49:14Z</time>
      </trkpt>
      <trkpt lat="43.6014" lon="1.27905">
        <ele>167.2</ele>
        <time>2023-11-19T10:49:21Z</time>
      </trkpt>
      <trkpt lat="43.60084" lon="1.27889">
        <ele>168.2</ele>
        <time>2023-11-19T10:49:28Z</time>
      </trkpt>
      <trkpt lat="43.6007" lon="1.27885">
        <ele>168.6</ele>
        <time>2023-11-19T10:49:30Z</time>
      </trkpt>
      <trkpt lat="43.6006" lon="1.27882">
        <ele>168.6</ele>
        <time>2023-11-19T10:49:31Z</time>
      </trkpt>
      <trkpt lat="43.59998" lon="1.27859">
        <ele>169.4</ele>
        <time>2023-11-19T10:49:39Z</time>
      </trkpt>
      <trkpt lat="43.59974" lon="1.27849">
        <ele>169.6</ele>
        <time>2023-11-19T10:49:42Z</time>
      </trkpt>
      <trkpt lat="43.59932" lon="1.27831">
        <ele>169.8</ele>
        <time>2023-11-19T10:49:48Z</time>
      </trkpt>
      <trkpt lat="43.59875" lon="1.27804">
        <ele>169.8</ele>
        <time>2023-11-19T10:49:56Z</time>
      </trkpt>
      <trkpt lat="43.59829" lon="1.27774">
        <ele>169.6</ele>
        <time>2023-11-19T10:50:03Z</time>
      </trkpt>
      <trkpt lat="43.59786" lon="1.27747">
        <ele>169.4</ele>
        <time>2023-11-19T10:50:09Z</time>
      </trkpt>
      <trkpt lat="43.59735" lon="1.27719">
        <ele>169.2</ele>
        <time>2023-11-19T10:50:16Z</time>
      </trkpt>
      <trkpt lat="43.59728" lon="1.27715">
        <ele>169.2</ele>
        <time>2023-11-19T10:50:17Z</time>
      </trkpt>
      <trkpt lat="43.59678" lon="1.27694">
        <ele>169.2</ele>
        <time>2023-11-19T10:50:24Z</time>
      </trkpt>
      <trkpt lat="43.59633" lon="1.27673">
        <ele>169.4</ele>
        <time>2023-11-19T10:50:31Z</time>
      </trkpt>
      <trkpt lat="43.59623" lon="1.27669">
        <ele>169.4</ele>
        <time>2023-11-19T10:50:33Z</time>
      </trkpt>
      <trkpt lat="43.59613" lon="1.27671">
        <ele>169.6</ele>
        <time>2023-11-19T10:50:35Z</time>
      </trkpt>
      <trkpt lat="43.59606" lon="1.27683">
        <ele>169.8</ele>
        <time>2023-11-19T10:50:37Z</time>
      </trkpt>
      <trkpt lat="43.59604" lon="1.27691">
        <ele>170</ele>
        <time>2023-11-19T10:50:38Z</time>
      </trkpt>
      <trkpt lat="43.59589" lon="1.27738">
        <ele>170</ele>
        <time>2023-11-19T10:50:43Z</time>
      </trkpt>
      <trkpt lat="43.59569" lon="1.278">
        <ele>169.2</ele>
        <time>2023-11-19T10:50:49Z</time>
      </trkpt>
      <trkpt lat="43.5956" lon="1.27821">
        <ele>168.8</ele>
        <time>2023-11-19T10:50:51Z</time>
      </trkpt>
      <trkpt lat="43.59542" lon="1.27863">
        <ele>167.8</ele>
        <time>2023-11-19T10:50:55Z</time>
      </trkpt>
      <trkpt lat="43.59524" lon="1.27902">
        <ele>166.8</ele>
        <time>2023-11-19T10:50:59Z</time>
      </trkpt>
      <trkpt lat="43.59506" lon="1.27937">
        <ele>166.2</ele>
        <time>2023-11-19T10:51:03Z</time>
      </trkpt>
      <trkpt lat="43.59493" lon="1.27979">
        <ele>166.2</ele>
        <time>2023-11-19T10:51:07Z</time>
      </trkpt>
      <trkpt lat="43.59485" lon="1.28049">
        <ele>166.4</ele>
        <time>2023-11-19T10:51:14Z</time>
      </trkpt>
      <trkpt lat="43.59476" lon="1.28117">
        <ele>166.8</ele>
        <time>2023-11-19T10:51:21Z</time>
      </trkpt>
      <trkpt lat="43.59468" lon="1.28165">
        <ele>167.8</ele>
        <time>2023-11-19T10:51:27Z</time>
      </trkpt>
      <trkpt lat="43.59463" lon="1.28186">
        <ele>168.8</ele>
        <time>2023-11-19T10:51:30Z</time>
      </trkpt>
      <trkpt lat="43.59457" lon="1.28207">
        <ele>169.8</ele>
        <time>2023-11-19T10:51:33Z</time>
      </trkpt>
      <trkpt lat="43.59456" lon="1.28213">
        <ele>170.4</ele>
        <time>2023-11-19T10:51:34Z</time>
      </trkpt>
      <trkpt lat="43.59454" lon="1.28219">
        <ele>171</ele>
        <time>2023-11-19T10:51:35Z</time>
      </trkpt>
      <trkpt lat="43.5945" lon="1.28233">
        <ele>171.4</ele>
        <time>2023-11-19T10:51:37Z</time>
      </trkpt>
      <trkpt lat="43.59445" lon="1.28246">
        <ele>171.8</ele>
        <time>2023-11-19T10:51:39Z</time>
      </trkpt>
      <trkpt lat="43.59442" lon="1.28253">
        <ele>172</ele>
        <time>2023-11-19T10:51:40Z</time>
      </trkpt>
      <trkpt lat="43.59439" lon="1.2826">
        <ele>172.6</ele>
        <time>2023-11-19T10:51:41Z</time>
      </trkpt>
      <trkpt lat="43.59432" lon="1.28274">
        <ele>173</ele>
        <time>2023-11-19T10:51:43Z</time>
      </trkpt>
      <trkpt lat="43.59424" lon="1.28287">
        <ele>173.6</ele>
        <time>2023-11-19T10:51:45Z</time>
      </trkpt>
      <trkpt lat="43.59413" lon="1.28303">
        <ele>174.8</ele>
        <time>2023-11-19T10:51:48Z</time>
      </trkpt>
      <trkpt lat="43.59406" lon="1.28312">
        <ele>175.4</ele>
        <time>2023-11-19T10:51:50Z</time>
      </trkpt>
      <trkpt lat="43.59397" lon="1.28322">
        <ele>176</ele>
        <time>2023-11-19T10:51:52Z</time>
      </trkpt>
      <trkpt lat="43.59389" lon="1.28333">
        <ele>176.4</ele>
        <time>2023-11-19T10:51:54Z</time>
      </trkpt>
      <trkpt lat="43.59386" lon="1.28338">
        <ele>176.8</ele>
        <time>2023-11-19T10:51:55Z</time>
      </trkpt>
      <trkpt lat="43.59382" lon="1.28343">
        <ele>177</ele>
        <time>2023-11-19T10:51:56Z</time>
      </trkpt>
      <trkpt lat="43.59378" lon="1.28347">
        <ele>177.2</ele>
        <time>2023-11-19T10:51:57Z</time>
      </trkpt>
      <trkpt lat="43.59371" lon="1.28357">
        <ele>178</ele>
        <time>2023-11-19T10:51:59Z</time>
      </trkpt>
      <trkpt lat="43.59349" lon="1.28389">
        <ele>179.4</ele>
        <time>2023-11-19T10:52:04Z</time>
      </trkpt>
      <trkpt lat="43.59341" lon="1.28403">
        <ele>180</ele>
        <time>2023-11-19T10:52:06Z</time>
      </trkpt>
      <trkpt lat="43.59332" lon="1.28416">
        <ele>180.4</ele>
        <time>2023-11-19T10:52:08Z</time>
      </trkpt>
      <trkpt lat="43.59321" lon="1.2843">
        <ele>181.4</ele>
        <time>2023-11-19T10:52:11Z</time>
      </trkpt>
      <trkpt lat="43.59317" lon="1.28434">
        <ele>181.6</ele>
        <time>2023-11-19T10:52:12Z</time>
      </trkpt>
      <trkpt lat="43.59313" lon="1.28439">
        <ele>182</ele>
        <time>2023-11-19T10:52:13Z</time>
      </trkpt>
      <trkpt lat="43.59301" lon="1.28455">
        <ele>182.6</ele>
        <time>2023-11-19T10:52:15Z</time>
      </trkpt>
      <trkpt lat="43.59285" lon="1.2847">
        <ele>183.8</ele>
        <time>2023-11-19T10:52:19Z</time>
      </trkpt>
      <trkpt lat="43.59281" lon="1.28473">
        <ele>184</ele>
        <time>2023-11-19T10:52:20Z</time>
      </trkpt>
      <trkpt lat="43.59266" lon="1.28488">
        <ele>185</ele>
        <time>2023-11-19T10:52:24Z</time>
      </trkpt>
      <trkpt lat="43.5925" lon="1.28506">
        <ele>186.2</ele>
        <time>2023-11-19T10:52:29Z</time>
      </trkpt>
      <trkpt lat="43.59244" lon="1.28513">
        <ele>186.8</ele>
        <time>2023-11-19T10:52:31Z</time>
      </trkpt>
      <trkpt lat="43.59237" lon="1.28521">
        <ele>187.2</ele>
        <time>2023-11-19T10:52:33Z</time>
      </trkpt>
      <trkpt lat="43.59234" lon="1.28523">
        <ele>187.4</ele>
        <time>2023-11-19T10:52:34Z</time>
      </trkpt>
      <trkpt lat="43.59229" lon="1.28525">
        <ele>187.6</ele>
        <time>2023-11-19T10:52:35Z</time>
      </trkpt>
      <trkpt lat="43.59216" lon="1.28529">
        <ele>188.6</ele>
        <time>2023-11-19T10:52:38Z</time>
      </trkpt>
      <trkpt lat="43.59212" lon="1.28531">
        <ele>188.8</ele>
        <time>2023-11-19T10:52:39Z</time>
      </trkpt>
      <trkpt lat="43.59202" lon="1.2853">
        <ele>189.4</ele>
        <time>2023-11-19T10:52:41Z</time>
      </trkpt>
      <trkpt lat="43.59198" lon="1.28527">
        <ele>189.6</ele>
        <time>2023-11-19T10:52:42Z</time>
      </trkpt>
      <trkpt lat="43.59193" lon="1.28525">
        <ele>189.8</ele>
        <time>2023-11-19T10:52:43Z</time>
      </trkpt>
      <trkpt lat="43.59167" lon="1.28507">
        <ele>190.2</ele>
        <time>2023-11-19T10:52:48Z</time>
      </trkpt>
      <trkpt lat="43.59126" lon="1.2847">
        <ele>190.4</ele>
        <time>2023-11-19T10:52:56Z</time>
      </trkpt>
      <trkpt lat="43.59093" lon="1.28431">
        <ele>190.4</ele>
        <time>2023-11-19T10:53:03Z</time>
      </trkpt>
      <trkpt lat="43.59067" lon="1.28382">
        <ele>190.6</ele>
        <time>2023-11-19T10:53:10Z</time>
      </trkpt>
      <trkpt lat="43.59042" lon="1.28307">
        <ele>190.6</ele>
        <time>2023-11-19T10:53:19Z</time>
      </trkpt>
      <trkpt lat="43.59037" lon="1.2829">
        <ele>190.8</ele>
        <time>2023-11-19T10:53:21Z</time>
      </trkpt>
      <trkpt lat="43.59025" lon="1.28255">
        <ele>190.8</ele>
        <time>2023-11-19T10:53:25Z</time>
      </trkpt>
      <trkpt lat="43.59015" lon="1.28228">
        <ele>191</ele>
        <time>2023-11-19T10:53:28Z</time>
      </trkpt>
      <trkpt lat="43.59007" lon="1.28211">
        <ele>191</ele>
        <time>2023-11-19T10:53:30Z</time>
      </trkpt>
      <trkpt lat="43.58971" lon="1.28155">
        <ele>191.4</ele>
        <time>2023-11-19T10:53:37Z</time>
      </trkpt>
      <trkpt lat="43.58927" lon="1.2811">
        <ele>191.6</ele>
        <time>2023-11-19T10:53:44Z</time>
      </trkpt>
      <trkpt lat="43.58908" lon="1.28092">
        <ele>192</ele>
        <time>2023-11-19T10:53:47Z</time>
      </trkpt>
      <trkpt lat="43.58861" lon="1.28053">
        <ele>192.2</ele>
        <time>2023-11-19T10:53:54Z</time>
      </trkpt>
      <trkpt lat="43.58815" lon="1.28032">
        <ele>192.2</ele>
        <time>2023-11-19T10:54:00Z</time>
      </trkpt>
      <trkpt lat="43.58769" lon="1.28026">
        <ele>191.8</ele>
        <time>2023-11-19T10:54:06Z</time>
      </trkpt>
      <trkpt lat="43.58712" lon="1.28031">
        <ele>192</ele>
        <time>2023-11-19T10:54:13Z</time>
      </trkpt>
      <trkpt lat="43.58704" lon="1.28032">
        <ele>192</ele>
        <time>2023-11-19T10:54:14Z</time>
      </trkpt>
      <trkpt lat="43.58649" lon="1.2803">
        <ele>192.2</ele>
        <time>2023-11-19T10:54:21Z</time>
      </trkpt>
      <trkpt lat="43.58599" lon="1.2801">
        <ele>192.2</ele>
        <time>2023-11-19T10:54:27Z</time>
      </trkpt>
      <trkpt lat="43.58575" lon="1.27995">
        <ele>192.2</ele>
        <time>2023-11-19T10:54:30Z</time>
      </trkpt>
      <trkpt lat="43.58561" lon="1.27982">
        <ele>192.4</ele>
        <time>2023-11-19T10:54:32Z</time>
      </trkpt>
      <trkpt lat="43.58513" lon="1.27936">
        <ele>192.8</ele>
        <time>2023-11-19T10:54:39Z</time>
      </trkpt>
      <trkpt lat="43.58472" lon="1.27896">
        <ele>193</ele>
        <time>2023-11-19T10:54:45Z</time>
      </trkpt>
      <trkpt lat="43.58425" lon="1.27852">
        <ele>192.8</ele>
        <time>2023-11-19T10:54:52Z</time>
      </trkpt>
      <trkpt lat="43.58411" lon="1.27841">
        <ele>192.8</ele>
        <time>2023-11-19T10:54:54Z</time>
      </trkpt>
      <trkpt lat="43.58366" lon="1.278">
        <ele>192.8</ele>
        <time>2023-11-19T10:55:01Z</time>
      </trkpt>
      <trkpt lat="43.58344" lon="1.27775">
        <ele>192.6</ele>
        <time>2023-11-19T10:55:06Z</time>
      </trkpt>
      <trkpt lat="43.58332" lon="1.27763">
        <ele>192.8</ele>
        <time>2023-11-19T10:55:10Z</time>
      </trkpt>
      <trkpt lat="43.58326" lon="1.27774">
        <ele>193.2</ele>
        <time>2023-11-19T10:55:13Z</time>
      </trkpt>
      <trkpt lat="43.58327" lon="1.27809">
        <ele>193.4</ele>
        <time>2023-11-19T10:55:18Z</time>
      </trkpt>
      <trkpt lat="43.58331" lon="1.27852">
        <ele>193.4</ele>
        <time>2023-11-19T10:55:23Z</time>
      </trkpt>
      <trkpt lat="43.5833" lon="1.2786">
        <ele>193.2</ele>
        <time>2023-11-19T10:55:24Z</time>
      </trkpt>
      <trkpt lat="43.58329" lon="1.27869">
        <ele>193.2</ele>
        <time>2023-11-19T10:55:25Z</time>
      </trkpt>
      <trkpt lat="43.58323" lon="1.27885">
        <ele>193.2</ele>
        <time>2023-11-19T10:55:27Z</time>
      </trkpt>
      <trkpt lat="43.5832" lon="1.27891">
        <ele>193.2</ele>
        <time>2023-11-19T10:55:28Z</time>
      </trkpt>
      <trkpt lat="43.58292" lon="1.27936">
        <ele>193.4</ele>
        <time>2023-11-19T10:55:35Z</time>
      </trkpt>
      <trkpt lat="43.58252" lon="1.27999">
        <ele>193.6</ele>
        <time>2023-11-19T10:55:44Z</time>
      </trkpt>
      <trkpt lat="43.58247" lon="1.28006">
        <ele>193.6</ele>
        <time>2023-11-19T10:55:45Z</time>
      </trkpt>
      <trkpt lat="43.58206" lon="1.28061">
        <ele>193.4</ele>
        <time>2023-11-19T10:55:53Z</time>
      </trkpt>
      <trkpt lat="43.58196" lon="1.28075">
        <ele>193.4</ele>
        <time>2023-11-19T10:55:55Z</time>
      </trkpt>
      <trkpt lat="43.58161" lon="1.28123">
        <ele>193.4</ele>
        <time>2023-11-19T10:56:02Z</time>
      </trkpt>
      <trkpt lat="43.58118" lon="1.28175">
        <ele>193.6</ele>
        <time>2023-11-19T10:56:10Z</time>
      </trkpt>
      <trkpt lat="43.58071" lon="1.28228">
        <ele>193.8</ele>
        <time>2023-11-19T10:56:18Z</time>
      </trkpt>
      <trkpt lat="43.58065" lon="1.28235">
        <ele>193.8</ele>
        <time>2023-11-19T10:56:19Z</time>
      </trkpt>
      <trkpt lat="43.58043" lon="1.28276">
        <ele>193.8</ele>
        <time>2023-11-19T10:56:24Z</time>
      </trkpt>
      <trkpt lat="43.58011" lon="1.28347">
        <ele>194</ele>
        <time>2023-11-19T10:56:32Z</time>
      </trkpt>
      <trkpt lat="43.57979" lon="1.28418">
        <ele>194.2</ele>
        <time>2023-11-19T10:56:40Z</time>
      </trkpt>
      <trkpt lat="43.57972" lon="1.28436">
        <ele>194</ele>
        <time>2023-11-19T10:56:42Z</time>
      </trkpt>
      <trkpt lat="43.57943" lon="1.28504">
        <ele>194.2</ele>
        <time>2023-11-19T10:56:50Z</time>
      </trkpt>
      <trkpt lat="43.5794" lon="1.28512">
        <ele>194.2</ele>
        <time>2023-11-19T10:56:51Z</time>
      </trkpt>
      <trkpt lat="43.57934" lon="1.28527">
        <ele>194.2</ele>
        <time>2023-11-19T10:56:53Z</time>
      </trkpt>
      <trkpt lat="43.57933" lon="1.28543">
        <ele>194.2</ele>
        <time>2023-11-19T10:56:55Z</time>
      </trkpt>
      <trkpt lat="43.57944" lon="1.28566">
        <ele>194.2</ele>
        <time>2023-11-19T10:56:58Z</time>
      </trkpt>
      <trkpt lat="43.5798" lon="1.28627">
        <ele>194</ele>
        <time>2023-11-19T10:57:06Z</time>
      </trkpt>
      <trkpt lat="43.57985" lon="1.28634">
        <ele>193.8</ele>
        <time>2023-11-19T10:57:07Z</time>
      </trkpt>
      <trkpt lat="43.58022" lon="1.287">
        <ele>193.6</ele>
        <time>2023-11-19T10:57:15Z</time>
      </trkpt>
      <trkpt lat="43.5805" lon="1.28764">
        <ele>193.8</ele>
        <time>2023-11-19T10:57:22Z</time>
      </trkpt>
      <trkpt lat="43.58054" lon="1.28775">
        <ele>193.8</ele>
        <time>2023-11-19T10:57:23Z</time>
      </trkpt>
      <trkpt lat="43.58064" lon="1.2883">
        <ele>193.6</ele>
        <time>2023-11-19T10:57:28Z</time>
      </trkpt>
      <trkpt lat="43.58073" lon="1.28908">
        <ele>193.6</ele>
        <time>2023-11-19T10:57:35Z</time>
      </trkpt>
      <trkpt lat="43.58074" lon="1.28918">
        <ele>193.6</ele>
        <time>2023-11-19T10:57:36Z</time>
      </trkpt>
      <trkpt lat="43.58081" lon="1.28982">
        <ele>193.4</ele>
        <time>2023-11-19T10:57:43Z</time>
      </trkpt>
      <trkpt lat="43.58083" lon="1.29003">
        <ele>193.4</ele>
        <time>2023-11-19T10:57:47Z</time>
      </trkpt>
      <trkpt lat="43.58086" lon="1.29032">
        <ele>193.4</ele>
        <time>2023-11-19T10:57:52Z</time>
      </trkpt>
      <trkpt lat="43.5809" lon="1.29081">
        <ele>193.2</ele>
        <time>2023-11-19T10:57:58Z</time>
      </trkpt>
      <trkpt lat="43.58093" lon="1.29107">
        <ele>192.8</ele>
        <time>2023-11-19T10:58:01Z</time>
      </trkpt>
      <trkpt lat="43.58096" lon="1.29124">
        <ele>192.6</ele>
        <time>2023-11-19T10:58:03Z</time>
      </trkpt>
      <trkpt lat="43.58108" lon="1.29168">
        <ele>192.4</ele>
        <time>2023-11-19T10:58:08Z</time>
      </trkpt>
      <trkpt lat="43.5811" lon="1.29177">
        <ele>192.2</ele>
        <time>2023-11-19T10:58:09Z</time>
      </trkpt>
      <trkpt lat="43.58121" lon="1.29236">
        <ele>192.2</ele>
        <time>2023-11-19T10:58:15Z</time>
      </trkpt>
      <trkpt lat="43.58135" lon="1.29307">
        <ele>192</ele>
        <time>2023-11-19T10:58:22Z</time>
      </trkpt>
      <trkpt lat="43.58147" lon="1.29381">
        <ele>192</ele>
        <time>2023-11-19T10:58:29Z</time>
      </trkpt>
      <trkpt lat="43.58156" lon="1.29455">
        <ele>191.8</ele>
        <time>2023-11-19T10:58:36Z</time>
      </trkpt>
      <trkpt lat="43.58158" lon="1.29478">
        <ele>191.8</ele>
        <time>2023-11-19T10:58:38Z</time>
      </trkpt>
      <trkpt lat="43.58158" lon="1.29553">
        <ele>192</ele>
        <time>2023-11-19T10:58:45Z</time>
      </trkpt>
      <trkpt lat="43.58155" lon="1.29633">
        <ele>191.6</ele>
        <time>2023-11-19T10:58:53Z</time>
      </trkpt>
      <trkpt lat="43.58151" lon="1.29683">
        <ele>191.4</ele>
        <time>2023-11-19T10:58:58Z</time>
      </trkpt>
      <trkpt lat="43.58152" lon="1.29702">
        <ele>191.6</ele>
        <time>2023-11-19T10:59:00Z</time>
      </trkpt>
      <trkpt lat="43.58148" lon="1.29721">
        <ele>191.8</ele>
        <time>2023-11-19T10:59:02Z</time>
      </trkpt>
      <trkpt lat="43.58144" lon="1.2973">
        <ele>191.8</ele>
        <time>2023-11-19T10:59:03Z</time>
      </trkpt>
      <trkpt lat="43.58141" lon="1.29739">
        <ele>191.8</ele>
        <time>2023-11-19T10:59:04Z</time>
      </trkpt>
      <trkpt lat="43.58141" lon="1.29758">
        <ele>191.6</ele>
        <time>2023-11-19T10:59:06Z</time>
      </trkpt>
      <trkpt lat="43.58142" lon="1.29817">
        <ele>191.8</ele>
        <time>2023-11-19T10:59:12Z</time>
      </trkpt>
      <trkpt lat="43.58139" lon="1.29881">
        <ele>191.8</ele>
        <time>2023-11-19T10:59:18Z</time>
      </trkpt>
      <trkpt lat="43.58137" lon="1.29952">
        <ele>192.2</ele>
        <time>2023-11-19T10:59:26Z</time>
      </trkpt>
      <trkpt lat="43.58131" lon="1.30044">
        <ele>192.8</ele>
        <time>2023-11-19T10:59:35Z</time>
      </trkpt>
      <trkpt lat="43.5813" lon="1.30054">
        <ele>193</ele>
        <time>2023-11-19T10:59:36Z</time>
      </trkpt>
      <trkpt lat="43.58124" lon="1.30106">
        <ele>193.2</ele>
        <time>2023-11-19T10:59:41Z</time>
      </trkpt>
      <trkpt lat="43.58123" lon="1.30126">
        <ele>193.2</ele>
        <time>2023-11-19T10:59:44Z</time>
      </trkpt>
      <trkpt lat="43.58125" lon="1.30185">
        <ele>193.2</ele>
        <time>2023-11-19T10:59:49Z</time>
      </trkpt>
      <trkpt lat="43.58126" lon="1.30213">
        <ele>193.2</ele>
        <time>2023-11-19T10:59:52Z</time>
      </trkpt>
      <trkpt lat="43.5813" lon="1.30231">
        <ele>193.2</ele>
        <time>2023-11-19T10:59:54Z</time>
      </trkpt>
      <trkpt lat="43.58139" lon="1.30256">
        <ele>193</ele>
        <time>2023-11-19T10:59:57Z</time>
      </trkpt>
      <trkpt lat="43.58146" lon="1.30274">
        <ele>192.8</ele>
        <time>2023-11-19T10:59:59Z</time>
      </trkpt>
      <trkpt lat="43.5815" lon="1.30283">
        <ele>192.6</ele>
        <time>2023-11-19T11:00:01Z</time>
      </trkpt>
      <trkpt lat="43.58158" lon="1.30302">
        <ele>192.6</ele>
        <time>2023-11-19T11:00:03Z</time>
      </trkpt>
      <trkpt lat="43.5817" lon="1.30343">
        <ele>192.2</ele>
        <time>2023-11-19T11:00:06Z</time>
      </trkpt>
      <trkpt lat="43.58177" lon="1.30372">
        <ele>192</ele>
        <time>2023-11-19T11:00:09Z</time>
      </trkpt>
      <trkpt lat="43.58177" lon="1.30382">
        <ele>191.8</ele>
        <time>2023-11-19T11:00:10Z</time>
      </trkpt>
      <trkpt lat="43.58183" lon="1.304">
        <ele>191.8</ele>
        <time>2023-11-19T11:00:12Z</time>
      </trkpt>
      <trkpt lat="43.58192" lon="1.30418">
        <ele>191.6</ele>
        <time>2023-11-19T11:00:14Z</time>
      </trkpt>
      <trkpt lat="43.58201" lon="1.30436">
        <ele>191.4</ele>
        <time>2023-11-19T11:00:16Z</time>
      </trkpt>
      <trkpt lat="43.58235" lon="1.30498">
        <ele>191.2</ele>
        <time>2023-11-19T11:00:23Z</time>
      </trkpt>
      <trkpt lat="43.5824" lon="1.30507">
        <ele>191.4</ele>
        <time>2023-11-19T11:00:25Z</time>
      </trkpt>
      <trkpt lat="43.58273" lon="1.30569">
        <ele>191.4</ele>
        <time>2023-11-19T11:00:32Z</time>
      </trkpt>
      <trkpt lat="43.58287" lon="1.30594">
        <ele>191.4</ele>
        <time>2023-11-19T11:00:34Z</time>
      </trkpt>
      <trkpt lat="43.58314" lon="1.30659">
        <ele>191.4</ele>
        <time>2023-11-19T11:00:41Z</time>
      </trkpt>
      <trkpt lat="43.58314" lon="1.30659">
        <ele>191.4</ele>
        <time>2023-11-19T11:00:42Z</time>
      </trkpt>
      <trkpt lat="43.58321" lon="1.30678">
        <ele>191.4</ele>
        <time>2023-11-19T11:00:43Z</time>
      </trkpt>
      <trkpt lat="43.58329" lon="1.30707">
        <ele>191.4</ele>
        <time>2023-11-19T11:00:46Z</time>
      </trkpt>
      <trkpt lat="43.58353" lon="1.30767">
        <ele>191.4</ele>
        <time>2023-11-19T11:00:53Z</time>
      </trkpt>
      <trkpt lat="43.5838" lon="1.30828">
        <ele>191.6</ele>
        <time>2023-11-19T11:01:01Z</time>
      </trkpt>
      <trkpt lat="43.58422" lon="1.30904">
        <ele>191.2</ele>
        <time>2023-11-19T11:01:09Z</time>
      </trkpt>
      <trkpt lat="43.5846" lon="1.3097">
        <ele>191</ele>
        <time>2023-11-19T11:01:18Z</time>
      </trkpt>
      <trkpt lat="43.5848" lon="1.31005">
        <ele>191</ele>
        <time>2023-11-19T11:01:21Z</time>
      </trkpt>
      <trkpt lat="43.5851" lon="1.31065">
        <ele>190.6</ele>
        <time>2023-11-19T11:01:28Z</time>
      </trkpt>
      <trkpt lat="43.58518" lon="1.31083">
        <ele>190.4</ele>
        <time>2023-11-19T11:01:30Z</time>
      </trkpt>
      <trkpt lat="43.58545" lon="1.31143">
        <ele>190.2</ele>
        <time>2023-11-19T11:01:38Z</time>
      </trkpt>
      <trkpt lat="43.58554" lon="1.31158">
        <ele>190</ele>
        <time>2023-11-19T11:01:39Z</time>
      </trkpt>
      <trkpt lat="43.58565" lon="1.31171">
        <ele>190</ele>
        <time>2023-11-19T11:01:41Z</time>
      </trkpt>
      <trkpt lat="43.5857" lon="1.31178">
        <ele>190</ele>
        <time>2023-11-19T11:01:43Z</time>
      </trkpt>
      <trkpt lat="43.58588" lon="1.31213">
        <ele>189.6</ele>
        <time>2023-11-19T11:01:46Z</time>
      </trkpt>
      <trkpt lat="43.58601" lon="1.31253">
        <ele>189.4</ele>
        <time>2023-11-19T11:01:50Z</time>
      </trkpt>
      <trkpt lat="43.58602" lon="1.31264">
        <ele>189.4</ele>
        <time>2023-11-19T11:01:51Z</time>
      </trkpt>
      <trkpt lat="43.58604" lon="1.31336">
        <ele>189.6</ele>
        <time>2023-11-19T11:01:59Z</time>
      </trkpt>
      <trkpt lat="43.58612" lon="1.31429">
        <ele>190</ele>
        <time>2023-11-19T11:02:07Z</time>
      </trkpt>
      <trkpt lat="43.58612" lon="1.31429">
        <ele>190</ele>
        <time>2023-11-19T11:02:08Z</time>
      </trkpt>
      <trkpt lat="43.5862" lon="1.31506">
        <ele>190</ele>
        <time>2023-11-19T11:02:15Z</time>
      </trkpt>
      <trkpt lat="43.58623" lon="1.31538">
        <ele>190</ele>
        <time>2023-11-19T11:02:17Z</time>
      </trkpt>
      <trkpt lat="43.58631" lon="1.31632">
        <ele>189.2</ele>
        <time>2023-11-19T11:02:26Z</time>
      </trkpt>
      <trkpt lat="43.58632" lon="1.31643">
        <ele>189.2</ele>
        <time>2023-11-19T11:02:27Z</time>
      </trkpt>
      <trkpt lat="43.58639" lon="1.31717">
        <ele>189</ele>
        <time>2023-11-19T11:02:35Z</time>
      </trkpt>
      <trkpt lat="43.58642" lon="1.31737">
        <ele>189</ele>
        <time>2023-11-19T11:02:36Z</time>
      </trkpt>
      <trkpt lat="43.58652" lon="1.318">
        <ele>188.6</ele>
        <time>2023-11-19T11:02:44Z</time>
      </trkpt>
      <trkpt lat="43.5866" lon="1.31848">
        <ele>188.4</ele>
        <time>2023-11-19T11:02:50Z</time>
      </trkpt>
      <trkpt lat="43.58663" lon="1.31871">
        <ele>188.4</ele>
        <time>2023-11-19T11:02:52Z</time>
      </trkpt>
      <trkpt lat="43.58676" lon="1.31953">
        <ele>187.8</ele>
        <time>2023-11-19T11:03:02Z</time>
      </trkpt>
      <trkpt lat="43.58676" lon="1.3197">
        <ele>187.6</ele>
        <time>2023-11-19T11:03:05Z</time>
      </trkpt>
      <trkpt lat="43.58685" lon="1.31991">
        <ele>187.4</ele>
        <time>2023-11-19T11:03:07Z</time>
      </trkpt>
      <trkpt lat="43.58685" lon="1.32007">
        <ele>187.2</ele>
        <time>2023-11-19T11:03:10Z</time>
      </trkpt>
      <trkpt lat="43.58686" lon="1.32015">
        <ele>187.2</ele>
        <time>2023-11-19T11:03:11Z</time>
      </trkpt>
      <trkpt lat="43.58687" lon="1.32038">
        <ele>187</ele>
        <time>2023-11-19T11:03:14Z</time>
      </trkpt>
      <trkpt lat="43.58685" lon="1.32123">
        <ele>186.4</ele>
        <time>2023-11-19T11:03:23Z</time>
      </trkpt>
      <trkpt lat="43.58679" lon="1.32187">
        <ele>187</ele>
        <time>2023-11-19T11:03:32Z</time>
      </trkpt>
      <trkpt lat="43.58675" lon="1.3223">
        <ele>187.2</ele>
        <time>2023-11-19T11:03:38Z</time>
      </trkpt>
      <trkpt lat="43.58676" lon="1.32233">
        <ele>187.2</ele>
        <time>2023-11-19T11:03:39Z</time>
      </trkpt>
      <trkpt lat="43.58677" lon="1.32234">
        <ele>187.2</ele>
        <time>2023-11-19T11:03:40Z</time>
      </trkpt>
      <trkpt lat="43.58678" lon="1.32233">
        <ele>187</ele>
        <time>2023-11-19T11:03:42Z</time>
      </trkpt>
      <trkpt lat="43.5868" lon="1.3223">
        <ele>186.8</ele>
        <time>2023-11-19T11:03:45Z</time>
      </trkpt>
      <trkpt lat="43.5868" lon="1.3223">
        <ele>186.8</ele>
        <time>2023-11-19T11:03:47Z</time>
      </trkpt>
    </trkseg>
  </trk>
</gpx>